# Wetter Temperatur Luftdruck Luftfeuchtigkeit Sichtweite Windgeschwindigkeit Windrichtung Zeit
1 Thunderstorm 25 1010 50 10000 7 160 08:38 14.07.2020
2 Thunderstorm 25 1010 50 10000 7 160 08:20 14.07.2020
3 Clouds 28 1010 39 10000 5 160 07:44 14.07.2020
4 Clouds 28 1010 39 10000 5 150 07:19 14.07.2020
5 Clouds 27 1011 39 10000 5 140 06:57 14.07.2020
6 Clouds 26 1011 44 10000 4 150 06:26 14.07.2020
7 Clouds 26 1011 44 10000 4 150 05:50 14.07.2020
8 Clouds 25 1011 47 10000 2 0 04:52 14.07.2020
9 Clouds 23 1012 53 10000 3 40 04:33 14.07.2020
10 Clouds 21 1012 60 10000 4 40 03:29 14.07.2020
11 Clouds 16 1012 82 10000 2 0 02:27 14.07.2020
12 Clouds 16 1012 77 10000 2.04 104 01:41 14.07.2020
13 Clouds 16 1012 77 10000 1.82 98 01:22 14.07.2020
14 Clouds 15 1012 87 10000 1.82 98 00:42 14.07.2020
15 Clouds 15 1012 87 10000 1.86 99 00:22 14.07.2020
16 Clouds 14 1012 82 10000 1 0 23:39 13.07.2020
17 Clouds 14 1012 82 10000 1 0 23:19 13.07.2020
18 Clouds 13 1012 87 10000 1 0 22:57 13.07.2020
19 Clouds 12 1012 87 10000 1.94 95 22:39 13.07.2020
20 Clouds 12 1012 87 10000 1.61 98 22:19 13.07.2020
21 Clouds 14 1012 82 10000 1 0 21:54 13.07.2020
22 Clouds 15 1012 82 10000 1 0 21:36 13.07.2020
23 Clear 15 1012 82 10000 1 0 21:18 13.07.2020
24 Clear 15 1012 82 10000 1 0 21:18 13.07.2020
25 Clear 16 1012 77 10000 1 0 20:42 13.07.2020
26 Clear 16 1012 77 10000 1 0 20:23 13.07.2020
27 Clear 14 1012 87 10000 1 0 19:59 13.07.2020
28 Clear 14 1012 87 10000 1 0 19:41 13.07.2020
29 Clear 14 1012 87 10000 1 0 19:22 13.07.2020
30 Clear 16 1013 77 10000 2.01 95 18:56 13.07.2020
31 Clear 16 1013 77 10000 2.01 95 18:38 13.07.2020
32 Clear 16 1013 77 10000 2.01 95 18:38 13.07.2020
33 Clear 16 1012 77 10000 1 0 18:19 13.07.2020
34 Clear 16 1012 77 10000 1 0 17:43 13.07.2020
35 Clear 16 1012 77 10000 1 0 17:22 13.07.2020
36 Clear 19 1012 68 10000 1 0 16:59 13.07.2020
37 Clear 18 1012 68 10000 1 0 16:41 13.07.2020
38 Clear 18 1012 68 10000 1 0 16:20 13.07.2020
39 Clouds 18 1012 77 10000 2 190 15:57 13.07.2020
40 Clouds 20 1012 68 10000 1 0 15:38 13.07.2020
41 Clouds 20 1012 68 10000 1 0 15:20 13.07.2020
42 Clouds 21 1012 60 10000 2 0 14:57 13.07.2020
43 Clouds 24 1012 50 10000 2 320 14:39 13.07.2020
44 Clouds 24 1012 50 10000 2 320 14:20 13.07.2020
45 Clouds 25 1011 38 10000 2 290 13:43 13.07.2020
46 Clouds 25 1011 38 10000 2 290 13:22 13.07.2020
47 Clouds 25 1011 38 10000 2 290 12:57 13.07.2020
48 Clouds 26 1011 34 10000 2 0 12:39 13.07.2020
49 Clouds 26 1011 34 10000 2 0 12:21 13.07.2020
50 Clouds 25 1011 31 10000 2 0 11:46 13.07.2020
51 Clouds 25 1011 31 10000 2 0 11:27 13.07.2020
52 Clouds 25 1011 41 10000 2 0 10:59 13.07.2020
53 Clouds 25 1011 36 10000 3 330 10:37 13.07.2020
54 Clouds 25 1011 36 10000 3 330 10:19 13.07.2020
55 Clouds 25 1012 44 10000 4 330 09:41 13.07.2020
56 Clouds 25 1012 44 10000 4 330 09:23 13.07.2020
57 Clouds 25 1012 44 10000 2 0 08:51 13.07.2020
58 Clouds 24 1013 41 10000 2 0 08:32 13.07.2020
59 Clouds 23 1013 38 10000 2 0 07:34 13.07.2020
60 Clouds 23 1013 43 10000 1 0 06:55 13.07.2020
61 Clouds 23 1013 43 10000 1 0 06:37 13.07.2020
62 Clouds 20 1013 60 10000 2 0 06:19 13.07.2020
63 Rain 18 1014 72 10000 1 0 04:35 13.07.2020
64 Clouds 15 1013 77 10000 1 0 01:53 13.07.2020
65 Clouds 15 1013 77 10000 1 0 01:26 13.07.2020
66 Clouds 15 1013 77 10000 3 40 00:57 13.07.2020
67 Clouds 13 1012 87 10000 1 0 00:25 13.07.2020
68 Clouds 13 1012 87 10000 1 0 23:57 12.07.2020
69 Clouds 13 1012 87 10000 2 0 23:39 12.07.2020
70 Clouds 13 1012 87 10000 2 0 23:21 12.07.2020
71 Clouds 14 1012 82 10000 1 0 22:39 12.07.2020
72 Clouds 14 1012 82 10000 1 0 22:20 12.07.2020
73 Clouds 13 1012 87 10000 1.55 38 21:58 12.07.2020
74 Clouds 13 1012 87 10000 1.55 38 21:40 12.07.2020
75 Clouds 13 1012 87 10000 1.55 38 21:40 12.07.2020
76 Clouds 13 1012 87 10000 1.23 46 21:20 12.07.2020
77 Clouds 15 1012 82 10000 2 140 20:58 12.07.2020
78 Clouds 15 1012 82 10000 2 140 20:58 12.07.2020
79 Clouds 15 1012 82 10000 2 140 20:39 12.07.2020
80 Clouds 15 1012 82 10000 2 140 20:20 12.07.2020
81 Clouds 13 1011 87 10000 2 140 19:55 12.07.2020
82 Clouds 13 1011 87 10000 2 140 19:36 12.07.2020
83 Clouds 17 1012 77 10000 1 0 19:18 12.07.2020
84 Clouds 17 1012 77 10000 1 0 18:42 12.07.2020
85 Clouds 16 1011 82 10000 2 320 18:19 12.07.2020
86 Clouds 16 1011 82 10000 2 320 17:57 12.07.2020
87 Clouds 16 1011 82 10000 2 320 17:36 12.07.2020
88 Clouds 16 1011 82 10000 2 320 17:18 12.07.2020
89 Clouds 17 1011 77 10000 1 0 16:42 12.07.2020
90 Clouds 17 1011 77 10000 1 0 16:20 12.07.2020
91 Clouds 19 1011 68 10000 3 340 15:43 12.07.2020
92 Clouds 19 1011 68 10000 3 340 15:24 12.07.2020
93 Clouds 22 1010 53 10000 3 340 14:45 12.07.2020
94 Clouds 22 1010 53 10000 3 340 14:27 12.07.2020
95 Clouds 23 1010 43 10000 4 350 13:56 12.07.2020
96 Clouds 23 1010 43 10000 4 350 13:56 12.07.2020
97 Clouds 23 1010 43 10000 4 350 13:38 12.07.2020
98 Clouds 23 1010 43 10000 4 350 13:19 12.07.2020
99 Clouds 24 1009 47 10000 5 330 12:42 12.07.2020
100 Clouds 24 1009 47 10000 4 340 12:20 12.07.2020
101 Clouds 24 1009 47 10000 4 340 11:59 12.07.2020
102 Clouds 24 1009 47 10000 4 340 11:41 12.07.2020
103 Clouds 24 1009 47 10000 4 340 11:19 12.07.2020
104 Clouds 24 1009 47 10000 4 330 10:42 12.07.2020
105 Clouds 24 1009 47 10000 4 330 10:21 12.07.2020
106 Clouds 24 1010 47 10000 3 340 09:43 12.07.2020
107 Clouds 24 1010 47 10000 3 340 09:24 12.07.2020
108 Clouds 24 1010 41 10000 2 0 08:59 12.07.2020
109 Clouds 23 1010 46 10000 2 0 08:41 12.07.2020
110 Clouds 23 1010 46 10000 2 0 08:22 12.07.2020
111 Clouds 23 1010 46 10000 4 320 07:54 12.07.2020
112 Clouds 23 1010 46 10000 4 320 07:36 12.07.2020
113 Clouds 23 1010 46 10000 3 320 07:18 12.07.2020
114 Clouds 23 1010 46 10000 1 0 06:47 12.07.2020
115 Clouds 22 1010 49 10000 1 0 06:19 12.07.2020
116 Clouds 21 1010 56 10000 2 0 05:22 12.07.2020
117 Clouds 19 1010 63 10000 1 0 04:29 12.07.2020
118 Clouds 18 1010 68 10000 1 0 03:48 12.07.2020
119 Clear 17 1011 72 10000 1 0 03:28 12.07.2020
120 Clear 16 1010 72 10000 0.56 315 02:45 12.07.2020
121 Clouds 13 1010 87 10000 0.19 113 01:36 12.07.2020
122 Clouds 10 1010 93 10000 0.59 99 00:41 12.07.2020
123 Clouds 10 1010 93 10000 0.82 95 00:22 12.07.2020
124 Clouds 10 1010 93 10000 0.82 95 23:55 11.07.2020
125 Clouds 10 1010 93 10000 0.82 95 23:37 11.07.2020
126 Clouds 10 1010 93 10000 0.79 71 23:18 11.07.2020
127 Clouds 10 1009 93 10000 0.79 71 22:44 11.07.2020
128 Clouds 10 1009 93 10000 0.78 62 22:25 11.07.2020
129 Clouds 11 1009 87 10000 1 0 21:57 11.07.2020
130 Clouds 11 1009 87 10000 1 0 21:38 11.07.2020
131 Clouds 11 1009 87 10000 1 0 21:20 11.07.2020
132 Clouds 12 1009 87 10000 0.38 64 20:55 11.07.2020
133 Clouds 12 1009 87 10000 0.38 64 20:37 11.07.2020
134 Clouds 12 1009 87 10000 0.45 140 20:18 11.07.2020
135 Clouds 13 1009 87 10000 1 0 19:50 11.07.2020
136 Clouds 13 1009 87 10000 1 0 19:31 11.07.2020
137 Clouds 14 1008 82 10000 1 0 18:58 11.07.2020
138 Clouds 14 1008 82 10000 1 0 18:40 11.07.2020
139 Clouds 14 1008 82 10000 1 0 18:21 11.07.2020
140 Clouds 13 1008 87 10000 1 0 17:58 11.07.2020
141 Clouds 14 1008 87 10000 1 0 17:38 11.07.2020
142 Clouds 15 1008 82 10000 1 0 17:19 11.07.2020
143 Clouds 15 1008 82 10000 1 0 16:56 11.07.2020
144 Clouds 15 1008 87 10000 1 0 16:37 11.07.2020
145 Clouds 15 1008 87 10000 1 0 16:18 11.07.2020
146 Clouds 18 1007 72 10000 1 0 15:41 11.07.2020
147 Clouds 18 1007 72 10000 1 0 15:21 11.07.2020
148 Clouds 20 1007 60 10000 1 0 14:58 11.07.2020
149 Clouds 21 1007 52 10000 1 0 14:39 11.07.2020
150 Clouds 21 1007 52 10000 1 0 14:21 11.07.2020
151 Clouds 20 1006 60 10000 1 0 13:44 11.07.2020
152 Clouds 20 1006 60 10000 1 0 13:22 11.07.2020
153 Clouds 20 1006 60 10000 1 0 12:59 11.07.2020
154 Clouds 20 1006 60 10000 2 0 12:40 11.07.2020
155 Clouds 20 1006 60 10000 2 0 12:21 11.07.2020
156 Clouds 20 1006 64 10000 4 300 11:56 11.07.2020
157 Clouds 21 1006 52 10000 3 320 11:38 11.07.2020
158 Clouds 20 1005 52 10000 3 340 11:19 11.07.2020
159 Clouds 22 1006 53 10000 3 340 10:43 11.07.2020
160 Clouds 22 1006 53 10000 3 340 10:25 11.07.2020
161 Clouds 20 1005 56 10000 1 0 09:45 11.07.2020
162 Clouds 20 1005 56 10000 1 0 09:21 11.07.2020
163 Rain 20 1005 56 10000 3 330 08:59 11.07.2020
164 Clouds 20 1006 56 10000 4 360 08:37 11.07.2020
165 Clouds 20 1006 56 10000 4 360 08:18 11.07.2020
166 Clouds 20 1006 56 10000 3 330 07:41 11.07.2020
167 Clouds 19 1006 59 10000 3 330 07:20 11.07.2020
168 Clouds 19 1006 59 10000 3 330 06:56 11.07.2020
169 Clouds 19 1006 55 10000 3 270 06:22 11.07.2020
170 Clouds 18 1006 63 10000 2 0 05:22 11.07.2020
171 Clouds 17 1006 63 10000 2 0 04:55 11.07.2020
172 Clouds 17 1005 67 10000 3 330 04:32 11.07.2020
173 Clouds 15 1006 77 10000 2 0 03:24 11.07.2020
174 Clouds 14 1005 82 10000 2 0 02:38 11.07.2020
175 Clouds 13 1005 87 10000 1 0 01:37 11.07.2020
176 Clouds 13 1005 87 10000 1 0 01:18 11.07.2020
177 Clouds 13 1005 87 0 3 290 00:41 11.07.2020
178 Clouds 13 1005 87 0 3 290 00:22 11.07.2020
179 Clouds 13 1005 87 10000 2 290 23:57 10.07.2020
180 Clouds 13 1004 87 10000 2 280 23:39 10.07.2020
181 Clouds 13 1004 87 10000 2 280 23:19 10.07.2020
182 Clouds 13 1004 87 10000 3 310 22:45 10.07.2020
183 Clouds 13 1004 87 10000 3 310 22:21 10.07.2020
184 Clouds 13 1004 87 10000 3 330 21:56 10.07.2020
185 Clouds 13 1004 87 10000 3 330 21:36 10.07.2020
186 Clouds 13 1004 87 10000 3 330 21:18 10.07.2020
187 Clouds 13 1004 87 10000 4 290 20:41 10.07.2020
188 Clouds 13 1004 87 10000 4 290 20:23 10.07.2020
189 Clouds 13 1004 87 10000 2 280 19:57 10.07.2020
190 Clouds 13 1004 87 10000 2 280 19:57 10.07.2020
191 Clouds 13 1004 87 10000 2 280 19:39 10.07.2020
192 Clouds 14 1004 82 10000 1 0 19:20 10.07.2020
193 Clouds 14 1004 82 10000 1 0 18:42 10.07.2020
194 Clouds 14 1004 82 10000 1 0 18:21 10.07.2020
195 Clouds 14 1004 82 10000 3 330 17:58 10.07.2020
196 Clouds 14 1004 82 10000 3 330 17:39 10.07.2020
197 Clouds 14 1004 82 10000 3 330 17:21 10.07.2020
198 Clouds 14 1004 82 10000 4 320 16:43 10.07.2020
199 Clouds 14 1004 82 10000 4 320 16:21 10.07.2020
200 Clouds 14 1004 82 10000 5 330 15:49 10.07.2020
201 Clouds 15 1004 77 10000 5 330 15:27 10.07.2020
202 Clouds 15 1003 77 10000 5 350 15:00 10.07.2020
203 Clouds 15 1003 77 10000 5 340 14:40 10.07.2020
204 Clouds 15 1003 77 10000 5 340 14:20 10.07.2020
205 Clouds 15 1002 82 10000 4 330 13:58 10.07.2020
206 Clouds 15 1002 82 10000 5 350 13:38 10.07.2020
207 Clouds 15 1002 82 10000 6 350 13:20 10.07.2020
208 Clouds 15 1002 82 10000 6 350 12:56 10.07.2020
209 Clouds 14 1002 87 10000 5 330 12:37 10.07.2020
210 Clouds 14 1002 87 10000 5 330 12:19 10.07.2020
211 Rain 14 1002 87 10000 5 320 11:41 10.07.2020
212 Rain 14 1002 82 10000 5 330 11:21 10.07.2020
213 Rain 14 1002 82 10000 5 330 10:57 10.07.2020
214 Clouds 14 1002 82 10000 6 330 10:38 10.07.2020
215 Clouds 14 1002 82 10000 6 330 10:19 10.07.2020
216 Clouds 14 1002 82 10000 7 330 09:40 10.07.2020
217 Clouds 14 1002 82 10000 7 330 09:22 10.07.2020
218 Clouds 15 1002 77 10000 7 340 08:58 10.07.2020
219 Clouds 15 1002 77 10000 7 340 08:40 10.07.2020
220 Clouds 15 1001 77 10000 7 340 08:22 10.07.2020
221 Clouds 15 1001 77 10000 7 340 07:44 10.07.2020
222 Clouds 15 1001 77 10000 7 340 07:23 10.07.2020
223 Clouds 15 1001 77 10000 8 320 06:52 10.07.2020
224 Clouds 15 1001 82 10000 6 330 06:32 10.07.2020
225 Clouds 15 1001 77 10000 6 340 05:20 10.07.2020
226 Rain 14 1000 87 10000 2 350 03:43 10.07.2020
227 Rain 13 1000 87 10000 3 330 02:53 10.07.2020
228 Rain 13 1000 87 8000 4 280 01:53 10.07.2020
229 Rain 13 1000 87 6000 2 280 00:53 10.07.2020
230 Rain 13 1000 87 10000 5 340 00:22 10.07.2020
231 Clouds 13 999 87 10000 3 340 23:55 09.07.2020
232 Rain 13 999 87 10000 5 340 23:37 09.07.2020
233 Rain 13 999 87 10000 5 340 23:18 09.07.2020
234 Clouds 13 999 87 10000 5 350 22:55 09.07.2020
235 Clouds 14 999 82 10000 4 320 22:36 09.07.2020
236 Clouds 14 999 82 10000 4 320 22:18 09.07.2020
237 Clouds 14 999 82 10000 3 360 21:39 09.07.2020
238 Clouds 14 999 82 10000 3 360 21:19 09.07.2020
239 Clouds 14 999 82 0 5 330 20:58 09.07.2020
240 Clouds 14 999 82 0 5 330 20:39 09.07.2020
241 Clouds 14 999 82 0 5 330 20:21 09.07.2020
242 Clouds 13 999 87 10000 5 320 19:43 09.07.2020
243 Clouds 13 999 87 10000 5 320 19:21 09.07.2020
244 Clouds 13 999 87 10000 3 320 18:56 09.07.2020
245 Clouds 13 999 87 10000 3 320 18:38 09.07.2020
246 Clouds 14 999 76 10000 4 350 18:18 09.07.2020
247 Thunderstorm 14 999 76 10000 4 10 17:42 09.07.2020
248 Thunderstorm 14 999 76 10000 4 10 17:22 09.07.2020
249 Thunderstorm 15 999 72 10000 5 50 16:56 09.07.2020
250 Thunderstorm 14 999 82 10000 5 40 16:38 09.07.2020
251 Thunderstorm 14 999 82 10000 5 40 16:19 09.07.2020
252 Thunderstorm 14 999 82 10000 6 40 15:56 09.07.2020
253 Thunderstorm 14 999 82 10000 5 40 15:37 09.07.2020
254 Thunderstorm 14 999 82 10000 6 350 15:18 09.07.2020
255 Thunderstorm 14 999 82 10000 6 350 14:57 09.07.2020
256 Thunderstorm 15 999 77 10000 5 300 14:39 09.07.2020
257 Thunderstorm 15 999 77 10000 5 300 14:20 09.07.2020
258 Clouds 15 999 77 10000 3 30 13:56 09.07.2020
259 Clouds 15 998 82 10000 5 40 13:37 09.07.2020
260 Thunderstorm 15 999 82 10000 2 0 13:18 09.07.2020
261 Thunderstorm 15 998 82 10000 5 30 12:41 09.07.2020
262 Thunderstorm 15 998 82 10000 5 30 12:22 09.07.2020
263 Thunderstorm 16 998 82 10000 6 30 11:56 09.07.2020
264 Thunderstorm 16 998 82 10000 4 50 11:38 09.07.2020
265 Thunderstorm 16 998 82 10000 4 50 11:18 09.07.2020
266 Thunderstorm 16 998 82 10000 4 70 10:55 09.07.2020
267 Thunderstorm 15 997 87 8000 5 110 10:37 09.07.2020
268 Thunderstorm 15 997 87 8000 5 110 10:18 09.07.2020
269 Thunderstorm 23 996 49 10000 6 120 09:41 09.07.2020
270 Thunderstorm 23 996 49 10000 6 120 09:22 09.07.2020
271 Thunderstorm 23 996 49 10000 6 120 09:22 09.07.2020
272 Thunderstorm 24 997 44 10000 5 130 08:49 09.07.2020
273 Clouds 25 997 41 10000 6 120 08:26 09.07.2020
274 Clouds 25 998 44 10000 6 110 07:50 09.07.2020
275 Clouds 25 998 41 10000 7 140 07:26 09.07.2020
276 Clouds 23 999 49 10000 3 70 06:57 09.07.2020
277 Clouds 23 999 49 10000 3 70 06:20 09.07.2020
278 Clouds 22 999 53 10000 2 50 05:47 09.07.2020
279 Clouds 19 1001 63 10000 2 0 04:28 09.07.2020
280 Clouds 17 1001 72 10000 1 0 02:37 09.07.2020
281 Clouds 16 1000 82 10000 1 0 01:40 09.07.2020
282 Clouds 15 1000 87 10000 1 0 00:56 09.07.2020
283 Clouds 15 1000 87 10000 1 0 00:37 09.07.2020
284 Clouds 15 1000 82 10000 2 0 00:18 09.07.2020
285 Clouds 15 1000 82 10000 2 0 23:43 08.07.2020
286 Clouds 15 1000 82 10000 2 0 23:24 08.07.2020
287 Clouds 16 1000 77 10000 2 0 22:54 08.07.2020
288 Clouds 17 1000 72 10000 1 0 22:36 08.07.2020
289 Clouds 17 1000 72 10000 1 0 22:36 08.07.2020
290 Clouds 17 1000 72 10000 1 0 22:18 08.07.2020
291 Clouds 18 1000 63 10000 5 100 21:39 08.07.2020
292 Clouds 18 1000 63 10000 5 100 21:21 08.07.2020
293 Clouds 18 1000 68 10000 8 140 20:58 08.07.2020
294 Clouds 19 1001 59 0 5 130 20:39 08.07.2020
295 Clouds 19 1001 59 0 5 130 20:39 08.07.2020
296 Clouds 19 1001 59 0 5 130 20:21 08.07.2020
297 Clouds 18 1001 72 10000 2 0 19:43 08.07.2020
298 Clouds 18 1001 72 10000 2 0 19:25 08.07.2020
299 Clouds 20 1001 64 10000 2 0 18:58 08.07.2020
300 Clouds 20 1001 64 10000 2 0 18:40 08.07.2020
301 Clouds 20 1001 64 10000 2 0 18:20 08.07.2020
302 Rain 19 1001 68 10000 3 150 17:56 08.07.2020
303 Rain 19 1001 68 10000 3 150 17:37 08.07.2020
304 Rain 19 1001 68 10000 3 150 17:19 08.07.2020
305 Clouds 18 1001 77 10000 4 160 16:43 08.07.2020
306 Clouds 18 1001 77 10000 4 160 16:24 08.07.2020
307 Rain 20 1002 60 10000 1 0 15:59 08.07.2020
308 Clouds 21 1001 56 10000 3 150 15:41 08.07.2020
309 Clouds 21 1001 56 10000 3 150 15:20 08.07.2020
310 Clouds 23 1000 43 10000 6 230 14:59 08.07.2020
311 Clouds 23 999 46 10000 5 180 14:41 08.07.2020
312 Clouds 23 999 46 10000 5 180 14:19 08.07.2020
313 Thunderstorm 23 999 49 10000 6 200 13:45 08.07.2020
314 Thunderstorm 23 999 49 10000 6 200 13:26 08.07.2020
315 Clouds 26 998 39 10000 6 60 12:46 08.07.2020
316 Clouds 26 998 39 10000 6 60 12:22 08.07.2020
317 Clouds 26 998 39 10000 6 60 12:22 08.07.2020
318 Thunderstorm 28 999 34 10000 5 50 11:59 08.07.2020
319 Thunderstorm 26 999 31 10000 6 270 11:38 08.07.2020
320 Thunderstorm 26 999 31 10000 6 270 11:38 08.07.2020
321 Thunderstorm 26 999 31 10000 6 270 11:20 08.07.2020
322 Thunderstorm 29 999 26 10000 2 260 10:54 08.07.2020
323 Clouds 30 1000 25 10000 2 0 10:36 08.07.2020
324 Clouds 30 1000 25 10000 2 0 10:36 08.07.2020
325 Clouds 30 1000 25 10000 2 0 10:18 08.07.2020
326 Clouds 31 1000 25 10000 3 70 09:41 08.07.2020
327 Clouds 31 1000 25 10000 3 70 09:21 08.07.2020
328 Clouds 30 1002 27 10000 2 0 08:43 08.07.2020
329 Clouds 30 1002 27 10000 2 0 08:24 08.07.2020
330 Clouds 29 1003 28 10000 3 110 07:47 08.07.2020
331 Clouds 29 1003 26 10000 5 140 07:24 08.07.2020
332 Clouds 28 1003 30 10000 2 0 06:55 08.07.2020
333 Clouds 28 1003 28 10000 4 80 06:35 08.07.2020
334 Clouds 27 1004 34 10000 6 120 05:55 08.07.2020
335 Clouds 26 1004 41 10000 4 140 05:24 08.07.2020
336 Clouds 23 1005 46 10000 2 0 04:36 08.07.2020
337 Clouds 18 1005 68 10000 3 70 02:42 08.07.2020
338 Clouds 17 1004 72 10000 2 0 01:52 08.07.2020
339 Clouds 18 1004 63 10000 4 170 01:32 08.07.2020
340 Clouds 17 1005 72 10000 1 0 00:28 08.07.2020
341 Thunderstorm 17 1005 67 10000 3 190 23:59 07.07.2020
342 Thunderstorm 19 1005 55 10000 7 30 23:40 07.07.2020
343 Thunderstorm 19 1005 55 10000 7 30 23:19 07.07.2020
344 Thunderstorm 17 1006 67 10000 2 0 22:43 07.07.2020
345 Thunderstorm 17 1006 67 10000 2 0 22:24 07.07.2020
346 Thunderstorm 17 1005 63 10000 3 300 21:59 07.07.2020
347 Thunderstorm 21 1005 43 10000 3 120 21:40 07.07.2020
348 Thunderstorm 21 1005 43 10000 3 120 21:21 07.07.2020
349 Thunderstorm 18 1005 55 10000 1 0 20:57 07.07.2020
350 Thunderstorm 21 1006 43 10000 1 0 20:39 07.07.2020
351 Thunderstorm 21 1006 43 10000 1 0 20:21 07.07.2020
352 Clouds 21 1006 43 10000 3 140 19:41 07.07.2020
353 Clouds 23 1006 38 10000 2 0 19:21 07.07.2020
354 Clouds 23 1006 38 10000 2 0 18:58 07.07.2020
355 Clouds 22 1007 40 10000 4 100 18:40 07.07.2020
356 Clouds 22 1007 40 10000 4 100 18:21 07.07.2020
357 Clouds 22 1006 40 10000 7 130 17:58 07.07.2020
358 Clouds 22 1006 40 10000 9 130 17:38 07.07.2020
359 Clouds 22 1006 40 10000 9 130 17:20 07.07.2020
360 Clouds 23 1006 38 10000 7 140 16:43 07.07.2020
361 Clouds 23 1006 38 10000 7 140 16:24 07.07.2020
362 Clouds 23 1006 38 10000 7 150 15:58 07.07.2020
363 Clouds 23 1006 38 10000 7 130 15:39 07.07.2020
364 Clouds 23 1006 38 10000 7 130 15:20 07.07.2020
365 Clouds 24 1006 36 10000 7 130 14:47 07.07.2020
366 Clouds 24 1006 38 10000 8 130 14:26 07.07.2020
367 Clouds 25 1007 36 10000 4 130 13:59 07.07.2020
368 Clouds 25 1007 36 10000 2 0 13:38 07.07.2020
369 Clouds 25 1007 33 10000 3 100 13:18 07.07.2020
370 Clouds 25 1007 36 10000 4 140 12:40 07.07.2020
371 Clouds 26 1007 31 10000 6 150 12:22 07.07.2020
372 Clouds 26 1007 31 10000 6 150 11:50 07.07.2020
373 Clouds 26 1007 31 10000 7 140 11:26 07.07.2020
374 Thunderstorm 25 1007 36 10000 4 120 10:59 07.07.2020
375 Thunderstorm 26 1007 39 10000 5 130 10:41 07.07.2020
376 Thunderstorm 26 1007 39 10000 5 130 10:22 07.07.2020
377 Thunderstorm 27 1008 32 10000 8 160 09:59 07.07.2020
378 Clouds 29 1008 28 10000 6 140 09:38 07.07.2020
379 Clouds 29 1008 28 10000 6 140 09:20 07.07.2020
380 Clouds 29 1009 25 10000 5 190 08:42 07.07.2020
381 Clouds 29 1009 25 10000 5 190 08:23 07.07.2020
382 Clouds 28 1009 30 10000 7 150 07:45 07.07.2020
383 Clouds 28 1009 30 10000 7 150 07:23 07.07.2020
384 Clouds 28 1010 30 10000 6 190 06:49 07.07.2020
385 Clouds 28 1010 30 10000 6 190 06:30 07.07.2020
386 Clouds 26 1010 34 0 6 170 05:53 07.07.2020
387 Clear 25 1011 41 10000 6 160 05:22 07.07.2020
388 Clear 24 1011 41 10000 5 150 04:38 07.07.2020
389 Clear 22 1011 46 10000 4 150 03:35 07.07.2020
390 Clouds 18 1012 63 10000 2.36 124 02:27 07.07.2020
391 Clouds 15 1012 77 10000 1 0 01:23 07.07.2020
392 Clouds 12 1012 81 10000 2.47 106 00:43 07.07.2020
393 Clouds 12 1012 81 10000 2.1 102 00:24 07.07.2020
394 Clouds 11 1011 87 10000 1 0 23:55 06.07.2020
395 Clouds 11 1011 81 10000 1 0 23:37 06.07.2020
396 Clouds 11 1011 81 10000 1 0 23:18 06.07.2020
397 Clouds 12 1011 81 10000 1 0 22:41 06.07.2020
398 Clouds 12 1011 81 10000 1 0 22:41 06.07.2020
399 Clouds 12 1011 81 10000 1 0 22:20 06.07.2020
400 Clouds 13 1011 82 10000 1 0 21:57 06.07.2020
401 Clouds 12 1011 81 10000 2.27 101 21:39 06.07.2020
402 Clouds 12 1011 81 10000 2.27 101 21:39 06.07.2020
403 Clouds 12 1011 81 10000 2.15 102 21:19 06.07.2020
404 Clouds 13 1011 82 10000 2 240 20:59 06.07.2020
405 Clouds 13 1011 82 10000 2.15 102 20:38 06.07.2020
406 Clouds 13 1011 82 10000 2.02 100 20:20 06.07.2020
407 Clouds 13 1011 82 10000 1 0 19:56 06.07.2020
408 Clouds 13 1011 82 10000 1 0 19:38 06.07.2020
409 Clouds 13 1011 82 10000 1 0 19:20 06.07.2020
410 Clouds 13 1011 82 10000 1 0 18:55 06.07.2020
411 Clouds 15 1011 72 10000 2.16 100 18:36 06.07.2020
412 Clouds 15 1010 72 10000 1.66 105 18:18 06.07.2020
413 Clouds 14 1011 76 10000 1 0 17:41 06.07.2020
414 Clear 14 1011 76 10000 1 0 17:23 06.07.2020
415 Clear 17 1010 63 10000 1 0 16:55 06.07.2020
416 Clear 17 1010 67 10000 1 0 16:37 06.07.2020
417 Clear 17 1010 67 10000 1 0 16:18 06.07.2020
418 Clouds 21 1010 49 10000 3 60 15:42 06.07.2020
419 Clouds 21 1010 49 10000 3 60 15:24 06.07.2020
420 Clouds 23 1009 40 10000 2 50 14:57 06.07.2020
421 Clouds 23 1009 40 10000 2 30 14:37 06.07.2020
422 Clouds 23 1009 40 10000 2 30 14:19 06.07.2020
423 Clouds 24 1008 33 10000 2 0 13:46 06.07.2020
424 Clouds 24 1008 33 10000 2 0 13:27 06.07.2020
425 Clouds 24 1008 41 10000 3 50 12:57 06.07.2020
426 Clouds 23 1008 38 10000 2 150 12:39 06.07.2020
427 Clouds 24 1009 38 10000 4 150 12:18 06.07.2020
428 Clouds 24 1009 38 10000 4 150 11:57 06.07.2020
429 Clouds 25 1009 33 10000 3 120 11:37 06.07.2020
430 Clouds 25 1009 33 10000 3 120 11:18 06.07.2020
431 Thunderstorm 23 1009 38 10000 7 80 10:42 06.07.2020
432 Thunderstorm 23 1009 38 10000 7 80 10:42 06.07.2020
433 Thunderstorm 23 1009 38 10000 7 80 10:21 06.07.2020
434 Thunderstorm 24 1009 38 10000 4 350 09:56 06.07.2020
435 Clouds 24 1009 38 10000 2 0 09:38 06.07.2020
436 Clouds 24 1009 38 10000 2 0 09:20 06.07.2020
437 Clouds 24 1009 33 10000 2 0 08:41 06.07.2020
438 Clouds 24 1009 33 10000 2 0 08:23 06.07.2020
439 Clouds 23 1009 35 10000 2 0 07:54 06.07.2020
440 Clouds 24 1009 33 10000 2 0 07:36 06.07.2020
441 Clouds 23 1009 40 10000 2 0 06:57 06.07.2020
442 Clouds 23 1009 40 10000 2 0 06:39 06.07.2020
443 Clouds 22 1009 46 10000 2 0 06:19 06.07.2020
444 Clouds 20 1009 56 10000 2 0 05:29 06.07.2020
445 Clouds 19 1009 55 10000 1 0 04:36 06.07.2020
446 Clouds 16 1009 67 10000 1 0 02:58 06.07.2020
447 Clouds 15 1009 72 10000 1 0 02:19 06.07.2020
448 Clouds 14 1009 82 10000 1 0 00:59 06.07.2020
449 Clouds 12 1008 87 10000 2 190 00:32 06.07.2020
450 Clouds 12 1008 81 10000 2 170 23:59 05.07.2020
451 Clouds 11 1008 87 10000 2 170 23:40 05.07.2020
452 Clouds 11 1008 87 10000 2 170 23:22 05.07.2020
453 Clouds 11 1007 81 10000 1 0 22:58 05.07.2020
454 Clouds 13 1007 76 10000 1.47 27 22:38 05.07.2020
455 Clouds 13 1007 76 10000 1.59 25 22:19 05.07.2020
456 Clouds 15 1006 72 10000 2 50 21:56 05.07.2020
457 Clouds 15 1006 72 10000 2 50 21:37 05.07.2020
458 Clouds 15 1006 72 10000 2 50 21:18 05.07.2020
459 Clouds 14 1007 76 10000 1 0 20:42 05.07.2020
460 Clouds 14 1007 76 10000 1 0 20:24 05.07.2020
461 Clouds 14 1007 76 10000 1 0 19:58 05.07.2020
462 Clouds 14 1007 76 10000 1 0 19:40 05.07.2020
463 Clouds 14 1007 76 10000 1 0 19:20 05.07.2020
464 Clouds 14 1007 71 10000 1 0 18:55 05.07.2020
465 Clouds 14 1007 71 10000 1 0 18:36 05.07.2020
466 Clouds 15 1006 67 10000 3 320 18:18 05.07.2020
467 Clouds 15 1006 67 10000 3 320 17:42 05.07.2020
468 Clouds 15 1006 67 10000 3 320 17:42 05.07.2020
469 Clouds 15 1006 67 10000 3 320 17:19 05.07.2020
470 Clouds 16 1006 63 10000 2 360 16:45 05.07.2020
471 Clouds 17 1006 55 10000 2 30 16:26 05.07.2020
472 Clouds 17 1006 55 10000 3 30 15:59 05.07.2020
473 Clouds 18 1006 55 10000 4 360 15:39 05.07.2020
474 Clouds 18 1006 55 10000 4 360 15:19 05.07.2020
475 Clouds 19 1005 48 10000 4 60 14:42 05.07.2020
476 Clouds 19 1005 48 10000 4 60 14:23 05.07.2020
477 Clouds 19 1005 48 10000 3 40 13:58 05.07.2020
478 Clouds 19 1005 48 10000 3 10 13:40 05.07.2020
479 Clouds 19 1005 48 10000 3 10 13:20 05.07.2020
480 Thunderstorm 20 1006 52 10000 6 10 12:42 05.07.2020
481 Thunderstorm 20 1006 52 10000 6 10 12:20 05.07.2020
482 Clouds 21 1005 49 10000 6 330 11:55 05.07.2020
483 Clouds 21 1005 49 10000 2 320 11:37 05.07.2020
484 Clouds 21 1005 49 10000 2 320 11:18 05.07.2020
485 Clouds 21 1005 49 10000 5 280 10:42 05.07.2020
486 Clouds 21 1005 49 10000 5 280 10:21 05.07.2020
487 Clouds 23 1004 35 10000 3 360 09:59 05.07.2020
488 Thunderstorm 23 1005 38 10000 5 30 09:41 05.07.2020
489 Thunderstorm 23 1005 38 10000 5 30 09:20 05.07.2020
490 Thunderstorm 24 1004 31 10000 5 70 08:55 05.07.2020
491 Thunderstorm 23 1005 40 10000 6 70 08:37 05.07.2020
492 Thunderstorm 23 1005 40 10000 6 70 07:56 05.07.2020
493 Thunderstorm 22 1004 43 10000 6 60 07:30 05.07.2020
494 Thunderstorm 25 1005 36 10000 3 260 06:55 05.07.2020
495 Thunderstorm 25 1005 36 10000 3 260 06:25 05.07.2020
496 Rain 19 1007 55 10000 1 0 03:55 05.07.2020
497 Clouds 16 1007 63 10000 1 0 02:57 05.07.2020
498 Clouds 16 1007 67 10000 1 0 02:33 05.07.2020
499 Clouds 14 1007 71 10000 1 110 01:43 05.07.2020
500 Clouds 14 1007 71 10000 1 110 01:20 05.07.2020
501 Clouds 10 1007 87 10000 0.97 39 00:45 05.07.2020
502 Clouds 10 1007 87 10000 0.88 50 00:26 05.07.2020
503 Clouds 9 1007 87 10000 0.88 50 23:54 04.07.2020
504 Clouds 11 1007 87 10000 0.88 50 23:31 04.07.2020
505 Clouds 10 1007 87 10000 1 0 22:59 04.07.2020
506 Clouds 10 1007 87 10000 1 0 22:40 04.07.2020
507 Clouds 10 1007 87 10000 1 0 22:22 04.07.2020
508 Clouds 11 1007 81 10000 0.61 56 21:56 04.07.2020
509 Clouds 11 1007 81 10000 0.61 56 21:38 04.07.2020
510 Clouds 11 1007 81 10000 0.78 47 21:20 04.07.2020
511 Clouds 12 1007 81 10000 0.78 47 20:41 04.07.2020
512 Clouds 12 1007 81 10000 0.82 61 20:20 04.07.2020
513 Clouds 13 1007 82 10000 1 0 19:55 04.07.2020
514 Clouds 13 1007 82 10000 1 0 19:37 04.07.2020
515 Clouds 13 1007 82 10000 1 0 19:19 04.07.2020
516 Clouds 12 1007 81 10000 1 0 18:42 04.07.2020
517 Clouds 12 1007 87 10000 1 0 18:22 04.07.2020
518 Clouds 14 1008 76 10000 1 0 17:45 04.07.2020
519 Clouds 14 1008 76 10000 1 0 17:26 04.07.2020
520 Clouds 15 1007 77 10000 1 0 16:59 04.07.2020
521 Clouds 15 1007 77 10000 1 0 16:59 04.07.2020
522 Clouds 16 1007 72 10000 0.55 142 16:39 04.07.2020
523 Clouds 16 1007 72 10000 0.5 128 16:21 04.07.2020
524 Clouds 17 1008 72 10000 1 0 15:57 04.07.2020
525 Clouds 18 1008 63 10000 1 330 15:38 04.07.2020
526 Clouds 18 1008 63 10000 1 330 15:19 04.07.2020
527 Clouds 18 1007 63 10000 3 320 14:55 04.07.2020
528 Clouds 19 1007 55 10000 2 230 14:36 04.07.2020
529 Clouds 19 1007 55 10000 2 230 14:36 04.07.2020
530 Clouds 19 1007 55 10000 2 230 14:18 04.07.2020
531 Clouds 19 1007 55 10000 2 230 14:18 04.07.2020
532 Clouds 20 1008 52 10000 2 240 13:41 04.07.2020
533 Clouds 21 1008 52 10000 3 200 13:19 04.07.2020
534 Clouds 22 1008 49 10000 2 0 12:43 04.07.2020
535 Clouds 22 1008 49 10000 2 0 12:23 04.07.2020
536 Clouds 21 1008 49 10000 4 20 11:59 04.07.2020
537 Clouds 21 1007 43 10000 3 60 11:40 04.07.2020
538 Clouds 21 1007 43 10000 3 60 11:21 04.07.2020
539 Thunderstorm 20 1007 49 10000 6 20 10:42 04.07.2020
540 Thunderstorm 20 1007 49 10000 6 20 10:22 04.07.2020
541 Thunderstorm 22 1008 40 10000 9 30 09:59 04.07.2020
542 Thunderstorm 24 1008 36 10000 5 80 09:40 04.07.2020
543 Thunderstorm 24 1008 36 10000 5 80 09:20 04.07.2020
544 Thunderstorm 23 1008 38 10000 2 0 08:49 04.07.2020
545 Thunderstorm 24 1008 38 10000 2 0 08:30 04.07.2020
546 Clouds 23 1008 43 10000 1 0 07:54 04.07.2020
547 Clouds 23 1009 43 10000 2 0 07:35 04.07.2020
548 Clouds 22 1009 46 10000 2 0 06:56 04.07.2020
549 Clouds 22 1010 53 10000 2 0 06:23 04.07.2020
550 Clouds 21 1010 56 10000 1 0 05:40 04.07.2020
551 Clouds 21 1011 52 10000 1 0 04:55 04.07.2020
552 Clouds 18 1011 63 10000 1.31 142 03:19 04.07.2020
553 Clouds 15 1012 77 10000 2 0 02:27 04.07.2020
554 Clouds 14 1011 76 10000 1 0 01:35 04.07.2020
555 Clouds 12 1011 81 10000 1 0 00:45 04.07.2020
556 Clouds 12 1011 81 10000 1 0 00:26 04.07.2020
557 Clouds 10 1012 87 10000 1 0 23:41 03.07.2020
558 Clouds 10 1012 87 10000 1 0 23:19 03.07.2020
559 Clouds 10 1012 87 10000 2 0 22:59 03.07.2020
560 Clouds 10 1012 87 10000 2 0 22:39 03.07.2020
561 Clouds 10 1012 87 10000 2 0 22:21 03.07.2020
562 Clouds 11 1012 87 10000 1 0 21:54 03.07.2020
563 Clouds 11 1012 87 10000 1 0 21:36 03.07.2020
564 Clouds 11 1012 87 10000 1 0 21:18 03.07.2020
565 Clouds 13 1012 82 10000 3 310 20:42 03.07.2020
566 Clouds 13 1012 82 10000 3 310 20:23 03.07.2020
567 Clouds 14 1008 75 0 1.35 77 19:42 03.07.2020
568 Clouds 15 1012 77 10000 1 0 19:21 03.07.2020
569 Clouds 15 1012 77 10000 1 0 19:21 03.07.2020
570 Clouds 15 1012 77 10000 1 0 18:57 03.07.2020
571 Clouds 15 1012 77 10000 1 0 18:39 03.07.2020
572 Clouds 14 1012 82 10000 1 0 18:21 03.07.2020
573 Clouds 16 1012 72 10000 1 0 17:44 03.07.2020
574 Clouds 16 1012 72 10000 1 0 17:23 03.07.2020
575 Clouds 17 1012 72 10000 1 0 16:51 03.07.2020
576 Clouds 16 1012 77 10000 2 160 16:31 03.07.2020
577 Clouds 17 1012 72 10000 2 160 15:57 03.07.2020
578 Clouds 20 1012 52 10000 2 50 15:39 03.07.2020
579 Clouds 20 1012 52 10000 2 50 15:20 03.07.2020
580 Clouds 21 1012 49 10000 2 0 14:41 03.07.2020
581 Clouds 21 1012 49 10000 2 0 14:23 03.07.2020
582 Clouds 21 1012 56 10000 1 0 13:59 03.07.2020
583 Clouds 22 1011 49 10000 2 0 13:40 03.07.2020
584 Clouds 22 1011 49 10000 3 30 13:22 03.07.2020
585 Clouds 21 1011 56 10000 3 60 12:40 03.07.2020
586 Clouds 21 1012 49 10000 4 30 12:22 03.07.2020
587 Clouds 20 1012 56 10000 4 60 11:44 03.07.2020
588 Clouds 20 1012 56 10000 4 60 11:25 03.07.2020
589 Clouds 21 1012 49 10000 7 60 10:59 03.07.2020
590 Thunderstorm 23 1012 38 10000 3 130 10:41 03.07.2020
591 Thunderstorm 23 1012 38 10000 3 130 10:21 03.07.2020
592 Clouds 22 1012 43 10000 4 140 09:58 03.07.2020
593 Clouds 23 1012 38 10000 2 0 09:39 03.07.2020
594 Clouds 23 1012 38 10000 2 0 09:19 03.07.2020
595 Clouds 23 1012 40 10000 3 220 08:56 03.07.2020
596 Clouds 23 1013 46 10000 2 170 08:37 03.07.2020
597 Clouds 23 1013 46 10000 2 170 08:18 03.07.2020
598 Clouds 22 1013 49 10000 2 0 07:43 03.07.2020
599 Clouds 22 1013 49 10000 2 0 07:21 03.07.2020
600 Clouds 21 1013 52 10000 3 140 06:29 03.07.2020
601 Clouds 20 1014 60 10000 1 0 05:34 03.07.2020
602 Clouds 18 1015 68 10000 1 0 03:59 03.07.2020
603 Clouds 15 1015 82 10000 1 0 02:52 03.07.2020
604 Clouds 14 1015 82 10000 1 0 02:30 03.07.2020
605 Clouds 13 1014 87 10000 1.19 122 01:41 03.07.2020
606 Clouds 13 1014 87 10000 1.28 94 01:20 03.07.2020
607 Clouds 11 1014 93 10000 1 0 00:40 03.07.2020
608 Clouds 10 1014 93 10000 1 0 23:54 02.07.2020
609 Clouds 10 1014 87 10000 1 0 23:22 02.07.2020
610 Clouds 10 1014 87 10000 1 0 22:59 02.07.2020
611 Clouds 11 1014 87 10000 1 0 22:41 02.07.2020
612 Clouds 11 1014 87 10000 1 0 22:21 02.07.2020
613 Clouds 12 1014 87 10000 1.65 89 21:58 02.07.2020
614 Clouds 12 1014 87 10000 1.65 89 21:39 02.07.2020
615 Clouds 12 1014 87 10000 1.83 92 21:19 02.07.2020
616 Clouds 13 1014 82 10000 1.88 89 20:58 02.07.2020
617 Clouds 13 1014 82 10000 1.88 89 20:39 02.07.2020
618 Clouds 13 1014 82 10000 2.12 91 20:19 02.07.2020
619 Clouds 12 1014 81 10000 1 0 19:42 02.07.2020
620 Clouds 13 1014 82 10000 2 160 19:24 02.07.2020
621 Clouds 13 1014 82 10000 2 160 18:58 02.07.2020
622 Clouds 13 1014 82 10000 2 160 18:40 02.07.2020
623 Clouds 13 1014 82 10000 2 160 18:21 02.07.2020
624 Clouds 14 1014 82 10000 2.22 97 17:57 02.07.2020
625 Clouds 16 1014 72 10000 1 0 17:38 02.07.2020
626 Clouds 16 1014 72 10000 1 0 17:18 02.07.2020
627 Clouds 16 1014 72 0 1 0 16:42 02.07.2020
628 Clouds 16 1014 72 0 1 0 16:20 02.07.2020
629 Clouds 16 1013 77 10000 2 0 15:58 02.07.2020
630 Clouds 17 1013 72 10000 2.27 97 15:38 02.07.2020
631 Clouds 17 1013 72 10000 1.95 93 15:20 02.07.2020
632 Clouds 18 1013 59 10000 2 0 14:45 02.07.2020
633 Clouds 18 1013 59 10000 2 0 14:23 02.07.2020
634 Clouds 19 1013 59 10000 2 0 13:57 02.07.2020
635 Clouds 19 1012 55 10000 1 0 13:38 02.07.2020
636 Clouds 18 1012 68 10000 3 140 13:19 02.07.2020
637 Clouds 17 1013 72 10000 4 140 12:42 02.07.2020
638 Clouds 17 1013 72 10000 4 140 12:22 02.07.2020
639 Clouds 16 1013 77 10000 4 140 11:59 02.07.2020
640 Thunderstorm 16 1013 77 10000 2 0 11:40 02.07.2020
641 Thunderstorm 16 1013 77 10000 2 0 11:22 02.07.2020
642 Thunderstorm 18 1013 68 10000 6 300 10:44 02.07.2020
643 Thunderstorm 18 1013 68 10000 6 300 10:26 02.07.2020
644 Clouds 21 1012 46 10000 5 210 09:56 02.07.2020
645 Thunderstorm 21 1012 56 10000 6 180 09:37 02.07.2020
646 Thunderstorm 21 1012 56 10000 6 180 09:18 02.07.2020
647 Clouds 21 1012 52 10000 7 160 08:42 02.07.2020
648 Clouds 21 1012 52 10000 7 160 08:22 02.07.2020
649 Clouds 22 1013 46 10000 2 350 07:43 02.07.2020
650 Clouds 22 1013 46 10000 2 350 07:25 02.07.2020
651 Clouds 22 1013 40 10000 3 80 06:53 02.07.2020
652 Clouds 21 1013 46 10000 2 0 06:35 02.07.2020
653 Clouds 21 1013 43 10000 1 0 05:50 02.07.2020
654 Clouds 19 1014 55 10000 1 0 05:29 02.07.2020
655 Clouds 17 1015 67 10000 1 0 03:35 02.07.2020
656 Clouds 17 1014 67 10000 1 0 02:38 02.07.2020
657 Rain 13 1014 87 10000 1 0 00:46 02.07.2020
658 Rain 13 1014 87 10000 1 0 00:22 02.07.2020
659 Clouds 13 1014 82 10000 2 0 23:45 01.07.2020
660 Clouds 13 1014 82 10000 2 0 23:27 01.07.2020
661 Clouds 13 1014 82 10000 1 0 22:56 01.07.2020
662 Clouds 13 1014 82 10000 1 0 22:38 01.07.2020
663 Clouds 13 1014 82 10000 1 0 22:19 01.07.2020
664 Clouds 12 1013 87 10000 1 0 21:58 01.07.2020
665 Clouds 12 1013 87 10000 1 0 21:39 01.07.2020
666 Clouds 12 1013 87 10000 1 0 21:20 01.07.2020
667 Clouds 14 1013 76 10000 1 0 20:47 01.07.2020
668 Clouds 14 1013 76 10000 1 0 20:29 01.07.2020
669 Clouds 14 1013 76 10000 2 140 19:58 01.07.2020
670 Clouds 14 1013 76 10000 2 140 19:40 01.07.2020
671 Clouds 14 1013 76 10000 2 140 19:21 01.07.2020
672 Clouds 16 1013 63 10000 1 0 18:58 01.07.2020
673 Clouds 16 1013 63 10000 1 0 18:40 01.07.2020
674 Clouds 16 1013 63 10000 1 0 18:21 01.07.2020
675 Clouds 17 1013 59 10000 4 20 17:55 01.07.2020
676 Clouds 17 1013 59 10000 4 20 17:55 01.07.2020
677 Clouds 17 1013 63 10000 4 30 17:37 01.07.2020
678 Clouds 18 1013 59 10000 2 0 17:18 01.07.2020
679 Clouds 18 1013 59 10000 2 0 16:42 01.07.2020
680 Clouds 18 1013 59 10000 2 0 16:42 01.07.2020
681 Clouds 18 1013 59 10000 2 0 16:23 01.07.2020
682 Clouds 18 1013 59 10000 4 70 15:43 01.07.2020
683 Clouds 18 1013 59 10000 4 70 15:23 01.07.2020
684 Clouds 18 1013 59 10000 5 70 14:58 01.07.2020
685 Clouds 19 1013 59 10000 4 60 14:38 01.07.2020
686 Clouds 19 1013 59 10000 4 60 14:20 01.07.2020
687 Clouds 20 1012 49 10000 5 50 13:54 01.07.2020
688 Clouds 20 1012 49 10000 5 50 13:36 01.07.2020
689 Clouds 20 1012 49 10000 4 60 13:18 01.07.2020
690 Clouds 21 1012 49 10000 3 350 12:41 01.07.2020
691 Clouds 21 1012 49 10000 3 350 12:22 01.07.2020
692 Clouds 20 1012 45 10000 2 0 11:58 01.07.2020
693 Clouds 19 1012 55 10000 3 150 11:39 01.07.2020
694 Clouds 19 1012 55 10000 3 150 11:20 01.07.2020
695 Rain 17 1012 72 10000 4 150 10:43 01.07.2020
696 Rain 17 1012 72 10000 4 150 10:23 01.07.2020
697 Rain 18 1012 68 10000 5 140 09:59 01.07.2020
698 Clouds 20 1012 42 10000 5 350 09:38 01.07.2020
699 Clouds 20 1012 42 10000 5 350 09:20 01.07.2020
700 Clouds 20 1012 42 10000 5 350 09:20 01.07.2020
701 Clouds 21 1012 46 10000 4 320 08:56 01.07.2020
702 Clouds 21 1012 46 10000 3 360 08:38 01.07.2020
703 Clouds 21 1012 49 10000 3 340 08:18 01.07.2020
704 Rain 20 1013 52 10000 4 360 07:40 01.07.2020
705 Rain 20 1013 52 10000 4 360 07:21 01.07.2020
706 Rain 20 1013 52 10000 4 360 07:21 01.07.2020
707 Clouds 21 1013 49 10000 3 10 06:50 01.07.2020
708 Clouds 20 1013 45 10000 4 20 06:28 01.07.2020
709 Clouds 21 1013 46 10000 3 60 05:28 01.07.2020
710 Clouds 19 1014 52 10000 3 360 03:48 01.07.2020
711 Clouds 17 1014 63 10000 5 320 03:28 01.07.2020
712 Clouds 17 1014 59 10000 2 0 02:41 01.07.2020
713 Clouds 15 1014 67 10000 2 0 01:49 01.07.2020
714 Clouds 14 1014 67 10000 3 350 00:45 01.07.2020
715 Clouds 14 1014 67 10000 3 350 00:25 01.07.2020
716 Clouds 15 1013 62 10000 3 20 23:42 30.06.2020
717 Clouds 15 1013 62 10000 3 20 23:23 30.06.2020
718 Clouds 15 1014 62 10000 4 30 22:59 30.06.2020
719 Clouds 14 1014 67 10000 3 350 22:40 30.06.2020
720 Clouds 14 1014 67 10000 3 350 22:18 30.06.2020
721 Clouds 13 1014 71 10000 2 300 21:41 30.06.2020
722 Clouds 13 1014 71 10000 2 300 21:41 30.06.2020
723 Clouds 13 1014 71 10000 2 300 21:19 30.06.2020
724 Clouds 13 1014 71 10000 2 300 21:19 30.06.2020
725 Clouds 11 1014 87 10000 2 0 20:55 30.06.2020
726 Clouds 11 1014 87 10000 2 0 20:37 30.06.2020
727 Clouds 11 1014 87 10000 2 0 20:19 30.06.2020
728 Clouds 14 1014 67 10000 1 0 19:42 30.06.2020
729 Clouds 15 1014 72 10000 1.97 1 19:19 30.06.2020
730 Clouds 15 1014 72 10000 1.97 1 19:19 30.06.2020
731 Clouds 16 1014 59 10000 1 0 18:46 30.06.2020
732 Clouds 16 1014 59 10000 1 0 18:21 30.06.2020
733 Clouds 16 1015 63 10000 1 0 17:59 30.06.2020
734 Clouds 16 1015 63 10000 2 330 17:38 30.06.2020
735 Clouds 16 1015 63 10000 2 330 17:19 30.06.2020
736 Clouds 16 1014 59 10000 3 320 16:43 30.06.2020
737 Clouds 16 1014 59 10000 3 320 16:24 30.06.2020
738 Clear 16 1014 63 10000 2 320 15:59 30.06.2020
739 Clear 18 1014 48 10000 2 350 15:40 30.06.2020
740 Clear 18 1014 48 10000 2 350 15:40 30.06.2020
741 Clear 18 1014 48 10000 2 350 15:21 30.06.2020
742 Clouds 20 1013 37 10000 2 60 14:54 30.06.2020
743 Clouds 21 1013 37 10000 4 30 14:36 30.06.2020
744 Clouds 21 1013 37 10000 4 30 14:18 30.06.2020
745 Clouds 21 1013 35 10000 5 30 13:40 30.06.2020
746 Clouds 21 1014 35 10000 8 60 13:20 30.06.2020
747 Clouds 21 1014 35 10000 8 60 12:58 30.06.2020
748 Clouds 21 1014 35 10000 8 60 12:58 30.06.2020
749 Clouds 22 1013 37 10000 10 30 12:39 30.06.2020
750 Clouds 26 1012 26 10000 8 350 12:20 30.06.2020
751 Clouds 26 1012 26 10000 8 350 11:58 30.06.2020
752 Clouds 26 1012 26 10000 7 320 11:38 30.06.2020
753 Clouds 26 1012 26 10000 7 320 11:19 30.06.2020
754 Clouds 25 1012 27 10000 6 340 10:56 30.06.2020
755 Clouds 15 1008 77 10000 1 0 16:38 28.06.2020
756 Clouds 15 1008 77 10000 1 0 16:19 28.06.2020
757 Clouds 19 1008 55 10000 1 0 15:56 28.06.2020
758 Clouds 19 1008 52 10000 1 0 15:37 28.06.2020
759 Clouds 19 1008 52 10000 1 0 15:18 28.06.2020
760 Clouds 19 1008 52 10000 1 0 15:18 28.06.2020
761 Clouds 21 1007 46 10000 3 40 14:43 28.06.2020
762 Clouds 21 1007 46 10000 3 40 14:24 28.06.2020
763 Clouds 22 1007 43 10000 3 20 13:55 28.06.2020
764 Clouds 23 1007 40 10000 4 20 13:36 28.06.2020
765 Clouds 24 1007 33 10000 2 0 13:18 28.06.2020
766 Clouds 24 1007 33 10000 2 0 12:55 28.06.2020
767 Clouds 23 1007 38 10000 5 80 12:36 28.06.2020
768 Clouds 21 1007 46 10000 6 60 12:18 28.06.2020
769 Clouds 20 1008 56 10000 4 60 11:43 28.06.2020
770 Clouds 20 1008 56 10000 4 60 11:21 28.06.2020
771 Clouds 20 1008 56 10000 4 60 11:21 28.06.2020
772 Clouds 19 1008 55 10000 2 0 10:59 28.06.2020
773 Clouds 19 1008 55 10000 2 0 10:59 28.06.2020
774 Thunderstorm 18 1008 63 10000 5 330 10:40 28.06.2020
775 Thunderstorm 18 1008 63 10000 5 330 10:22 28.06.2020
776 Thunderstorm 18 1007 68 10000 10 290 09:42 28.06.2020
777 Thunderstorm 18 1007 68 10000 10 290 09:23 28.06.2020
778 Thunderstorm 26 1007 31 10000 1 0 08:57 28.06.2020
779 Clouds 25 1008 36 10000 1 0 08:38 28.06.2020
780 Clouds 25 1008 36 10000 1 0 08:20 28.06.2020
781 Clouds 25 1008 31 10000 2 300 07:33 28.06.2020
782 Clouds 26 1008 36 10000 1 0 06:56 28.06.2020
783 Clouds 26 1008 36 10000 1 0 06:32 28.06.2020
784 Clouds 23 1008 40 10000 3 40 05:45 28.06.2020
785 Clouds 22 1009 43 10000 1 0 04:27 28.06.2020
786 Clouds 19 1009 59 10000 1 0 02:57 28.06.2020
787 Clouds 20 1009 52 10000 1 0 02:21 28.06.2020
788 Clouds 18 1009 59 10000 1 0 01:30 28.06.2020
789 Clouds 17 1009 72 10000 2 270 00:56 28.06.2020
790 Clouds 17 1009 72 10000 2 270 00:30 28.06.2020
791 Clouds 17 1008 67 10000 2 0 23:58 27.06.2020
792 Clouds 18 1008 59 10000 1 0 23:39 27.06.2020
793 Clouds 18 1008 59 10000 1 0 23:19 27.06.2020
794 Clouds 19 1009 55 10000 5 80 22:42 27.06.2020
795 Clouds 19 1009 55 10000 5 80 22:23 27.06.2020
796 Clouds 17 1009 67 10000 3 270 21:59 27.06.2020
797 Clouds 17 1009 67 10000 3 270 21:40 27.06.2020
798 Clouds 17 1009 67 10000 3 270 21:20 27.06.2020
799 Clouds 16 1009 72 10000 1 0 20:55 27.06.2020
800 Clouds 16 1009 72 10000 1 0 20:37 27.06.2020
801 Clouds 16 1009 72 10000 1 0 20:18 27.06.2020
802 Clouds 16 1009 67 10000 2 0 19:37 27.06.2020
803 Clouds 20 1009 49 10000 2 0 19:19 27.06.2020
804 Clouds 20 1009 49 10000 2 0 18:48 27.06.2020
805 Clouds 20 1009 49 10000 2 0 18:28 27.06.2020
806 Clouds 19 1009 55 10000 2 0 17:59 27.06.2020
807 Clouds 19 1009 55 10000 2 0 17:40 27.06.2020
808 Clouds 19 1009 55 10000 2 0 17:20 27.06.2020
809 Clouds 20 1009 49 10000 5 120 16:56 27.06.2020
810 Clouds 20 1009 49 10000 4 150 16:38 27.06.2020
811 Clouds 20 1009 49 10000 4 150 16:18 27.06.2020
812 Clouds 23 1008 43 10000 3 190 15:42 27.06.2020
813 Clouds 23 1008 43 10000 3 190 15:23 27.06.2020
814 Clouds 23 1008 40 10000 4 140 14:55 27.06.2020
815 Clouds 24 1008 36 10000 4 130 14:37 27.06.2020
816 Clouds 24 1008 36 10000 4 130 14:18 27.06.2020
817 Clouds 26 1008 31 10000 5 140 13:39 27.06.2020
818 Clouds 26 1008 29 10000 4 140 13:20 27.06.2020
819 Clouds 26 1008 29 10000 4 140 12:58 27.06.2020
820 Clouds 27 1008 26 10000 4 150 12:40 27.06.2020
821 Clouds 27 1008 28 10000 4 150 12:21 27.06.2020
822 Clouds 27 1008 28 10000 4 150 11:55 27.06.2020
823 Clouds 27 1008 26 10000 3 150 11:37 27.06.2020
824 Clouds 27 1008 26 10000 3 150 11:18 27.06.2020
825 Clouds 27 1009 22 10000 2 0 10:39 27.06.2020
826 Clouds 27 1009 22 10000 2 0 10:19 27.06.2020
827 Rain 26 1009 26 10000 2 0 09:54 27.06.2020
828 Clouds 26 1009 26 10000 3 230 09:36 27.06.2020
829 Clouds 26 1009 26 10000 3 230 09:18 27.06.2020
830 Clouds 26 1010 29 10000 4 220 08:41 27.06.2020
831 Clouds 26 1010 29 10000 4 220 08:22 27.06.2020
832 Clouds 26 1010 29 10000 6 230 07:46 27.06.2020
833 Clouds 27 1010 26 10000 5 190 07:24 27.06.2020
834 Clouds 26 1010 27 10000 5 180 06:50 27.06.2020
835 Clouds 26 1010 27 10000 5 180 06:29 27.06.2020
836 Clouds 22 1012 49 10000 2 0 04:24 27.06.2020
837 Clouds 21 1012 46 10000 1 0 03:53 27.06.2020
838 Clouds 19 1012 55 10000 3 30 03:23 27.06.2020
839 Clouds 17 1012 63 10000 2 0 02:36 27.06.2020
840 Clouds 15 1012 72 10000 2 0 01:45 27.06.2020
841 Clouds 15 1012 72 10000 2 0 01:24 27.06.2020
842 Clouds 13 1012 76 10000 1 0 00:38 27.06.2020
843 Clear 12 1012 81 10000 1 0 23:46 26.06.2020
844 Clear 12 1012 81 10000 2 0 23:26 26.06.2020
845 Clear 12 1012 81 10000 1 0 22:57 26.06.2020
846 Clear 12 1012 81 10000 1 0 22:38 26.06.2020
847 Clouds 12 1012 81 10000 1 0 22:19 26.06.2020
848 Clouds 12 1012 81 10000 1 0 21:57 26.06.2020
849 Clouds 12 1012 81 10000 1 0 21:37 26.06.2020
850 Clouds 12 1012 81 10000 1 0 21:19 26.06.2020
851 Clouds 12 1011 81 10000 2 260 20:43 26.06.2020
852 Clouds 12 1011 81 10000 2 260 20:23 26.06.2020
853 Clouds 14 1011 76 10000 1.61 95 19:47 26.06.2020
854 Clouds 14 1011 76 10000 1.61 95 19:47 26.06.2020
855 Clouds 14 1011 76 10000 1 0 19:24 26.06.2020
856 Clouds 14 1011 76 10000 1 0 18:58 26.06.2020
857 Clouds 14 1011 76 10000 1.33 100 18:38 26.06.2020
858 Clouds 17 1011 63 10000 1 0 18:19 26.06.2020
859 Clouds 18 1011 55 10000 1.42 82 17:44 26.06.2020
860 Clear 18 1011 55 10000 1.59 69 17:25 26.06.2020
861 Clear 17 1011 59 10000 1 0 16:49 26.06.2020
862 Clear 16 1011 67 10000 3 140 16:27 26.06.2020
863 Clear 16 1011 77 10000 3 150 15:55 26.06.2020
864 Clouds 20 1011 60 10000 1 0 15:37 26.06.2020
865 Clouds 20 1011 60 10000 1 0 15:19 26.06.2020
866 Clouds 22 1011 43 10000 1 0 14:57 26.06.2020
867 Clouds 23 1011 31 10000 0.98 31 14:38 26.06.2020
868 Clouds 23 1011 31 10000 1.76 31 14:20 26.06.2020
869 Clouds 25 1011 27 10000 1 0 13:44 26.06.2020
870 Clouds 25 1011 27 10000 1 0 13:23 26.06.2020
871 Clouds 25 1011 27 10000 1 0 12:55 26.06.2020
872 Clouds 24 1010 29 10000 2 0 12:37 26.06.2020
873 Clouds 24 1010 29 10000 2 0 12:18 26.06.2020
874 Clouds 24 1010 29 10000 2 0 11:54 26.06.2020
875 Clouds 24 1010 31 10000 2 0 11:36 26.06.2020
876 Clouds 24 1010 31 10000 2 0 11:18 26.06.2020
877 Clouds 24 1010 31 10000 3 260 10:40 26.06.2020
878 Clouds 24 1010 31 10000 3 260 10:19 26.06.2020
879 Clouds 24 1010 36 10000 3 220 09:56 26.06.2020
880 Clouds 23 1011 38 10000 3 170 09:38 26.06.2020
881 Clouds 23 1011 38 10000 3 170 09:18 26.06.2020
882 Clouds 23 1011 38 10000 2 0 08:44 26.06.2020
883 Clouds 23 1011 38 10000 2 0 08:25 26.06.2020
884 Clouds 22 1012 40 10000 3 220 07:47 26.06.2020
885 Clouds 21 1012 40 10000 1 0 07:23 26.06.2020
886 Clouds 21 1012 40 10000 2 0 06:49 26.06.2020
887 Clouds 21 1012 40 10000 2 0 06:30 26.06.2020
888 Clouds 20 1012 52 10000 2 0 05:52 26.06.2020
889 Clouds 19 1012 52 10000 1 0 04:55 26.06.2020
890 Clear 14 1012 71 10000 0.38 265 02:32 26.06.2020
891 Clear 11 1012 87 10000 0.89 152 01:34 26.06.2020
892 Clouds 10 1012 93 10000 0.83 128 00:46 26.06.2020
893 Clouds 10 1012 93 10000 0.8 109 00:27 26.06.2020
894 Clouds 8 1012 93 10000 0.8 109 23:47 25.06.2020
895 Clouds 8 1012 87 10000 1 0 23:22 25.06.2020
896 Clouds 9 1012 93 10000 1.03 100 22:58 25.06.2020
897 Clouds 8 1011 93 10000 1.03 100 22:39 25.06.2020
898 Clouds 8 1011 93 10000 1.17 93 22:20 25.06.2020
899 Clouds 10 1012 87 10000 2 0 21:57 25.06.2020
900 Clouds 9 1012 87 10000 1.17 93 21:39 25.06.2020
901 Clouds 9 1012 87 10000 1.05 96 21:20 25.06.2020
902 Clouds 9 1012 93 10000 1 0 20:57 25.06.2020
903 Clouds 9 1012 93 10000 1 0 20:37 25.06.2020
904 Clouds 9 1012 93 10000 1 0 20:19 25.06.2020
905 Clouds 10 1011 93 10000 1 0 19:41 25.06.2020
906 Clouds 10 1011 93 10000 1 0 19:20 25.06.2020
907 Clouds 11 1011 87 10000 1 0 18:59 25.06.2020
908 Clouds 11 1011 87 10000 1 0 18:39 25.06.2020
909 Clouds 11 1011 87 10000 1 0 18:20 25.06.2020
910 Clouds 13 1011 82 10000 1 0 17:44 25.06.2020
911 Clouds 13 1011 82 10000 1 0 17:20 25.06.2020
912 Clouds 12 1010 87 10000 2 0 16:58 25.06.2020
913 Clouds 14 1010 71 10000 1 0 16:37 25.06.2020
914 Clouds 14 1010 71 10000 1 0 16:19 25.06.2020
915 Clouds 16 1010 63 10000 3 20 15:43 25.06.2020
916 Clouds 16 1010 63 10000 3 20 15:24 25.06.2020
917 Clouds 17 1010 59 10000 2 0 14:54 25.06.2020
918 Clouds 17 1009 59 10000 2 0 14:36 25.06.2020
919 Clouds 17 1009 59 10000 2 0 14:18 25.06.2020
920 Clouds 17 1009 63 10000 7 50 13:42 25.06.2020
921 Clouds 17 1009 63 10000 7 50 13:20 25.06.2020
922 Thunderstorm 18 1009 59 10000 7 50 12:58 25.06.2020
923 Clouds 19 1008 52 10000 8 50 12:40 25.06.2020
924 Thunderstorm 20 1008 49 10000 2 0 12:19 25.06.2020
925 Thunderstorm 21 1008 43 10000 2 0 11:42 25.06.2020
926 Thunderstorm 21 1008 43 10000 2 0 11:22 25.06.2020
927 Thunderstorm 18 1008 63 10000 3 320 10:44 25.06.2020
928 Thunderstorm 18 1008 63 10000 3 320 10:26 25.06.2020
929 Thunderstorm 19 1008 42 10000 3 60 09:58 25.06.2020
930 Clouds 19 1008 42 10000 6 10 09:40 25.06.2020
931 Clouds 19 1008 42 10000 6 10 09:18 25.06.2020
932 Thunderstorm 19 1008 52 10000 2 0 08:43 25.06.2020
933 Thunderstorm 19 1008 52 10000 2 0 08:19 25.06.2020
934 Clouds 18 1009 55 10000 6 350 07:44 25.06.2020
935 Clouds 19 1009 52 10000 3 300 07:26 25.06.2020
936 Clouds 19 1009 52 10000 3 290 06:45 25.06.2020
937 Clouds 19 1009 55 10000 2 0 06:25 25.06.2020
938 Clouds 18 1009 59 10000 2 0 05:40 25.06.2020
939 Clouds 15 1010 72 10000 4 340 03:55 25.06.2020
940 Clouds 15 1010 72 10000 3 20 03:25 25.06.2020
941 Clouds 13 1009 82 10000 3 300 02:41 25.06.2020
942 Clouds 12 1009 81 10000 1 0 01:43 25.06.2020
943 Clouds 9 1009 93 10000 1 0 00:59 25.06.2020
944 Clouds 9 1009 93 10000 1 0 00:26 25.06.2020
945 Clouds 7 1009 93 10000 1 0 23:59 24.06.2020
946 Clouds 8 1009 93 10000 1 0 23:39 24.06.2020
947 Clouds 8 1009 93 10000 1 0 23:21 24.06.2020
948 Clouds 8 1009 87 10000 2 150 22:55 24.06.2020
949 Clouds 10 1009 87 10000 1 0 22:36 24.06.2020
950 Clouds 10 1009 87 10000 1 0 22:18 24.06.2020
951 Clouds 10 1009 87 10000 1 0 21:54 24.06.2020
952 Clouds 10 1008 87 10000 1 0 21:36 24.06.2020
953 Clouds 10 1008 87 10000 1 0 21:18 24.06.2020
954 Clouds 10 1008 87 10000 1 0 20:55 24.06.2020
955 Clouds 10 1008 87 10000 1 0 20:37 24.06.2020
956 Clouds 10 1008 87 10000 1 0 20:18 24.06.2020
957 Clouds 10 1009 87 10000 1 0 19:39 24.06.2020
958 Clouds 10 1009 87 10000 1 0 19:21 24.06.2020
959 Clouds 10 1008 93 10000 2 10 18:59 24.06.2020
960 Clouds 10 1008 87 10000 1.74 359 18:40 24.06.2020
961 Clouds 11 1008 81 10000 1 0 18:22 24.06.2020
962 Clouds 11 1008 81 10000 1 0 17:56 24.06.2020
963 Clouds 11 1008 87 10000 1 0 17:38 24.06.2020
964 Clouds 11 1008 87 10000 1 0 17:19 24.06.2020
965 Clouds 11 1008 87 10000 2 90 16:56 24.06.2020
966 Rain 11 1008 93 10000 1 0 16:38 24.06.2020
967 Rain 11 1008 93 10000 1 0 16:20 24.06.2020
968 Rain 12 1008 81 10000 1 0 15:56 24.06.2020
969 Rain 12 1008 81 10000 1 0 15:37 24.06.2020
970 Clouds 12 1008 76 10000 2.51 359 15:19 24.06.2020
971 Clouds 12 1008 81 10000 1 0 14:42 24.06.2020
972 Clouds 12 1008 81 10000 1 0 14:24 24.06.2020
973 Clouds 12 1008 81 10000 1 0 13:43 24.06.2020
974 Clouds 12 1007 81 10000 2 0 13:22 24.06.2020
975 Thunderstorm 13 1006 82 10000 3 140 12:56 24.06.2020
976 Thunderstorm 13 1006 82 10000 3 140 12:37 24.06.2020
977 Thunderstorm 14 1006 76 10000 2 190 12:18 24.06.2020
978 Thunderstorm 14 1006 76 10000 2 190 11:54 24.06.2020
979 Thunderstorm 14 1006 82 10000 4 210 11:36 24.06.2020
980 Thunderstorm 14 1006 82 10000 4 210 11:36 24.06.2020
981 Thunderstorm 14 1006 76 10000 3 180 11:18 24.06.2020
982 Clouds 14 1006 71 10000 2 100 10:41 24.06.2020
983 Clouds 14 1005 76 10000 1 0 10:18 24.06.2020
984 Clouds 13 1005 82 10000 2 0 09:42 24.06.2020
985 Clouds 13 1005 82 10000 2 0 09:21 24.06.2020
986 Thunderstorm 13 1005 76 8000 3 100 08:43 24.06.2020
987 Thunderstorm 16 1004 63 10000 5 360 08:21 24.06.2020
988 Thunderstorm 16 1004 63 10000 5 360 07:51 24.06.2020
989 Thunderstorm 16 1004 63 10000 5 360 07:31 24.06.2020
990 Clouds 17 1004 55 10000 7 340 06:51 24.06.2020
991 Clouds 16 1005 63 10000 2 0 06:25 24.06.2020
992 Clouds 16 1005 63 10000 2 0 05:56 24.06.2020
993 Clouds 13 1006 71 10000 1 0 04:46 24.06.2020
994 Clouds 13 1006 71 10000 1 0 04:27 24.06.2020
995 Clouds 11 1006 81 10000 2 60 03:34 24.06.2020
996 Clouds 11 1006 81 10000 2 280 02:45 24.06.2020
997 Rain 10 1006 87 10000 1 0 01:35 24.06.2020
998 Rain 11 1006 87 10000 2 0 00:47 24.06.2020
999 Rain 11 1006 87 10000 2 0 00:27 24.06.2020
1000 Rain 11 1006 81 10000 5 210 23:44 23.06.2020
1001 Rain 11 1006 81 10000 5 210 23:19 23.06.2020
1002 Clouds 11 1005 87 10000 1 0 22:42 23.06.2020
1003 Rain 11 1005 87 10000 2 150 22:19 23.06.2020
1004 Rain 11 1005 87 10000 2 150 21:59 23.06.2020
1005 Rain 11 1006 81 10000 2 170 21:40 23.06.2020
1006 Rain 11 1006 81 10000 2 170 21:19 23.06.2020
1007 Clouds 12 1006 76 10000 3 230 20:55 23.06.2020
1008 Clouds 12 1006 76 10000 3 230 20:37 23.06.2020
1009 Clouds 12 1006 76 10000 6 220 20:18 23.06.2020
1010 Clouds 12 1006 76 10000 6 220 20:18 23.06.2020
1011 Clouds 13 1004 66 10000 3 70 19:44 23.06.2020
1012 Clouds 13 1004 66 10000 3 70 19:25 23.06.2020
1013 Clouds 14 1004 54 10000 7 360 18:42 23.06.2020
1014 Clouds 14 1004 54 10000 7 360 18:42 23.06.2020
1015 Rain 13 1004 62 10000 14 360 18:19 23.06.2020
1016 Rain 13 1004 62 10000 14 360 17:56 23.06.2020
1017 Rain 12 1007 76 10000 5 300 17:38 23.06.2020
1018 Rain 12 1007 76 10000 5 300 17:19 23.06.2020
1019 Rain 12 1008 76 10000 4 40 16:55 23.06.2020
1020 Thunderstorm 12 1007 76 10000 4 70 16:36 23.06.2020
1021 Thunderstorm 11 1007 81 8000 5 210 16:18 23.06.2020
1022 Thunderstorm 13 1006 71 3600 15 220 15:43 23.06.2020
1023 Thunderstorm 13 1006 71 3600 15 220 15:24 23.06.2020
1024 Thunderstorm 17 1003 59 10000 4 350 14:56 23.06.2020
1025 Thunderstorm 17 1003 59 10000 4 350 14:37 23.06.2020
1026 Rain 16 1003 67 10000 6 310 14:18 23.06.2020
1027 Clouds 20 1003 37 10000 3 40 13:45 23.06.2020
1028 Clouds 20 1003 37 10000 4 40 13:26 23.06.2020
1029 Clouds 20 1003 37 10000 4 40 12:59 23.06.2020
1030 Clouds 21 1002 30 10000 4 20 12:39 23.06.2020
1031 Clouds 21 1003 30 10000 4 60 12:19 23.06.2020
1032 Clouds 20 1003 37 10000 6 60 11:43 23.06.2020
1033 Clouds 20 1003 37 10000 6 60 11:23 23.06.2020
1034 Clouds 19 1004 48 10000 6 60 10:58 23.06.2020
1035 Clouds 19 1005 45 10000 5 60 10:40 23.06.2020
1036 Clouds 19 1005 45 10000 5 60 10:22 23.06.2020
1037 Clouds 18 1005 52 10000 5 20 09:57 23.06.2020
1038 Clouds 17 1005 55 10000 3 10 09:38 23.06.2020
1039 Clouds 17 1005 55 10000 3 10 09:19 23.06.2020
1040 Clouds 16 1005 63 10000 8 320 08:46 23.06.2020
1041 Clouds 16 1005 63 10000 8 320 08:26 23.06.2020
1042 Clouds 15 1006 67 10000 9 280 07:47 23.06.2020
1043 Thunderstorm 15 1005 72 10000 8 270 07:24 23.06.2020
1044 Thunderstorm 23 1003 31 10000 2 0 06:53 23.06.2020
1045 Thunderstorm 23 1003 31 10000 2 0 06:32 23.06.2020
1046 Clouds 21 1004 37 10000 2 0 05:56 23.06.2020
1047 Clouds 20 1004 37 10000 2 0 04:52 23.06.2020
1048 Clouds 17 1004 55 10000 3 30 03:21 23.06.2020
1049 Clouds 15 1005 62 10000 3 20 02:48 23.06.2020
1050 Clouds 15 1005 62 10000 3 20 02:29 23.06.2020
1051 Clouds 13 1005 76 10000 1 0 01:46 23.06.2020
1052 Clouds 12 1005 81 10000 1 0 01:22 23.06.2020
1053 Clouds 12 1006 81 10000 1 0 00:41 23.06.2020
1054 Clouds 12 1006 81 10000 3 350 00:20 23.06.2020
1055 Clouds 11 1005 81 10000 1 0 23:39 22.06.2020
1056 Clouds 11 1005 81 10000 1 0 23:19 22.06.2020
1057 Clouds 11 1005 81 10000 1 0 22:59 22.06.2020
1058 Clouds 14 1005 67 10000 4 40 22:41 22.06.2020
1059 Clouds 14 1005 67 10000 4 40 22:20 22.06.2020
1060 Clouds 14 1005 71 10000 3 40 21:59 22.06.2020
1061 Clouds 14 1006 71 10000 3 30 21:40 22.06.2020
1062 Clouds 14 1006 71 10000 3 30 21:21 22.06.2020
1063 Rain 14 1006 76 10000 1 0 20:58 22.06.2020
1064 Rain 14 1007 76 10000 4 300 20:39 22.06.2020
1065 Rain 14 1007 76 10000 4 300 20:20 22.06.2020
1066 Clouds 13 1007 76 10000 2 0 19:44 22.06.2020
1067 Clouds 13 1007 76 10000 2 0 19:19 22.06.2020
1068 Clouds 14 1006 67 10000 1 0 18:57 22.06.2020
1069 Clouds 14 1006 67 10000 1 0 18:37 22.06.2020
1070 Clear 14 1005 67 10000 2 0 18:18 22.06.2020
1071 Clear 14 1005 67 10000 2 0 17:55 22.06.2020
1072 Clear 16 1005 59 10000 4 10 17:37 22.06.2020
1073 Clear 16 1005 59 10000 3 10 17:18 22.06.2020
1074 Clear 18 1006 48 10000 3 30 16:42 22.06.2020
1075 Clear 18 1006 48 10000 2 60 16:18 22.06.2020
1076 Clear 18 1006 48 10000 2 60 15:57 22.06.2020
1077 Clear 19 1006 45 10000 3 30 15:39 22.06.2020
1078 Clear 19 1006 45 10000 3 30 15:21 22.06.2020
1079 Clouds 20 1005 42 10000 4 340 14:39 22.06.2020
1080 Clouds 21 1005 40 10000 4 350 14:20 22.06.2020
1081 Clouds 21 1005 40 10000 4 350 13:56 22.06.2020
1082 Clouds 21 1005 40 10000 5 350 13:37 22.06.2020
1083 Clouds 21 1005 40 10000 4 360 13:19 22.06.2020
1084 Clouds 21 1005 40 10000 5 340 12:42 22.06.2020
1085 Clouds 21 1005 40 10000 5 340 12:42 22.06.2020
1086 Clouds 21 1005 40 10000 5 340 12:23 22.06.2020
1087 Clouds 21 1005 40 10000 4 360 11:57 22.06.2020
1088 Clouds 22 1005 37 10000 5 330 11:37 22.06.2020
1089 Clouds 21 1005 40 10000 5 340 11:18 22.06.2020
1090 Clouds 21 1005 40 10000 5 340 10:54 22.06.2020
1091 Clouds 21 1005 40 10000 5 320 10:36 22.06.2020
1092 Clouds 21 1005 40 10000 5 320 10:18 22.06.2020
1093 Clouds 20 1005 45 10000 4 350 09:41 22.06.2020
1094 Clouds 22 1006 37 10000 5 340 09:20 22.06.2020
1095 Clouds 22 1006 37 10000 5 340 09:20 22.06.2020
1096 Clouds 22 1006 37 10000 5 340 08:58 22.06.2020
1097 Clouds 20 1006 42 10000 6 350 08:38 22.06.2020
1098 Clouds 20 1006 42 10000 6 350 08:20 22.06.2020
1099 Clouds 20 1006 42 10000 6 330 07:50 22.06.2020
1100 Clouds 20 1006 42 10000 6 330 07:31 22.06.2020
1101 Clouds 19 1006 45 10000 5 340 06:44 22.06.2020
1102 Clouds 19 1006 45 10000 5 340 06:26 22.06.2020
1103 Clouds 19 1006 45 10000 4 330 05:53 22.06.2020
1104 Clouds 17 1006 59 10000 4 290 04:59 22.06.2020
1105 Clouds 15 1006 77 10000 2 0 02:54 22.06.2020
1106 Clouds 13 1006 82 10000 2 0 01:25 22.06.2020
1107 Clouds 13 1006 87 10000 1 0 00:41 22.06.2020
1108 Clouds 13 1006 87 10000 2 250 23:59 21.06.2020
1109 Clouds 12 1006 93 10000 0.5 230 23:39 21.06.2020
1110 Clouds 12 1006 93 10000 0.74 236 23:21 21.06.2020
1111 Clouds 13 1006 87 10000 0.74 236 22:57 21.06.2020
1112 Clouds 13 1006 87 10000 0.74 236 22:37 21.06.2020
1113 Clouds 13 1006 87 10000 0.62 252 22:19 21.06.2020
1114 Clouds 13 1006 87 10000 0.62 252 21:57 21.06.2020
1115 Clouds 13 1006 87 10000 0.62 252 21:39 21.06.2020
1116 Clouds 13 1006 87 10000 0.62 252 21:39 21.06.2020
1117 Clouds 13 1006 87 10000 0.99 256 21:21 21.06.2020
1118 Clouds 13 1006 87 10000 2 280 20:58 21.06.2020
1119 Clouds 13 1006 87 10000 2 280 20:37 21.06.2020
1120 Clouds 13 1005 87 10000 0.5 246 20:18 21.06.2020
1121 Clouds 13 1005 87 10000 0.5 246 20:18 21.06.2020
1122 Clouds 13 1005 87 10000 0.5 246 19:56 21.06.2020
1123 Clouds 13 1005 87 10000 0.5 246 19:38 21.06.2020
1124 Clouds 14 1006 87 10000 1 0 19:19 21.06.2020
1125 Clouds 14 1006 87 10000 1 0 18:40 21.06.2020
1126 Clouds 14 1006 87 10000 1 0 18:22 21.06.2020
1127 Clouds 15 1006 77 10000 1 0 17:59 21.06.2020
1128 Clouds 15 1006 77 10000 2 80 17:39 21.06.2020
1129 Clouds 15 1006 77 10000 1.52 230 17:20 21.06.2020
1130 Clouds 15 1006 77 10000 1 0 16:43 21.06.2020
1131 Clouds 15 1006 77 10000 1 0 16:23 21.06.2020
1132 Clouds 15 1006 77 10000 2 0 15:57 21.06.2020
1133 Clouds 15 1006 77 10000 2 350 15:37 21.06.2020
1134 Clouds 15 1006 82 10000 3 330 15:19 21.06.2020
1135 Clouds 15 1005 82 10000 3 310 14:39 21.06.2020
1136 Clouds 15 1005 82 10000 3 310 14:20 21.06.2020
1137 Clouds 16 1005 77 10000 3 330 13:58 21.06.2020
1138 Rain 16 1005 77 10000 5 320 13:40 21.06.2020
1139 Thunderstorm 16 1004 82 10000 6 310 13:19 21.06.2020
1140 Rain 17 1004 77 10000 5 290 12:45 21.06.2020
1141 Rain 17 1004 77 10000 5 290 12:26 21.06.2020
1142 Rain 19 1003 63 10000 4 280 11:59 21.06.2020
1143 Clouds 19 1003 59 10000 3 20 11:41 21.06.2020
1144 Clouds 19 1003 59 10000 3 20 11:23 21.06.2020
1145 Clouds 19 1003 63 0 3 360 10:57 21.06.2020
1146 Clouds 19 1003 63 10000 3 30 10:38 21.06.2020
1147 Clouds 19 1003 63 10000 3 30 10:20 21.06.2020
1148 Clouds 19 1003 63 10000 5 40 09:42 21.06.2020
1149 Clouds 19 1003 63 10000 5 40 09:22 21.06.2020
1150 Clouds 19 1003 63 10000 5 50 08:57 21.06.2020
1151 Clouds 19 1003 63 10000 5 50 08:57 21.06.2020
1152 Thunderstorm 17 1004 77 10000 5 60 08:39 21.06.2020
1153 Thunderstorm 15 1004 77 10000 5 20 08:19 21.06.2020
1154 Thunderstorm 14 1004 82 10000 8 360 07:41 21.06.2020
1155 Thunderstorm 14 1004 82 10000 8 360 07:23 21.06.2020
1156 Thunderstorm 17 1003 67 10000 4 360 06:50 21.06.2020
1157 Clouds 16 1004 72 10000 5 350 06:18 21.06.2020
1158 Clouds 16 1004 72 10000 5 350 05:56 21.06.2020
1159 Clouds 15 1004 82 10000 2 0 03:53 21.06.2020
1160 Thunderstorm 14 1005 82 10000 5 310 03:18 21.06.2020
1161 Thunderstorm 15 1004 82 10000 4 70 02:20 21.06.2020
1162 Rain 16 1004 72 10000 3 20 01:34 21.06.2020
1163 Clouds 15 1004 77 10000 3 360 00:57 21.06.2020
1164 Clouds 15 1003 77 10000 2 0 00:38 21.06.2020
1165 Thunderstorm 15 1004 77 10000 2 0 00:19 21.06.2020
1166 Thunderstorm 16 1005 67 10000 1 0 23:45 20.06.2020
1167 Thunderstorm 16 1005 67 10000 1 0 23:22 20.06.2020
1168 Clouds 16 1004 67 10000 1 0 22:56 20.06.2020
1169 Clouds 16 1005 67 10000 5 50 22:38 20.06.2020
1170 Clouds 16 1005 67 10000 2 0 22:19 20.06.2020
1171 Clouds 16 1005 67 10000 2 0 21:56 20.06.2020
1172 Clouds 15 1006 82 10000 2 0 21:38 20.06.2020
1173 Clouds 15 1006 82 10000 2 0 21:20 20.06.2020
1174 Clouds 16 1006 72 10000 2 0 20:57 20.06.2020
1175 Clouds 16 1006 72 10000 5 30 20:38 20.06.2020
1176 Clouds 16 1006 67 10000 5 20 20:19 20.06.2020
1177 Rain 16 1006 72 10000 5 60 19:44 20.06.2020
1178 Rain 16 1006 72 10000 5 60 19:25 20.06.2020
1179 Rain 16 1007 77 10000 3 90 18:55 20.06.2020
1180 Rain 16 1008 77 10000 1 0 18:37 20.06.2020
1181 Rain 16 1007 72 10000 3 90 18:19 20.06.2020
1182 Rain 16 1007 72 10000 3 90 17:56 20.06.2020
1183 Rain 16 1007 77 10000 2 60 17:37 20.06.2020
1184 Rain 17 1008 67 10000 3 270 17:18 20.06.2020
1185 Rain 19 1008 55 10000 3 50 16:40 20.06.2020
1186 Rain 18 1008 63 10000 5 330 16:19 20.06.2020
1187 Rain 18 1008 63 10000 5 330 15:57 20.06.2020
1188 Rain 20 1008 45 10000 7 350 15:38 20.06.2020
1189 Clouds 21 1006 43 10000 6 350 15:18 20.06.2020
1190 Clouds 22 1006 40 10000 6 360 14:42 20.06.2020
1191 Clouds 22 1006 40 10000 6 360 14:20 20.06.2020
1192 Clouds 24 1005 33 10000 6 360 13:42 20.06.2020
1193 Clouds 24 1005 33 10000 6 360 13:20 20.06.2020
1194 Clouds 25 1005 29 10000 5 350 12:56 20.06.2020
1195 Clouds 26 1005 26 10000 4 360 12:38 20.06.2020
1196 Clouds 26 1006 22 10000 5 360 12:19 20.06.2020
1197 Clouds 26 1006 27 10000 6 350 11:40 20.06.2020
1198 Clouds 26 1006 27 10000 6 350 11:21 20.06.2020
1199 Clouds 26 1006 27 10000 6 10 10:58 20.06.2020
1200 Clouds 25 1007 29 10000 5 20 10:40 20.06.2020
1201 Clouds 25 1007 29 10000 5 20 10:20 20.06.2020
1202 Clouds 25 1007 29 10000 7 340 09:43 20.06.2020
1203 Clouds 25 1007 29 10000 7 340 09:25 20.06.2020
1204 Clouds 25 1007 31 10000 5 330 08:58 20.06.2020
1205 Clouds 25 1007 31 10000 6 360 08:39 20.06.2020
1206 Clouds 25 1007 31 10000 6 360 08:21 20.06.2020
1207 Clouds 25 1007 31 10000 5 340 07:50 20.06.2020
1208 Clouds 25 1008 31 10000 6 350 07:25 20.06.2020
1209 Clouds 23 1008 40 10000 7 340 06:49 20.06.2020
1210 Clouds 23 1008 40 10000 7 340 06:21 20.06.2020
1211 Clouds 23 1008 35 10000 8 330 05:48 20.06.2020
1212 Clouds 20 1008 52 10000 4 320 03:55 20.06.2020
1213 Clouds 17 1008 67 10000 3 330 01:55 20.06.2020
1214 Clouds 16 1008 72 10000 4 350 01:37 20.06.2020
1215 Clouds 15 1007 77 10000 2 0 00:47 20.06.2020
1216 Clouds 15 1007 77 10000 2 0 00:20 20.06.2020
1217 Clouds 14 1006 76 10000 2 0 23:44 19.06.2020
1218 Clouds 14 1006 76 10000 2 0 23:20 19.06.2020
1219 Clouds 15 1006 67 10000 2 310 22:56 19.06.2020
1220 Clouds 16 1006 63 10000 1 0 22:37 19.06.2020
1221 Clouds 16 1005 63 10000 3 300 22:19 19.06.2020
1222 Clouds 16 1005 63 10000 3 300 21:55 19.06.2020
1223 Clouds 16 1005 63 10000 3 300 21:37 19.06.2020
1224 Clouds 18 1004 52 10000 2 330 21:18 19.06.2020
1225 Clouds 18 1004 52 10000 2 330 20:56 19.06.2020
1226 Clouds 18 1004 52 10000 2 330 20:38 19.06.2020
1227 Clouds 18 1004 52 10000 2 330 20:20 19.06.2020
1228 Clouds 20 1004 40 10000 2 0 19:54 19.06.2020
1229 Clouds 20 1004 40 10000 2 0 19:36 19.06.2020
1230 Clouds 20 1004 42 10000 4 30 19:18 19.06.2020
1231 Clouds 20 1004 42 10000 4 30 18:40 19.06.2020
1232 Clouds 20 1004 42 10000 4 30 18:21 19.06.2020
1233 Clouds 19 1005 45 10000 8 50 17:42 19.06.2020
1234 Clouds 19 1005 45 10000 8 50 17:23 19.06.2020
1235 Clouds 19 1005 55 10000 9 50 16:58 19.06.2020
1236 Clouds 20 1005 45 10000 12 340 16:40 19.06.2020
1237 Clouds 20 1005 45 10000 12 340 16:22 19.06.2020
1238 Clouds 24 1002 31 10000 3 270 15:47 19.06.2020
1239 Clouds 24 1002 31 10000 3 270 15:27 19.06.2020
1240 Clouds 27 1001 24 10000 2 10 14:58 19.06.2020
1241 Clouds 27 1001 19 10000 3 290 14:40 19.06.2020
1242 Clouds 27 1001 19 10000 3 290 14:21 19.06.2020
1243 Clouds 29 1001 17 10000 4 280 13:58 19.06.2020
1244 Clouds 30 1001 51 10000 3 280 13:40 19.06.2020
1245 Clouds 30 1001 43 10000 3 280 13:22 19.06.2020
1246 Clouds 31 1001 14 10000 4 290 12:45 19.06.2020
1247 Clouds 31 1001 14 10000 4 290 12:22 19.06.2020
1248 Clouds 30 1001 15 10000 4 260 11:56 19.06.2020
1249 Clouds 30 1001 15 10000 4 260 11:36 19.06.2020
1250 Clouds 31 1001 15 10000 2 0 11:18 19.06.2020
1251 Clouds 32 1002 14 10000 2 0 10:41 19.06.2020
1252 Clouds 32 1002 14 10000 2 0 10:21 19.06.2020
1253 Clouds 31 1002 16 10000 2 0 09:55 19.06.2020
1254 Clouds 30 1002 16 10000 3 300 09:37 19.06.2020
1255 Clouds 31 1003 15 10000 3 360 09:18 19.06.2020
1256 Clouds 29 1003 18 10000 2 240 08:41 19.06.2020
1257 Clouds 29 1003 18 10000 2 240 08:23 19.06.2020
1258 Clouds 29 1004 17 10000 2 0 07:41 19.06.2020
1259 Clouds 29 1004 18 10000 1 0 07:22 19.06.2020
1260 Clouds 29 1004 18 10000 1 0 06:52 19.06.2020
1261 Clouds 28 1004 21 10000 2 0 06:22 19.06.2020
1262 Clouds 26 1005 24 10000 1 0 05:32 19.06.2020
1263 Clear 23 1005 40 10000 1 0 04:21 19.06.2020
1264 Clouds 18 1006 55 10000 0.71 87 02:24 19.06.2020
1265 Clouds 12 1006 87 10000 1 0 00:46 19.06.2020
1266 Clouds 12 1006 87 10000 1 0 00:22 19.06.2020
1267 Clouds 12 1006 81 10000 1 0 23:58 18.06.2020
1268 Clouds 12 1006 81 10000 2 0 23:39 18.06.2020
1269 Clouds 12 1006 81 10000 2 0 23:21 18.06.2020
1270 Clouds 12 1006 81 10000 1 0 22:41 18.06.2020
1271 Clouds 12 1006 81 10000 1 0 22:21 18.06.2020
1272 Clouds 14 1006 76 10000 1 0 21:57 18.06.2020
1273 Clouds 14 1006 76 10000 1 0 21:38 18.06.2020
1274 Clouds 14 1006 76 10000 1 0 21:19 18.06.2020
1275 Clouds 14 1006 76 10000 1 0 20:43 18.06.2020
1276 Clouds 14 1006 76 10000 1 0 20:22 18.06.2020
1277 Clouds 17 1006 63 10000 1 0 19:58 18.06.2020
1278 Clouds 17 1006 63 10000 1 0 19:40 18.06.2020
1279 Clouds 17 1006 63 10000 1 0 19:20 18.06.2020
1280 Clouds 18 1007 55 10000 1 0 18:42 18.06.2020
1281 Clouds 18 1007 55 10000 1 0 18:23 18.06.2020
1282 Clouds 19 1008 55 10000 4 290 17:57 18.06.2020
1283 Clouds 19 1008 55 10000 4 290 17:39 18.06.2020
1284 Clouds 19 1008 55 10000 4 290 17:21 18.06.2020
1285 Clouds 20 1006 56 10000 1 0 16:44 18.06.2020
1286 Clouds 20 1006 56 10000 1 0 16:25 18.06.2020
1287 Clouds 19 1006 55 10000 2 0 15:59 18.06.2020
1288 Clouds 21 1006 43 10000 2 0 15:40 18.06.2020
1289 Clouds 21 1006 43 10000 2 0 15:20 18.06.2020
1290 Rain 20 1006 45 10000 7 110 14:57 18.06.2020
1291 Thunderstorm 21 1008 43 10000 4 270 14:38 18.06.2020
1292 Thunderstorm 21 1008 43 10000 4 270 14:20 18.06.2020
1293 Thunderstorm 27 1005 19 10000 6 280 13:48 18.06.2020
1294 Thunderstorm 27 1005 19 10000 6 280 13:29 18.06.2020
1295 Thunderstorm 28 1004 35 10000 1 0 12:58 18.06.2020
1296 Clouds 28 1004 17 10000 2 0 12:40 18.06.2020
1297 Clouds 28 1004 17 10000 2 0 12:40 18.06.2020
1298 Clouds 28 1004 17 10000 2 0 12:20 18.06.2020
1299 Clouds 28 1004 29 10000 4 270 11:57 18.06.2020
1300 Clouds 29 1005 16 10000 5 240 11:38 18.06.2020
1301 Clouds 30 1005 16 10000 6 260 11:19 18.06.2020
1302 Clouds 29 1006 18 10000 5 190 10:40 18.06.2020
1303 Clouds 28 1006 20 10000 4 220 10:19 18.06.2020
1304 Clouds 29 1007 18 10000 5 230 09:47 18.06.2020
1305 Clouds 29 1007 18 10000 5 230 09:27 18.06.2020
1306 Clouds 29 1007 17 10000 4 210 08:58 18.06.2020
1307 Clouds 27 1008 21 10000 6 210 08:38 18.06.2020
1308 Clouds 27 1008 24 10000 4 160 08:20 18.06.2020
1309 Clouds 27 1009 24 10000 3 250 07:45 18.06.2020
1310 Clouds 27 1009 24 10000 3 250 07:26 18.06.2020
1311 Clouds 26 1009 26 10000 4 170 06:42 18.06.2020
1312 Clouds 24 1010 33 10000 2 0 05:34 18.06.2020
1313 Clouds 21 1011 43 10000 2 0 04:21 18.06.2020
1314 Clouds 14 1012 67 10000 2 0 01:49 18.06.2020
1315 Clouds 14 1012 67 10000 2 0 01:27 18.06.2020
1316 Clouds 14 1012 62 10000 1.64 111 00:54 18.06.2020
1317 Clouds 11 1011 76 10000 1 0 00:32 18.06.2020
1318 Clouds 8 1011 81 10000 1.13 110 23:56 17.06.2020
1319 Clouds 9 1011 76 10000 1.13 110 23:38 17.06.2020
1320 Clouds 11 1011 71 10000 1 0 23:19 17.06.2020
1321 Clouds 11 1011 71 10000 1 0 22:57 17.06.2020
1322 Clouds 12 1011 71 10000 1.78 88 22:37 17.06.2020
1323 Clouds 12 1012 66 0 1 0 22:19 17.06.2020
1324 Clouds 12 1012 66 0 1 0 21:40 17.06.2020
1325 Clouds 12 1012 66 0 1 0 21:21 17.06.2020
1326 Clouds 11 1012 71 10000 1.23 82 20:56 17.06.2020
1327 Clouds 11 1012 71 10000 1.23 82 20:37 17.06.2020
1328 Clouds 10 1011 71 10000 3 170 20:19 17.06.2020
1329 Clouds 10 1011 71 10000 3 170 19:43 17.06.2020
1330 Clouds 10 1011 71 10000 3 170 19:22 17.06.2020
1331 Clouds 12 1012 62 10000 2 0 18:56 17.06.2020
1332 Clouds 12 1012 62 10000 2 0 18:38 17.06.2020
1333 Clouds 12 1012 62 10000 2 0 18:38 17.06.2020
1334 Clouds 12 1012 62 10000 2 0 18:38 17.06.2020
1335 Clouds 14 1012 54 10000 1 0 18:19 17.06.2020
1336 Clouds 16 1011 51 10000 1 0 17:42 17.06.2020
1337 Clouds 16 1011 51 10000 1 0 17:21 17.06.2020
1338 Clouds 16 1011 55 10000 2 0 16:56 17.06.2020
1339 Clouds 17 1011 51 10000 3 330 16:38 17.06.2020
1340 Clouds 18 1011 48 10000 3 330 16:20 17.06.2020
1341 Clouds 20 1010 42 10000 4 340 15:40 17.06.2020
1342 Clouds 20 1010 42 10000 4 340 15:21 17.06.2020
1343 -273 0 0 0 0 0 14:59 17.06.2020
1344 Clouds 23 1009 35 10000 5 350 14:40 17.06.2020
1345 Clouds 23 1009 35 10000 5 350 14:21 17.06.2020
1346 Clouds 23 1009 33 10000 7 340 13:58 17.06.2020
1347 Clouds 24 1009 31 10000 7 340 13:40 17.06.2020
1348 Clouds 24 1009 31 10000 7 340 13:21 17.06.2020
1349 Clouds 25 1009 27 10000 7 340 12:55 17.06.2020
1350 Clouds 25 1009 25 10000 7 350 12:36 17.06.2020
1351 Clouds 26 1009 24 10000 8 340 12:18 17.06.2020
1352 Clouds 26 1009 26 10000 7 350 11:44 17.06.2020
1353 Clouds 26 1009 26 10000 7 350 11:24 17.06.2020
1354 Clouds 26 1009 27 10000 8 340 10:39 17.06.2020
1355 Clouds 26 1009 27 10000 8 340 10:20 17.06.2020
1356 Clouds 26 1009 27 10000 8 340 10:20 17.06.2020
1357 Clouds 25 1009 29 10000 7 360 10:00 17.06.2020
1358 Clouds 25 1009 27 10000 8 340 09:41 17.06.2020
1359 Clouds 25 1009 27 10000 8 340 09:21 17.06.2020
1360 Clouds 25 1009 29 10000 7 340 08:56 17.06.2020
1361 Clouds 26 1009 22 10000 8 360 08:38 17.06.2020
1362 Clouds 25 1009 27 10000 9 340 08:18 17.06.2020
1363 Clouds 25 1009 31 10000 8 320 07:43 17.06.2020
1364 Clouds 25 1009 31 10000 8 320 07:21 17.06.2020
1365 Clouds 24 1010 36 10000 6 330 06:56 17.06.2020
1366 Clouds 23 1010 38 10000 6 330 06:37 17.06.2020
1367 Clouds 22 1010 43 10000 7 320 06:19 17.06.2020
1368 Clouds 20 1010 49 10000 6 330 05:18 17.06.2020
1369 Clouds 17 1010 59 10000 6 350 03:28 17.06.2020
1370 Clouds 16 1009 59 10000 4 20 01:51 17.06.2020
1371 Clouds 15 1008 58 10000 4 20 00:41 17.06.2020
1372 Clouds 15 1008 58 10000 4 20 00:23 17.06.2020
1373 Clouds 11 1008 62 10000 4.09 345 23:56 16.06.2020
1374 Clouds 11 1008 62 10000 4.09 345 23:56 16.06.2020
1375 Clouds 10 1008 61 10000 3 150 23:37 16.06.2020
1376 Clouds 10 1007 61 10000 2 0 23:19 16.06.2020
1377 Clouds 10 1007 61 10000 2 0 22:54 16.06.2020
1378 Clouds 10 1007 61 10000 2 0 22:36 16.06.2020
1379 Clouds 12 1007 54 10000 3.89 344 22:18 16.06.2020
1380 Clouds 12 1007 54 10000 3.89 344 21:45 16.06.2020
1381 Clouds 12 1007 54 10000 3.26 351 21:23 16.06.2020
1382 Clouds 13 1007 50 10000 1 0 20:57 16.06.2020
1383 Clouds 13 1007 50 10000 1 0 20:39 16.06.2020
1384 Clouds 14 1006 47 10000 1 0 20:19 16.06.2020
1385 Clouds 14 1006 47 10000 1 0 20:19 16.06.2020
1386 Clouds 14 1006 47 10000 1 0 19:56 16.06.2020
1387 Clouds 14 1006 47 10000 1 0 19:38 16.06.2020
1388 Clouds 17 1006 39 10000 2 0 19:19 16.06.2020
1389 Clouds 17 1006 39 10000 2 0 18:45 16.06.2020
1390 Clouds 17 1006 39 10000 2 0 18:22 16.06.2020
1391 Clouds 19 1006 34 10000 1 0 17:59 16.06.2020
1392 Clouds 18 1007 36 10000 3 280 17:39 16.06.2020
1393 Clouds 18 1007 36 10000 3 280 17:21 16.06.2020
1394 Clouds 20 1006 32 10000 3 340 16:59 16.06.2020
1395 Clouds 20 1006 32 10000 3 20 16:40 16.06.2020
1396 Clouds 21 1006 30 10000 4 320 16:20 16.06.2020
1397 Clouds 21 1006 30 10000 4 320 15:57 16.06.2020
1398 Clouds 22 1005 28 10000 5 320 15:39 16.06.2020
1399 Clouds 22 1005 28 10000 5 320 15:21 16.06.2020
1400 Clouds 23 1004 23 10000 5 220 14:56 16.06.2020
1401 Clouds 24 1004 58 10000 6 230 14:38 16.06.2020
1402 Clouds 26 1003 49 10000 8 220 14:19 16.06.2020
1403 Clouds 27 1003 15 10000 8 220 13:45 16.06.2020
1404 Clouds 27 1003 15 10000 8 220 13:25 16.06.2020
1405 Clouds 27 1003 14 10000 7 200 12:43 16.06.2020
1406 Clouds 27 1003 14 10000 7 200 12:23 16.06.2020
1407 Clouds 28 1003 14 10000 4 160 11:59 16.06.2020
1408 Clouds 27 1003 15 10000 6 190 11:40 16.06.2020
1409 Clouds 25 1004 20 10000 7 210 11:22 16.06.2020
1410 Clouds 25 1004 20 10000 7 210 10:59 16.06.2020
1411 Rain 24 1004 23 10000 11 230 10:40 16.06.2020
1412 Rain 24 1004 23 10000 11 230 10:20 16.06.2020
1413 Clouds 29 1003 12 10000 4 200 09:45 16.06.2020
1414 Clouds 29 1003 12 10000 4 200 09:24 16.06.2020
1415 Clouds 30 1003 12 10000 7 210 08:55 16.06.2020
1416 Clouds 30 1003 12 10000 7 210 08:55 16.06.2020
1417 Clouds 29 1004 13 10000 5 210 08:34 16.06.2020
1418 Clouds 27 1005 15 10000 4 220 07:55 16.06.2020
1419 Clouds 28 1005 14 10000 6 230 07:37 16.06.2020
1420 Clouds 29 1006 14 10000 7 230 07:19 16.06.2020
1421 Clouds 28 1006 15 10000 7 240 06:34 16.06.2020
1422 Clouds 27 1006 14 10000 5 240 05:52 16.06.2020
1423 Clouds 25 1006 16 10000 1 0 04:58 16.06.2020
1424 Clouds 24 1007 17 10000 1 0 04:25 16.06.2020
1425 Clouds 17 1007 26 10000 2.32 180 02:46 16.06.2020
1426 Clouds 13 1007 47 10000 2.06 116 01:34 16.06.2020
1427 Clouds 13 1006 39 10000 1.97 106 00:57 16.06.2020
1428 Clouds 11 1006 43 10000 1.88 96 00:25 16.06.2020
1429 Clouds 12 1006 40 10000 1.88 96 23:56 15.06.2020
1430 Clouds 11 1006 40 10000 1.88 96 23:38 15.06.2020
1431 Clouds 13 1006 35 10000 1.8 96 23:19 15.06.2020
1432 Clouds 11 1006 40 10000 2 160 22:42 15.06.2020
1433 Clouds 11 1006 40 10000 2 160 22:22 15.06.2020
1434 Clouds 13 1006 37 10000 2 0 21:58 15.06.2020
1435 Clouds 13 1006 35 10000 1 0 21:38 15.06.2020
1436 Clouds 17 1006 27 10000 3 100 21:20 15.06.2020
1437 Clouds 17 1006 27 10000 3 100 20:59 15.06.2020
1438 Clouds 16 1007 31 10000 1 0 20:39 15.06.2020
1439 Clouds 16 1007 31 10000 1 0 20:19 15.06.2020
1440 Clouds 16 1007 31 10000 1 0 19:57 15.06.2020
1441 Clouds 17 1007 29 10000 1 0 19:39 15.06.2020
1442 Clouds 19 1007 24 10000 2 0 19:21 15.06.2020
1443 Clouds 19 1007 24 10000 2 0 18:57 15.06.2020
1444 Clouds 19 1007 25 10000 1 0 18:39 15.06.2020
1445 Clouds 21 1008 19 10000 2 0 18:19 15.06.2020
1446 Clouds 21 1008 19 10000 2 0 17:56 15.06.2020
1447 Clouds 21 1008 18 10000 2 310 17:37 15.06.2020
1448 Clouds 22 1008 17 10000 1 0 17:18 15.06.2020
1449 Clouds 20 1008 19 10000 1 0 16:41 15.06.2020
1450 Clouds 23 1008 16 10000 1.64 236 16:19 15.06.2020
1451 Clouds 23 1008 16 10000 1.64 236 15:57 15.06.2020
1452 Clouds 25 1008 15 10000 2 90 15:39 15.06.2020
1453 Clouds 26 1008 14 10000 3 80 15:19 15.06.2020
1454 Clouds 27 1008 12 10000 4 130 14:42 15.06.2020
1455 Clouds 28 1008 13 10000 4 140 14:22 15.06.2020
1456 Clouds 28 1008 13 10000 4 140 13:59 15.06.2020
1457 Clouds 28 1008 12 10000 6 170 13:41 15.06.2020
1458 Clouds 28 1008 12 10000 6 170 13:41 15.06.2020
1459 Clouds 28 1008 12 10000 6 170 13:23 15.06.2020
1460 Clouds 28 1009 12 10000 6 190 12:58 15.06.2020
1461 Clouds 28 1008 12 10000 7 200 12:39 15.06.2020
1462 Clouds 28 1008 12 10000 7 200 12:21 15.06.2020
1463 Clouds 31 1008 10 10000 7 150 11:44 15.06.2020
1464 Clouds 31 1008 10 10000 7 150 11:25 15.06.2020
1465 Clouds 31 1009 10 10000 6 190 10:56 15.06.2020
1466 Clouds 31 1009 10 10000 4 200 10:36 15.06.2020
1467 Clouds 31 1009 10 10000 6 270 10:18 15.06.2020
1468 Clouds 30 1010 10 10000 3 190 09:41 15.06.2020
1469 Clouds 30 1010 10 10000 3 190 09:21 15.06.2020
1470 Clouds 30 1010 10 10000 4 210 08:42 15.06.2020
1471 Clouds 30 1010 10 10000 4 210 08:23 15.06.2020
1472 Clouds 28 1011 11 10000 2 0 07:48 15.06.2020
1473 Clouds 28 1011 11 10000 2 0 07:29 15.06.2020
1474 Clouds 29 1012 10 10000 4 240 06:50 15.06.2020
1475 Clouds 29 1012 10 10000 4 240 06:26 15.06.2020
1476 Clouds 27 1012 14 10000 3 340 05:47 15.06.2020
1477 Clouds 27 1012 14 10000 3 340 05:27 15.06.2020
1478 Clouds 25 1013 25 10000 1 0 04:21 15.06.2020
1479 Clouds 20 1014 28 10000 1 0 03:47 15.06.2020
1480 Clouds 18 1014 31 10000 2 0 02:55 15.06.2020
1481 Clouds 14 1014 41 10000 1.66 111 01:59 15.06.2020
1482 Clouds 13 1014 43 10000 1 0 01:39 15.06.2020
1483 Clouds 13 1014 43 10000 1 0 01:21 15.06.2020
1484 Clouds 8 1014 46 10000 1 0 00:40 15.06.2020
1485 Clouds 7 1014 56 10000 1 0 00:20 15.06.2020
1486 Clouds 6 1014 60 10000 2 0 23:47 14.06.2020
1487 Clear 6 1014 60 10000 2 0 23:26 14.06.2020
1488 Clear 6 1014 56 10000 2 160 22:58 14.06.2020
1489 Clear 6 1014 56 10000 2 160 22:40 14.06.2020
1490 Clear 6 1014 56 10000 2 160 22:21 14.06.2020
1491 Clear 10 1014 48 10000 1 0 21:58 14.06.2020
1492 Clear 10 1014 48 10000 1 0 21:40 14.06.2020
1493 Clear 9 1014 49 10000 1.44 86 21:19 14.06.2020
1494 Clear 9 1014 49 10000 1.44 86 20:59 14.06.2020
1495 Clear 9 1014 49 10000 1.44 86 20:40 14.06.2020
1496 Clear 9 1014 49 10000 1.42 96 20:21 14.06.2020
1497 Clear 13 1014 44 10000 1 0 19:59 14.06.2020
1498 Clear 13 1014 44 10000 1 0 19:40 14.06.2020
1499 Clear 13 1014 44 10000 1 0 19:40 14.06.2020
1500 Clear 13 1014 37 10000 2 0 19:20 14.06.2020
1501 Clear 13 1014 37 10000 2 0 18:58 14.06.2020
1502 Clear 13 1014 37 10000 2 0 18:58 14.06.2020
1503 Clear 13 1014 37 10000 2 0 18:40 14.06.2020
1504 Clear 13 1014 37 10000 2 0 18:21 14.06.2020
1505 Clear 19 1014 22 10000 2 0 17:58 14.06.2020
1506 Clear 19 1014 22 10000 2 0 17:39 14.06.2020
1507 Clear 16 1014 29 10000 3 150 17:20 14.06.2020
1508 Clear 16 1014 29 10000 3 150 16:57 14.06.2020
1509 Clear 17 1013 27 10000 4 160 16:38 14.06.2020
1510 Clouds 18 1013 23 10000 4 150 16:19 14.06.2020
1511 Clouds 19 1013 24 10000 3 210 15:41 14.06.2020
1512 Clouds 24 1013 16 10000 2 240 15:20 14.06.2020
1513 Clouds 24 1013 16 10000 2 240 14:59 14.06.2020
1514 Clouds 25 1012 15 10000 3 240 14:41 14.06.2020
1515 Clouds 25 1012 15 10000 3 240 14:22 14.06.2020
1516 Clouds 26 1012 14 10000 2 0 13:58 14.06.2020
1517 Clouds 26 1012 14 10000 2 0 13:40 14.06.2020
1518 Clouds 26 1012 14 10000 2 0 13:21 14.06.2020
1519 Clouds 26 1012 14 10000 2 0 13:21 14.06.2020
1520 Clouds 26 1012 14 10000 5 230 12:57 14.06.2020
1521 Clouds 27 1012 13 10000 5 240 12:38 14.06.2020
1522 Clouds 26 1013 14 10000 3 340 12:20 14.06.2020
1523 Clouds 26 1013 14 10000 3 340 12:20 14.06.2020
1524 Clouds 26 1013 14 10000 3 340 11:56 14.06.2020
1525 Clouds 27 1013 12 10000 2 0 11:38 14.06.2020
1526 Clouds 25 1013 14 10000 1 0 11:19 14.06.2020
1527 Clouds 26 1013 13 10000 3 200 10:42 14.06.2020
1528 Clouds 26 1014 14 10000 3 260 10:20 14.06.2020
1529 Clouds 26 1014 14 10000 3 260 09:51 14.06.2020
1530 Clouds 26 1014 13 10000 4 180 09:26 14.06.2020
1531 Clouds 26 1014 13 10000 2 0 08:59 14.06.2020
1532 Clouds 25 1015 16 10000 3 0 08:41 14.06.2020
1533 Clouds 25 1015 15 10000 3 210 08:18 14.06.2020
1534 Clouds 25 1015 16 10000 3 220 07:51 14.06.2020
1535 Clouds 25 1015 16 10000 3 220 07:32 14.06.2020
1536 Clouds 23 1016 18 10000 4 230 06:35 14.06.2020
1537 Clouds 21 1016 26 10000 4 250 05:44 14.06.2020
1538 Clear 20 1016 30 10000 3 270 04:58 14.06.2020
1539 Clear 19 1017 32 10000 1 0 04:31 14.06.2020
1540 Clear 15 1017 44 10000 1 0 03:23 14.06.2020
1541 Clear 12 1017 50 10000 1.42 228 02:30 14.06.2020
1542 Clear 9 1018 61 10000 1 0 01:42 14.06.2020
1543 Clear 7 1017 70 10000 0.57 142 01:18 14.06.2020
1544 Clear 4 1017 61 10000 0.57 142 00:38 14.06.2020
1545 Clear 3 1017 71 10000 1 0 00:18 14.06.2020
1546 Clear 4 1017 71 10000 1 0 23:43 13.06.2020
1547 Clear 4 1017 77 10000 1 0 23:23 13.06.2020
1548 Clear 3 1017 77 10000 0.52 74 22:57 13.06.2020
1549 Clear 3 1017 77 10000 0.52 74 22:37 13.06.2020
1550 Clear 3 1017 77 10000 0.52 74 22:37 13.06.2020
1551 Clear 5 1017 75 10000 0.75 70 22:18 13.06.2020
1552 Clear 5 1017 75 10000 0.75 70 22:18 13.06.2020
1553 Clear 5 1017 75 10000 0.75 70 21:55 13.06.2020
1554 Clear 5 1017 75 10000 0.75 70 21:37 13.06.2020
1555 Clear 5 1017 75 10000 1 0 21:18 13.06.2020
1556 Clear 5 1017 75 10000 1 0 20:42 13.06.2020
1557 Clear 6 1017 70 10000 1 0 20:19 13.06.2020
1558 Clear 6 1017 70 10000 1 0 20:19 13.06.2020
1559 Clear 6 1017 70 10000 1 0 19:42 13.06.2020
1560 Clear 6 1017 70 10000 1 0 19:22 13.06.2020
1561 Clear 7 1017 65 10000 2 0 18:59 13.06.2020
1562 Clear 7 1017 65 10000 2 0 18:41 13.06.2020
1563 Clear 11 1016 53 10000 0.7 29 18:21 13.06.2020
1564 Clear 11 1016 53 10000 0.7 29 17:59 13.06.2020
1565 Clear 11 1016 53 10000 0.7 29 17:41 13.06.2020
1566 Clear 11 1016 53 10000 0.91 13 17:22 13.06.2020
1567 Clear 11 1016 53 10000 2 300 16:56 13.06.2020
1568 Clear 16 1016 38 10000 2 10 16:38 13.06.2020
1569 Clear 16 1016 38 10000 2 10 16:19 13.06.2020
1570 Clear 17 1016 36 10000 3 10 15:44 13.06.2020
1571 Clear 17 1016 36 10000 3 10 15:26 13.06.2020
1572 Clear 17 1016 36 10000 4 360 14:56 13.06.2020
1573 Clear 18 1016 31 10000 5 350 14:38 13.06.2020
1574 Clouds 18 1016 34 10000 5 360 14:20 13.06.2020
1575 Clouds 19 1015 29 10000 5 360 13:42 13.06.2020
1576 Clouds 19 1015 29 10000 5 360 13:24 13.06.2020
1577 Clouds 19 1015 29 10000 6 330 12:44 13.06.2020
1578 Clouds 19 1015 29 10000 6 330 12:26 13.06.2020
1579 Clouds 19 1015 29 10000 7 340 11:59 13.06.2020
1580 Clouds 20 1015 28 10000 5 360 11:40 13.06.2020
1581 Clouds 19 1015 29 10000 6 360 11:19 13.06.2020
1582 Clouds 19 1015 29 10000 6 360 10:57 13.06.2020
1583 Clouds 19 1015 29 10000 7 350 10:38 13.06.2020
1584 Clouds 19 1015 29 10000 7 350 10:19 13.06.2020
1585 Clouds 19 1015 29 10000 7 350 09:45 13.06.2020
1586 Clouds 19 1015 29 10000 7 350 09:27 13.06.2020
1587 Clouds 19 1015 29 10000 8 320 08:50 13.06.2020
1588 Clouds 18 1015 46 10000 7 350 08:32 13.06.2020
1589 Clouds 18 1015 47 10000 7 350 07:56 13.06.2020
1590 Clouds 17 1015 33 10000 8 340 07:30 13.06.2020
1591 Clouds 17 1015 33 10000 8 340 07:30 13.06.2020
1592 Clouds 16 1015 31 10000 10 330 06:56 13.06.2020
1593 Clouds 16 1015 31 10000 10 330 06:36 13.06.2020
1594 Clouds 16 1015 49 10000 10 350 05:53 13.06.2020
1595 Clouds 15 1015 33 10000 11 340 05:25 13.06.2020
1596 Clouds 13 1016 52 10000 8 350 03:57 13.06.2020
1597 Clouds 12 1016 50 10000 6 350 02:55 13.06.2020
1598 Clouds 11 1015 53 10000 6 340 02:36 13.06.2020
1599 Clouds 10 1015 57 10000 6 330 01:47 13.06.2020
1600 Clouds 10 1015 57 10000 6 330 01:21 13.06.2020
1601 Clouds 9 1015 61 10000 3 330 00:44 13.06.2020
1602 Clouds 9 1015 61 10000 3 330 00:26 13.06.2020
1603 Clear 7 1013 70 10000 2 0 23:42 12.06.2020
1604 Clear 6 1013 81 10000 3 330 23:19 12.06.2020
1605 Clear 6 1013 81 10000 3 330 22:59 12.06.2020
1606 Clear 6 1013 81 10000 3 330 22:40 12.06.2020
1607 Clear 7 1012 75 10000 3 280 22:19 12.06.2020
1608 Clear 7 1012 75 10000 3 280 21:50 12.06.2020
1609 Clear 7 1012 75 10000 3 280 21:27 12.06.2020
1610 Clear 8 1012 75 10000 2 280 20:59 12.06.2020
1611 Clear 8 1012 75 10000 2 280 20:41 12.06.2020
1612 Clouds 8 1012 75 10000 2 280 20:22 12.06.2020
1613 Clouds 11 1012 62 10000 4 340 19:57 12.06.2020
1614 Clouds 11 1012 62 10000 4 340 19:38 12.06.2020
1615 Clouds 10 1011 66 10000 3 310 19:18 12.06.2020
1616 Clouds 10 1011 66 10000 3 310 18:39 12.06.2020
1617 Clouds 9 1010 66 10000 3 340 18:19 12.06.2020
1618 Clouds 9 1010 66 10000 3 340 17:58 12.06.2020
1619 Clouds 9 1010 66 10000 3 330 17:38 12.06.2020
1620 Clouds 11 1010 62 10000 3 350 17:18 12.06.2020
1621 Clouds 11 1009 62 10000 6 340 16:41 12.06.2020
1622 Clouds 12 1009 54 10000 6 340 16:20 12.06.2020
1623 Clouds 12 1008 58 10000 8 340 15:48 12.06.2020
1624 Clouds 12 1008 58 10000 8 340 15:25 12.06.2020
1625 Clouds 13 1008 54 10000 9 340 14:56 12.06.2020
1626 Clouds 13 1007 54 10000 8 350 14:38 12.06.2020
1627 Clouds 14 1007 47 10000 7 360 14:20 12.06.2020
1628 Clouds 14 1007 47 10000 8 350 13:42 12.06.2020
1629 Clouds 14 1007 47 10000 8 350 13:21 12.06.2020
1630 Clouds 14 1007 47 10000 7 20 12:41 12.06.2020
1631 Clouds 13 1007 50 10000 9 340 12:20 12.06.2020
1632 Clouds 13 1007 50 10000 9 340 11:58 12.06.2020
1633 Clouds 13 1007 54 10000 9 340 11:39 12.06.2020
1634 Clouds 13 1007 54 10000 9 340 11:21 12.06.2020
1635 Clouds 13 1007 50 10000 8 340 10:46 12.06.2020
1636 Clouds 13 1007 50 10000 8 340 10:24 12.06.2020
1637 Clouds 13 1007 47 10000 8 340 09:47 12.06.2020
1638 Clouds 13 1007 47 10000 8 340 09:21 12.06.2020
1639 Clouds 14 1007 41 10000 7 350 08:45 12.06.2020
1640 Clouds 14 1007 41 10000 7 350 08:25 12.06.2020
1641 Clouds 13 1008 47 10000 6 330 07:44 12.06.2020
1642 Clouds 13 1008 47 10000 6 330 07:26 12.06.2020
1643 Clouds 13 1008 47 10000 5 340 06:56 12.06.2020
1644 Clouds 13 1008 54 10000 3 330 06:30 12.06.2020
1645 Clouds 12 1008 54 10000 2 0 05:55 12.06.2020
1646 Clouds 11 1009 62 10000 4 320 05:37 12.06.2020
1647 Clouds 11 1009 62 10000 4 320 05:19 12.06.2020
1648 Clouds 10 1009 66 10000 3 340 03:24 12.06.2020
1649 Clouds 8 1009 75 10000 3 20 01:56 12.06.2020
1650 Clouds 8 1009 75 10000 4 30 01:27 12.06.2020
1651 Clouds 7 1009 81 10000 4 360 00:47 12.06.2020
1652 Clouds 7 1009 81 10000 4 360 00:26 12.06.2020
1653 Clouds 7 1009 81 10000 5 330 23:59 11.06.2020
1654 Clouds 7 1009 81 10000 6 330 23:41 11.06.2020
1655 Clouds 7 1009 81 10000 6 330 23:21 11.06.2020
1656 Clouds 9 1008 76 10000 3 10 22:59 11.06.2020
1657 Clouds 9 1008 76 10000 3 10 22:39 11.06.2020
1658 Rain 10 1009 71 10000 5 40 22:20 11.06.2020
1659 Rain 10 1009 71 10000 5 40 21:56 11.06.2020
1660 Rain 10 1009 71 10000 5 40 21:38 11.06.2020
1661 Clouds 10 1009 66 10000 5 50 21:20 11.06.2020
1662 Clouds 10 1009 66 10000 5 50 21:20 11.06.2020
1663 Clouds 10 1009 66 10000 5 50 20:45 11.06.2020
1664 Clouds 10 1009 66 10000 5 50 20:22 11.06.2020
1665 Rain 10 1009 66 10000 8 320 19:55 11.06.2020
1666 Rain 10 1009 66 10000 8 320 19:37 11.06.2020
1667 Rain 10 1009 66 10000 8 320 19:37 11.06.2020
1668 Rain 10 1009 66 10000 8 320 19:18 11.06.2020
1669 Thunderstorm 11 1007 71 10000 1 0 18:42 11.06.2020
1670 Thunderstorm 11 1007 66 10000 1 0 18:24 11.06.2020
1671 Thunderstorm 11 1007 66 10000 1 0 17:57 11.06.2020
1672 Clouds 13 1007 66 10000 1 0 17:38 11.06.2020
1673 Clouds 13 1007 64 10000 1 0 17:19 11.06.2020
1674 Clouds 15 1007 64 10000 3 30 16:56 11.06.2020
1675 Clouds 16 1007 64 10000 3 10 16:38 11.06.2020
1676 Clouds 16 1007 64 10000 3 10 16:20 11.06.2020
1677 Clouds 17 1007 64 10000 3 10 15:42 11.06.2020
1678 Clouds 17 1007 60 10000 3 10 15:24 11.06.2020
1679 Clouds 17 1006 60 10000 4 360 14:58 11.06.2020
1680 Clouds 18 1006 60 10000 4 350 14:38 11.06.2020
1681 Clouds 18 1006 55 10000 4 350 14:20 11.06.2020
1682 Clouds 18 1006 55 10000 4 340 13:55 11.06.2020
1683 Clouds 18 1006 55 10000 4 340 13:37 11.06.2020
1684 Clouds 19 1006 25 10000 3 360 13:18 11.06.2020
1685 Clouds 19 1006 46 10000 4 350 12:54 11.06.2020
1686 Clouds 19 1006 46 10000 4 350 12:36 11.06.2020
1687 Clouds 19 1006 43 10000 5 310 12:18 11.06.2020
1688 Clouds 19 1006 43 10000 5 310 11:56 11.06.2020
1689 Clouds 20 1006 24 10000 3 330 11:37 11.06.2020
1690 Clouds 19 1006 40 10000 6 330 11:18 11.06.2020
1691 Clouds 20 1006 24 10000 2 0 10:42 11.06.2020
1692 Clouds 20 1007 38 10000 4 310 10:19 11.06.2020
1693 Clouds 19 1007 29 10000 6 320 09:45 11.06.2020
1694 Clouds 19 1007 29 10000 6 320 09:26 11.06.2020
1695 Clouds 19 1007 29 10000 5 310 08:55 11.06.2020
1696 Clouds 18 1007 31 10000 4 320 08:36 11.06.2020
1697 Clouds 18 1007 31 10000 4 320 08:18 11.06.2020
1698 Clouds 18 1008 31 10000 3 340 07:41 11.06.2020
1699 Clouds 18 1008 38 10000 4 310 07:22 11.06.2020
1700 Clouds 18 1008 27 10000 7 310 06:31 11.06.2020
1701 Clouds 18 1008 27 10000 7 310 05:54 11.06.2020
1702 Clouds 16 1008 38 10000 4 320 04:37 11.06.2020
1703 Clouds 14 1009 44 10000 1 0 03:25 11.06.2020
1704 Clouds 12 1009 54 10000 2 0 02:46 11.06.2020
1705 Clouds 13 1009 50 10000 1 0 01:56 11.06.2020
1706 Clouds 11 1009 57 10000 3.09 341 01:35 11.06.2020
1707 Clouds 9 1008 66 10000 2.98 339 00:56 11.06.2020
1708 Clouds 9 1008 66 10000 2.98 339 00:38 11.06.2020
1709 Clouds 3 1008 81 10000 1 0 00:18 11.06.2020
1710 Clouds 4 1008 80 10000 1 0 23:39 10.06.2020
1711 Clouds 4 1008 85 10000 2 160 23:21 10.06.2020
1712 Clouds 8 1008 65 10000 1 0 22:40 10.06.2020
1713 Clouds 7 1008 70 10000 2 0 22:22 10.06.2020
1714 Clouds 7 1008 70 10000 2 0 21:59 10.06.2020
1715 Clouds 10 1008 61 10000 1 0 21:41 10.06.2020
1716 Clouds 11 1008 57 10000 2 0 21:19 10.06.2020
1717 Clouds 11 1008 57 10000 2 0 20:58 10.06.2020
1718 Clouds 12 1007 58 10000 3 350 20:40 10.06.2020
1719 Clouds 12 1007 58 10000 3 350 20:40 10.06.2020
1720 Clouds 12 1007 58 10000 3 350 20:21 10.06.2020
1721 Clouds 12 1007 58 10000 3 350 19:58 10.06.2020
1722 Clouds 13 1008 54 10000 2 340 19:38 10.06.2020
1723 Clouds 14 1008 44 10000 2 350 19:18 10.06.2020
1724 Clouds 14 1008 41 10000 2 0 18:42 10.06.2020
1725 Clouds 15 1009 38 10000 3 30 18:22 10.06.2020
1726 Clouds 15 1009 38 10000 3 30 17:59 10.06.2020
1727 Clouds 15 1008 41 10000 6 360 17:41 10.06.2020
1728 Clouds 15 1008 44 10000 6 360 17:20 10.06.2020
1729 Clouds 15 1008 44 10000 6 360 16:59 10.06.2020
1730 Clouds 15 1007 41 10000 6 360 16:40 10.06.2020
1731 Clouds 16 1007 38 10000 8 350 16:20 10.06.2020
1732 Clouds 16 1007 38 10000 8 350 16:20 10.06.2020
1733 Clouds 16 1007 38 10000 8 350 15:57 10.06.2020
1734 Clouds 17 1006 63 10000 6 360 15:37 10.06.2020
1735 Clouds 18 1006 27 10000 4 350 15:19 10.06.2020
1736 Clouds 19 1005 24 10000 4 10 14:40 10.06.2020
1737 Clouds 19 1005 24 10000 4 10 14:21 10.06.2020
1738 Clouds 20 1005 22 10000 4 350 13:56 10.06.2020
1739 Clouds 20 1005 22 10000 4 350 13:38 10.06.2020
1740 Clouds 21 1005 19 10000 3 360 13:20 10.06.2020
1741 Clouds 21 1005 19 10000 5 340 12:41 10.06.2020
1742 Clouds 20 1005 22 10000 6 320 12:18 10.06.2020
1743 Clouds 22 1005 18 10000 4 350 11:46 10.06.2020
1744 Clouds 20 1006 20 10000 5 300 11:20 10.06.2020
1745 Clouds 20 1006 20 10000 5 300 10:59 10.06.2020
1746 Clouds 21 1006 19 10000 6 310 10:41 10.06.2020
1747 Clouds 21 1006 18 10000 8 300 10:22 10.06.2020
1748 Clouds 23 1006 15 10000 6 280 09:44 10.06.2020
1749 Clouds 23 1006 15 10000 6 280 09:26 10.06.2020
1750 Clouds 22 1006 15 10000 6 300 08:59 10.06.2020
1751 Clouds 22 1006 15 10000 6 300 08:41 10.06.2020
1752 Clouds 22 1007 17 10000 5 330 08:22 10.06.2020
1753 Clouds 21 1007 16 10000 5 260 07:42 10.06.2020
1754 Clouds 21 1007 15 10000 4 260 07:23 10.06.2020
1755 Clouds 20 1008 19 10000 5 240 06:52 10.06.2020
1756 Clouds 20 1008 19 10000 5 240 06:33 10.06.2020
1757 Clouds 19 1008 19 10000 4 220 06:00 10.06.2020
1758 Clouds 18 1009 22 10000 4 240 05:31 10.06.2020
1759 Clouds 16 1009 29 10000 1 0 04:48 10.06.2020
1760 Clouds 16 1009 29 10000 1 0 04:28 10.06.2020
1761 Clouds 10 1010 46 10000 1.3 139 02:24 10.06.2020
1762 Clouds 9 1010 49 10000 1.05 151 01:41 10.06.2020
1763 Clouds 3 1011 74 10000 0.98 139 00:43 10.06.2020
1764 Clouds 3 1011 74 10000 0.98 139 00:43 10.06.2020
1765 Clouds 1 1011 80 10000 1 0 00:24 10.06.2020
1766 Clouds 1 1011 80 10000 1 0 23:59 09.06.2020
1767 Clouds 0 1010 68 10000 1 0 23:41 09.06.2020
1768 Clouds 0 1010 72 10000 1 0 23:23 09.06.2020
1769 Clouds 0 1010 72 10000 1 0 22:57 09.06.2020
1770 Clouds 1 1010 74 10000 1 0 22:38 09.06.2020
1771 Clouds 1 1010 74 10000 1 0 22:20 09.06.2020
1772 Clouds 1 1010 74 10000 1 0 21:57 09.06.2020
1773 Clouds 2 1010 69 10000 2 0 21:39 09.06.2020
1774 Clear 2 1010 69 10000 2 0 21:21 09.06.2020
1775 Clear 2 1010 74 10000 2 0 20:57 09.06.2020
1776 Clear 2 1010 74 10000 2 0 20:39 09.06.2020
1777 Clear 5 1010 60 10000 2 120 20:20 09.06.2020
1778 Clear 5 1010 60 10000 2 120 19:58 09.06.2020
1779 Clear 4 1010 69 10000 3 170 19:39 09.06.2020
1780 Clear 4 1010 69 10000 3 170 19:20 09.06.2020
1781 Clear 4 1010 69 10000 3 170 18:57 09.06.2020
1782 Clear 4 1010 69 10000 3 140 18:39 09.06.2020
1783 Clear 7 1010 56 10000 1 0 18:19 09.06.2020
1784 Clear 7 1010 56 10000 1 0 17:55 09.06.2020
1785 Clear 10 1010 69 10000 2 0 17:37 09.06.2020
1786 Clouds 9 1010 70 10000 2 310 17:18 09.06.2020
1787 Clouds 11 1009 43 10000 2 310 16:42 09.06.2020
1788 Clouds 11 1009 43 10000 2 310 16:23 09.06.2020
1789 Clouds 13 1009 69 10000 3 330 15:56 09.06.2020
1790 Clouds 13 1009 37 10000 4 310 15:37 09.06.2020
1791 Clouds 13 1009 37 10000 4 310 15:19 09.06.2020
1792 Clouds 14 1008 67 10000 5 310 14:41 09.06.2020
1793 Clouds 14 1008 61 10000 5 310 14:21 09.06.2020
1794 Clouds 14 1008 52 10000 6 310 13:59 09.06.2020
1795 Clouds 14 1008 52 10000 6 310 13:41 09.06.2020
1796 Clouds 14 1007 47 10000 5 290 13:21 09.06.2020
1797 Clouds 14 1007 47 10000 5 290 12:56 09.06.2020
1798 Clouds 13 1008 37 10000 7 300 12:37 09.06.2020
1799 Clouds 14 1008 35 10000 9 270 12:18 09.06.2020
1800 Clouds 14 1008 35 10000 9 270 11:55 09.06.2020
1801 Clouds 15 1008 45 10000 10 280 11:36 09.06.2020
1802 Clouds 17 1007 45 10000 9 290 11:18 09.06.2020
1803 Clouds 18 1007 45 10000 10 290 10:43 09.06.2020
1804 Clouds 18 1007 48 10000 10 290 10:25 09.06.2020
1805 Clouds 19 1007 25 10000 6 290 09:44 09.06.2020
1806 Clouds 19 1007 25 10000 6 290 09:25 09.06.2020
1807 Clouds 19 1007 22 10000 4 290 08:57 09.06.2020
1808 Clouds 19 1008 22 10000 5 250 08:38 09.06.2020
1809 Clouds 19 1008 22 10000 5 250 08:20 09.06.2020
1810 Clouds 18 1008 25 10000 4 270 07:39 09.06.2020
1811 Clouds 17 1008 29 10000 2 0 07:20 09.06.2020
1812 Clouds 17 1009 29 10000 2 0 06:54 09.06.2020
1813 Clouds 17 1009 29 10000 2 0 06:35 09.06.2020
1814 Clouds 16 1010 31 10000 2 0 05:36 09.06.2020
1815 Clouds 12 1012 46 10000 1 0 03:47 09.06.2020
1816 Clouds 7 1012 70 10000 2.23 222 01:44 09.06.2020
1817 Clouds 5 1012 75 10000 1 0 01:20 09.06.2020
1818 Clouds 3 1012 86 10000 1.1 186 00:55 09.06.2020
1819 Clouds 3 1012 86 10000 1.1 186 00:36 09.06.2020
1820 Clouds 0 1012 69 10000 1 0 00:18 09.06.2020
1821 Clouds 0 1012 69 10000 0.95 212 23:40 08.06.2020
1822 Clouds 0 1012 68 10000 1 0 23:19 08.06.2020
1823 Clouds 0 1012 68 10000 1 0 22:54 08.06.2020
1824 Clouds 1 1012 86 10000 1.59 181 22:36 08.06.2020
1825 Clouds 2 1012 66 10000 1 0 22:18 08.06.2020
1826 Clouds 2 1012 66 10000 1 0 21:54 08.06.2020
1827 Clouds 2 1012 93 10000 1 0 21:36 08.06.2020
1828 Clouds 2 1012 67 10000 1 0 21:18 08.06.2020
1829 Clouds 2 1012 67 10000 1 0 20:54 08.06.2020
1830 Clouds 2 1012 67 10000 1 0 20:36 08.06.2020
1831 Clear 1 1012 86 10000 1 0 20:18 08.06.2020
1832 Clear 2 1013 68 10000 1.65 138 19:41 08.06.2020
1833 Clear 2 1012 69 10000 1 0 19:20 08.06.2020
1834 Clear 2 1012 80 10000 1 0 18:41 08.06.2020
1835 Rain 5 1012 75 10000 2 150 18:20 08.06.2020
1836 Rain 5 1012 75 10000 2 150 17:57 08.06.2020
1837 Rain 3 1012 86 10000 2 170 17:39 08.06.2020
1838 Clouds 3 1012 86 10000 2 170 17:20 08.06.2020
1839 Clouds 6 1012 70 10000 1.16 161 16:46 08.06.2020
1840 Clouds 6 1012 70 10000 1.15 161 16:25 08.06.2020
1841 Clouds 7 1012 65 10000 1 0 15:59 08.06.2020
1842 Clouds 8 1011 65 10000 2 170 15:41 08.06.2020
1843 Clouds 8 1011 65 10000 2 170 15:21 08.06.2020
1844 Clouds 8 1011 65 10000 2 170 15:21 08.06.2020
1845 Clouds 10 1011 53 10000 3 50 14:56 08.06.2020
1846 Clouds 10 1011 53 10000 3 50 14:56 08.06.2020
1847 Clouds 10 1011 57 10000 2 0 14:38 08.06.2020
1848 Clouds 10 1011 57 10000 2 0 14:38 08.06.2020
1849 Rain 11 1012 53 10000 5 340 14:18 08.06.2020
1850 Clouds 11 1011 62 10000 5 330 13:42 08.06.2020
1851 Clouds 11 1011 53 10000 5 330 13:21 08.06.2020
1852 Clouds 13 1011 43 10000 4 340 12:42 08.06.2020
1853 Clouds 13 1010 43 10000 4 330 12:20 08.06.2020
1854 Clouds 13 1010 43 10000 4 330 12:19 08.06.2020
1855 Clouds 13 1010 43 10000 4 330 11:58 08.06.2020
1856 Clouds 14 1010 41 10000 4 360 11:39 08.06.2020
1857 Clouds 14 1010 41 10000 4 360 11:20 08.06.2020
1858 Clouds 14 1010 41 10000 5 340 10:56 08.06.2020
1859 Clouds 14 1010 41 10000 6 320 10:37 08.06.2020
1860 Clouds 12 1010 61 10000 7 330 10:19 08.06.2020
1861 Clouds 13 1010 61 10000 8 330 09:46 08.06.2020
1862 Clouds 13 1010 62 10000 8 330 09:23 08.06.2020
1863 Clouds 11 1010 53 10000 7 330 08:50 08.06.2020
1864 Clouds 11 1010 53 10000 7 330 08:24 08.06.2020
1865 Clouds 11 1010 53 10000 7 330 07:56 08.06.2020
1866 Clouds 11 1010 53 10000 7 330 07:56 08.06.2020
1867 Clouds 10 1010 61 10000 7 320 07:38 08.06.2020
1868 Clouds 8 1010 75 10000 6 330 07:20 08.06.2020
1869 Clouds 7 1010 81 10000 6 330 06:39 08.06.2020
1870 Clouds 6 1010 87 10000 5 310 05:55 08.06.2020
1871 Rain 5 1010 80 10000 8 300 05:23 08.06.2020
1872 Clouds 7 1009 65 10000 9 290 03:24 08.06.2020
1873 Clouds 10 1007 61 10000 6 330 02:26 08.06.2020
1874 Clouds 9 1006 61 10000 5 330 01:43 08.06.2020
1875 Clouds 9 1006 57 10000 2 330 00:57 08.06.2020
1876 Clouds 9 1005 84 10000 4 50 00:25 08.06.2020
1877 Clouds 10 1006 53 10000 4 10 23:39 07.06.2020
1878 Clouds 10 1005 53 10000 5 350 23:19 07.06.2020
1879 Clouds 10 1005 53 10000 5 350 22:57 07.06.2020
1880 Clouds 10 1005 53 10000 5 350 22:37 07.06.2020
1881 Clouds 11 1004 82 10000 4 310 22:18 07.06.2020
1882 Clouds 11 1004 82 10000 4 310 21:58 07.06.2020
1883 Clouds 11 1004 82 10000 4 310 21:36 07.06.2020
1884 Clouds 11 1004 32 10000 2 0 21:18 07.06.2020
1885 Clouds 11 1004 32 10000 2 0 20:40 07.06.2020
1886 Clouds 11 1004 32 10000 2 0 20:21 07.06.2020
1887 Clouds 11 1004 32 10000 2 0 19:57 07.06.2020
1888 Clouds 13 1004 28 10000 7 40 19:39 07.06.2020
1889 Clouds 13 1004 28 10000 7 40 19:21 07.06.2020
1890 Clouds 13 1004 28 10000 7 40 18:59 07.06.2020
1891 Clouds 14 1004 26 10000 6 50 18:38 07.06.2020
1892 Clouds 14 1004 24 10000 3 40 18:20 07.06.2020
1893 Clouds 14 1004 24 10000 3 40 17:57 07.06.2020
1894 Clouds 15 1005 24 10000 6 40 17:38 07.06.2020
1895 Clouds 15 1005 24 10000 6 40 17:20 07.06.2020
1896 Clouds 16 1004 19 10000 3 60 16:43 07.06.2020
1897 Clouds 16 1004 19 10000 3 60 16:22 07.06.2020
1898 Clouds 18 1004 17 10000 4 30 15:44 07.06.2020
1899 Clouds 18 1004 17 10000 4 30 15:22 07.06.2020
1900 Clouds 19 1004 15 10000 2 360 14:41 07.06.2020
1901 Clouds 19 1004 15 10000 2 360 14:23 07.06.2020
1902 Clouds 19 1004 15 10000 2 360 14:23 07.06.2020
1903 Clouds 19 1004 15 10000 2 360 14:23 07.06.2020
1904 Clouds 19 1004 15 10000 2 360 14:23 07.06.2020
1905 Clouds 20 1004 14 10000 2 310 13:55 07.06.2020
1906 Clouds 20 1004 14 10000 3 310 13:24 07.06.2020
1907 Clouds 20 1004 14 10000 2 350 12:59 07.06.2020
1908 Clouds 20 1004 14 10000 2 350 12:41 07.06.2020
1909 Clouds 21 1004 18 10000 5 360 12:22 07.06.2020
1910 Clouds 21 1004 18 10000 5 360 11:55 07.06.2020
1911 Clouds 21 1004 16 10000 5 350 11:37 07.06.2020
1912 Clouds 21 1004 16 10000 5 350 11:19 07.06.2020
1913 Clouds 21 1004 18 10000 4 300 10:54 07.06.2020
1914 Clouds 20 1004 18 10000 2 0 10:36 07.06.2020
1915 Clouds 19 1004 20 10000 4 350 10:18 07.06.2020
1916 Clouds 19 1004 22 10000 4 340 09:41 07.06.2020
1917 Clouds 19 1004 22 10000 4 340 09:21 07.06.2020
1918 Clouds 18 1005 20 10000 4 340 08:59 07.06.2020
1919 Clouds 19 1004 22 10000 5 340 08:40 07.06.2020
1920 Clouds 19 1004 22 10000 5 340 08:40 07.06.2020
1921 Clouds 19 1004 22 10000 5 340 08:22 07.06.2020
1922 Clouds 18 1004 23 10000 6 350 07:41 07.06.2020
1923 Clouds 18 1004 25 10000 7 330 06:56 07.06.2020
1924 Clouds 17 1004 29 10000 9 320 06:21 07.06.2020
1925 Clouds 16 1004 44 10000 4 40 04:22 07.06.2020
1926 Clouds 14 1004 47 10000 6 40 03:50 07.06.2020
1927 Clouds 14 1004 50 10000 4 350 02:19 07.06.2020
1928 Clouds 14 1004 50 10000 4 350 01:26 07.06.2020
1929 Clouds 14 1003 54 10000 4 350 00:59 07.06.2020
1930 Clouds 13 1003 54 10000 4 350 00:39 07.06.2020
1931 Clouds 12 1003 58 10000 4 10 00:18 07.06.2020
1932 Clouds 11 1003 62 10000 3 340 23:38 06.06.2020
1933 Clouds 11 1003 62 10000 3 340 23:20 06.06.2020
1934 Clouds 13 1002 54 10000 5 360 22:58 06.06.2020
1935 Clouds 13 1002 54 10000 5 360 22:39 06.06.2020
1936 Clouds 13 1002 54 10000 5 360 22:20 06.06.2020
1937 Clouds 12 1002 58 10000 8 340 21:56 06.06.2020
1938 Clouds 12 1002 58 10000 8 340 21:38 06.06.2020
1939 Clouds 12 1002 58 10000 8 340 21:19 06.06.2020
1940 Clouds 13 1002 47 10000 9 340 20:40 06.06.2020
1941 Clouds 13 1002 47 10000 9 340 20:40 06.06.2020
1942 Clouds 13 1002 47 10000 9 340 20:20 06.06.2020
1943 Clouds 13 1002 47 10000 9 340 19:58 06.06.2020
1944 Clouds 16 1000 55 10000 8 300 19:40 06.06.2020
1945 Clouds 16 1000 55 10000 8 300 19:21 06.06.2020
1946 Clouds 20 998 40 10000 2 0 18:56 06.06.2020
1947 Clouds 20 998 40 10000 2 0 18:37 06.06.2020
1948 Clouds 20 998 40 10000 2 0 18:18 06.06.2020
1949 Clouds 21 998 37 10000 5 20 17:43 06.06.2020
1950 Clouds 21 999 37 10000 4 20 17:20 06.06.2020
1951 Clouds 21 999 37 10000 4 20 16:56 06.06.2020
1952 Clouds 22 998 35 10000 4 40 16:38 06.06.2020
1953 Clouds 22 998 35 10000 4 40 16:20 06.06.2020
1954 Clouds 24 998 31 10000 5 360 15:45 06.06.2020
1955 Clouds 24 998 31 10000 5 360 15:21 06.06.2020
1956 Clouds 25 998 27 10000 3 10 14:59 06.06.2020
1957 Clouds 26 997 24 10000 3 20 14:38 06.06.2020
1958 Clouds 26 997 24 10000 6 340 14:19 06.06.2020
1959 Clouds 26 997 24 10000 6 340 13:48 06.06.2020
1960 Clouds 29 997 17 10000 1 0 13:19 06.06.2020
1961 Clouds 29 997 17 10000 1 0 12:58 06.06.2020
1962 Clouds 29 997 16 10000 2 0 12:39 06.06.2020
1963 Clouds 28 997 17 10000 2 0 12:20 06.06.2020
1964 Clouds 28 997 17 10000 2 0 11:55 06.06.2020
1965 Squall 28 997 65 10000 10 260 11:37 06.06.2020
1966 Clouds 29 997 14 10000 5 260 11:18 06.06.2020
1967 Clouds 29 997 14 10000 5 260 10:56 06.06.2020
1968 Clouds 30 996 24 10000 7 280 10:38 06.06.2020
1969 Clouds 30 996 13 10000 6 290 10:20 06.06.2020
1970 Clouds 32 996 11 10000 6 250 09:44 06.06.2020
1971 Clouds 32 996 11 10000 6 250 09:25 06.06.2020
1972 Clouds 31 996 12 10000 6 240 08:48 06.06.2020
1973 Clouds 31 996 12 10000 6 240 08:25 06.06.2020
1974 Clouds 31 997 14 10000 4 270 07:57 06.06.2020
1975 Clouds 30 998 13 10000 3 230 07:39 06.06.2020
1976 Clouds 30 998 13 10000 3 230 07:20 06.06.2020
1977 Clouds 30 998 13 10000 3 170 06:45 06.06.2020
1978 Clouds 30 998 13 10000 3 170 06:26 06.06.2020
1979 Clouds 27 999 18 10000 2 0 05:44 06.06.2020
1980 Clouds 27 999 18 10000 2 0 05:23 06.06.2020
1981 Clouds 23 1000 25 10000 1 0 03:46 06.06.2020
1982 Clouds 20 1000 30 10000 1 0 02:36 06.06.2020
1983 Clouds 18 999 34 10000 1 0 01:23 06.06.2020
1984 Clouds 18 999 34 10000 1 0 00:59 06.06.2020
1985 Clouds 15 999 44 10000 1 0 00:40 06.06.2020
1986 Clouds 13 998 43 10000 1 0 00:22 06.06.2020
1987 Clouds 12 998 46 10000 1 0 23:40 05.06.2020
1988 Clouds 12 998 46 10000 1 0 23:20 05.06.2020
1989 Clouds 16 999 36 10000 2 0 22:57 05.06.2020
1990 Clouds 16 999 36 10000 2 0 22:39 05.06.2020
1991 Clouds 16 999 36 10000 2 0 22:20 05.06.2020
1992 Clouds 20 999 30 10000 6 40 21:55 05.06.2020
1993 Clouds 20 999 30 10000 6 40 21:37 05.06.2020
1994 Clouds 20 999 30 10000 6 40 21:18 05.06.2020
1995 Clouds 20 999 30 10000 6 60 20:44 05.06.2020
1996 Clouds 20 999 30 10000 6 60 20:22 05.06.2020
1997 Clouds 22 1000 26 10000 6 40 19:44 05.06.2020
1998 Clouds 22 1000 26 10000 6 40 19:24 05.06.2020
1999 Clouds 22 1000 26 10000 6 40 18:59 05.06.2020
2000 Clouds 22 1000 26 10000 6 40 18:39 05.06.2020
2001 Clouds 19 1000 29 10000 1 0 18:20 05.06.2020
2002 Clouds 19 1000 29 10000 1 0 17:59 05.06.2020
2003 Clouds 19 1000 34 10000 1 0 17:40 05.06.2020
2004 Clouds 19 1000 34 10000 1 0 17:20 05.06.2020
2005 Clouds 22 1001 28 10000 4 40 16:43 05.06.2020
2006 Clouds 22 1001 28 10000 4 40 16:25 05.06.2020
2007 Clouds 22 1001 28 10000 4 40 15:59 05.06.2020
2008 Clouds 22 1001 30 10000 4 340 15:38 05.06.2020
2009 Clouds 22 1001 30 10000 4 340 15:20 05.06.2020
2010 Clouds 25 1001 16 10000 2 0 14:57 05.06.2020
2011 Clouds 25 1001 17 10000 3 30 14:39 05.06.2020
2012 Clouds 25 1001 17 10000 3 30 14:21 05.06.2020
2013 Clouds 27 1001 14 10000 3 20 13:44 05.06.2020
2014 Clouds 27 1001 14 10000 3 20 13:26 05.06.2020
2015 Clouds 27 1001 14 10000 3 20 12:55 05.06.2020
2016 Clouds 26 1001 15 10000 2 0 12:37 05.06.2020
2017 Clouds 27 1001 13 10000 1 0 12:18 05.06.2020
2018 Clouds 27 1001 13 10000 2 0 11:42 05.06.2020
2019 Clouds 27 1001 13 10000 2 0 11:23 05.06.2020
2020 Clouds 28 1001 13 10000 5 230 10:57 05.06.2020
2021 Clouds 28 1002 25 10000 4 270 10:38 05.06.2020
2022 Clouds 28 1002 26 10000 4 270 10:19 05.06.2020
2023 Clouds 27 1002 15 10000 6 230 09:56 05.06.2020
2024 Clouds 26 1002 16 10000 4 230 09:37 05.06.2020
2025 Clouds 26 1002 16 10000 4 230 09:37 05.06.2020
2026 Clouds 26 1002 16 10000 4 230 09:18 05.06.2020
2027 Clouds 26 1003 26 10000 5 230 08:56 05.06.2020
2028 Clouds 26 1003 26 10000 6 250 08:38 05.06.2020
2029 Clouds 26 1003 26 10000 6 250 08:38 05.06.2020
2030 Clouds 26 1003 29 10000 6 250 08:18 05.06.2020
2031 Clouds 25 1003 29 10000 5 270 07:43 05.06.2020
2032 Clouds 25 1003 20 10000 4 220 07:23 05.06.2020
2033 Clouds 23 1004 25 10000 3 190 06:20 05.06.2020
2034 Clouds 21 1005 26 10000 4 170 05:21 05.06.2020
2035 Clouds 21 1005 26 10000 3 170 04:26 05.06.2020
2036 Clouds 16 1006 51 10000 4 30 02:56 05.06.2020
2037 Clouds 17 1006 51 10000 3 70 02:24 05.06.2020
2038 Clouds 15 1006 51 10000 5 140 01:55 05.06.2020
2039 Clouds 15 1006 51 10000 5 140 01:26 05.06.2020
2040 Rain 10 1008 76 10000 3 310 00:42 05.06.2020
2041 Clouds 11 1006 71 10000 1 0 00:20 05.06.2020
2042 Clouds 9 1006 70 10000 1 0 23:46 04.06.2020
2043 Clouds 9 1006 70 10000 1 0 23:27 04.06.2020
2044 Clouds 10 1006 71 10000 1 0 22:55 04.06.2020
2045 Clouds 10 1007 71 10000 2 290 22:36 04.06.2020
2046 Clouds 12 1007 58 10000 1 0 22:18 04.06.2020
2047 Clouds 12 1007 58 10000 1 0 21:55 04.06.2020
2048 Clouds 12 1007 62 10000 3 130 21:36 04.06.2020
2049 Clouds 12 1008 66 10000 2 110 21:18 04.06.2020
2050 Clouds 12 1008 66 10000 2 110 20:40 04.06.2020
2051 Clouds 12 1008 66 10000 2 110 20:21 04.06.2020
2052 Clouds 14 1008 62 10000 4 170 19:59 04.06.2020
2053 Clouds 14 1008 62 10000 4 170 19:38 04.06.2020
2054 Clouds 14 1008 62 10000 4 170 19:20 04.06.2020
2055 Rain 16 1008 44 10000 3 220 18:54 04.06.2020
2056 Rain 16 1008 44 10000 3 220 18:36 04.06.2020
2057 Rain 16 1008 44 10000 3 220 18:18 04.06.2020
2058 Clouds 15 1007 47 10000 3 210 17:41 04.06.2020
2059 Clouds 15 1007 47 10000 3 210 17:21 04.06.2020
2060 Clouds 18 1007 31 10000 1 0 16:41 04.06.2020
2061 Clouds 18 1007 31 10000 1 0 16:22 04.06.2020
2062 Clouds 17 1006 33 10000 1 0 15:59 04.06.2020
2063 Clouds 17 1006 36 10000 3 110 15:40 04.06.2020
2064 Clouds 17 1006 36 10000 3 110 15:22 04.06.2020
2065 Clouds 17 1006 36 10000 3 110 15:22 04.06.2020
2066 Clouds 20 1006 28 10000 3 50 14:39 04.06.2020
2067 Clouds 21 1006 52 10000 2 100 14:20 04.06.2020
2068 Clouds 21 1006 52 10000 2 100 13:56 04.06.2020
2069 Clouds 21 1006 52 10000 2 100 13:37 04.06.2020
2070 Clouds 22 1006 24 10000 5 340 13:19 04.06.2020
2071 Clouds 22 1005 28 10000 4 330 12:54 04.06.2020
2072 Clouds 22 1005 28 10000 4 330 12:36 04.06.2020
2073 Clouds 22 1005 28 10000 4 330 12:18 04.06.2020
2074 Rain 20 1006 34 10000 4 240 11:39 04.06.2020
2075 Rain 22 1006 24 10000 4 240 11:20 04.06.2020
2076 Rain 22 1006 24 10000 4 240 10:58 04.06.2020
2077 Clouds 22 1006 24 10000 3 210 10:38 04.06.2020
2078 Clouds 22 1006 24 10000 2 0 10:19 04.06.2020
2079 Clouds 22 1006 26 10000 1 0 09:45 04.06.2020
2080 Clouds 22 1006 26 10000 1 0 09:27 04.06.2020
2081 Clouds 20 1007 30 10000 4 50 08:49 04.06.2020
2082 Clouds 20 1007 30 10000 4 50 08:28 04.06.2020
2083 Clouds 19 1008 32 10000 1 0 07:58 04.06.2020
2084 Rain 18 1008 39 10000 6 270 07:29 04.06.2020
2085 Rain 20 1008 28 10000 4 260 06:44 04.06.2020
2086 Clouds 20 1008 28 10000 3 210 06:26 04.06.2020
2087 Clouds 19 1008 32 10000 4 240 05:39 04.06.2020
2088 Clouds 19 1008 32 10000 4 240 05:20 04.06.2020
2089 Clouds 13 1009 50 10000 1 0 03:28 04.06.2020
2090 Clouds 9 1009 61 10000 1.38 182 01:57 04.06.2020
2091 Clouds 8 1009 65 10000 1.13 145 01:20 04.06.2020
2092 Clouds 5 1009 80 10000 1 0 00:50 04.06.2020
2093 Clouds 4 1009 80 10000 1.02 114 23:55 03.06.2020
2094 Clouds 4 1009 80 10000 1 0 23:36 03.06.2020
2095 Clouds 4 1009 80 10000 1 0 23:36 03.06.2020
2096 Clouds 4 1008 80 10000 1 0 23:18 03.06.2020
2097 Clouds 4 1008 80 10000 1 0 22:39 03.06.2020
2098 Clouds 3 1009 75 10000 1.29 90 22:19 03.06.2020
2099 Clouds 3 1009 75 10000 1.29 90 22:19 03.06.2020
2100 Clouds 3 1009 75 10000 1.29 90 22:19 03.06.2020
2101 Clouds 3 1009 75 10000 1.29 90 21:58 03.06.2020
2102 Clouds 3 1009 75 10000 1.29 90 21:39 03.06.2020
2103 Clouds 3 1009 75 10000 0.9 90 21:21 03.06.2020
2104 Clouds 3 1009 76 10000 0.58 94 20:56 03.06.2020
2105 Clouds 5 1009 75 10000 0.58 94 20:38 03.06.2020
2106 Clear 5 1009 75 10000 0.38 102 20:19 03.06.2020
2107 Clear 5 1008 75 10000 1 0 19:56 03.06.2020
2108 Clear 5 1008 75 10000 1 0 19:37 03.06.2020
2109 Clear 5 1008 75 10000 1 0 19:19 03.06.2020
2110 Clear 7 1008 70 10000 2 150 18:54 03.06.2020
2111 Clear 7 1008 70 10000 2 150 18:36 03.06.2020
2112 Clear 7 1008 70 10000 2 150 18:18 03.06.2020
2113 Clear 8 1008 65 10000 3 160 17:41 03.06.2020
2114 Clear 8 1008 65 10000 3 160 17:21 03.06.2020
2115 Clear 9 1008 61 10000 3 160 16:55 03.06.2020
2116 Clear 9 1008 61 10000 3 160 16:37 03.06.2020
2117 Clear 10 1008 57 10000 2 170 16:18 03.06.2020
2118 Clear 12 1007 50 10000 2 210 15:41 03.06.2020
2119 Clear 12 1007 50 10000 2 210 15:20 03.06.2020
2120 Clear 16 1007 38 10000 2 0 14:48 03.06.2020
2121 Clouds 16 1007 38 10000 2 0 14:26 03.06.2020
2122 Clouds 16 1007 38 10000 2 0 13:59 03.06.2020
2123 Clouds 16 1007 38 10000 3 230 13:38 03.06.2020
2124 Clouds 17 1007 36 10000 2 0 13:18 03.06.2020
2125 Clouds 16 1007 38 10000 2 0 12:43 03.06.2020
2126 Clouds 17 1007 33 10000 2 0 12:21 03.06.2020
2127 Clouds 17 1007 36 10000 4 230 11:46 03.06.2020
2128 Clouds 17 1007 36 10000 4 230 11:27 03.06.2020
2129 Clouds 16 1008 38 10000 5 240 10:57 03.06.2020
2130 Clouds 15 1008 41 10000 7 230 10:39 03.06.2020
2131 Clouds 15 1008 41 10000 7 230 10:20 03.06.2020
2132 Clouds 14 1008 44 10000 9 230 09:44 03.06.2020
2133 Clouds 14 1008 44 10000 9 230 09:20 03.06.2020
2134 Clouds 16 1008 21 10000 5 260 08:48 03.06.2020
2135 Clouds 16 1008 21 10000 5 260 08:28 03.06.2020
2136 Clouds 16 1007 21 10000 3 240 07:59 03.06.2020
2137 Clouds 16 1007 21 10000 2 0 07:41 03.06.2020
2138 Clouds 16 1007 21 10000 2 0 07:19 03.06.2020
2139 Clouds 16 1007 18 10000 2 0 06:49 03.06.2020
2140 Clouds 16 1007 18 10000 2 0 06:30 03.06.2020
2141 Clouds 15 1008 21 10000 2 0 05:46 03.06.2020
2142 Clouds 14 1008 26 10000 2 0 04:46 03.06.2020
2143 Clouds 11 1008 27 10000 2 290 03:50 03.06.2020
2144 Clouds 10 1008 34 10000 1.52 299 02:47 03.06.2020
2145 Clouds 9 1008 36 10000 1.5 283 01:51 03.06.2020
2146 Clear 4 1008 60 10000 0.72 346 00:43 03.06.2020
2147 Clear 4 1008 60 10000 1.05 354 00:24 03.06.2020
2148 Clear 0 1008 72 10000 4 160 23:51 02.06.2020
2149 Clear 0 1008 75 10000 4 160 23:28 02.06.2020
2150 Clear 0 1008 75 10000 4 160 23:28 02.06.2020
2151 Clear 0 1008 75 10000 4 160 23:28 02.06.2020
2152 Clear 0 1008 75 10000 1.71 332 22:56 02.06.2020
2153 Clear -2 1008 79 10000 3 170 22:38 02.06.2020
2154 Clear -1 1008 74 10000 1.87 335 22:18 02.06.2020
2155 Clear -1 1008 74 10000 1.87 335 21:56 02.06.2020
2156 Clear -1 1008 74 10000 1.87 335 21:37 02.06.2020
2157 Clear -1 1008 74 10000 2.01 319 21:19 02.06.2020
2158 Clear 0 1008 71 10000 2 160 20:55 02.06.2020
2159 Clear 0 1008 71 10000 2 160 20:36 02.06.2020
2160 Clouds 0 1008 69 10000 2 160 20:18 02.06.2020
2161 Clouds 1 1008 64 10000 2 0 19:42 02.06.2020
2162 Clouds 1 1008 64 10000 2 0 19:24 02.06.2020
2163 Clouds 1 1008 64 10000 2 0 18:57 02.06.2020
2164 Clouds 0 1008 68 10000 1 0 18:39 02.06.2020
2165 Clouds 6 1008 41 10000 2.03 333 18:20 02.06.2020
2166 Clouds 6 1008 41 10000 2.03 333 17:55 02.06.2020
2167 Clouds 4 1008 48 10000 1 0 17:37 02.06.2020
2168 Clouds 4 1008 48 10000 1 0 17:18 02.06.2020
2169 Clouds 5 1008 44 10000 1 0 16:40 02.06.2020
2170 Clouds 5 1008 44 10000 1 0 16:21 02.06.2020
2171 Clouds 9 1008 34 10000 2 350 15:58 02.06.2020
2172 Clouds 11 1008 27 10000 4 360 15:38 02.06.2020
2173 Clouds 11 1008 27 10000 4 360 15:20 02.06.2020
2174 Clouds 13 1008 24 10000 6 350 14:45 02.06.2020
2175 Clouds 13 1008 24 10000 6 350 14:27 02.06.2020
2176 Clouds 13 1007 24 10000 7 340 13:55 02.06.2020
2177 Clouds 13 1007 24 10000 7 340 13:36 02.06.2020
2178 Clouds 14 1007 19 10000 8 320 13:18 02.06.2020
2179 Clouds 14 1007 19 10000 9 330 12:40 02.06.2020
2180 Clouds 14 1007 19 10000 9 330 12:22 02.06.2020
2181 Clouds 14 1007 19 10000 9 330 11:59 02.06.2020
2182 Clouds 14 1007 22 10000 9 330 11:40 02.06.2020
2183 Clouds 14 1007 22 10000 9 330 11:20 02.06.2020
2184 Clouds 14 1007 20 10000 10 330 10:50 02.06.2020
2185 Clouds 15 1007 21 10000 9 330 10:28 02.06.2020
2186 Clouds 14 1007 19 10000 11 320 09:59 02.06.2020
2187 Clouds 14 1007 19 10000 12 330 09:40 02.06.2020
2188 Clouds 14 1007 19 10000 12 330 09:20 02.06.2020
2189 Clouds 14 1007 19 10000 11 320 08:51 02.06.2020
2190 Clouds 13 1007 24 10000 11 320 08:23 02.06.2020
2191 Clouds 12 1007 23 10000 11 330 07:53 02.06.2020
2192 Clouds 12 1007 23 10000 11 330 07:30 02.06.2020
2193 Clouds 12 1007 25 10000 10 330 06:51 02.06.2020
2194 Clouds 10 1007 34 10000 11 330 06:30 02.06.2020
2195 Clouds 10 1006 37 10000 11 340 05:27 02.06.2020
2196 Clouds 7 1006 75 10000 10 300 03:29 02.06.2020
2197 Clouds 7 1006 56 10000 12 340 02:30 02.06.2020
2198 Clouds 7 1005 72 10000 11 340 01:33 02.06.2020
2199 Clouds 7 1004 70 10000 5 310 00:26 02.06.2020
2200 Clouds 8 1003 65 10000 4 310 23:58 01.06.2020
2201 Clouds 9 1002 61 10000 3 340 23:37 01.06.2020
2202 Clouds 9 1002 61 10000 3 340 23:18 01.06.2020
2203 Clouds 10 1001 66 10000 4 340 22:54 01.06.2020
2204 Clouds 10 1001 66 10000 4 340 22:36 01.06.2020
2205 Clouds 13 998 32 10000 5 230 22:18 01.06.2020
2206 Clouds 13 998 32 10000 5 230 21:41 01.06.2020
2207 Clouds 13 998 32 10000 5 230 21:20 01.06.2020
2208 Clouds 13 999 32 10000 4 210 20:58 01.06.2020
2209 Clouds 10 999 66 0 10.91 313 20:39 01.06.2020
2210 Clouds 14 1000 30 10000 5 200 20:19 01.06.2020
2211 Clouds 14 1000 30 10000 5 200 19:55 01.06.2020
2212 Clouds 14 1000 30 10000 5 200 19:37 01.06.2020
2213 Clouds 14 1000 30 10000 5 200 19:19 01.06.2020
2214 Clouds 13 1000 35 10000 4 190 18:55 01.06.2020
2215 Clouds 13 1000 35 10000 4 190 18:37 01.06.2020
2216 Clouds 12 1001 40 10000 3 200 18:18 01.06.2020
2217 Clouds 12 1001 40 10000 3 200 17:40 01.06.2020
2218 Clouds 14 1001 35 10000 2 0 17:19 01.06.2020
2219 Clouds 14 1001 35 10000 2 0 16:42 01.06.2020
2220 Clouds 13 1002 52 10000 4 170 16:22 01.06.2020
2221 Clouds 13 1002 52 10000 4 170 15:59 01.06.2020
2222 Clouds 13 1002 52 10000 2 0 15:39 01.06.2020
2223 Clouds 13 1002 51 10000 2 0 15:20 01.06.2020
2224 Clouds 17 1002 27 10000 1 0 14:58 01.06.2020
2225 Clouds 17 1002 27 10000 1 0 14:58 01.06.2020
2226 Clouds 19 1002 24 10000 3 280 14:40 01.06.2020
2227 Clouds 20 1003 22 10000 8 280 14:21 01.06.2020
2228 Clouds 20 1003 22 10000 8 280 13:54 01.06.2020
2229 Clouds 20 1003 22 10000 8 280 13:36 01.06.2020
2230 Clouds 21 1003 21 10000 7 280 13:18 01.06.2020
2231 Clouds 21 1003 21 10000 7 280 12:54 01.06.2020
2232 Clouds 20 1003 22 10000 8 280 12:36 01.06.2020
2233 Clouds 21 1003 21 10000 7 290 12:18 01.06.2020
2234 Clouds 20 1003 20 10000 7 280 11:38 01.06.2020
2235 Clouds 19 1004 22 10000 8 280 11:19 01.06.2020
2236 Clouds 19 1004 22 10000 8 280 10:57 01.06.2020
2237 Clouds 20 1004 20 10000 8 280 10:37 01.06.2020
2238 Clouds 20 1004 24 10000 5 260 10:18 01.06.2020
2239 Clouds 19 1004 22 10000 6 270 09:46 01.06.2020
2240 Clouds 19 1004 22 10000 6 270 09:27 01.06.2020
2241 Clouds 20 1004 20 10000 7 260 08:57 01.06.2020
2242 Clouds 18 1005 27 10000 6 270 08:37 01.06.2020
2243 Clouds 18 1005 27 10000 6 270 08:19 01.06.2020
2244 Clouds 18 1005 27 10000 7 260 07:41 01.06.2020
2245 Clouds 18 1005 27 10000 7 260 07:41 01.06.2020
2246 Clouds 18 1005 27 10000 7 260 07:22 01.06.2020
2247 Clouds 18 1006 27 10000 7 300 06:49 01.06.2020
2248 Clouds 17 1006 43 10000 6 280 05:57 01.06.2020
2249 Clouds 15 1007 38 10000 5 310 05:18 01.06.2020
2250 Clouds 14 1007 51 10000 2 0 03:57 01.06.2020
2251 Clouds 13 1007 37 10000 1 0 03:39 01.06.2020
2252 Clouds 13 1007 57 10000 1 0 02:57 01.06.2020
2253 Clouds 5 1007 80 10000 2.41 265 01:40 01.06.2020
2254 Clouds 4 1006 80 10000 1.17 247 01:18 01.06.2020
2255 Clouds 4 1006 80 10000 1.17 247 00:56 01.06.2020
2256 Clouds 4 1006 60 10000 1.17 247 00:37 01.06.2020
2257 Clouds 5 1006 67 10000 1 0 00:19 01.06.2020
2258 Clouds 4 1006 67 10000 2 150 23:41 31.05.2020
2259 Clouds 4 1006 67 10000 2 150 23:22 31.05.2020
2260 Clouds 4 1006 67 10000 1 0 22:58 31.05.2020
2261 Clouds 4 1006 67 10000 1 0 22:40 31.05.2020
2262 Clouds 4 1006 66 10000 1 0 22:22 31.05.2020
2263 Clouds 6 1005 66 10000 2 0 21:57 31.05.2020
2264 Clouds 6 1005 66 10000 2 0 21:39 31.05.2020
2265 Clouds 6 1005 64 10000 2 0 21:20 31.05.2020
2266 Clouds 3 1005 74 10000 1.72 97 20:44 31.05.2020
2267 Clouds 3 1005 74 10000 2.07 80 20:25 31.05.2020
2268 Clouds 7 1005 62 10000 2.07 80 19:56 31.05.2020
2269 Clouds 7 1005 62 10000 2.07 80 19:38 31.05.2020
2270 Clouds 7 1005 61 10000 2.12 88 19:20 31.05.2020
2271 Clouds 8 1005 61 10000 1 0 18:45 31.05.2020
2272 Clouds 8 1005 59 10000 1 0 18:25 31.05.2020
2273 Clouds 8 1005 52 10000 1 0 17:59 31.05.2020
2274 Clouds 8 1005 52 10000 1 0 17:40 31.05.2020
2275 Clouds 8 1005 52 10000 1 0 17:20 31.05.2020
2276 Clouds 10 1005 46 10000 3 160 16:41 31.05.2020
2277 Clouds 10 1005 46 10000 3 160 16:21 31.05.2020
2278 Clouds 9 1004 57 10000 3 140 15:55 31.05.2020
2279 Clouds 14 1004 33 10000 2.08 64 15:36 31.05.2020
2280 Clouds 17 1004 25 10000 1 0 15:18 31.05.2020
2281 Clouds 17 1004 25 10000 1 0 14:41 31.05.2020
2282 Clouds 17 1004 25 10000 1 0 14:19 31.05.2020
2283 Clouds 16 1004 26 10000 2 310 13:55 31.05.2020
2284 Clouds 17 1004 21 10000 2 0 13:37 31.05.2020
2285 Clouds 17 1004 23 10000 1 0 13:19 31.05.2020
2286 Clouds 17 1004 23 10000 2 0 12:43 31.05.2020
2287 Clouds 17 1004 23 10000 2 0 12:23 31.05.2020
2288 Clouds 18 1004 23 10000 2 0 11:55 31.05.2020
2289 Clouds 17 1005 23 10000 1 0 11:36 31.05.2020
2290 Clouds 18 1005 22 10000 4 240 11:18 31.05.2020
2291 Clouds 17 1005 23 10000 2 0 10:43 31.05.2020
2292 Clouds 17 1005 23 10000 2 0 10:25 31.05.2020
2293 Clouds 17 1005 23 10000 2 0 10:25 31.05.2020
2294 Clouds 17 1005 23 10000 6 230 09:58 31.05.2020
2295 Clouds 16 1006 26 10000 4 240 09:40 31.05.2020
2296 Clouds 16 1006 26 10000 4 240 09:20 31.05.2020
2297 Clouds 15 1007 28 10000 3 230 08:42 31.05.2020
2298 Clouds 15 1007 28 10000 3 230 08:24 31.05.2020
2299 Clouds 16 1007 26 10000 3 170 07:49 31.05.2020
2300 Clouds 15 1008 30 10000 3 140 07:22 31.05.2020
2301 Clouds 14 1008 30 10000 2 0 06:57 31.05.2020
2302 Clouds 13 1009 30 10000 3 190 06:35 31.05.2020
2303 Clouds 12 1009 32 10000 3 170 05:49 31.05.2020
2304 Clouds 12 1009 32 10000 4 180 05:31 31.05.2020
2305 Clouds 8 1010 49 10000 1 0 04:18 31.05.2020
2306 Clouds 7 1010 49 10000 1 0 03:29 31.05.2020
2307 Clouds 4 1010 56 10000 2.33 183 02:46 31.05.2020
2308 Clouds 2 1011 62 10000 1.93 164 01:46 31.05.2020
2309 Clouds -1 1011 92 10000 1 0 00:41 31.05.2020
2310 Clouds -1 1011 92 10000 1 0 00:23 31.05.2020
2311 Clouds -1 1011 86 10000 1.16 145 23:42 30.05.2020
2312 Clouds -1 1011 86 10000 1.2 139 23:23 30.05.2020
2313 Clouds -1 1011 92 10000 1 0 22:56 30.05.2020
2314 Clouds -1 1011 92 10000 1 0 22:37 30.05.2020
2315 Clear -1 1011 92 10000 1 0 22:19 30.05.2020
2316 Clear 2 1011 80 10000 0.94 134 21:42 30.05.2020
2317 Clear 2 1011 80 10000 0.94 124 21:22 30.05.2020
2318 Clouds 1 1011 86 10000 2 0 20:57 30.05.2020
2319 Clouds 1 1011 86 10000 2 0 20:39 30.05.2020
2320 Clouds 1 1011 86 10000 2 0 20:21 30.05.2020
2321 Clouds 3 1011 76 10000 3 160 19:55 30.05.2020
2322 Clouds 3 1011 76 10000 3 160 19:37 30.05.2020
2323 Clouds 3 1011 76 10000 3 160 19:37 30.05.2020
2324 Clouds 5 1012 75 10000 3 130 19:18 30.05.2020
2325 Clouds 5 1012 75 10000 3 130 18:42 30.05.2020
2326 Rain 7 1012 56 10000 2 200 18:18 30.05.2020
2327 Rain 7 1012 56 10000 2 200 17:41 30.05.2020
2328 Rain 7 1012 56 10000 2 200 17:23 30.05.2020
2329 Clouds 7 1012 56 10000 1 0 16:57 30.05.2020
2330 Rain 6 1011 71 10000 2 150 16:37 30.05.2020
2331 Clouds 7 1011 56 10000 2 0 16:18 30.05.2020
2332 Clouds 7 1011 52 10000 4 320 15:42 30.05.2020
2333 Clouds 7 1011 52 10000 4 320 15:42 30.05.2020
2334 Clouds 7 1011 52 10000 4 320 15:23 30.05.2020
2335 Clouds 7 1011 56 10000 8 290 14:43 30.05.2020
2336 Clouds 7 1011 56 10000 8 290 14:24 30.05.2020
2337 Clouds 11 1010 29 10000 3 330 13:43 30.05.2020
2338 Clouds 11 1010 29 10000 3 330 13:23 30.05.2020
2339 Clouds 11 1010 27 10000 3 330 12:42 30.05.2020
2340 Clouds 11 1010 27 10000 3 330 12:20 30.05.2020
2341 Clouds 11 1010 27 10000 2 0 11:57 30.05.2020
2342 Clouds 10 1010 31 10000 4 10 11:39 30.05.2020
2343 Clouds 10 1010 31 10000 4 10 11:21 30.05.2020
2344 Clouds 10 1011 29 10000 2 0 10:40 30.05.2020
2345 Clouds 10 1011 29 10000 2 0 10:21 30.05.2020
2346 Clouds 10 1011 29 10000 4 20 09:49 30.05.2020
2347 Clouds 11 1011 29 10000 4 300 09:31 30.05.2020
2348 Clouds 9 1011 31 10000 4 320 08:51 30.05.2020
2349 Clouds 9 1012 39 10000 4 10 08:32 30.05.2020
2350 Clouds 8 1012 42 10000 6 320 07:45 30.05.2020
2351 Clouds 8 1012 42 10000 6 320 07:25 30.05.2020
2352 Clouds 8 1012 42 10000 5 350 06:52 30.05.2020
2353 Clouds 7 1013 48 10000 5 340 06:23 30.05.2020
2354 Clouds 7 1013 42 10000 4 350 05:49 30.05.2020
2355 Clouds 4 1013 64 10000 5 350 03:46 30.05.2020
2356 Clouds 4 1013 69 10000 5 340 02:30 30.05.2020
2357 Clouds 3 1013 80 10000 5 320 01:49 30.05.2020
2358 Clouds 2 1013 80 10000 4 300 00:38 30.05.2020
2359 Clouds 2 1013 80 10000 4 300 00:19 30.05.2020
2360 Clouds 2 1013 80 10000 3 300 23:57 29.05.2020
2361 Clouds 2 1013 80 10000 3 300 23:38 29.05.2020
2362 Clouds 2 1012 80 10000 3 310 23:18 29.05.2020
2363 Clouds 2 1012 80 10000 3 310 22:41 29.05.2020
2364 Clouds 2 1012 80 10000 3 310 22:19 29.05.2020
2365 Clouds 2 1012 80 10000 4 330 21:58 29.05.2020
2366 Clouds 2 1012 80 10000 4 330 21:39 29.05.2020
2367 Clouds 2 1012 80 10000 4 330 21:20 29.05.2020
2368 Clouds 2 1012 80 10000 5 340 20:45 29.05.2020
2369 Clouds 2 1012 80 10000 5 340 20:21 29.05.2020
2370 Clouds 2 1012 80 10000 5 310 19:59 29.05.2020
2371 Clouds 2 1012 80 10000 5 310 19:40 29.05.2020
2372 Clouds 2 1012 80 10000 5 310 19:22 29.05.2020
2373 Clouds 2 1012 80 10000 5 330 18:47 29.05.2020
2374 Clouds 2 1012 80 10000 5 330 18:20 29.05.2020
2375 Clouds 3 1012 74 10000 4 330 17:56 29.05.2020
2376 Clouds 3 1012 74 10000 4 330 17:38 29.05.2020
2377 Clouds 3 1012 74 10000 4 330 17:19 29.05.2020
2378 Clouds 3 1012 82 10000 4 340 16:43 29.05.2020
2379 Clouds 3 1012 84 10000 4 340 16:25 29.05.2020
2380 Clouds 3 1011 84 10000 5 340 15:56 29.05.2020
2381 Clouds 3 1011 84 10000 5 340 15:38 29.05.2020
2382 Clouds 3 1011 86 10000 5 340 15:19 29.05.2020
2383 Clouds 3 1010 86 10000 7 340 14:49 29.05.2020
2384 Clouds 3 1010 82 10000 7 340 14:23 29.05.2020
2385 Clouds 3 1010 86 10000 6 330 13:57 29.05.2020
2386 Rain 3 1010 86 10000 8 330 13:38 29.05.2020
2387 Rain 4 1009 80 10000 6 330 13:18 29.05.2020
2388 Rain 4 1009 80 8000 7 330 12:42 29.05.2020
2389 Rain 4 1009 80 8000 7 330 12:23 29.05.2020
2390 Rain 4 1009 80 10000 7 340 11:45 29.05.2020
2391 Rain 4 1009 80 10000 7 340 11:27 29.05.2020
2392 Rain 4 1008 80 10000 7 340 10:57 29.05.2020
2393 Rain 4 1008 80 10000 7 350 10:37 29.05.2020
2394 Rain 4 1008 80 10000 8 340 10:18 29.05.2020
2395 Rain 4 1008 80 10000 8 350 09:43 29.05.2020
2396 Clouds 4 1007 80 10000 5 350 09:20 29.05.2020
2397 Rain 4 1008 80 10000 7 350 08:49 29.05.2020
2398 Rain 4 1008 80 10000 7 350 08:26 29.05.2020
2399 Rain 4 1008 80 10000 5 30 07:59 29.05.2020
2400 Rain 3 1008 86 10000 3 20 07:39 29.05.2020
2401 Rain 3 1008 86 10000 3 20 07:21 29.05.2020
2402 Rain 3 1008 87 3600 4 10 06:47 29.05.2020
2403 Rain 3 1008 85 3600 4 10 06:27 29.05.2020
2404 Clouds 3 1008 85 10000 6 340 05:51 29.05.2020
2405 Clouds 1 1009 85 10000 2 0 02:39 29.05.2020
2406 Snow 0 1008 88 10000 5 350 01:30 29.05.2020
2407 Snow 0 1008 90 3600 2 0 00:59 29.05.2020
2408 Snow 0 1008 90 2000 3 320 00:40 29.05.2020
2409 Snow 0 1008 89 2000 3 320 00:18 29.05.2020
2410 Snow 0 1008 89 3000 3 310 23:39 28.05.2020
2411 Snow 0 1008 90 3000 3 310 23:19 28.05.2020
2412 Clouds 3 1008 74 10000 6 340 22:44 28.05.2020
2413 Clouds 3 1008 74 10000 6 340 22:26 28.05.2020
2414 Clouds 3 1007 74 10000 4 340 21:57 28.05.2020
2415 Clouds 3 1007 74 10000 4 340 21:39 28.05.2020
2416 Clouds 3 1007 74 10000 4 340 21:20 28.05.2020
2417 Clouds 3 1007 74 10000 6 330 20:57 28.05.2020
2418 Clouds 3 1007 74 10000 6 330 20:39 28.05.2020
2419 Rain 3 1007 74 10000 6 350 20:18 28.05.2020
2420 Rain 3 1007 74 10000 6 350 19:55 28.05.2020
2421 Rain 3 1007 74 10000 6 350 19:37 28.05.2020
2422 Rain 3 1007 74 10000 6 350 19:19 28.05.2020
2423 Clouds 3 1008 80 10000 6 340 18:42 28.05.2020
2424 Clouds 3 1008 81 10000 6 340 18:23 28.05.2020
2425 Clouds 4 1008 81 10000 7 350 17:43 28.05.2020
2426 Clouds 4 1008 81 10000 7 350 17:43 28.05.2020
2427 Clouds 4 1008 81 10000 7 350 17:23 28.05.2020
2428 Clouds 4 1008 81 10000 6 350 16:59 28.05.2020
2429 Clouds 4 1008 81 10000 5 360 16:39 28.05.2020
2430 Clouds 4 1008 80 10000 5 360 16:20 28.05.2020
2431 Clouds 5 1007 75 10000 6 340 15:46 28.05.2020
2432 Clouds 5 1007 75 10000 6 340 15:25 28.05.2020
2433 Clouds 5 1007 75 10000 7 350 14:57 28.05.2020
2434 Clouds 6 1007 70 10000 8 340 14:39 28.05.2020
2435 Clouds 6 1007 70 10000 8 340 14:21 28.05.2020
2436 Clouds 8 1005 61 10000 5 20 13:43 28.05.2020
2437 Clouds 8 1005 61 10000 5 20 13:25 28.05.2020
2438 Clouds 7 1006 65 10000 8 330 12:43 28.05.2020
2439 Clouds 8 1006 61 10000 10 350 12:19 28.05.2020
2440 Clouds 10 1006 57 10000 11 310 11:45 28.05.2020
2441 Clouds 10 1006 57 10000 11 310 11:26 28.05.2020
2442 Clouds 12 1004 50 10000 12 320 10:58 28.05.2020
2443 Clouds 15 1003 44 10000 7 300 10:40 28.05.2020
2444 Clouds 15 1003 44 10000 7 300 10:22 28.05.2020
2445 Clouds 16 1002 41 10000 9 310 09:40 28.05.2020
2446 Clouds 16 1002 41 10000 9 310 09:22 28.05.2020
2447 Clouds 16 1002 41 10000 4 10 08:52 28.05.2020
2448 Clouds 15 1002 44 10000 4 30 08:32 28.05.2020
2449 Clouds 14 1003 47 10000 3 10 07:58 28.05.2020
2450 Clouds 15 1003 47 10000 4 40 07:38 28.05.2020
2451 Clouds 15 1003 47 10000 4 40 07:20 28.05.2020
2452 Clouds 13 1003 50 10000 4 30 06:39 28.05.2020
2453 Clouds 13 1003 50 10000 4 30 06:20 28.05.2020
2454 Clouds 11 1003 53 10000 7 340 05:37 28.05.2020
2455 Clouds 11 1004 57 10000 5 340 04:34 28.05.2020
2456 Clouds 10 1003 57 10000 8 20 03:51 28.05.2020
2457 Clouds 9 1003 66 10000 7 10 02:49 28.05.2020
2458 Clouds 8 1004 70 10000 5 360 01:56 28.05.2020
2459 Clouds 8 1004 75 10000 8 330 01:27 28.05.2020
2460 Clouds 9 1002 76 10000 6 330 00:46 28.05.2020
2461 Clouds 9 1001 76 10000 7 330 00:19 28.05.2020
2462 Clouds 10 1000 76 10000 3 350 23:40 27.05.2020
2463 Clouds 10 1000 76 10000 3 350 23:21 27.05.2020
2464 Clouds 10 1000 76 10000 3 350 23:21 27.05.2020
2465 Clouds 12 999 66 10000 5 40 22:59 27.05.2020
2466 Clouds 13 1000 62 10000 6 350 22:40 27.05.2020
2467 Clouds 13 1000 62 10000 6 350 22:22 27.05.2020
2468 Clouds 16 999 41 10000 4 330 21:43 27.05.2020
2469 Clouds 16 999 41 10000 4 330 21:24 27.05.2020
2470 Clouds 17 999 39 10000 5 50 20:59 27.05.2020
2471 Clouds 17 999 39 10000 5 50 20:41 27.05.2020
2472 Clouds 17 999 39 10000 5 50 20:23 27.05.2020
2473 Clouds 17 1001 42 10000 6 30 19:59 27.05.2020
2474 Clouds 17 1001 42 10000 6 30 19:41 27.05.2020
2475 Clouds 17 1001 42 10000 6 30 19:19 27.05.2020
2476 Clouds 17 1001 42 10000 6 30 19:19 27.05.2020
2477 Clouds 17 1001 39 10000 4 350 18:41 27.05.2020
2478 Clouds 17 1001 39 10000 4 350 18:20 27.05.2020
2479 Clouds 18 1000 36 10000 4 50 17:57 27.05.2020
2480 Clouds 18 1000 36 10000 4 50 17:38 27.05.2020
2481 Clouds 18 1000 36 10000 4 50 17:19 27.05.2020
2482 Clouds 19 1000 29 10000 6 350 16:55 27.05.2020
2483 Clouds 16 999 23 10000 4 160 16:37 27.05.2020
2484 Clouds 17 999 21 10000 4 170 16:18 27.05.2020
2485 Clouds 17 999 21 10000 3 200 15:41 27.05.2020
2486 Clouds 17 999 21 10000 3 200 15:21 27.05.2020
2487 Clouds 24 999 14 10000 4 230 14:45 27.05.2020
2488 Clouds 24 999 14 10000 4 230 14:22 27.05.2020
2489 Clouds 24 999 14 10000 4 230 14:22 27.05.2020
2490 Clouds 25 999 13 10000 6 240 13:57 27.05.2020
2491 Clouds 26 999 12 10000 5 230 13:38 27.05.2020
2492 Clouds 26 999 12 10000 5 230 13:20 27.05.2020
2493 Clouds 27 1000 11 10000 5 220 12:41 27.05.2020
2494 Clouds 27 1000 11 10000 5 220 12:22 27.05.2020
2495 Clouds 26 1000 12 10000 7 230 11:42 27.05.2020
2496 Clouds 26 1000 12 10000 7 230 11:24 27.05.2020
2497 Clouds 26 1001 13 10000 6 280 10:59 27.05.2020
2498 Clouds 26 1001 13 10000 6 250 10:41 27.05.2020
2499 Clouds 26 1001 13 10000 6 250 10:23 27.05.2020
2500 Clouds 25 1002 15 10000 6 280 09:55 27.05.2020
2501 Clouds 26 1002 14 10000 7 270 09:37 27.05.2020
2502 Clouds 25 1003 14 10000 6 290 09:18 27.05.2020
2503 Clouds 25 1003 15 10000 5 270 08:40 27.05.2020
2504 Clouds 25 1003 15 10000 5 270 08:22 27.05.2020
2505 Clouds 25 1004 15 10000 6 250 07:52 27.05.2020
2506 Clouds 23 1004 26 10000 4 240 07:34 27.05.2020
2507 Clouds 23 1005 27 10000 6 260 06:55 27.05.2020
2508 Clouds 22 1006 21 10000 5 250 06:24 27.05.2020
2509 Clouds 21 1006 28 10000 6 240 05:50 27.05.2020
2510 Clouds 20 1007 35 10000 7 230 05:23 27.05.2020
2511 Clouds 11 1010 53 10000 1 0 02:46 27.05.2020
2512 Clouds 11 1010 53 10000 1 0 02:24 27.05.2020
2513 Clouds 8 1011 65 10000 1.45 203 01:31 27.05.2020
2514 Clouds 8 1011 65 10000 1.45 203 01:31 27.05.2020
2515 Clouds 4 1011 63 10000 1 0 00:47 27.05.2020
2516 Clouds 4 1011 71 10000 1 0 00:21 27.05.2020
2517 Clouds 3 1012 74 10000 1 0 23:58 26.05.2020
2518 Clouds 3 1012 74 10000 1.02 172 23:58 26.05.2020
2519 Clouds 3 1012 74 10000 1 0 23:39 26.05.2020
2520 Clouds 3 1012 74 10000 1 0 23:20 26.05.2020
2521 Clouds 6 1013 75 10000 0.46 137 22:42 26.05.2020
2522 Clear 6 1013 74 10000 0.48 153 22:23 26.05.2020
2523 Clear 6 1013 74 10000 0.48 153 21:59 26.05.2020
2524 Clear 6 1013 74 10000 0.48 153 21:40 26.05.2020
2525 Clear 6 1013 73 10000 0.26 331 21:22 26.05.2020
2526 Clouds 8 1013 67 10000 1 0 20:59 26.05.2020
2527 Clouds 9 1014 57 10000 2 130 20:41 26.05.2020
2528 Clouds 9 1014 57 10000 2 130 20:20 26.05.2020
2529 Clouds 7 1014 64 10000 2 140 19:41 26.05.2020
2530 Clouds 7 1014 61 10000 2 140 19:21 26.05.2020
2531 Clouds 9 1015 57 10000 1 0 18:58 26.05.2020
2532 Clouds 9 1015 57 10000 1 0 18:39 26.05.2020
2533 Clouds 9 1015 57 10000 1 0 18:20 26.05.2020
2534 Clouds 9 1015 59 10000 2 140 17:42 26.05.2020
2535 Clouds 9 1015 58 10000 2 140 17:23 26.05.2020
2536 Clouds 11 1015 50 10000 2 200 16:49 26.05.2020
2537 Clouds 11 1015 50 10000 1 0 16:23 26.05.2020
2538 Clouds 15 1015 41 10000 2 340 15:59 26.05.2020
2539 Clouds 16 1015 38 10000 4 320 15:40 26.05.2020
2540 Clouds 16 1015 38 10000 4 320 15:19 26.05.2020
2541 Clouds 18 1015 31 10000 8 330 15:19 26.05.2020
2542 Clouds 18 1015 31 10000 8 330 14:55 26.05.2020
2543 Clouds 19 1015 29 10000 7 320 14:36 26.05.2020
2544 Clouds 20 1014 46 10000 7 340 14:18 26.05.2020
2545 Clouds 20 1014 44 10000 7 330 13:40 26.05.2020
2546 Clouds 20 1014 36 10000 7 330 13:22 26.05.2020
2547 Clouds 20 1014 24 10000 7 340 12:44 26.05.2020
2548 Clouds 20 1014 24 10000 7 340 12:23 26.05.2020
2549 Clouds 21 1014 22 10000 7 330 11:59 26.05.2020
2550 Clouds 21 1015 21 10000 7 330 11:40 26.05.2020
2551 Clouds 21 1015 21 10000 7 330 11:19 26.05.2020
2552 Clouds 21 1015 21 10000 7 330 11:19 26.05.2020
2553 Clouds 21 1015 21 10000 8 320 10:47 26.05.2020
2554 Clouds 21 1015 21 10000 8 320 10:19 26.05.2020
2555 Clouds 21 1015 19 10000 8 350 09:55 26.05.2020
2556 Clouds 21 1015 19 10000 9 330 09:37 26.05.2020
2557 Clouds 21 1015 19 10000 10 340 09:18 26.05.2020
2558 Clouds 21 1015 19 10000 8 350 08:40 26.05.2020
2559 Clouds 21 1016 21 10000 8 340 08:21 26.05.2020
2560 Clouds 20 1016 20 10000 6 340 07:42 26.05.2020
2561 Clouds 20 1016 20 10000 6 340 07:22 26.05.2020
2562 Clouds 20 1017 22 10000 7 330 06:52 26.05.2020
2563 Clouds 19 1017 22 10000 8 340 06:28 26.05.2020
2564 Clouds 18 1017 22 10000 8 340 05:41 26.05.2020
2565 Clouds 18 1017 23 10000 7 340 05:18 26.05.2020
2566 Clouds 17 1018 27 10000 7 330 04:47 26.05.2020
2567 Clouds 17 1018 27 10000 7 330 04:28 26.05.2020
2568 Clouds 14 1018 33 10000 2 0 03:34 26.05.2020
2569 Clouds 10 1018 46 10000 4.39 337 02:34 26.05.2020
2570 Clouds 7 1018 43 10000 2.38 323 01:42 26.05.2020
2571 Clouds 2 1018 74 10000 2 150 00:39 26.05.2020
2572 Clouds 2 1018 74 10000 2 150 00:20 26.05.2020
2573 Clouds 1 1018 74 10000 1 0 23:58 25.05.2020
2574 Clouds 1 1018 74 10000 1 0 23:38 25.05.2020
2575 Clouds 1 1018 74 10000 1 0 23:19 25.05.2020
2576 Clouds 1 1018 74 10000 2 170 22:56 25.05.2020
2577 Clouds 3 1018 64 10000 1 0 22:37 25.05.2020
2578 Clouds 3 1018 69 10000 1.94 342 22:19 25.05.2020
2579 Clouds 3 1018 69 10000 1.94 342 21:58 25.05.2020
2580 Clouds 3 1018 69 10000 2 160 21:38 25.05.2020
2581 Clouds 3 1018 69 10000 2 0 21:18 25.05.2020
2582 Clouds 3 1018 69 10000 2 0 20:58 25.05.2020
2583 Clouds 4 1018 64 10000 2 140 20:40 25.05.2020
2584 Clear 4 1018 64 10000 2 140 20:20 25.05.2020
2585 Clear 6 1018 60 10000 1 0 19:42 25.05.2020
2586 Clear 6 1018 60 10000 1 0 19:20 25.05.2020
2587 Clear 5 1018 60 10000 3 160 18:58 25.05.2020
2588 Clear 5 1018 65 10000 3 150 18:40 25.05.2020
2589 Clear 5 1018 65 10000 3 150 18:21 25.05.2020
2590 Clear 7 1018 52 10000 1 0 17:44 25.05.2020
2591 Clear 7 1018 52 10000 1 0 17:26 25.05.2020
2592 Clouds 7 1018 52 10000 1 0 16:59 25.05.2020
2593 Clouds 11 1018 43 10000 1.54 337 16:40 25.05.2020
2594 Clouds 14 1018 35 10000 2 0 16:22 25.05.2020
2595 Clouds 14 1018 35 10000 2 0 15:55 25.05.2020
2596 Clouds 15 1017 33 10000 3 40 15:36 25.05.2020
2597 Clouds 16 1017 29 10000 4 350 15:18 25.05.2020
2598 Clouds 17 1017 27 10000 6 360 14:42 25.05.2020
2599 Clouds 17 1017 27 10000 6 360 14:23 25.05.2020
2600 Clouds 17 1016 27 10000 6 360 13:56 25.05.2020
2601 Clouds 18 1016 25 10000 9 340 13:37 25.05.2020
2602 Clouds 18 1016 25 10000 9 340 13:37 25.05.2020
2603 Clouds 18 1016 25 10000 9 340 13:37 25.05.2020
2604 Clouds 18 1016 23 10000 8 360 13:19 25.05.2020
2605 Clouds 17 1016 27 10000 7 350 12:40 25.05.2020
2606 Clouds 17 1016 27 10000 7 350 12:21 25.05.2020
2607 Clouds 18 1016 25 10000 8 330 11:57 25.05.2020
2608 Clouds 18 1016 27 10000 9 330 11:37 25.05.2020
2609 Clouds 18 1016 25 10000 8 340 11:18 25.05.2020
2610 Clouds 19 1017 24 10000 8 350 10:41 25.05.2020
2611 Clouds 19 1017 24 10000 8 350 10:21 25.05.2020
2612 Clouds 19 1017 25 10000 8 320 09:56 25.05.2020
2613 Clouds 18 1017 25 10000 8 340 09:38 25.05.2020
2614 Clouds 18 1017 25 10000 8 340 09:19 25.05.2020
2615 Clouds 17 1017 27 10000 8 330 08:44 25.05.2020
2616 Clouds 17 1017 27 10000 8 330 08:24 25.05.2020
2617 Clouds 16 1018 31 10000 8 330 07:59 25.05.2020
2618 Clouds 16 1018 32 10000 7 340 07:39 25.05.2020
2619 Clouds 16 1018 32 10000 7 340 07:20 25.05.2020
2620 Clouds 14 1019 41 10000 7 340 06:45 25.05.2020
2621 Clouds 14 1019 41 10000 7 340 06:27 25.05.2020
2622 Clouds 11 1020 57 10000 2 0 03:40 25.05.2020
2623 Clouds 11 1020 57 10000 2 0 03:22 25.05.2020
2624 Rain 8 1021 75 10000 2 0 02:44 25.05.2020
2625 Clouds 7 1020 65 10000 2 0 01:42 25.05.2020
2626 Clouds 5 1020 75 10000 1.91 13 00:58 25.05.2020
2627 Clouds 3 1020 76 10000 1.91 13 00:32 25.05.2020
2628 Clouds 2 1020 80 10000 2 170 23:59 24.05.2020
2629 Clouds 2 1020 80 10000 1 0 23:39 24.05.2020
2630 Clouds 2 1020 80 10000 1 0 23:21 24.05.2020
2631 Clouds 4 1020 69 10000 1 0 22:58 24.05.2020
2632 Clouds 4 1020 69 10000 1 0 22:40 24.05.2020
2633 Clouds 4 1020 82 10000 2 190 22:18 24.05.2020
2634 Clouds 4 1020 82 10000 2 190 21:55 24.05.2020
2635 Clouds 4 1020 82 10000 2 190 21:37 24.05.2020
2636 -273 0 0 0 0 0 21:18 24.05.2020
2637 Clouds 6 1020 70 10000 1 0 20:43 24.05.2020
2638 Clouds 6 1020 70 10000 1 0 20:43 24.05.2020
2639 Clouds 6 1020 70 10000 1 0 20:21 24.05.2020
2640 Rain 4 1020 69 10000 3 160 19:58 24.05.2020
2641 Rain 4 1020 69 10000 3 160 19:40 24.05.2020
2642 Clouds 6 1020 73 10000 1 0 19:19 24.05.2020
2643 Clouds 6 1020 73 10000 1 0 18:44 24.05.2020
2644 Clouds 6 1020 69 10000 1 0 18:24 24.05.2020
2645 Clouds 8 1019 61 10000 2 350 17:59 24.05.2020
2646 Clouds 8 1019 61 10000 2 350 17:40 24.05.2020
2647 Clouds 8 1019 61 10000 2 350 17:21 24.05.2020
2648 Clouds 9 1019 57 10000 2 320 16:56 24.05.2020
2649 Clouds 10 1019 53 10000 3 320 16:38 24.05.2020
2650 Clouds 10 1019 53 10000 3 320 16:19 24.05.2020
2651 Clouds 12 1018 46 10000 4 80 15:56 24.05.2020
2652 Clouds 13 1018 43 10000 7 70 15:38 24.05.2020
2653 Clouds 15 1018 56 10000 8 70 15:18 24.05.2020
2654 Clouds 17 1017 27 10000 3 350 14:44 24.05.2020
2655 Clouds 17 1017 27 10000 3 350 14:24 24.05.2020
2656 Clouds 17 1017 27 10000 3 350 14:24 24.05.2020
2657 Clouds 17 1017 27 10000 5 330 13:57 24.05.2020
2658 Clouds 17 1016 27 10000 4 330 13:39 24.05.2020
2659 Clouds 17 1016 27 10000 4 330 13:21 24.05.2020
2660 Clouds 17 1016 27 10000 5 360 12:58 24.05.2020
2661 Clouds 17 1016 27 10000 5 360 12:58 24.05.2020
2662 Clouds 18 1016 23 10000 7 10 12:40 24.05.2020
2663 Clouds 18 1016 23 10000 7 10 12:22 24.05.2020
2664 Clouds 18 1016 27 10000 8 10 11:59 24.05.2020
2665 Clouds 19 1016 22 10000 8 340 11:40 24.05.2020
2666 Clouds 19 1016 22 10000 9 350 11:22 24.05.2020
2667 Clouds 19 1016 22 10000 9 350 10:55 24.05.2020
2668 Clouds 19 1016 22 10000 9 340 10:37 24.05.2020
2669 Clouds 19 1017 20 10000 9 330 10:18 24.05.2020
2670 Clouds 20 1017 20 10000 8 320 09:41 24.05.2020
2671 Clouds 19 1018 22 10000 9 320 09:18 24.05.2020
2672 Clouds 19 1018 22 10000 9 320 08:56 24.05.2020
2673 Clouds 18 1018 23 10000 8 340 08:37 24.05.2020
2674 Clouds 18 1018 23 10000 8 340 08:19 24.05.2020
2675 Clouds 19 1019 22 10000 6 340 07:42 24.05.2020
2676 Clouds 19 1019 22 10000 6 340 07:24 24.05.2020
2677 Clouds 17 1019 23 10000 6 320 06:48 24.05.2020
2678 Clouds 17 1019 23 10000 6 320 06:29 24.05.2020
2679 Clouds 15 1021 30 10000 2 0 04:54 24.05.2020
2680 Clouds 11 1022 40 10000 2 0 03:41 24.05.2020
2681 Clouds 8 1022 52 10000 1 0 02:42 24.05.2020
2682 Clouds 6 1022 60 10000 2.77 330 01:46 24.05.2020
2683 Clouds 0 1022 55 10000 1 0 00:39 24.05.2020
2684 Clouds 0 1022 63 10000 1 0 00:21 24.05.2020
2685 Clouds 1 1022 74 10000 1 0 23:44 23.05.2020
2686 Clouds 1 1022 74 10000 1 0 23:24 23.05.2020
2687 Clouds -1 1022 80 10000 2 150 22:58 23.05.2020
2688 Clouds -1 1022 80 10000 2 150 22:38 23.05.2020
2689 Clouds -1 1022 80 10000 2 150 22:20 23.05.2020
2690 Clouds 2 1022 69 10000 2 160 21:57 23.05.2020
2691 Clouds 2 1022 69 10000 2 160 21:38 23.05.2020
2692 Clear 2 1022 69 10000 2 160 21:20 23.05.2020
2693 Clear 2 1022 69 10000 2 160 21:20 23.05.2020
2694 Clear 1 1023 74 10000 2 150 20:58 23.05.2020
2695 Clear 1 1023 74 10000 2 150 20:38 23.05.2020
2696 Clear 1 1023 74 10000 2 0 20:19 23.05.2020
2697 Clear 1 1023 74 10000 2 0 19:42 23.05.2020
2698 Clear 1 1023 74 10000 2 0 19:20 23.05.2020
2699 Clear 2 1023 64 10000 1 0 18:58 23.05.2020
2700 Clear 2 1023 64 10000 1 0 18:40 23.05.2020
2701 Clear 2 1023 64 10000 1 0 18:21 23.05.2020
2702 Clear 6 1023 52 10000 1 0 17:55 23.05.2020
2703 Clear 6 1023 52 10000 1 0 17:37 23.05.2020
2704 Clear 8 1023 45 10000 2.07 5 17:19 23.05.2020
2705 Clear 8 1023 45 10000 2.07 5 16:56 23.05.2020
2706 Clear 8 1022 45 10000 1 0 16:38 23.05.2020
2707 Clear 12 1022 34 10000 3 10 16:19 23.05.2020
2708 Clouds 12 1022 34 10000 4 350 15:42 23.05.2020
2709 Clouds 12 1022 34 10000 4 350 15:23 23.05.2020
2710 Clouds 13 1022 30 10000 5 340 14:57 23.05.2020
2711 Clouds 13 1022 30 10000 5 340 14:57 23.05.2020
2712 Clouds 14 1021 26 10000 7 340 14:38 23.05.2020
2713 Clouds 14 1021 26 10000 7 340 14:20 23.05.2020
2714 Clouds 15 1021 24 10000 6 340 13:40 23.05.2020
2715 Clouds 15 1021 26 10000 7 350 13:19 23.05.2020
2716 Clouds 15 1021 26 10000 7 350 12:56 23.05.2020
2717 Clouds 16 1021 25 10000 7 330 12:36 23.05.2020
2718 Clouds 16 1021 26 10000 8 340 12:18 23.05.2020
2719 Clouds 16 1021 26 10000 9 340 11:42 23.05.2020
2720 Clouds 16 1021 26 10000 9 340 11:21 23.05.2020
2721 Clouds 17 1021 29 10000 10 340 10:57 23.05.2020
2722 Clouds 17 1021 21 10000 5 340 10:39 23.05.2020
2723 Clouds 17 1021 21 10000 5 340 10:19 23.05.2020
2724 Clouds 16 1021 23 10000 8 330 09:56 23.05.2020
2725 Clouds 17 1021 23 10000 7 360 09:38 23.05.2020
2726 Clouds 17 1021 23 10000 7 360 09:19 23.05.2020
2727 Clouds 16 1022 29 10000 8 20 08:42 23.05.2020
2728 Clouds 16 1022 29 10000 8 20 08:19 23.05.2020
2729 Clouds 16 1022 29 10000 8 20 08:19 23.05.2020
2730 Clouds 15 1022 28 10000 6 330 07:46 23.05.2020
2731 Clouds 15 1022 28 10000 6 330 07:28 23.05.2020
2732 Clouds 15 1022 28 10000 7 350 06:53 23.05.2020
2733 Clouds 15 1022 26 10000 5 350 06:35 23.05.2020
2734 Clouds 14 1023 42 10000 2 0 04:49 23.05.2020
2735 Clouds 11 1024 53 10000 1 0 03:29 23.05.2020
2736 Clouds 10 1024 53 10000 2 360 02:56 23.05.2020
2737 Clouds 7 1024 70 10000 1 0 01:55 23.05.2020
2738 Clouds 5 1023 80 10000 1 0 01:20 23.05.2020
2739 Clouds 3 1023 79 10000 1 0 00:45 23.05.2020
2740 Clouds 3 1023 87 10000 1 0 00:23 23.05.2020
2741 Clouds 0 1023 87 10000 1 0 23:55 22.05.2020
2742 Clouds -1 1023 92 10000 1 0 23:36 22.05.2020
2743 Clouds 2 1022 88 10000 1 0 23:18 22.05.2020
2744 Clouds 2 1022 88 10000 1 0 23:18 22.05.2020
2745 Clouds 2 1022 88 10000 1 0 22:42 22.05.2020
2746 Clouds 2 1022 88 10000 1 0 22:21 22.05.2020
2747 Clouds 0 1022 88 10000 2 0 21:55 22.05.2020
2748 Clouds 0 1022 88 10000 2 0 21:37 22.05.2020
2749 Clouds 2 1022 80 10000 1 0 21:19 22.05.2020
2750 Clouds 2 1022 80 10000 1 0 20:45 22.05.2020
2751 Clouds 2 1022 80 10000 1 0 20:21 22.05.2020
2752 Clouds 3 1022 86 10000 1 0 19:45 22.05.2020
2753 Clouds 3 1022 86 10000 1 0 19:26 22.05.2020
2754 Clouds 7 1021 70 10000 4 360 18:58 22.05.2020
2755 Clouds 7 1021 70 10000 4 360 18:39 22.05.2020
2756 Clouds 7 1021 70 10000 4 360 18:39 22.05.2020
2757 Clouds 7 1020 70 10000 4 340 18:19 22.05.2020
2758 Clouds 7 1020 70 10000 4 340 17:41 22.05.2020
2759 Clouds 7 1020 70 10000 4 340 17:20 22.05.2020
2760 Clouds 8 1021 65 10000 5 340 17:00 22.05.2020
2761 Clouds 8 1020 65 10000 4 350 16:41 22.05.2020
2762 Clouds 9 1020 61 10000 5 340 16:20 22.05.2020
2763 Clouds 8 1020 65 10000 4 350 16:20 22.05.2020
2764 Clouds 9 1020 61 10000 5 340 15:57 22.05.2020
2765 Clouds 9 1019 61 10000 4 10 15:39 22.05.2020
2766 Clouds 10 1019 57 10000 6 10 15:18 22.05.2020
2767 Clouds 10 1018 53 10000 9 350 14:41 22.05.2020
2768 Clouds 10 1018 53 10000 9 350 14:23 22.05.2020
2769 Clouds 12 1018 50 10000 7 360 13:45 22.05.2020
2770 Clouds 12 1018 50 10000 7 360 13:20 22.05.2020
2771 Clouds 12 1017 50 10000 7 360 12:43 22.05.2020
2772 Clouds 12 1017 50 10000 7 360 12:25 22.05.2020
2773 Clouds 12 1017 50 10000 8 350 11:55 22.05.2020
2774 Clouds 12 1017 46 10000 9 340 11:36 22.05.2020
2775 Clouds 11 1017 50 10000 8 350 11:18 22.05.2020
2776 Rain 12 1016 46 10000 11 340 10:40 22.05.2020
2777 Rain 12 1016 46 10000 11 340 10:22 22.05.2020
2778 Clouds 11 1016 50 10000 8 340 09:57 22.05.2020
2779 Clouds 11 1016 50 10000 9 340 09:38 22.05.2020
2780 Clouds 12 1016 46 10000 9 350 09:18 22.05.2020
2781 Clouds 11 1016 53 10000 10 330 08:43 22.05.2020
2782 Clouds 11 1016 53 10000 10 330 08:43 22.05.2020
2783 Clouds 10 1016 57 10000 10 320 08:20 22.05.2020
2784 Clouds 10 1016 57 10000 10 320 07:54 22.05.2020
2785 Clouds 10 1016 57 10000 8 330 07:24 22.05.2020
2786 Clouds 10 1016 57 10000 8 340 06:55 22.05.2020
2787 Clouds 10 1016 57 10000 9 340 06:33 22.05.2020
2788 Clouds 8 1017 70 10000 8 320 05:38 22.05.2020
2789 Rain 8 1017 75 10000 7 310 04:50 22.05.2020
2790 Clouds 7 1017 70 10000 4 360 04:19 22.05.2020
2791 Clouds 6 1017 81 10000 3 330 03:41 22.05.2020
2792 Clouds 6 1016 81 10000 4 350 02:59 22.05.2020
2793 Clouds 6 1016 81 10000 3 340 01:49 22.05.2020
2794 Clouds 6 1016 81 10000 3 340 01:24 22.05.2020
2795 Clouds 4 1016 86 10000 1 0 00:34 22.05.2020
2796 Clouds 4 1016 86 10000 2 0 23:59 21.05.2020
2797 Clouds 4 1016 86 10000 4 320 23:41 21.05.2020
2798 Clouds 4 1016 86 10000 4 320 23:23 21.05.2020
2799 Clouds 5 1016 80 10000 4 340 22:57 21.05.2020
2800 Clouds 5 1016 80 10000 4 340 22:57 21.05.2020
2801 Clouds 6 1016 75 10000 3 340 22:37 21.05.2020
2802 Clouds 6 1016 75 10000 3 340 22:19 21.05.2020
2803 Clouds 4 1016 86 10000 2 330 21:48 21.05.2020
2804 Clouds 4 1016 86 10000 2 330 21:27 21.05.2020
2805 Clouds 4 1017 86 10000 1 0 20:58 21.05.2020
2806 Clear 3 1017 86 10000 3 280 20:40 21.05.2020
2807 Clouds 3 1017 86 10000 3 280 20:21 21.05.2020
2808 Clouds 3 1017 86 10000 3 280 20:21 21.05.2020
2809 Clouds 5 1016 80 10000 5 340 19:40 21.05.2020
2810 Clouds 5 1016 80 10000 5 340 19:20 21.05.2020
2811 Clouds 6 1016 75 10000 2 0 18:58 21.05.2020
2812 Clouds 6 1016 75 10000 2 0 18:37 21.05.2020
2813 Clouds 6 1016 75 10000 2 340 18:18 21.05.2020
2814 Clouds 6 1016 75 10000 2 340 17:55 21.05.2020
2815 Clouds 6 1016 75 10000 2 340 17:36 21.05.2020
2816 Clouds 7 1016 70 10000 2 360 17:18 21.05.2020
2817 Clouds 7 1016 70 10000 4 350 16:41 21.05.2020
2818 Clouds 7 1016 70 10000 4 350 16:22 21.05.2020
2819 Clouds 8 1015 70 10000 5 350 15:41 21.05.2020
2820 Clouds 8 1015 70 10000 5 350 15:22 21.05.2020
2821 Clouds 10 1015 57 10000 6 350 14:42 21.05.2020
2822 Clouds 10 1015 57 10000 6 350 14:23 21.05.2020
2823 Clouds 11 1015 53 10000 7 340 13:58 21.05.2020
2824 Clouds 10 1015 61 10000 6 360 13:38 21.05.2020
2825 Clouds 12 1014 50 10000 7 350 13:18 21.05.2020
2826 Clouds 11 1014 57 10000 8 340 12:40 21.05.2020
2827 Clouds 11 1014 57 10000 8 340 12:21 21.05.2020
2828 Clouds 11 1014 57 10000 6 340 11:57 21.05.2020
2829 Clouds 11 1014 57 10000 6 350 11:39 21.05.2020
2830 Clouds 11 1014 57 10000 6 350 11:20 21.05.2020
2831 Clouds 10 1014 61 10000 4 350 10:43 21.05.2020
2832 Clouds 10 1014 61 10000 4 350 10:23 21.05.2020
2833 Clouds 10 1014 66 10000 5 10 09:59 21.05.2020
2834 Rain 11 1014 57 10000 5 360 09:40 21.05.2020
2835 Rain 11 1014 57 10000 5 360 09:22 21.05.2020
2836 Rain 12 1014 50 10000 7 350 08:50 21.05.2020
2837 Clouds 12 1014 50 10000 6 340 08:31 21.05.2020
2838 Rain 12 1014 50 10000 6 350 07:59 21.05.2020
2839 Clouds 13 1014 50 10000 9 340 07:37 21.05.2020
2840 Clouds 13 1013 47 10000 5 360 07:18 21.05.2020
2841 Clouds 14 1014 41 10000 7 330 06:30 21.05.2020
2842 Clouds 14 1014 44 10000 5 350 05:50 21.05.2020
2843 Clouds 10 1015 57 10000 4 350 03:49 21.05.2020
2844 Clouds 10 1015 57 10000 4 350 03:21 21.05.2020
2845 Clouds 10 1015 57 10000 4 350 03:21 21.05.2020
2846 Clouds 9 1015 66 10000 4 350 02:31 21.05.2020
2847 Clouds 7 1015 75 10000 1 0 01:51 21.05.2020
2848 Clouds 6 1015 75 10000 2 0 01:24 21.05.2020
2849 Clouds 5 1015 80 10000 1 0 00:54 21.05.2020
2850 Clouds 4 1015 80 10000 2 0 00:27 21.05.2020
2851 Clouds 4 1015 86 10000 1 0 23:59 20.05.2020
2852 Clouds 4 1015 86 10000 1 0 23:38 20.05.2020
2853 Clouds 4 1015 93 10000 2 0 23:18 20.05.2020
2854 Clouds 4 1015 86 10000 2 320 22:42 20.05.2020
2855 Clouds 4 1015 86 10000 2 320 22:24 20.05.2020
2856 Clouds 6 1014 87 10000 4 310 21:58 20.05.2020
2857 Clouds 6 1014 87 10000 4 310 21:38 20.05.2020
2858 Clouds 6 1014 87 10000 4 310 21:19 20.05.2020
2859 Clouds 6 1015 87 10000 2 320 20:44 20.05.2020
2860 Clouds 6 1015 87 10000 2 320 20:23 20.05.2020
2861 Clouds 5 1015 86 10000 2 300 19:44 20.05.2020
2862 Clouds 5 1015 86 10000 2 300 19:25 20.05.2020
2863 Clouds 6 1014 87 10000 3 330 18:59 20.05.2020
2864 Clouds 6 1014 87 10000 3 330 18:40 20.05.2020
2865 Clouds 6 1014 87 10000 3 330 18:20 20.05.2020
2866 Clouds 6 1014 87 10000 3 330 18:20 20.05.2020
2867 Clouds 8 1014 81 10000 4 330 17:40 20.05.2020
2868 Clouds 8 1014 81 10000 4 330 17:21 20.05.2020
2869 Clouds 8 1014 81 10000 4 330 16:55 20.05.2020
2870 Clouds 7 1014 87 10000 2 330 16:37 20.05.2020
2871 Clouds 8 1014 81 10000 2 340 16:18 20.05.2020
2872 Rain 8 1014 81 10000 2 340 15:42 20.05.2020
2873 Rain 8 1014 81 10000 2 340 15:23 20.05.2020
2874 Clouds 8 1013 81 10000 4 350 14:44 20.05.2020
2875 Clouds 8 1013 81 10000 4 350 14:22 20.05.2020
2876 Rain 9 1013 70 10000 6 350 13:55 20.05.2020
2877 Rain 9 1013 81 10000 7 340 13:36 20.05.2020
2878 Rain 9 1012 81 10000 7 340 13:18 20.05.2020
2879 Clouds 10 1012 71 10000 6 350 12:41 20.05.2020
2880 Clouds 10 1012 71 10000 6 350 12:20 20.05.2020
2881 Rain 10 1012 76 10000 2 0 11:37 20.05.2020
2882 Rain 10 1012 81 10000 4 330 11:18 20.05.2020
2883 Rain 10 1012 81 10000 3 360 10:44 20.05.2020
2884 Rain 10 1012 81 10000 3 360 10:22 20.05.2020
2885 Rain 12 1012 66 10000 6 10 09:46 20.05.2020
2886 Rain 12 1012 66 10000 6 10 09:23 20.05.2020
2887 Rain 13 1012 54 10000 7 360 08:59 20.05.2020
2888 Clouds 14 1011 47 10000 9 340 08:41 20.05.2020
2889 Rain 15 1011 41 10000 5 360 08:19 20.05.2020
2890 Clouds 16 1011 36 10000 7 350 07:49 20.05.2020
2891 Clouds 16 1011 36 10000 7 350 07:22 20.05.2020
2892 Clouds 16 1012 48 10000 6 340 06:46 20.05.2020
2893 Clouds 16 1012 36 10000 6 320 05:39 20.05.2020
2894 Clouds 15 1012 44 10000 2 0 04:37 20.05.2020
2895 Clouds 14 1013 43 10000 2 0 03:54 20.05.2020
2896 Clouds 12 1013 49 10000 1 0 02:34 20.05.2020
2897 Clouds 10 1013 46 10000 2.02 5 01:32 20.05.2020
2898 Clouds 7 1013 56 0 2 180 00:46 20.05.2020
2899 Clouds 7 1013 56 0 2 180 00:24 20.05.2020
2900 Clouds 7 1013 56 10000 2 250 23:45 19.05.2020
2901 Clouds 7 1013 56 10000 2 250 23:21 19.05.2020
2902 Clouds 7 1012 52 10000 4 160 22:57 19.05.2020
2903 Clouds 7 1012 52 10000 4 160 22:39 19.05.2020
2904 Clouds 7 1012 52 10000 4 160 22:20 19.05.2020
2905 Clouds 6 1013 56 10000 1 0 21:59 19.05.2020
2906 Clouds 6 1013 56 10000 1 0 21:38 19.05.2020
2907 Clouds 6 1013 56 10000 1 0 21:20 19.05.2020
2908 Clouds 7 1012 52 10000 1.52 52 20:58 19.05.2020
2909 Clouds 7 1012 52 10000 1.52 52 20:58 19.05.2020
2910 Clouds 7 1012 52 10000 1.52 52 20:40 19.05.2020
2911 Clouds 7 1012 52 10000 1.12 52 20:22 19.05.2020
2912 Clouds 6 1012 52 10000 2 120 19:56 19.05.2020
2913 Clouds 6 1012 52 10000 2 120 19:37 19.05.2020
2914 Clear 5 1012 52 10000 1 0 19:19 19.05.2020
2915 Clear 5 1012 52 10000 1 0 18:42 19.05.2020
2916 Clear 5 1012 52 10000 1 0 18:21 19.05.2020
2917 Clear 7 1012 45 10000 1 0 17:44 19.05.2020
2918 Clear 7 1012 45 10000 1 0 17:22 19.05.2020
2919 Clear 7 1012 45 10000 1 0 16:59 19.05.2020
2920 Clouds 8 1012 42 10000 2 170 16:39 19.05.2020
2921 Clouds 8 1012 42 10000 2 170 16:21 19.05.2020
2922 Clouds 14 1011 30 10000 1 0 15:48 19.05.2020
2923 Clouds 14 1011 30 10000 1 0 15:23 19.05.2020
2924 Clouds 15 1011 28 10000 3 320 14:59 19.05.2020
2925 Clouds 17 1011 25 10000 5 340 14:41 19.05.2020
2926 Clouds 17 1011 25 10000 5 340 14:21 19.05.2020
2927 Clouds 17 1011 27 10000 5 320 13:58 19.05.2020
2928 Clouds 18 1010 25 10000 5 330 13:40 19.05.2020
2929 Clouds 18 1010 25 10000 5 330 13:21 19.05.2020
2930 Clouds 18 1010 25 10000 6 340 12:58 19.05.2020
2931 Clouds 18 1010 25 10000 7 330 12:39 19.05.2020
2932 Clouds 18 1010 25 10000 7 330 12:21 19.05.2020
2933 Clouds 19 1010 22 10000 6 320 11:55 19.05.2020
2934 Clouds 19 1010 20 10000 6 330 11:37 19.05.2020
2935 Clouds 19 1010 24 10000 7 320 11:19 19.05.2020
2936 Clouds 20 1010 24 10000 5 340 10:45 19.05.2020
2937 Clouds 20 1010 24 10000 5 340 10:27 19.05.2020
2938 Clouds 19 1010 25 10000 5 320 09:56 19.05.2020
2939 Clouds 20 1011 24 10000 5 330 09:38 19.05.2020
2940 Clouds 20 1011 24 10000 5 330 09:20 19.05.2020
2941 Clouds 20 1011 24 10000 6 330 08:42 19.05.2020
2942 Clouds 20 1011 24 10000 6 330 08:23 19.05.2020
2943 Clouds 19 1012 22 10000 5 360 07:43 19.05.2020
2944 Clouds 19 1012 22 10000 5 360 07:25 19.05.2020
2945 Clouds 18 1012 27 10000 6 350 06:45 19.05.2020
2946 Clouds 18 1012 27 10000 6 350 06:24 19.05.2020
2947 Clouds 17 1013 31 10000 5 330 05:40 19.05.2020
2948 Clouds 16 1013 34 10000 2 0 04:55 19.05.2020
2949 Clouds 16 1013 34 10000 2 0 04:55 19.05.2020
2950 Clear 14 1014 38 10000 1 0 04:18 19.05.2020
2951 Clouds 8 1013 57 10000 1.27 347 01:30 19.05.2020
2952 Clouds 4 1013 69 10000 1 0 00:43 19.05.2020
2953 Clouds 4 1013 69 10000 1 0 00:22 19.05.2020
2954 Clouds 1 1013 74 10000 1.59 10 23:40 18.05.2020
2955 Clear 1 1013 74 10000 1.6 14 23:21 18.05.2020
2956 Clear 6 1013 60 10000 1 0 23:00 18.05.2020
2957 Clear 6 1013 60 10000 1 0 22:40 18.05.2020
2958 Clear 6 1013 60 10000 1 0 22:21 18.05.2020
2959 Clear 2 1014 74 10000 3 130 21:43 18.05.2020
2960 Clouds 2 1014 74 10000 3 130 21:22 18.05.2020
2961 Clear 4 1014 64 10000 3 180 20:59 18.05.2020
2962 Clear 4 1014 64 10000 3 180 20:41 18.05.2020
2963 Clear 7 1014 56 10000 1.81 5 20:21 18.05.2020
2964 Clear 7 1014 56 10000 1.7 8 19:57 18.05.2020
2965 Clear 7 1014 56 10000 1.81 5 19:38 18.05.2020
2966 Clear 7 1014 56 10000 1 0 19:18 18.05.2020
2967 Clear 7 1014 56 10000 1 0 18:45 18.05.2020
2968 Clear 7 1014 56 10000 1 0 18:24 18.05.2020
2969 Clear 10 1014 67 10000 1 0 17:40 18.05.2020
2970 Clear 10 1014 46 10000 2 0 17:18 18.05.2020
2971 Clear 10 1014 46 10000 2 0 16:57 18.05.2020
2972 Clear 13 1013 62 10000 1 0 16:38 18.05.2020
2973 Clear 13 1013 59 10000 2 350 16:18 18.05.2020
2974 Clear 13 1013 59 10000 2 350 15:57 18.05.2020
2975 Clear 13 1013 59 10000 2 350 15:57 18.05.2020
2976 Clear 15 1013 33 10000 3 350 15:37 18.05.2020
2977 Clouds 16 1013 31 10000 5 360 15:19 18.05.2020
2978 Clouds 17 1013 29 10000 6 340 14:43 18.05.2020
2979 Clouds 17 1013 29 10000 6 340 14:25 18.05.2020
2980 Clouds 18 1013 25 10000 6 340 13:58 18.05.2020
2981 Clouds 19 1012 24 10000 6 360 13:39 18.05.2020
2982 Clouds 19 1012 25 10000 8 350 13:19 18.05.2020
2983 Clouds 19 1012 25 10000 8 350 12:56 18.05.2020
2984 Clouds 19 1012 43 10000 7 340 12:38 18.05.2020
2985 Clouds 20 1012 24 10000 5 350 12:18 18.05.2020
2986 Clouds 20 1013 24 10000 4 10 11:47 18.05.2020
2987 Clouds 20 1013 24 10000 4 10 11:27 18.05.2020
2988 Clouds 21 1013 22 10000 7 320 10:58 18.05.2020
2989 Clouds 20 1013 24 10000 6 340 10:40 18.05.2020
2990 Clouds 20 1013 24 10000 6 340 10:22 18.05.2020
2991 Clouds 20 1014 24 10000 6 330 09:43 18.05.2020
2992 Clouds 20 1014 24 10000 6 330 09:24 18.05.2020
2993 Clouds 19 1014 25 10000 6 330 08:45 18.05.2020
2994 Clouds 19 1014 25 10000 6 330 08:26 18.05.2020
2995 Clouds 19 1014 24 10000 6 320 07:54 18.05.2020
2996 Clouds 19 1015 19 10000 6 300 07:26 18.05.2020
2997 Clouds 18 1015 15 10000 4 320 06:51 18.05.2020
2998 Clouds 17 1016 13 10000 5 350 06:33 18.05.2020
2999 Clouds 15 1017 22 10000 4 280 05:49 18.05.2020
3000 Clouds 13 1017 35 10000 3 280 04:52 18.05.2020
3001 Clouds 10 1018 43 10000 1 0 03:30 18.05.2020
3002 Clouds 7 1018 48 10000 0.63 314 02:21 18.05.2020
3003 Clouds 2 1018 64 10000 0.65 1 00:55 18.05.2020
3004 Clouds -1 1018 80 10000 1 0 00:24 18.05.2020
3005 Clouds 0 1018 67 10000 1 0 23:57 17.05.2020
3006 Clouds 0 1018 67 10000 0.62 4 23:38 17.05.2020
3007 Clouds 0 1018 68 10000 0.41 320 23:19 17.05.2020
3008 Clouds -1 1018 74 10000 2 180 22:56 17.05.2020
3009 Clouds -1 1018 74 10000 2 180 22:37 17.05.2020
3010 Clouds 0 1018 68 10000 0.13 168 22:18 17.05.2020
3011 Clouds 0 1018 68 10000 0.13 168 22:18 17.05.2020
3012 Clouds 0 1018 68 10000 0.13 168 21:42 17.05.2020
3013 Clouds 0 1018 67 10000 0.18 0 21:20 17.05.2020
3014 Clouds 1 1019 64 10000 2 0 20:59 17.05.2020
3015 Clouds 1 1019 64 10000 2 0 20:40 17.05.2020
3016 Clouds 1 1019 64 10000 2 0 20:19 17.05.2020
3017 Clouds 2 1019 59 10000 3 170 19:55 17.05.2020
3018 Clouds 2 1019 59 10000 3 170 19:37 17.05.2020
3019 Clouds 3 1019 55 10000 3 170 19:18 17.05.2020
3020 Clouds 3 1019 55 10000 3 170 18:39 17.05.2020
3021 Clouds 3 1019 55 10000 3 170 18:21 17.05.2020
3022 Clouds 4 1019 51 10000 1 0 17:56 17.05.2020
3023 Clouds 4 1019 51 10000 1 0 17:36 17.05.2020
3024 Clouds 6 1019 45 10000 1.36 14 17:18 17.05.2020
3025 Clouds 9 1019 42 10000 1.36 14 16:39 17.05.2020
3026 Clouds 9 1019 42 10000 1.76 8 16:20 17.05.2020
3027 Clouds 9 1018 39 10000 1 0 15:56 17.05.2020
3028 Clouds 12 1018 34 10000 3 20 15:36 17.05.2020
3029 Clouds 13 1018 32 10000 4 360 15:18 17.05.2020
3030 Clouds 13 1018 30 10000 5 350 14:42 17.05.2020
3031 Clouds 13 1018 30 10000 5 350 14:24 17.05.2020
3032 Clouds 15 1017 28 10000 7 340 13:43 17.05.2020
3033 Clouds 15 1017 28 10000 7 340 13:21 17.05.2020
3034 Clouds 15 1016 28 10000 4 10 10:50 17.05.2020
3035 Clouds 7 1016 39 10000 9 350 04:19 17.05.2020
3036 Clouds 5 1016 41 10000 6 340 02:29 17.05.2020
3037 Clouds 4 1016 41 10000 8 340 01:55 17.05.2020
3038 Clouds 2 1015 47 10000 4 350 00:57 17.05.2020
3039 Clouds 1 1015 50 10000 3 340 00:38 17.05.2020
3040 Clouds 1 1014 50 10000 2 0 23:57 16.05.2020
3041 Clear -2 1014 63 10000 1 0 23:39 16.05.2020
3042 Clear 1 1014 50 10000 3 360 23:19 16.05.2020
3043 Clear 1 1014 50 10000 3 360 22:57 16.05.2020
3044 Clear 2 1014 47 10000 5 360 22:39 16.05.2020
3045 Clear 2 1014 47 10000 3 20 22:19 16.05.2020
3046 Clear 1 1013 50 10000 4 300 21:44 16.05.2020
3047 Clear 1 1013 50 10000 4 300 21:25 16.05.2020
3048 Clouds 1 1013 50 10000 4 320 20:57 16.05.2020
3049 Clouds 2 1013 51 10000 5 350 20:39 16.05.2020
3050 Clouds 2 1013 51 10000 5 350 20:20 16.05.2020
3051 Clouds 1 1013 55 10000 2 0 19:56 16.05.2020
3052 Clouds 1 1013 55 10000 2 0 19:37 16.05.2020
3053 Clouds 1 1013 55 10000 2 0 19:19 16.05.2020
3054 Clouds 1 1013 55 10000 3 340 18:41 16.05.2020
3055 Clouds 1 1013 55 10000 3 340 18:22 16.05.2020
3056 Clouds 0 1013 88 10000 3 340 17:55 16.05.2020
3057 Clouds 2 1013 51 10000 4 340 17:37 16.05.2020
3058 Clouds 2 1013 51 10000 6 340 17:18 16.05.2020
3059 Clouds 2 1013 51 10000 6 340 16:39 16.05.2020
3060 Clouds 2 1013 51 10000 6 340 16:20 16.05.2020
3061 Clouds 3 1012 44 10000 7 350 15:55 16.05.2020
3062 Clouds 3 1012 44 10000 9 350 15:37 16.05.2020
3063 Clouds 3 1012 44 10000 11 350 15:18 16.05.2020
3064 Clouds 4 1011 38 10000 11 360 14:42 16.05.2020
3065 Clouds 4 1011 38 10000 11 360 14:20 16.05.2020
3066 Clouds 4 1011 41 10000 10 360 13:56 16.05.2020
3067 Clouds 5 1011 35 10000 9 340 13:37 16.05.2020
3068 Clouds 5 1011 35 10000 9 340 13:19 16.05.2020
3069 Clouds 5 1011 38 10000 9 350 12:44 16.05.2020
3070 Clouds 4 1011 44 10000 7 10 12:20 16.05.2020
3071 Clouds 4 1011 44 10000 7 10 11:56 16.05.2020
3072 Clouds 4 1011 44 10000 9 360 11:37 16.05.2020
3073 Clouds 4 1010 48 10000 8 360 11:18 16.05.2020
3074 Clouds 4 1010 48 10000 8 360 10:54 16.05.2020
3075 Clouds 4 1010 38 10000 10 340 10:36 16.05.2020
3076 Clouds 4 1010 38 10000 11 340 10:18 16.05.2020
3077 Clouds 4 1010 35 10000 10 350 09:40 16.05.2020
3078 Clouds 4 1010 35 10000 11 330 09:18 16.05.2020
3079 Clouds 4 1010 35 10000 10 340 08:42 16.05.2020
3080 Clouds 4 1010 35 10000 10 340 08:21 16.05.2020
3081 Clouds 3 1010 40 10000 11 330 07:45 16.05.2020
3082 Clouds 3 1010 40 10000 11 330 07:25 16.05.2020
3083 Clouds 3 1010 40 10000 10 340 06:57 16.05.2020
3084 Clouds 3 1010 40 10000 9 340 06:36 16.05.2020
3085 Clouds 2 1011 47 10000 10 340 06:18 16.05.2020
3086 Clouds 1 1011 50 10000 8 340 05:31 16.05.2020
3087 Clouds 1 1011 50 10000 8 320 03:35 16.05.2020
3088 Clouds 0 1011 85 10000 9 310 02:59 16.05.2020
3089 Clouds 0 1011 87 10000 9 320 02:20 16.05.2020
3090 Clouds 0 1010 87 10000 9 320 01:45 16.05.2020
3091 Clouds 0 1010 89 10000 9 320 01:22 16.05.2020
3092 Clouds -1 1010 63 10000 11 320 00:44 16.05.2020
3093 Clouds -1 1010 63 10000 11 320 00:21 16.05.2020
3094 Clouds -1 1009 68 10000 9 330 23:41 15.05.2020
3095 Clouds -1 1009 68 10000 9 330 23:20 15.05.2020
3096 Clouds -1 1009 68 10000 9 330 23:20 15.05.2020
3097 Clouds -1 1010 68 10000 7 330 22:57 15.05.2020
3098 Clouds -1 1010 68 10000 7 330 22:38 15.05.2020
3099 Clouds -1 1010 68 10000 8 330 22:18 15.05.2020
3100 Clouds -1 1010 68 10000 8 330 21:40 15.05.2020
3101 Clouds -1 1010 68 10000 8 330 21:21 15.05.2020
3102 Clouds -1 1009 68 10000 9 330 20:58 15.05.2020
3103 Clouds -1 1009 68 10000 9 330 20:40 15.05.2020
3104 Clouds -1 1009 68 10000 9 330 20:22 15.05.2020
3105 Clouds -1 1009 74 10000 11 330 19:55 15.05.2020
3106 Clouds -1 1009 74 10000 11 330 19:37 15.05.2020
3107 Clouds 0 1009 93 10000 9 330 19:18 15.05.2020
3108 Clouds 0 1009 93 10000 9 330 18:42 15.05.2020
3109 Clouds 0 1009 93 10000 9 330 18:23 15.05.2020
3110 Clouds 0 1009 93 10000 9 330 17:40 15.05.2020
3111 Clouds 0 1009 94 10000 9 330 17:19 15.05.2020
3112 Clouds 0 1009 94 10000 8 330 16:57 15.05.2020
3113 Snow -1 1009 80 10000 8 330 16:38 15.05.2020
3114 Snow -1 1009 86 8000 9 330 16:19 15.05.2020
3115 Snow -1 1009 86 8000 9 330 15:54 15.05.2020
3116 Snow -1 1008 80 8000 10 330 15:36 15.05.2020
3117 Clouds 0 1008 94 10000 11 340 15:18 15.05.2020
3118 Clouds 0 1008 94 10000 11 340 15:18 15.05.2020
3119 Clouds 0 1008 94 10000 11 340 14:41 15.05.2020
3120 Clouds 1 1008 59 10000 11 330 14:23 15.05.2020
3121 Clouds 1 1008 59 10000 11 330 13:58 15.05.2020
3122 Clouds 1 1007 59 10000 11 330 13:39 15.05.2020
3123 Clouds 2 1007 55 10000 13 340 13:19 15.05.2020
3124 Clouds 2 1007 55 10000 13 340 12:39 15.05.2020
3125 Clouds 1 1006 59 10000 11 340 12:18 15.05.2020
3126 Clouds 1 1006 59 10000 11 340 11:57 15.05.2020
3127 Clouds 1 1005 59 10000 11 340 11:38 15.05.2020
3128 Clouds 1 1005 59 10000 11 340 11:20 15.05.2020
3129 Snow 1 1005 64 3600 11 340 10:58 15.05.2020
3130 Clouds 2 1004 55 10000 12 340 10:39 15.05.2020
3131 Clouds 2 1004 55 10000 12 340 10:20 15.05.2020
3132 Snow 3 1004 51 8000 11 340 09:57 15.05.2020
3133 Dust 3 1004 47 10000 14 340 09:36 15.05.2020
3134 Clouds 2 1003 64 10000 11 340 09:18 15.05.2020
3135 Clouds 3 1003 59 10000 10 340 08:38 15.05.2020
3136 Clouds 3 1003 59 10000 10 340 08:20 15.05.2020
3137 Clouds 3 1002 64 8000 10 340 07:59 15.05.2020
3138 Clouds 4 1001 60 10000 12 340 07:40 15.05.2020
3139 Clouds 4 1001 60 10000 12 340 07:21 15.05.2020
3140 Clouds 4 1000 60 10000 10 340 06:32 15.05.2020
3141 Clouds 6 999 56 10000 10 340 05:33 15.05.2020
3142 Clouds 5 997 65 10000 9 310 03:51 15.05.2020
3143 Clouds 8 996 70 10000 8 320 02:58 15.05.2020
3144 Clouds 12 994 50 10000 6 290 01:37 15.05.2020
3145 Clouds 13 993 35 10000 6 310 01:18 15.05.2020
3146 Clouds 13 993 32 10000 7 300 00:41 15.05.2020
3147 Clouds 13 993 32 10000 7 300 00:22 15.05.2020
3148 Clouds 11 992 29 10000 1 0 23:41 14.05.2020
3149 Clouds 11 992 29 10000 3 170 23:19 14.05.2020
3150 Clouds 11 992 29 10000 3 170 22:55 14.05.2020
3151 Clouds 11 992 29 10000 3 170 22:37 14.05.2020
3152 Clouds 13 993 26 10000 2 260 22:18 14.05.2020
3153 Clouds 13 993 26 10000 2 260 21:41 14.05.2020
3154 Clouds 15 993 22 10000 6 270 21:20 14.05.2020
3155 Clouds 15 993 22 10000 6 270 20:57 14.05.2020
3156 Clouds 15 993 22 10000 6 270 20:39 14.05.2020
3157 Clouds 15 993 22 10000 6 270 20:20 14.05.2020
3158 Clouds 15 992 21 10000 5 190 19:57 14.05.2020
3159 Clouds 14 993 22 10000 5 190 19:38 14.05.2020
3160 Clouds 15 993 21 10000 5 190 19:20 14.05.2020
3161 Clouds 15 993 21 10000 5 190 18:56 14.05.2020
3162 Clouds 15 993 21 10000 5 200 18:38 14.05.2020
3163 Clouds 15 993 21 10000 5 200 18:38 14.05.2020
3164 Clouds 16 994 21 10000 4 190 18:19 14.05.2020
3165 Clouds 16 994 21 10000 4 190 17:56 14.05.2020
3166 Clouds 16 994 21 10000 5 170 17:37 14.05.2020
3167 Clouds 17 994 20 10000 5 190 17:18 14.05.2020
3168 Clouds 17 994 20 10000 4 190 16:39 14.05.2020
3169 Clouds 17 994 20 10000 4 190 16:21 14.05.2020
3170 Clouds 18 995 18 10000 5 190 15:59 14.05.2020
3171 Clouds 19 995 17 10000 4 200 15:40 14.05.2020
3172 Clouds 19 995 17 10000 4 200 15:20 14.05.2020
3173 Clouds 20 995 18 8000 4 220 14:56 14.05.2020
3174 Clouds 21 995 16 8000 5 230 14:38 14.05.2020
3175 Clouds 21 995 16 8000 5 230 14:20 14.05.2020
3176 Clouds 22 995 14 6000 6 240 13:56 14.05.2020
3177 Clouds 22 996 13 10000 4 230 13:38 14.05.2020
3178 Clouds 22 996 13 10000 5 230 13:18 14.05.2020
3179 Clouds 22 996 13 10000 5 230 12:57 14.05.2020
3180 Clouds 23 997 12 10000 6 220 12:37 14.05.2020
3181 Clouds 23 997 13 10000 5 200 12:18 14.05.2020
3182 Clouds 23 997 13 10000 5 200 11:55 14.05.2020
3183 Clouds 23 997 13 10000 6 240 11:37 14.05.2020
3184 Clouds 23 998 12 10000 5 260 11:19 14.05.2020
3185 Clouds 23 999 13 10000 7 210 10:41 14.05.2020
3186 Clouds 23 999 13 10000 7 210 10:23 14.05.2020
3187 Clouds 22 1000 14 10000 6 230 09:45 14.05.2020
3188 Clouds 22 1000 14 10000 6 230 09:25 14.05.2020
3189 Clouds 21 1000 19 10000 3 220 08:59 14.05.2020
3190 Clouds 21 1001 18 10000 4 260 08:37 14.05.2020
3191 Clouds 21 1002 21 10000 6 240 08:18 14.05.2020
3192 Clouds 20 1002 24 10000 6 250 07:44 14.05.2020
3193 Clouds 20 1002 24 10000 6 250 07:21 14.05.2020
3194 Clouds 18 1003 27 10000 6 240 06:43 14.05.2020
3195 Clouds 18 1003 27 10000 6 240 06:24 14.05.2020
3196 Clear 17 1004 29 10000 4 220 05:42 14.05.2020
3197 Clear 15 1005 33 10000 1 0 04:45 14.05.2020
3198 Clear 11 1006 43 10000 2 0 03:39 14.05.2020
3199 Clear 11 1006 43 10000 2 0 03:19 14.05.2020
3200 Clear 9 1006 45 10000 1 0 02:35 14.05.2020
3201 Clouds 8 1006 49 10000 0.18 62 01:49 14.05.2020
3202 Clouds 4 1006 64 10000 1 0 00:53 14.05.2020
3203 Clouds 2 1006 69 10000 1 0 00:27 14.05.2020
3204 Clouds 4 1006 64 10000 3 140 23:45 13.05.2020
3205 Clouds 4 1006 64 10000 3 140 23:24 13.05.2020
3206 Clouds 8 1006 52 10000 4 20 22:59 13.05.2020
3207 Clouds 8 1006 52 10000 6 320 22:41 13.05.2020
3208 Clear 8 1006 52 10000 6 320 22:21 13.05.2020
3209 Clear 7 1006 77 0 2.3 14 21:58 13.05.2020
3210 Clear 7 1006 77 0 2.3 14 21:39 13.05.2020
3211 Clear 5 1005 60 10000 2 0 21:19 13.05.2020
3212 Clear 5 1005 60 10000 2 0 20:55 13.05.2020
3213 Clear 5 1005 60 10000 2 0 20:55 13.05.2020
3214 Clear 5 1005 60 10000 2 0 20:37 13.05.2020
3215 Clear 5 1004 56 10000 1 0 20:18 13.05.2020
3216 Clear 5 1004 56 10000 1 0 19:41 13.05.2020
3217 Clear 5 1004 56 10000 1 0 19:22 13.05.2020
3218 Clear 5 1004 56 10000 2 170 18:43 13.05.2020
3219 Clear 5 1004 56 10000 2 170 18:22 13.05.2020
3220 Clear 5 1004 56 10000 2 170 18:22 13.05.2020
3221 Clear 6 1004 52 10000 2 140 17:58 13.05.2020
3222 Clear 7 1004 48 10000 2 0 17:38 13.05.2020
3223 Clear 7 1003 48 10000 2 170 17:18 13.05.2020
3224 Clear 10 1003 39 10000 1.58 19 16:40 13.05.2020
3225 Clear 10 1003 39 10000 1.72 13 16:19 13.05.2020
3226 Clear 13 1004 37 10000 2 330 15:55 13.05.2020
3227 Clear 13 1004 37 10000 2 330 15:55 13.05.2020
3228 Clear 15 1003 30 10000 2 0 15:36 13.05.2020
3229 Clear 15 1003 30 10000 2 0 15:36 13.05.2020
3230 Clear 17 1003 29 10000 3 360 15:18 13.05.2020
3231 Clear 18 1003 25 10000 4 340 14:42 13.05.2020
3232 Clear 18 1003 25 10000 4 340 14:42 13.05.2020
3233 Clouds 18 1003 25 10000 4 340 14:22 13.05.2020
3234 Clouds 19 1003 24 10000 5 350 13:58 13.05.2020
3235 Clouds 19 1003 24 10000 6 340 13:40 13.05.2020
3236 Clouds 19 1003 24 10000 6 340 13:21 13.05.2020
3237 Clouds 19 1003 24 10000 6 340 13:21 13.05.2020
3238 Clouds 20 1003 20 10000 5 310 12:57 13.05.2020
3239 Clouds 20 1003 20 10000 8 330 12:39 13.05.2020
3240 Clouds 19 1003 20 10000 6 290 12:18 13.05.2020
3241 Clouds 19 1003 20 10000 6 290 11:56 13.05.2020
3242 Clouds 21 1003 16 10000 9 340 11:36 13.05.2020
3243 Clouds 21 1003 16 10000 7 320 11:18 13.05.2020
3244 Clouds 21 1003 16 10000 7 320 10:56 13.05.2020
3245 Clouds 21 1003 16 10000 9 330 10:38 13.05.2020
3246 Clouds 21 1003 18 10000 8 330 10:18 13.05.2020
3247 Clouds 21 1004 18 10000 8 320 09:43 13.05.2020
3248 Clouds 21 1004 18 10000 8 320 09:23 13.05.2020
3249 Clouds 21 1004 18 10000 8 320 09:23 13.05.2020
3250 Clouds 20 1004 18 10000 8 310 08:57 13.05.2020
3251 Clouds 21 1004 16 10000 7 300 08:37 13.05.2020
3252 Clouds 20 1004 18 10000 6 320 08:18 13.05.2020
3253 Clouds 20 1004 22 10000 5 350 07:43 13.05.2020
3254 Clouds 20 1004 22 10000 5 350 07:25 13.05.2020
3255 Clouds 18 1005 23 10000 6 310 06:47 13.05.2020
3256 Clouds 18 1005 23 10000 6 310 06:27 13.05.2020
3257 Clouds 17 1005 25 10000 2 0 04:50 13.05.2020
3258 Clouds 13 1006 28 10000 1 0 03:27 13.05.2020
3259 Clouds 10 1006 37 10000 1 0 02:32 13.05.2020
3260 Clouds 6 1007 48 10000 1 0 01:37 13.05.2020
3261 Clouds 4 1006 51 10000 1.16 337 00:50 13.05.2020
3262 Clouds 0 1006 59 10000 1 0 00:20 13.05.2020
3263 Clouds 2 1006 55 10000 1.14 345 23:40 12.05.2020
3264 Clouds 2 1006 55 10000 0.38 338 23:21 12.05.2020
3265 Clouds 1 1006 59 10000 1 0 22:58 12.05.2020
3266 Clouds 1 1006 59 10000 0.38 338 22:40 12.05.2020
3267 Clouds 1 1006 59 10000 0.27 158 22:21 12.05.2020
3268 Clouds 9 1004 60 0 0.27 158 21:55 12.05.2020
3269 Clouds 4 1007 48 10000 2 170 21:37 12.05.2020
3270 Rain 4 1007 48 10000 2 170 21:18 12.05.2020
3271 Clouds 4 1007 48 10000 2 170 20:57 12.05.2020
3272 Clouds 4 1007 48 10000 2 170 20:38 12.05.2020
3273 Clouds 4 1007 48 10000 2 170 20:20 12.05.2020
3274 Clouds 5 1007 48 10000 1 0 19:56 12.05.2020
3275 Clouds 5 1007 48 10000 1 0 19:37 12.05.2020
3276 Clouds 5 1007 44 10000 0.86 133 19:19 12.05.2020
3277 Clouds 5 1007 44 10000 0.86 133 18:42 12.05.2020
3278 Clouds 5 1007 44 10000 0.9 99 18:24 12.05.2020
3279 Clouds 6 1008 41 10000 1 0 17:58 12.05.2020
3280 Clouds 7 1007 39 10000 2 170 17:39 12.05.2020
3281 Clouds 7 1007 39 10000 2 170 17:21 12.05.2020
3282 Clouds 8 1008 36 10000 2 160 16:43 12.05.2020
3283 Clouds 8 1008 36 10000 2 160 16:23 12.05.2020
3284 Clouds 10 1008 31 10000 2 170 15:56 12.05.2020
3285 Clouds 10 1008 31 10000 2 0 15:37 12.05.2020
3286 Clouds 18 1007 20 10000 3 40 15:18 12.05.2020
3287 Clouds 18 1007 20 10000 3 40 15:18 12.05.2020
3288 Clouds 18 1007 20 10000 3 40 14:55 12.05.2020
3289 Clouds 18 1007 20 10000 4 30 14:36 12.05.2020
3290 Clouds 18 1007 20 10000 4 30 14:36 12.05.2020
3291 Clouds 19 1007 17 10000 5 10 14:18 12.05.2020
3292 Clouds 19 1007 17 10000 5 10 13:55 12.05.2020
3293 Clouds 20 1007 16 10000 3 10 13:37 12.05.2020
3294 Clouds 19 1008 17 10000 4 360 13:18 12.05.2020
3295 Clouds 19 1008 17 10000 4 360 12:56 12.05.2020
3296 Clouds 20 1008 18 10000 4 330 12:38 12.05.2020
3297 Clouds 20 1008 18 10000 4 330 12:20 12.05.2020
3298 Clouds 20 1008 16 10000 3 350 11:57 12.05.2020
3299 Clouds 20 1008 16 10000 3 350 11:57 12.05.2020
3300 Clouds 20 1008 16 10000 4 350 11:37 12.05.2020
3301 Clouds 20 1008 16 10000 4 350 11:19 12.05.2020
3302 Clouds 20 1009 16 10000 3 10 10:55 12.05.2020
3303 Clouds 20 1009 16 10000 6 320 10:37 12.05.2020
3304 Clouds 20 1009 16 10000 5 320 10:18 12.05.2020
3305 Clouds 20 1009 16 10000 5 320 09:56 12.05.2020
3306 Clouds 19 1010 17 10000 4 310 09:38 12.05.2020
3307 Clouds 20 1010 16 10000 5 310 09:19 12.05.2020
3308 Clouds 20 1011 18 10000 4 290 08:40 12.05.2020
3309 Clouds 18 1011 18 10000 3 290 08:21 12.05.2020
3310 Clouds 18 1012 18 10000 3 100 07:45 12.05.2020
3311 Clouds 18 1012 18 10000 3 100 07:27 12.05.2020
3312 Clouds 17 1013 20 10000 1 0 06:56 12.05.2020
3313 Clouds 15 1014 21 10000 1 0 06:37 12.05.2020
3314 Clouds 14 1014 19 10000 2 0 06:18 12.05.2020
3315 Clouds 14 1015 17 10000 1 0 05:44 12.05.2020
3316 Clouds 13 1015 19 10000 1 0 03:49 12.05.2020
3317 Clouds 11 1016 23 10000 1 0 02:58 12.05.2020
3318 Clouds 9 1016 29 10000 1 0 02:26 12.05.2020
3319 Clouds 9 1016 29 10000 1 0 02:26 12.05.2020
3320 Clouds 5 1016 38 10000 1 0 01:33 12.05.2020
3321 Clouds 4 1016 38 10000 1 0 00:57 12.05.2020
3322 Clouds 0 1016 60 10000 1 0 00:21 12.05.2020
3323 Clouds 2 1016 40 10000 1 0 23:55 11.05.2020
3324 Clouds 6 1015 60 0 1.61 283 23:37 11.05.2020
3325 Clouds 2 1016 40 10000 2 170 23:18 11.05.2020
3326 Clouds 2 1016 40 10000 2 170 22:54 11.05.2020
3327 Clouds 2 1015 40 10000 2 0 22:36 11.05.2020
3328 Clouds 1 1015 43 10000 2 170 22:18 11.05.2020
3329 Clouds 1 1015 43 10000 2 170 21:54 11.05.2020
3330 Clouds -1 1015 50 10000 1 0 21:36 11.05.2020
3331 Clouds 2 1015 37 10000 1 0 21:18 11.05.2020
3332 Clouds 3 1015 37 10000 3 220 20:42 11.05.2020
3333 Clear 3 1015 37 10000 3 220 20:21 11.05.2020
3334 Clear 3 1015 34 10000 2 0 19:58 11.05.2020
3335 Clear 5 1015 30 10000 1 0 19:40 11.05.2020
3336 Clear 5 1015 30 10000 1 0 19:21 11.05.2020
3337 Clear 6 1015 30 10000 1 0 18:56 11.05.2020
3338 Clear 9 1015 26 10000 4 350 18:38 11.05.2020
3339 Clear 9 1015 24 10000 4 350 18:18 11.05.2020
3340 Clear 9 1015 24 10000 4 350 17:55 11.05.2020
3341 Clear 10 1015 21 10000 2 0 17:37 11.05.2020
3342 Clear 9 1015 23 10000 3.28 335 17:19 11.05.2020
3343 Clear 11 1015 20 10000 1 0 16:42 11.05.2020
3344 Clear 11 1015 20 10000 1 0 16:23 11.05.2020
3345 Clear 11 1015 20 10000 1 0 15:59 11.05.2020
3346 Clear 13 1015 17 10000 2 0 15:40 11.05.2020
3347 Clear 13 1015 17 10000 2 0 15:19 11.05.2020
3348 Clear 15 1015 15 10000 6 350 14:56 11.05.2020
3349 Clear 16 1014 14 10000 7 360 14:38 11.05.2020
3350 Clear 16 1014 15 10000 10 340 14:19 11.05.2020
3351 Clear 17 1014 14 10000 10 330 13:42 11.05.2020
3352 Clear 17 1014 14 10000 10 330 13:22 11.05.2020
3353 Dust 18 1014 13 10000 12 330 12:58 11.05.2020
3354 Dust 18 1013 13 10000 12 330 12:40 11.05.2020
3355 Dust 18 1013 13 10000 12 330 12:22 11.05.2020
3356 Dust 18 1013 13 10000 12 340 11:57 11.05.2020
3357 Dust 18 1013 13 10000 12 340 11:57 11.05.2020
3358 Dust 18 1013 13 10000 14 340 11:38 11.05.2020
3359 Dust 18 1013 13 10000 14 340 11:38 11.05.2020
3360 Dust 18 1013 13 10000 14 340 11:20 11.05.2020
3361 Dust 19 1013 14 10000 13 340 10:56 11.05.2020
3362 Dust 18 1013 16 10000 15 330 10:38 11.05.2020
3363 Dust 18 1013 16 10000 15 330 10:20 11.05.2020
3364 Dust 19 1013 15 10000 15 330 09:56 11.05.2020
3365 Dust 18 1013 17 10000 15 330 09:37 11.05.2020
3366 Dust 18 1013 18 10000 15 330 09:18 11.05.2020
3367 Dust 18 1013 18 10000 15 330 09:18 11.05.2020
3368 Dust 19 1013 19 10000 15 330 08:42 11.05.2020
3369 Dust 19 1013 19 10000 15 330 08:23 11.05.2020
3370 Dust 18 1014 25 10000 15 320 07:56 11.05.2020
3371 Dust 17 1014 29 10000 15 320 07:38 11.05.2020
3372 Dust 17 1014 29 10000 15 320 07:20 11.05.2020
3373 Dust 16 1014 29 10000 14 330 06:34 11.05.2020
3374 Dust 16 1014 29 10000 14 320 05:51 11.05.2020
3375 Dust 16 1014 26 10000 14 320 05:21 11.05.2020
3376 Dust 16 1014 29 10000 13 320 03:52 11.05.2020
3377 Clouds 13 1015 28 10000 8 310 02:36 11.05.2020
3378 Clouds 9 1015 31 10000 1 0 01:55 11.05.2020
3379 Clouds 8 1015 31 10000 3 310 00:57 11.05.2020
3380 Clouds 5 1015 38 10000 1 0 00:38 11.05.2020
3381 Clouds 6 1015 35 10000 1 0 00:18 11.05.2020
3382 Clouds 6 1015 35 10000 2 0 23:39 10.05.2020
3383 Clouds 6 1015 35 10000 2 0 23:19 10.05.2020
3384 Clouds 6 1015 33 10000 2 270 22:54 10.05.2020
3385 Clouds 6 1015 33 10000 2 270 22:36 10.05.2020
3386 Clouds 5 1015 38 10000 1 0 22:18 10.05.2020
3387 Clouds 5 1015 38 10000 1 0 21:41 10.05.2020
3388 Clouds 2 1016 51 10000 2 0 21:18 10.05.2020
3389 Clouds 2 1016 51 10000 2 0 20:42 10.05.2020
3390 Clouds 2 1016 51 10000 2 0 20:24 10.05.2020
3391 Clouds 5 1017 44 10000 1 0 19:56 10.05.2020
3392 Clouds 5 1017 44 10000 1 0 19:38 10.05.2020
3393 Clouds 5 1017 44 10000 1 0 19:20 10.05.2020
3394 Clouds 5 1017 44 10000 1 0 19:20 10.05.2020
3395 Clouds 2 1017 51 10000 1 0 18:55 10.05.2020
3396 Clouds 2 1017 51 10000 1 0 18:36 10.05.2020
3397 Clouds 1 1018 55 10000 3 170 18:18 10.05.2020
3398 Clouds 1 1018 55 10000 3 170 17:57 10.05.2020
3399 Clouds 1 1018 55 10000 3 170 17:37 10.05.2020
3400 Clouds 2 1018 51 10000 2 160 17:19 10.05.2020
3401 Clouds 3 1018 47 10000 1 0 16:43 10.05.2020
3402 Clouds 7 1018 36 10000 1 0 16:21 10.05.2020
3403 Clouds 7 1018 36 10000 1 0 15:58 10.05.2020
3404 Clouds 7 1018 36 10000 1 0 15:39 10.05.2020
3405 Clouds 7 1018 36 10000 1 0 15:39 10.05.2020
3406 Clouds 7 1018 36 10000 1 0 15:20 10.05.2020
3407 Clouds 8 1018 33 10000 2 290 14:55 10.05.2020
3408 Clouds 10 1018 29 10000 6 320 14:37 10.05.2020
3409 Clouds 10 1018 29 10000 6 320 14:18 10.05.2020
3410 Clouds 10 1018 29 10000 6 320 13:56 10.05.2020
3411 Clouds 10 1019 29 10000 8 320 13:36 10.05.2020
3412 Clouds 10 1019 29 10000 8 320 13:36 10.05.2020
3413 Clouds 10 1019 29 10000 8 320 13:36 10.05.2020
3414 Clouds 11 1019 27 10000 8 340 13:18 10.05.2020
3415 Clouds 11 1019 27 10000 8 340 12:42 10.05.2020
3416 Clouds 11 1019 27 10000 8 340 12:22 10.05.2020
3417 Clouds 11 1019 27 10000 7 330 11:58 10.05.2020
3418 Clouds 11 1019 27 10000 8 340 11:40 10.05.2020
3419 Clouds 11 1019 27 10000 8 340 11:21 10.05.2020
3420 Clouds 11 1020 27 10000 7 330 10:55 10.05.2020
3421 Clouds 10 1020 29 10000 7 350 10:36 10.05.2020
3422 Clouds 10 1020 29 10000 8 350 10:18 10.05.2020
3423 Clouds 10 1021 31 10000 8 350 09:41 10.05.2020
3424 Clouds 10 1021 31 10000 8 350 09:23 10.05.2020
3425 Clouds 9 1021 31 10000 8 330 08:55 10.05.2020
3426 Clouds 9 1021 29 10000 7 330 08:37 10.05.2020
3427 Clouds 8 1022 31 10000 7 340 08:19 10.05.2020
3428 Clouds 7 1022 30 10000 7 350 07:38 10.05.2020
3429 Clouds 7 1023 36 10000 8 340 07:19 10.05.2020
3430 Clouds 7 1023 36 10000 8 340 06:50 10.05.2020
3431 Clouds 6 1023 33 10000 8 350 06:23 10.05.2020
3432 Clouds 4 1023 48 10000 4 340 05:45 10.05.2020
3433 Clouds 4 1024 51 10000 4 10 04:45 10.05.2020
3434 Clouds 4 1024 51 10000 4 10 04:25 10.05.2020
3435 Clouds 2 1024 59 10000 3 320 03:44 10.05.2020
3436 Clouds 1 1024 64 10000 3 340 02:59 10.05.2020
3437 Clouds 0 1024 83 10000 5.01 330 02:25 10.05.2020
3438 Clouds -1 1024 68 10000 1 0 01:57 10.05.2020
3439 Clouds -3 1023 79 10000 1 0 01:39 10.05.2020
3440 Clouds -3 1023 73 10000 2 340 01:18 10.05.2020
3441 Clouds -3 1023 73 10000 2 340 00:52 10.05.2020
3442 Clouds -2 1023 68 10000 1 0 00:20 10.05.2020
3443 Clouds -4 1022 73 10000 3 300 23:40 09.05.2020
3444 Clouds -4 1022 73 10000 3 300 23:21 09.05.2020
3445 Clouds -2 1022 68 10000 2 0 22:58 09.05.2020
3446 Clouds -2 1022 68 10000 2 0 22:39 09.05.2020
3447 Clouds -2 1022 68 10000 2 0 22:21 09.05.2020
3448 Clouds -3 1021 73 10000 2 340 21:56 09.05.2020
3449 Clouds -3 1021 73 10000 2 340 21:38 09.05.2020
3450 Clouds -3 1021 73 10000 2 340 21:19 09.05.2020
3451 Clouds -2 1021 63 10000 2 0 20:56 09.05.2020
3452 Clouds -2 1021 63 10000 2 0 20:37 09.05.2020
3453 Clouds -2 1021 63 10000 2 0 20:18 09.05.2020
3454 Clouds -2 1021 63 10000 2 0 19:40 09.05.2020
3455 Clouds -2 1021 63 10000 2 0 19:20 09.05.2020
3456 Clouds -2 1021 63 10000 2 330 18:58 09.05.2020
3457 Clouds -1 1021 58 10000 2 0 18:40 09.05.2020
3458 Clouds 0 1021 89 10000 5 320 18:19 09.05.2020
3459 Clouds 1 1021 47 10000 3 320 17:44 09.05.2020
3460 Clouds 1 1021 47 10000 3 320 17:23 09.05.2020
3461 Clouds 3 1021 40 10000 5 340 16:55 09.05.2020
3462 Clouds 3 1020 37 10000 6 340 16:37 09.05.2020
3463 Clouds 4 1020 35 10000 6 350 16:18 09.05.2020
3464 Clouds 4 1020 35 10000 6 350 16:18 09.05.2020
3465 Clouds 4 1020 32 10000 6 340 15:40 09.05.2020
3466 Clouds 4 1020 32 10000 6 340 15:21 09.05.2020
3467 Clouds 5 1019 35 10000 6 360 14:43 09.05.2020
3468 Clouds 5 1019 35 10000 6 360 14:20 09.05.2020
3469 Clouds 5 1018 32 10000 9 350 14:00 09.05.2020
3470 Clouds 6 1018 33 10000 9 350 13:41 09.05.2020
3471 Clouds 6 1018 33 10000 9 350 13:21 09.05.2020
3472 Snow 6 1018 30 10000 11 340 12:58 09.05.2020
3473 Clouds 6 1017 30 10000 11 340 12:39 09.05.2020
3474 Clouds 6 1017 30 10000 11 340 12:39 09.05.2020
3475 Clouds 6 1017 30 10000 11 340 12:21 09.05.2020
3476 Clouds 5 1017 48 10000 11 340 11:44 09.05.2020
3477 Clouds 5 1017 48 10000 11 340 11:20 09.05.2020
3478 Clouds 5 1017 48 10000 9 10 10:48 09.05.2020
3479 Clouds 5 1017 48 10000 9 10 10:27 09.05.2020
3480 Clouds 6 1017 38 10000 9 360 09:59 09.05.2020
3481 Clouds 5 1017 44 10000 7 10 09:41 09.05.2020
3482 Clouds 5 1017 44 10000 7 10 09:19 09.05.2020
3483 Clouds 5 1017 44 10000 10 350 08:52 09.05.2020
3484 Clouds 5 1017 44 10000 10 350 08:34 09.05.2020
3485 Clouds 5 1016 48 10000 11 340 07:55 09.05.2020
3486 Clouds 4 1017 55 10000 11 350 07:37 09.05.2020
3487 Clouds 3 1017 64 10000 11 340 07:19 09.05.2020
3488 Snow 2 1017 74 10000 9 340 06:26 09.05.2020
3489 Snow 1 1017 80 10000 6 340 05:50 09.05.2020
3490 Snow 0 1017 73 3600 5 320 04:58 09.05.2020
3491 Snow 0 1016 80 2000 8 300 03:39 09.05.2020
3492 Snow 0 1015 82 2000 7 300 02:53 09.05.2020
3493 Snow 0 1015 87 2000 6 310 02:23 09.05.2020
3494 Snow 1 1015 74 8000 6 300 01:47 09.05.2020
3495 Snow 1 1015 74 8000 6 300 01:20 09.05.2020
3496 Snow 1 1014 74 10000 5 310 00:40 09.05.2020
3497 Clouds 1 1014 69 10000 4 330 23:58 08.05.2020
3498 Clouds 1 1014 69 10000 4 330 23:58 08.05.2020
3499 Clouds 1 1014 69 10000 5 340 23:39 08.05.2020
3500 Clouds 1 1014 69 10000 5 340 23:20 08.05.2020
3501 Clouds 1 1014 74 10000 6 340 22:54 08.05.2020
3502 Clouds 1 1014 74 10000 6 340 22:36 08.05.2020
3503 Clouds 1 1014 74 10000 5 320 22:18 08.05.2020
3504 Clouds 1 1014 74 10000 5 320 22:18 08.05.2020
3505 Clouds 1 1014 74 10000 5 320 21:42 08.05.2020
3506 Clouds 1 1013 74 10000 7 330 21:19 08.05.2020
3507 Clouds 1 1013 74 10000 7 330 21:19 08.05.2020
3508 Clouds 1 1013 74 10000 7 330 20:59 08.05.2020
3509 Clouds 1 1013 74 10000 7 330 20:41 08.05.2020
3510 Clouds 1 1013 74 10000 7 330 20:23 08.05.2020
3511 Clouds 3 1013 69 10000 4 330 19:55 08.05.2020
3512 Clouds 3 1013 69 10000 4 330 19:37 08.05.2020
3513 Clouds 3 1012 69 10000 4 350 19:19 08.05.2020
3514 Clouds 3 1012 69 10000 4 350 18:43 08.05.2020
3515 Clouds 3 1012 69 10000 4 350 18:25 08.05.2020
3516 Clouds 4 1011 69 10000 8 320 17:42 08.05.2020
3517 Clouds 5 1010 65 10000 3 330 17:20 08.05.2020
3518 Clouds 5 1010 65 10000 3 330 16:54 08.05.2020
3519 Clouds 5 1010 60 10000 6 310 16:36 08.05.2020
3520 Clouds 6 1009 45 10000 2 0 16:18 08.05.2020
3521 Clouds 8 1008 39 10000 1 0 15:42 08.05.2020
3522 Clouds 8 1008 39 10000 1 0 15:20 08.05.2020
3523 Clouds 8 1008 36 10000 3 330 14:55 08.05.2020
3524 Clouds 11 1008 32 10000 4 350 14:37 08.05.2020
3525 Clouds 11 1008 32 10000 4 340 14:18 08.05.2020
3526 Clouds 11 1008 29 10000 5 300 13:41 08.05.2020
3527 Clouds 11 1008 29 10000 5 300 13:20 08.05.2020
3528 Clouds 12 1008 27 10000 9 300 12:56 08.05.2020
3529 Clouds 13 1007 22 10000 6 310 12:38 08.05.2020
3530 Clouds 13 1007 22 10000 6 310 12:20 08.05.2020
3531 Clouds 13 1007 24 10000 5 250 11:44 08.05.2020
3532 Clouds 13 1007 24 10000 5 250 11:23 08.05.2020
3533 Clouds 14 1007 20 10000 4 240 10:58 08.05.2020
3534 Clouds 14 1007 20 10000 8 260 10:40 08.05.2020
3535 Clouds 15 1007 18 10000 8 280 10:19 08.05.2020
3536 Clouds 15 1007 18 10000 8 280 09:56 08.05.2020
3537 Clouds 15 1007 18 10000 6 300 09:37 08.05.2020
3538 Clouds 15 1008 19 10000 7 280 09:18 08.05.2020
3539 Clouds 15 1008 18 10000 9 260 08:40 08.05.2020
3540 Clouds 15 1008 18 10000 9 260 08:21 08.05.2020
3541 Clouds 16 1009 14 10000 6 230 07:43 08.05.2020
3542 Clouds 16 1009 14 10000 6 230 07:43 08.05.2020
3543 Clouds 16 1009 14 10000 6 230 07:23 08.05.2020
3544 Clouds 15 1009 13 10000 8 230 06:50 08.05.2020
3545 Clouds 14 1010 19 10000 6 230 06:22 08.05.2020
3546 Clouds 14 1010 17 10000 8 230 05:41 08.05.2020
3547 Clouds 12 1011 22 10000 3 230 04:30 08.05.2020
3548 Clear 4 1013 38 10000 3.95 239 02:32 08.05.2020
3549 Clear 0 1013 52 10000 2.71 220 01:45 08.05.2020
3550 Clear 0 1013 62 10000 1.88 177 01:23 08.05.2020
3551 Clear -2 1014 54 10000 1.88 177 00:51 08.05.2020
3552 Clear -3 1014 58 10000 1.88 177 00:29 08.05.2020
3553 Clear -5 1014 57 10000 1 0 23:58 07.05.2020
3554 Clear -4 1014 62 10000 1.78 177 23:40 07.05.2020
3555 Clear -4 1014 62 10000 1.74 179 23:21 07.05.2020
3556 Clear -3 1015 53 10000 1.74 179 22:54 07.05.2020
3557 Clear -3 1015 53 10000 1.74 179 22:36 07.05.2020
3558 Clear -2 1015 54 10000 1 0 22:18 07.05.2020
3559 Clear -2 1015 54 10000 1 0 21:54 07.05.2020
3560 Clear -2 1015 54 10000 1 0 21:36 07.05.2020
3561 Clear 0 1015 68 10000 1.54 172 21:18 07.05.2020
3562 Clear 0 1015 70 10000 1.45 173 20:41 07.05.2020
3563 Clear 0 1015 69 10000 1.59 174 20:20 07.05.2020
3564 Clear 2 1016 34 10000 1.59 174 19:50 07.05.2020
3565 Clear 2 1016 34 10000 1.76 172 19:24 07.05.2020
3566 Clear 4 1016 32 10000 1.76 172 18:59 07.05.2020
3567 Clear 4 1016 32 10000 1.76 172 18:40 07.05.2020
3568 Clear 4 1016 32 10000 1.55 177 18:21 07.05.2020
3569 Clear 2 1016 34 10000 4 160 17:43 07.05.2020
3570 Clear 2 1016 34 10000 4 160 17:21 07.05.2020
3571 Clear 2 1016 34 10000 3 200 16:43 07.05.2020
3572 Clear 2 1016 34 10000 3 200 16:20 07.05.2020
3573 Clear 5 1016 30 10000 3 220 15:58 07.05.2020
3574 Clear 8 1016 24 10000 4 250 15:39 07.05.2020
3575 Clear 8 1016 26 10000 4 270 15:19 07.05.2020
3576 Clear 8 1016 26 10000 4 270 14:59 07.05.2020
3577 Clear 9 1016 24 10000 5 290 14:41 07.05.2020
3578 Clouds 9 1016 24 10000 5 290 14:19 07.05.2020
3579 Clouds 10 1016 21 10000 6 310 13:43 07.05.2020
3580 Clouds 10 1016 21 10000 6 310 13:25 07.05.2020
3581 Clouds 11 1016 20 10000 6 290 12:44 07.05.2020
3582 Clouds 11 1016 20 10000 6 290 12:20 07.05.2020
3583 Clouds 11 1016 20 10000 5 300 11:58 07.05.2020
3584 Clouds 12 1016 18 10000 7 300 11:38 07.05.2020
3585 Clouds 12 1016 18 10000 7 300 11:20 07.05.2020
3586 Clouds 12 1016 17 10000 7 320 10:41 07.05.2020
3587 Clouds 12 1016 17 10000 7 320 10:22 07.05.2020
3588 Clouds 10 1017 19 10000 7 330 09:41 07.05.2020
3589 Clouds 10 1017 19 10000 7 330 09:20 07.05.2020
3590 Clouds 11 1017 20 10000 6 320 08:57 07.05.2020
3591 Clouds 10 1018 23 10000 8 340 08:38 07.05.2020
3592 Clouds 10 1018 23 10000 8 340 08:20 07.05.2020
3593 Clouds 10 1019 23 10000 7 360 07:44 07.05.2020
3594 Clouds 10 1019 23 10000 7 360 07:25 07.05.2020
3595 Clouds 8 1020 26 10000 8 350 06:48 07.05.2020
3596 Clouds 8 1020 26 10000 8 350 06:24 07.05.2020
3597 Clouds 8 1019 28 10000 9 330 05:30 07.05.2020
3598 Clouds 6 1019 33 10000 6 350 03:55 07.05.2020
3599 Clouds 5 1019 35 10000 8 360 03:25 07.05.2020
3600 Clouds 4 1019 38 10000 8 20 02:42 07.05.2020
3601 Clouds 2 1019 51 10000 6 340 01:44 07.05.2020
3602 Clouds 2 1019 51 10000 6 340 01:23 07.05.2020
3603 Clouds 1 1018 55 10000 4 340 00:45 07.05.2020
3604 Clouds 1 1018 55 10000 4 340 00:27 07.05.2020
3605 Clouds 1 1017 50 10000 5 330 23:47 06.05.2020
3606 Clouds 1 1017 50 10000 5 330 23:25 06.05.2020
3607 Clouds 1 1016 50 10000 5 330 22:58 06.05.2020
3608 Clouds 1 1016 50 10000 5 330 22:58 06.05.2020
3609 Clouds 1 1016 50 10000 5 330 22:39 06.05.2020
3610 Clouds 1 1016 50 10000 5 330 22:19 06.05.2020
3611 Clouds 1 1016 50 10000 5 330 22:19 06.05.2020
3612 Clouds 1 1015 50 10000 5 330 21:56 06.05.2020
3613 Clouds 1 1015 50 10000 5 330 21:38 06.05.2020
3614 Clouds 2 1014 47 10000 7 340 21:19 06.05.2020
3615 Clouds 2 1014 47 10000 7 340 20:42 06.05.2020
3616 Clouds 2 1014 47 10000 7 340 20:24 06.05.2020
3617 Clouds 3 1013 40 10000 6 340 19:58 06.05.2020
3618 Clouds 3 1013 40 10000 6 340 19:58 06.05.2020
3619 Clouds 3 1013 40 10000 6 340 19:39 06.05.2020
3620 Clouds 3 1013 40 10000 6 340 19:20 06.05.2020
3621 Clouds 4 1013 41 10000 7 360 18:59 06.05.2020
3622 Clouds 4 1013 41 10000 7 360 18:59 06.05.2020
3623 Clouds 4 1013 41 10000 7 360 18:40 06.05.2020
3624 Clouds 4 1013 41 10000 7 360 18:40 06.05.2020
3625 Clouds 4 1013 41 10000 7 360 18:21 06.05.2020
3626 Clouds 4 1013 48 10000 6 360 17:59 06.05.2020
3627 Clouds 4 1013 55 10000 7 340 17:39 06.05.2020
3628 Clouds 4 1013 55 10000 7 340 17:21 06.05.2020
3629 Clouds 4 1013 55 10000 7 340 17:21 06.05.2020
3630 Clouds 4 1012 60 10000 10 340 16:58 06.05.2020
3631 Clouds 5 1012 56 10000 10 340 16:40 06.05.2020
3632 Clouds 5 1012 56 10000 10 340 16:21 06.05.2020
3633 Clouds 5 1011 56 10000 10 340 15:58 06.05.2020
3634 Clouds 6 1011 48 10000 9 350 15:40 06.05.2020
3635 Clouds 6 1011 48 10000 9 350 15:21 06.05.2020
3636 Clouds 6 1010 48 10000 11 350 14:55 06.05.2020
3637 Dust 8 1010 42 10000 11 340 14:36 06.05.2020
3638 Dust 10 1009 39 10000 10 350 14:18 06.05.2020
3639 Clouds 11 1008 37 10000 9 350 13:43 06.05.2020
3640 Clouds 11 1008 37 10000 9 350 13:24 06.05.2020
3641 Dust 12 1007 34 10000 10 350 12:56 06.05.2020
3642 Clouds 13 1007 32 10000 11 350 12:37 06.05.2020
3643 Dust 13 1006 35 10000 12 340 12:19 06.05.2020
3644 Dust 13 1006 32 10000 11 350 11:40 06.05.2020
3645 Dust 13 1006 32 10000 11 350 11:21 06.05.2020
3646 Clouds 13 1006 35 10000 10 350 10:57 06.05.2020
3647 Clouds 13 1006 35 10000 11 360 10:38 06.05.2020
3648 Clouds 13 1006 35 10000 11 340 10:19 06.05.2020
3649 Clouds 14 1006 33 10000 10 350 09:44 06.05.2020
3650 Clouds 14 1006 33 10000 10 350 09:23 06.05.2020
3651 Clouds 15 1005 33 10000 9 350 08:49 06.05.2020
3652 Clouds 15 1005 33 10000 9 350 08:24 06.05.2020
3653 Clouds 15 1005 33 10000 9 350 07:59 06.05.2020
3654 Clouds 15 1006 55 10000 10 330 07:39 06.05.2020
3655 Clouds 15 1006 57 10000 10 330 07:21 06.05.2020
3656 Clouds 14 1006 35 10000 11 330 06:53 06.05.2020
3657 Clouds 14 1006 35 10000 10 340 06:22 06.05.2020
3658 Clouds 13 1006 37 10000 8 340 05:55 06.05.2020
3659 Clouds 13 1005 35 10000 7 340 05:37 06.05.2020
3660 Clouds 14 1004 30 10000 7 330 04:38 06.05.2020
3661 Clouds 15 1003 24 10000 4 30 03:42 06.05.2020
3662 Clouds 15 1003 24 10000 4 30 03:20 06.05.2020
3663 Clouds 14 1002 19 10000 2 0 02:30 06.05.2020
3664 Clouds 12 1002 25 10000 3 280 01:54 06.05.2020
3665 Clouds 12 1001 20 10000 1 0 01:32 06.05.2020
3666 Clouds 13 1001 16 10000 2 0 00:54 06.05.2020
3667 Clouds 13 1001 15 10000 1 0 00:27 06.05.2020
3668 Clouds 13 1000 13 10000 1 0 23:56 05.05.2020
3669 Clouds 16 1000 11 10000 5 170 23:37 05.05.2020
3670 Clouds 17 1000 11 10000 7 150 23:18 05.05.2020
3671 Clouds 17 1001 11 10000 6 160 22:41 05.05.2020
3672 Clouds 17 1001 11 10000 6 160 22:20 05.05.2020
3673 Clouds 14 1001 14 10000 5 160 21:57 05.05.2020
3674 Clouds 14 1001 14 10000 5 160 21:38 05.05.2020
3675 Clouds 14 1001 14 10000 5 160 21:20 05.05.2020
3676 Clouds 15 1001 11 10000 4 180 20:57 05.05.2020
3677 Clouds 15 1001 11 10000 4 180 20:39 05.05.2020
3678 Clouds 14 1002 11 10000 4 190 20:18 05.05.2020
3679 Clouds 14 1002 11 10000 4 190 19:54 05.05.2020
3680 Clouds 14 1002 11 10000 4 190 19:36 05.05.2020
3681 Clouds 12 1002 13 10000 3 170 19:18 05.05.2020
3682 Clouds 12 1002 13 10000 3 170 19:18 05.05.2020
3683 Clouds 15 1002 11 10000 5 160 18:42 05.05.2020
3684 Clouds 15 1002 11 10000 5 160 18:20 05.05.2020
3685 Clouds 19 1002 8 10000 7 180 17:58 05.05.2020
3686 Clouds 18 1002 10 10000 5 220 17:39 05.05.2020
3687 Clouds 18 1002 10 10000 5 220 17:21 05.05.2020
3688 Clouds 20 1002 8 10000 7 200 16:56 05.05.2020
3689 Clouds 21 1002 9 10000 5 180 16:36 05.05.2020
3690 Clouds 16 1002 18 10000 4 140 16:18 05.05.2020
3691 Clouds 16 1002 18 10000 4 140 16:18 05.05.2020
3692 Clouds 18 1002 16 10000 1 0 15:41 05.05.2020
3693 Clouds 18 1002 16 10000 1 0 15:22 05.05.2020
3694 Clouds 21 1001 13 10000 2 0 14:58 05.05.2020
3695 Clouds 24 1001 12 10000 3 230 14:39 05.05.2020
3696 Clouds 24 1001 12 10000 3 230 14:20 05.05.2020
3697 Clouds 25 1001 11 10000 6 220 13:58 05.05.2020
3698 Clouds 25 1001 11 10000 3 280 13:39 05.05.2020
3699 Clouds 25 1001 11 10000 3 280 13:20 05.05.2020
3700 Clouds 25 1001 10 10000 4 230 12:58 05.05.2020
3701 Clouds 26 1001 9 10000 6 250 12:38 05.05.2020
3702 Clouds 26 1001 9 10000 6 250 12:19 05.05.2020
3703 Clouds 27 1001 8 10000 5 230 11:42 05.05.2020
3704 Clouds 27 1002 8 10000 5 250 11:20 05.05.2020
3705 Clouds 27 1002 8 10000 5 250 10:59 05.05.2020
3706 Clouds 27 1002 8 10000 6 250 10:38 05.05.2020
3707 Clouds 26 1003 7 10000 4 250 10:19 05.05.2020
3708 Clouds 26 1003 7 10000 4 250 09:57 05.05.2020
3709 Clouds 26 1003 7 10000 4 250 09:39 05.05.2020
3710 Clouds 26 1004 7 10000 7 130 09:20 05.05.2020
3711 Clouds 25 1004 11 10000 10 130 08:41 05.05.2020
3712 Clouds 24 1005 12 10000 11 130 08:20 05.05.2020
3713 Clouds 24 1005 12 10000 11 130 07:57 05.05.2020
3714 Clouds 23 1006 12 10000 12 150 07:38 05.05.2020
3715 Clouds 22 1007 13 10000 10 160 07:18 05.05.2020
3716 Clouds 21 1007 15 10000 11 150 06:45 05.05.2020
3717 Clouds 21 1007 15 10000 11 150 06:20 05.05.2020
3718 Clouds 19 1008 17 10000 11 130 05:36 05.05.2020
3719 Clouds 16 1008 18 10000 11 130 03:34 05.05.2020
3720 Clouds 10 1009 27 10000 2 0 01:27 05.05.2020
3721 Clouds 8 1009 31 10000 3 290 00:50 05.05.2020
3722 Clouds 7 1009 30 10000 1 0 00:20 05.05.2020
3723 Clouds 9 1009 26 10000 2 0 23:43 04.05.2020
3724 Clouds 9 1009 26 10000 2 0 23:21 04.05.2020
3725 Clouds 7 1009 33 10000 1 0 22:56 04.05.2020
3726 Clouds 7 1009 33 10000 1 0 22:38 04.05.2020
3727 Clouds 7 1010 30 10000 3 270 22:19 04.05.2020
3728 Clouds 7 1010 30 10000 3 270 21:53 04.05.2020
3729 Clouds 7 1010 30 10000 3 270 21:53 04.05.2020
3730 Clouds 7 1010 30 10000 3 270 21:33 04.05.2020
3731 Clouds 7 1010 30 10000 3 270 21:33 04.05.2020
3732 Clouds 3 1009 40 10000 2 0 20:54 04.05.2020
3733 Clouds 3 1009 40 10000 2 0 20:36 04.05.2020
3734 Clouds 7 1010 30 10000 1 0 20:18 04.05.2020
3735 Clouds 7 1010 30 10000 1 0 19:41 04.05.2020
3736 Clouds 7 1010 30 10000 1 0 19:21 04.05.2020
3737 Clouds 8 1010 28 10000 1.89 93 18:56 04.05.2020
3738 Clouds 10 1011 27 10000 1 0 18:38 04.05.2020
3739 Clouds 8 1011 28 10000 1 0 18:18 04.05.2020
3740 Clouds 8 1011 28 10000 1 0 17:55 04.05.2020
3741 Clouds 7 1011 30 10000 2 200 17:37 04.05.2020
3742 Clouds 7 1011 28 10000 1 0 17:18 04.05.2020
3743 Clouds 8 1011 28 10000 2 0 16:42 04.05.2020
3744 Clouds 9 1011 26 10000 1 0 16:21 04.05.2020
3745 Clouds 12 1010 22 10000 2 0 15:47 04.05.2020
3746 Clouds 12 1010 22 10000 2 0 15:26 04.05.2020
3747 Clouds 17 1010 16 10000 3 20 15:00 04.05.2020
3748 Clouds 18 1010 15 10000 4 20 14:41 04.05.2020
3749 Clouds 18 1010 15 10000 4 20 14:41 04.05.2020
3750 Clear 19 1010 14 10000 5 360 14:19 04.05.2020
3751 Clouds 21 1010 10 10000 6 300 12:49 04.05.2020
3752 Clouds 21 1010 10 10000 6 300 12:49 04.05.2020
3753 Clouds 21 1010 10 10000 6 300 12:49 04.05.2020
3754 Clouds 21 1010 10 10000 6 300 12:25 04.05.2020
3755 Clouds 21 1010 10 10000 6 300 12:25 04.05.2020
3756 Clouds 21 1010 10 10000 6 300 12:25 04.05.2020
3757 Clouds 21 1010 10 10000 6 300 12:25 04.05.2020
3758 Clouds 21 1010 10 10000 6 300 12:25 04.05.2020
3759 Clouds 21 1010 12 10000 6 310 10:35 04.05.2020
3760 Clouds 20 1011 12 10000 5 290 09:26 04.05.2020
3761 Clouds 20 1011 12 10000 5 290 09:26 04.05.2020
3762 Clouds 20 1011 12 10000 5 290 09:26 04.05.2020
3763 Clouds 20 1011 12 10000 5 290 09:26 04.05.2020
3764 Clouds 20 1011 12 10000 5 290 09:26 04.05.2020
3765 Clouds 21 1012 11 10000 6 300 07:52 04.05.2020
3766 Clouds 20 1013 13 10000 6 310 07:33 04.05.2020
3767 Clouds 20 1013 13 10000 6 310 07:33 04.05.2020
3768 Clouds 20 1013 13 10000 6 310 07:33 04.05.2020
3769 Clouds 20 1013 13 10000 6 310 07:33 04.05.2020
3770 Clouds 20 1013 13 10000 6 310 07:33 04.05.2020
3771 Clouds 17 1014 21 10000 4 230 04:58 04.05.2020
3772 Clear 15 1015 24 10000 1 0 03:27 04.05.2020
3773 Clear 11 1015 32 10000 1 0 02:32 04.05.2020
3774 Clouds 5 1014 44 10000 0.77 305 00:53 04.05.2020
3775 Clouds 6 1014 41 10000 4 170 23:46 03.05.2020
3776 Clouds 6 1014 41 10000 4 170 23:26 03.05.2020
3777 Clouds 6 1014 41 10000 4 160 22:59 03.05.2020
3778 Clouds 6 1014 41 10000 4 160 22:59 03.05.2020
3779 Clouds 9 1014 34 10000 2 170 22:40 03.05.2020
3780 Clouds 9 1014 34 10000 2 170 22:22 03.05.2020
3781 Clouds 14 1014 24 10000 5 310 21:41 03.05.2020
3782 Clouds 14 1014 24 10000 5 310 21:41 03.05.2020
3783 Clouds 14 1014 24 10000 5 310 21:21 03.05.2020
3784 Clouds 13 1014 24 10000 2 0 20:47 03.05.2020
3785 Clouds 13 1014 24 10000 2 0 20:23 03.05.2020
3786 Clouds 12 1015 25 10000 1 0 19:57 03.05.2020
3787 Clouds 11 1014 27 10000 1 0 19:38 03.05.2020
3788 Clouds 11 1014 27 10000 2 0 19:18 03.05.2020
3789 Clouds 8 1014 33 0 2 190 18:39 03.05.2020
3790 Clouds 8 1014 33 0 2 190 18:20 03.05.2020
3791 Clouds 8 1014 33 0 2 190 18:20 03.05.2020
3792 Clouds 9 1014 29 10000 1 0 17:56 03.05.2020
3793 Clouds 9 1013 31 10000 3 170 17:38 03.05.2020
3794 Clouds 13 1014 24 10000 2 0 17:19 03.05.2020
3795 Clouds 13 1014 24 10000 2 0 17:19 03.05.2020
3796 Clouds 11 1014 25 10000 2 150 16:44 03.05.2020
3797 Clouds 12 1014 25 10000 3 170 16:19 03.05.2020
3798 Clouds 12 1014 25 10000 3 170 15:57 03.05.2020
3799 Clouds 16 1013 18 10000 4 340 15:38 03.05.2020
3800 Clouds 16 1013 18 10000 4 340 15:38 03.05.2020
3801 Clouds 16 1013 18 10000 4 340 15:19 03.05.2020
3802 Clouds 16 1013 19 10000 7 360 14:56 03.05.2020
3803 Dust 17 1013 12 8000 7 300 14:38 03.05.2020
3804 Clouds 17 1012 12 10000 6 290 14:19 03.05.2020
3805 Clouds 17 1012 12 10000 6 290 14:19 03.05.2020
3806 Clouds 19 1012 11 10000 5 280 13:37 03.05.2020
3807 Clouds 20 1012 10 10000 6 280 12:52 03.05.2020
3808 Clouds 20 1012 11 10000 6 270 12:29 03.05.2020
3809 Clouds 20 1012 12 10000 6 250 11:58 03.05.2020
3810 Clouds 20 1012 12 10000 5 260 11:40 03.05.2020
3811 Clouds 20 1012 12 10000 5 260 11:40 03.05.2020
3812 Clouds 20 1012 12 10000 5 260 11:40 03.05.2020
3813 Clouds 20 1012 12 10000 5 260 11:21 03.05.2020
3814 Clouds 20 1013 12 10000 4 290 10:55 03.05.2020
3815 Clouds 20 1013 13 10000 7 230 10:26 03.05.2020
3816 Clouds 18 1015 17 10000 5 250 09:41 03.05.2020
3817 Clouds 18 1015 17 10000 5 250 09:41 03.05.2020
3818 Clouds 19 1015 17 10000 8 250 09:00 03.05.2020
3819 Clouds 19 1015 17 10000 8 250 09:00 03.05.2020
3820 Clouds 18 1015 18 10000 6 260 08:35 03.05.2020
3821 Clouds 16 1016 19 10000 5 230 07:45 03.05.2020
3822 Clouds 16 1016 19 10000 5 230 07:45 03.05.2020
3823 Clouds 16 1016 19 10000 5 230 07:45 03.05.2020
3824 Clouds 16 1016 19 10000 5 230 07:45 03.05.2020
3825 Clouds 16 1016 19 10000 5 230 07:45 03.05.2020
3826 Clear 15 1017 24 10000 5 240 07:14 03.05.2020
3827 Clear 15 1017 24 10000 5 240 07:14 03.05.2020
3828 Clear 13 1018 30 10000 4 230 05:57 03.05.2020
3829 Clear 12 1018 32 10000 3 220 05:38 03.05.2020
3830 Clear 9 1019 45 10000 2 0 04:28 03.05.2020
3831 Clear 5 1019 56 10000 1.81 236 03:46 03.05.2020
3832 Clear 1 1019 69 10000 1.34 226 02:36 03.05.2020
3833 Clear 0 1019 35 10000 0.86 198 02:18 03.05.2020
3834 Clear -1 1018 86 10000 1 0 01:39 03.05.2020
3835 Clear -1 1018 86 10000 1 0 01:21 03.05.2020
3836 Clear -6 1018 85 10000 1 0 00:40 03.05.2020
3837 Clear -6 1018 85 10000 1 0 00:40 03.05.2020
3838 Clear -6 1018 85 10000 1 0 00:20 03.05.2020
3839 Clear -4 1018 85 10000 1 0 23:49 02.05.2020
3840 Clear -4 1018 85 10000 1 0 23:30 02.05.2020
3841 Clear -4 1017 85 10000 0.55 57 22:57 02.05.2020
3842 Clear -4 1017 85 10000 0.55 57 22:39 02.05.2020
3843 Clear -4 1017 85 10000 0.64 26 22:21 02.05.2020
3844 Clear 2 1018 47 0 0.64 26 21:43 02.05.2020
3845 Clear -3 1017 86 10000 2 170 21:21 02.05.2020
3846 Clear -3 1017 86 10000 2 170 20:59 02.05.2020
3847 Clear -3 1017 86 10000 2 170 20:39 02.05.2020
3848 Clear -3 1017 86 10000 2 170 20:20 02.05.2020
3849 Clear -3 1017 86 10000 3 150 19:59 02.05.2020
3850 Clear -3 1017 86 10000 3 150 19:39 02.05.2020
3851 Clear -3 1017 86 10000 3 150 19:20 02.05.2020
3852 Clear -3 1017 86 10000 3 180 18:56 02.05.2020
3853 Clear -1 1017 86 10000 1 0 18:38 02.05.2020
3854 Clear -1 1017 86 10000 1 0 18:20 02.05.2020
3855 Clear 1 1017 80 10000 3 330 17:56 02.05.2020
3856 Clear 2 1017 80 10000 4 300 17:38 02.05.2020
3857 Clear 2 1017 80 10000 5 300 17:19 02.05.2020
3858 Clear 2 1016 74 10000 2 0 16:46 02.05.2020
3859 Clear 2 1016 74 10000 2 0 16:28 02.05.2020
3860 Clear 2 1016 80 10000 2 300 15:56 02.05.2020
3861 Clear 3 1016 69 10000 3 310 15:38 02.05.2020
3862 Clouds 4 1015 69 10000 3 330 15:19 02.05.2020
3863 Clouds 4 1015 69 10000 3 330 15:19 02.05.2020
3864 Clouds 6 1015 47 10000 6 330 14:42 02.05.2020
3865 Clouds 6 1015 45 10000 6 330 14:24 02.05.2020
3866 Clouds 7 1015 56 10000 7 350 13:58 02.05.2020
3867 Clouds 8 1014 52 10000 8 340 13:38 02.05.2020
3868 Clouds 8 1014 52 10000 8 340 13:18 02.05.2020
3869 Clouds 8 1013 52 10000 10 340 12:40 02.05.2020
3870 Clouds 8 1013 45 10000 7 360 12:20 02.05.2020
3871 Clouds 8 1013 45 10000 7 360 11:57 02.05.2020
3872 Clouds 8 1013 45 10000 8 350 11:38 02.05.2020
3873 Clouds 8 1013 45 10000 8 340 11:20 02.05.2020
3874 Clouds 7 1013 45 10000 7 360 10:40 02.05.2020
3875 Clouds 7 1013 45 10000 7 360 10:22 02.05.2020
3876 Clouds 7 1013 45 10000 7 360 10:22 02.05.2020
3877 Clouds 7 1013 65 10000 6 350 09:59 02.05.2020
3878 Clouds 6 1013 70 10000 5 360 09:40 02.05.2020
3879 Clouds 6 1013 70 10000 5 360 09:22 02.05.2020
3880 Clouds 6 1013 70 10000 7 350 08:55 02.05.2020
3881 Clouds 6 1013 75 10000 7 350 08:37 02.05.2020
3882 Clouds 7 1012 70 10000 9 330 08:18 02.05.2020
3883 Clouds 8 1012 65 10000 8 340 07:42 02.05.2020
3884 Clouds 8 1012 65 10000 8 340 07:22 02.05.2020
3885 Clouds 6 1012 81 10000 8 350 06:42 02.05.2020
3886 Clouds 8 1011 75 10000 6 360 05:28 02.05.2020
3887 Clouds 9 1010 70 10000 8 330 04:27 02.05.2020
3888 Clouds 9 1009 76 10000 7 360 03:50 02.05.2020
3889 Clouds 10 1008 76 10000 9 320 02:42 02.05.2020
3890 Clouds 10 1008 76 10000 7 320 01:58 02.05.2020
3891 Clouds 11 1007 71 10000 5 310 01:26 02.05.2020
3892 Clouds 10 1006 76 10000 7 330 00:43 02.05.2020
3893 Clouds 10 1006 76 10000 7 330 00:21 02.05.2020
3894 Clouds 10 1005 71 10000 7 320 23:55 01.05.2020
3895 Clouds 9 1004 81 10000 3 340 23:37 01.05.2020
3896 Clouds 10 1004 76 10000 1 0 23:18 01.05.2020
3897 Clouds 10 1004 76 10000 1 0 22:39 01.05.2020
3898 Clouds 11 1003 71 10000 4 290 22:19 01.05.2020
3899 Clouds 11 1003 71 10000 4 290 21:57 01.05.2020
3900 Clouds 11 1003 71 10000 4 290 21:39 01.05.2020
3901 Clouds 11 1003 71 10000 4 290 21:20 01.05.2020
3902 Clouds 14 1002 54 10000 4 310 20:57 01.05.2020
3903 Clouds 14 1002 54 10000 4 310 20:38 01.05.2020
3904 Clouds 15 1003 47 10000 6 60 20:19 01.05.2020
3905 Clouds 15 1003 47 10000 6 60 19:55 01.05.2020
3906 Clouds 15 1003 47 10000 6 60 19:37 01.05.2020
3907 Clouds 15 1004 51 10000 6 10 19:19 01.05.2020
3908 Clouds 15 1004 51 10000 6 10 18:55 01.05.2020
3909 Clouds 15 1004 51 10000 6 10 18:36 01.05.2020
3910 Rain 17 1003 48 10000 9 340 18:18 01.05.2020
3911 Rain 17 1003 48 10000 9 340 17:40 01.05.2020
3912 Rain 17 1003 48 10000 9 340 17:21 01.05.2020
3913 Clouds 18 999 36 10000 2 0 16:57 01.05.2020
3914 Clouds 18 1001 36 10000 7 70 16:39 01.05.2020
3915 Clouds 18 1001 36 10000 7 70 16:20 01.05.2020
3916 Thunderstorm 16 1003 55 10000 4 90 15:57 01.05.2020
3917 Thunderstorm 18 1003 39 10000 12 320 15:38 01.05.2020
3918 Thunderstorm 22 1001 19 10000 3 20 15:19 01.05.2020
3919 Thunderstorm 21 1000 21 10000 2 0 14:43 01.05.2020
3920 Thunderstorm 21 1000 21 10000 2 0 14:24 01.05.2020
3921 Clouds 22 1001 19 10000 3 80 13:54 01.05.2020
3922 Clouds 23 1002 18 10000 1 0 13:36 01.05.2020
3923 Clouds 23 1003 18 10000 1 0 13:18 01.05.2020
3924 Clouds 24 1003 17 10000 3 230 12:40 01.05.2020
3925 Clouds 24 1003 17 10000 3 230 12:21 01.05.2020
3926 Clouds 24 1004 15 10000 3 260 11:59 01.05.2020
3927 Clouds 24 1004 16 10000 3 270 11:41 01.05.2020
3928 Clouds 24 1004 16 10000 3 270 11:41 01.05.2020
3929 Clouds 24 1004 16 10000 3 270 11:21 01.05.2020
3930 Clouds 24 1005 15 10000 5 260 10:56 01.05.2020
3931 Clouds 24 1006 14 10000 6 260 10:37 01.05.2020
3932 Clouds 24 1006 14 10000 3 240 10:19 01.05.2020
3933 Clouds 23 1007 15 10000 4 230 09:43 01.05.2020
3934 Clouds 24 1008 14 10000 3 220 09:19 01.05.2020
3935 Clouds 22 1008 17 10000 2 0 08:47 01.05.2020
3936 Clouds 22 1008 17 10000 2 0 08:28 01.05.2020
3937 Clouds 22 1008 18 10000 3 290 07:59 01.05.2020
3938 Clouds 22 1009 18 10000 2 0 07:40 01.05.2020
3939 Clouds 22 1009 18 10000 2 0 07:20 01.05.2020
3940 Clouds 21 1010 21 10000 2 0 06:30 01.05.2020
3941 Clouds 19 1011 24 10000 2 0 05:26 01.05.2020
3942 Clouds 17 1011 29 10000 4 40 03:45 01.05.2020
3943 Clouds 16 1011 26 10000 4 30 02:54 01.05.2020
3944 Clouds 15 1011 38 10000 4 20 02:35 01.05.2020
3945 Clouds 15 1011 41 10000 1 0 01:53 01.05.2020
3946 Clouds 14 1010 44 10000 4 20 01:27 01.05.2020
3947 Clouds 11 1010 53 10000 1 0 00:40 01.05.2020
3948 Clouds 11 1010 53 10000 1 0 00:21 01.05.2020
3949 Clouds 12 1009 50 10000 3 330 23:57 30.04.2020
3950 Clouds 14 1009 44 10000 3 80 23:39 30.04.2020
3951 Clouds 14 1009 44 10000 3 80 23:21 30.04.2020
3952 Clouds 15 1008 41 10000 4 360 22:57 30.04.2020
3953 Clouds 15 1008 41 10000 4 360 22:38 30.04.2020
3954 Clouds 16 1006 36 10000 5 350 22:18 30.04.2020
3955 Clouds 16 1006 36 10000 5 350 21:43 30.04.2020
3956 Clouds 16 1006 36 10000 5 350 21:23 30.04.2020
3957 Clouds 17 1006 52 10000 4 340 20:58 30.04.2020
3958 Clouds 17 1006 52 10000 4 340 20:40 30.04.2020
3959 Clouds 18 1005 25 10000 6 340 20:18 30.04.2020
3960 Clouds 18 1005 25 10000 6 340 19:47 30.04.2020
3961 Clouds 18 1005 25 10000 6 340 19:26 30.04.2020
3962 Clouds 17 1004 25 10000 3 320 18:59 30.04.2020
3963 Clouds 17 1004 25 10000 3 320 18:39 30.04.2020
3964 Clouds 17 1004 25 10000 3 320 18:21 30.04.2020
3965 Clouds 16 1004 25 10000 2.39 325 17:58 30.04.2020
3966 Clouds 17 1004 23 10000 1 0 17:39 30.04.2020
3967 Clouds 17 1004 23 10000 1 0 17:21 30.04.2020
3968 Clouds 17 1004 20 10000 1 0 16:57 30.04.2020
3969 Clouds 21 1003 16 10000 2 0 16:38 30.04.2020
3970 Clouds 22 1003 14 10000 6 340 16:18 30.04.2020
3971 Clouds 21 1003 13 10000 2 0 15:45 30.04.2020
3972 Clouds 21 1003 13 10000 2 0 15:24 30.04.2020
3973 Clouds 24 1002 12 10000 3 260 14:56 30.04.2020
3974 Clouds 25 1002 11 10000 4 270 14:38 30.04.2020
3975 Clouds 26 1002 10 10000 4 270 14:18 30.04.2020
3976 Clouds 26 1002 10 10000 4 270 13:54 30.04.2020
3977 Clouds 27 1002 10 10000 5 260 13:36 30.04.2020
3978 Clouds 27 1002 10 10000 5 260 13:36 30.04.2020
3979 Clouds 28 1002 10 10000 8 250 13:18 30.04.2020
3980 Clouds 28 1002 10 10000 7 250 12:41 30.04.2020
3981 Clouds 28 1002 10 10000 7 250 12:19 30.04.2020
3982 Clouds 28 1003 10 10000 9 250 11:57 30.04.2020
3983 Clouds 28 1003 11 10000 7 240 11:36 30.04.2020
3984 Clouds 29 1003 10 10000 8 230 11:18 30.04.2020
3985 Clouds 28 1004 12 10000 6 220 10:41 30.04.2020
3986 Clouds 28 1004 12 10000 6 220 10:21 30.04.2020
3987 Clouds 27 1005 13 10000 8 240 09:57 30.04.2020
3988 Clouds 28 1006 13 10000 6 220 09:39 30.04.2020
3989 Clouds 28 1006 13 10000 6 220 09:20 30.04.2020
3990 Clouds 27 1007 13 10000 7 240 08:46 30.04.2020
3991 Clouds 27 1007 13 10000 7 240 08:26 30.04.2020
3992 Clouds 25 1008 17 10000 7 240 07:44 30.04.2020
3993 Clouds 25 1008 17 10000 7 240 07:26 30.04.2020
3994 Clouds 24 1008 17 10000 6 240 06:55 30.04.2020
3995 Clouds 24 1009 19 10000 4 250 06:29 30.04.2020
3996 Clouds 22 1010 20 10000 3 250 05:46 30.04.2020
3997 Clouds 17 1011 29 10000 1 0 04:43 30.04.2020
3998 Clouds 17 1011 29 10000 1 0 04:19 30.04.2020
3999 Clear 11 1012 43 10000 2.24 201 02:48 30.04.2020
4000 Clouds 11 1012 43 10000 1.35 159 02:26 30.04.2020
4001 Clear 6 1012 60 10000 1.43 172 01:37 30.04.2020
4002 Clear 1 1011 69 10000 2 170 00:42 30.04.2020
4003 Clear 1 1011 69 10000 2 170 00:20 30.04.2020
4004 Clear 2 1011 69 10000 1 0 23:58 29.04.2020
4005 Clear 4 1011 64 10000 0.64 142 23:39 29.04.2020
4006 Clear 4 1011 64 10000 0.58 90 23:21 29.04.2020
4007 Clear 4 1011 60 10000 1 0 22:54 29.04.2020
4008 Clear 4 1011 60 10000 1 0 22:36 29.04.2020
4009 Clear 5 1011 60 10000 1 0 22:18 29.04.2020
4010 Clear 6 1011 56 10000 0.6 99 21:38 29.04.2020
4011 Clear 7 1011 52 10000 1 0 21:19 29.04.2020
4012 Clear 7 1011 52 10000 1 0 20:57 29.04.2020
4013 Clear 7 1011 52 10000 1 0 20:38 29.04.2020
4014 Clear 9 1011 45 10000 2 120 20:18 29.04.2020
4015 Clear 9 1011 45 10000 2 120 19:43 29.04.2020
4016 Clear 9 1011 45 10000 2 120 19:22 29.04.2020
4017 Clear 7 1011 52 10000 3 170 18:57 29.04.2020
4018 Clear 10 1010 52 10000 3 170 18:38 29.04.2020
4019 Clear 10 1010 48 10000 1 0 18:18 29.04.2020
4020 Clear 10 1010 49 10000 2 190 17:42 29.04.2020
4021 Clear 12 1010 40 10000 1 0 17:21 29.04.2020
4022 Clear 11 1010 40 10000 1 0 16:56 29.04.2020
4023 Clear 14 1010 33 10000 1 0 16:36 29.04.2020
4024 Clear 14 1010 35 10000 2 320 16:18 29.04.2020
4025 Clear 14 1010 35 10000 2 320 15:55 29.04.2020
4026 Clouds 16 1010 31 10000 2 320 15:36 29.04.2020
4027 Clouds 19 1009 25 10000 4 10 15:18 29.04.2020
4028 Clear 20 1009 24 10000 5 10 14:42 29.04.2020
4029 Clear 20 1009 24 10000 5 10 14:23 29.04.2020
4030 Clear 21 1008 22 10000 6 360 13:56 29.04.2020
4031 Clear 22 1007 19 10000 7 340 13:38 29.04.2020
4032 Clear 22 1007 19 10000 7 340 13:38 29.04.2020
4033 Clear 22 1007 19 10000 7 350 13:18 29.04.2020
4034 Clouds 23 1007 18 10000 7 350 12:41 29.04.2020
4035 Clouds 24 1007 16 10000 7 300 12:19 29.04.2020
4036 Clouds 24 1007 16 10000 7 300 11:58 29.04.2020
4037 Clouds 24 1007 14 10000 6 300 11:38 29.04.2020
4038 Clouds 24 1007 14 10000 8 310 11:19 29.04.2020
4039 Clouds 24 1007 13 10000 10 290 10:38 29.04.2020
4040 Clouds 25 1008 13 10000 8 280 10:20 29.04.2020
4041 Clouds 25 1008 13 10000 8 280 09:59 29.04.2020
4042 Clouds 25 1008 13 10000 5 260 09:40 29.04.2020
4043 Clouds 24 1008 16 10000 8 250 09:19 29.04.2020
4044 Clouds 23 1008 17 10000 6 240 08:43 29.04.2020
4045 Clouds 23 1008 17 10000 6 240 08:25 29.04.2020
4046 Clouds 22 1009 17 10000 6 240 07:51 29.04.2020
4047 Clouds 22 1009 17 10000 6 240 07:27 29.04.2020
4048 Clouds 21 1010 22 10000 5 230 06:52 29.04.2020
4049 Clouds 20 1010 22 10000 3 240 06:31 29.04.2020
4050 Clouds 19 1011 25 10000 1 0 05:38 29.04.2020
4051 Clouds 17 1011 29 10000 1 0 05:18 29.04.2020
4052 Clouds 13 1011 37 10000 2.06 207 04:19 29.04.2020
4053 Clouds 11 1011 43 10000 1.63 181 02:50 29.04.2020
4054 Clouds 6 1011 60 10000 1.61 122 01:47 29.04.2020
4055 Clouds 6 1011 60 10000 1.42 99 01:27 29.04.2020
4056 Clouds 3 1011 64 10000 1 0 00:51 29.04.2020
4057 Clouds 5 1011 56 10000 2 0 00:21 29.04.2020
4058 Clouds 5 1011 56 10000 2 0 00:21 29.04.2020
4059 Clouds 4 1011 60 10000 1 0 23:56 28.04.2020
4060 Clouds 4 1011 60 10000 1 0 23:37 28.04.2020
4061 Clouds 4 1011 60 10000 1 0 23:18 28.04.2020
4062 Clouds 4 1011 60 10000 1 0 22:38 28.04.2020
4063 Clouds 4 1011 60 10000 1 0 22:20 28.04.2020
4064 Clouds 8 1011 49 10000 1 0 21:57 28.04.2020
4065 Clouds 8 1011 49 10000 1 0 21:39 28.04.2020
4066 Clouds 8 1011 49 10000 1 0 21:21 28.04.2020
4067 Clouds 8 1011 49 10000 2 190 20:56 28.04.2020
4068 Clouds 8 1011 49 10000 2 190 20:38 28.04.2020
4069 Clouds 11 1011 43 10000 2 0 20:19 28.04.2020
4070 Clouds 11 1011 43 10000 2 0 19:43 28.04.2020
4071 Clouds 11 1011 43 10000 2 0 19:22 28.04.2020
4072 Clouds 15 1011 33 10000 4 20 18:59 28.04.2020
4073 Clouds 15 1011 33 10000 4 20 18:59 28.04.2020
4074 Clouds 15 1011 33 10000 4 20 18:41 28.04.2020
4075 Clouds 15 1011 30 10000 3 360 18:19 28.04.2020
4076 Clouds 15 1011 30 10000 3 360 17:58 28.04.2020
4077 Clouds 15 1011 30 10000 2 0 17:37 28.04.2020
4078 Clouds 16 1011 29 10000 4 20 17:18 28.04.2020
4079 Clouds 13 1011 32 10000 1 0 16:43 28.04.2020
4080 Clouds 13 1011 32 10000 1 0 16:24 28.04.2020
4081 Clouds 16 1011 29 10000 2 10 15:58 28.04.2020
4082 Clouds 16 1010 26 10000 3 360 15:39 28.04.2020
4083 Clouds 16 1010 26 10000 3 360 15:21 28.04.2020
4084 Clouds 16 1010 26 10000 3 340 14:59 28.04.2020
4085 Clouds 18 1010 23 10000 5 340 14:41 28.04.2020
4086 Clouds 18 1010 23 10000 5 340 14:21 28.04.2020
4087 Clouds 19 1009 20 10000 5 340 13:58 28.04.2020
4088 Clouds 20 1009 14 10000 6 330 13:38 28.04.2020
4089 Clouds 20 1009 14 10000 6 330 13:20 28.04.2020
4090 Clouds 22 1009 14 10000 5 360 12:47 28.04.2020
4091 Clouds 22 1009 14 10000 5 360 12:27 28.04.2020
4092 Clouds 23 1009 15 10000 5 360 11:59 28.04.2020
4093 Clouds 23 1009 15 10000 5 360 11:39 28.04.2020
4094 Clouds 23 1009 15 10000 5 360 11:20 28.04.2020
4095 Clouds 23 1009 16 10000 6 320 10:39 28.04.2020
4096 Clouds 23 1009 17 10000 5 330 10:19 28.04.2020
4097 Clouds 23 1009 17 10000 5 330 09:59 28.04.2020
4098 Clouds 23 1010 17 10000 5 350 09:40 28.04.2020
4099 Clouds 23 1010 17 10000 5 350 09:22 28.04.2020
4100 Clouds 22 1010 17 10000 7 330 08:46 28.04.2020
4101 Clouds 22 1010 17 10000 7 330 08:46 28.04.2020
4102 Clear 22 1010 17 10000 7 330 08:27 28.04.2020
4103 Clear 22 1010 17 10000 6 320 07:58 28.04.2020
4104 Clear 22 1010 15 10000 6 320 07:38 28.04.2020
4105 Clear 22 1010 18 10000 5 330 07:18 28.04.2020
4106 Clear 21 1011 19 10000 5 300 06:28 28.04.2020
4107 Clear 18 1011 25 10000 4 290 05:44 28.04.2020
4108 Clear 18 1011 25 10000 4 290 05:25 28.04.2020
4109 Clear 16 1011 26 10000 2 0 04:33 28.04.2020
4110 Clear 11 1011 25 10000 1 0 02:36 28.04.2020
4111 Clear 6 1011 28 10000 0.96 67 01:25 28.04.2020
4112 Clear 1 1010 37 10000 2 160 00:59 28.04.2020
4113 Clear 0 1010 26 10000 2 160 00:25 28.04.2020
4114 Clear 1 1010 37 10000 1.4 64 23:47 27.04.2020
4115 Clear 1 1010 37 10000 1.48 58 23:24 27.04.2020
4116 Clear 1 1010 34 10000 2 160 22:56 27.04.2020
4117 Clear 1 1010 34 10000 3 150 22:38 27.04.2020
4118 Clear 1 1010 34 10000 3 150 22:20 27.04.2020
4119 Clear 1 1010 34 10000 2 0 21:56 27.04.2020
4120 Clear 4 1010 29 10000 1 0 21:38 27.04.2020
4121 Clear 5 1010 25 10000 1 0 21:18 27.04.2020
4122 Clear 2 1010 31 10000 1.07 109 20:44 27.04.2020
4123 Clear 2 1010 31 10000 1.13 119 20:22 27.04.2020
4124 Clear 2 1010 31 10000 1.13 119 20:22 27.04.2020
4125 Clear 1 1010 31 10000 1.13 119 19:59 27.04.2020
4126 Clear 1 1010 31 10000 1.13 119 19:59 27.04.2020
4127 Clear 7 1010 24 10000 1 0 19:39 27.04.2020
4128 Clear 7 1010 24 10000 1 0 19:21 27.04.2020
4129 Clear 8 1010 20 10000 1 0 18:58 27.04.2020
4130 Clear 8 1010 22 10000 1 0 18:40 27.04.2020
4131 Clear 7 1010 22 10000 1 0 18:19 27.04.2020
4132 Clear 10 1011 16 10000 1 0 17:44 27.04.2020
4133 Clear 10 1011 16 10000 1 0 17:24 27.04.2020
4134 Clear 11 1011 15 10000 2 150 17:00 27.04.2020
4135 Clear 13 1011 12 10000 1 0 16:40 27.04.2020
4136 Clear 13 1011 12 10000 1 0 16:21 27.04.2020
4137 Clear 11 1011 15 10000 3 170 15:56 27.04.2020
4138 Clear 15 1011 12 10000 2 0 15:38 27.04.2020
4139 Clear 15 1011 12 10000 2 0 15:38 27.04.2020
4140 Clear 17 1011 9 10000 1 0 15:18 27.04.2020
4141 Clear 17 1011 9 10000 1 0 14:55 27.04.2020
4142 Clear 21 1011 9 10000 3 270 14:37 27.04.2020
4143 Clear 23 1011 8 10000 4 290 14:18 27.04.2020
4144 Clear 25 1011 7 10000 7 300 13:42 27.04.2020
4145 Clear 25 1011 7 10000 7 300 13:20 27.04.2020
4146 Clouds 26 1012 6 10000 7 270 12:56 27.04.2020
4147 Clouds 26 1012 6 10000 7 270 12:56 27.04.2020
4148 Clouds 27 1012 6 10000 8 290 12:38 27.04.2020
4149 Clouds 27 1012 9 10000 7 290 12:19 27.04.2020
4150 Clouds 27 1012 9 10000 4 280 11:41 27.04.2020
4151 Clouds 27 1013 10 10000 6 240 11:19 27.04.2020
4152 Clouds 27 1013 10 10000 6 240 10:57 27.04.2020
4153 Clouds 27 1014 10 10000 6 240 10:38 27.04.2020
4154 Clouds 27 1014 10 10000 5 240 10:20 27.04.2020
4155 Clouds 27 1016 8 10000 6 230 09:44 27.04.2020
4156 Clouds 26 1016 10 10000 7 230 09:19 27.04.2020
4157 Clouds 26 1016 10 10000 7 230 08:57 27.04.2020
4158 Clouds 25 1017 11 10000 9 240 08:38 27.04.2020
4159 Clear 24 1018 14 10000 7 230 08:19 27.04.2020
4160 Clear 24 1018 14 10000 7 230 08:19 27.04.2020
4161 Clear 24 1018 15 10000 7 220 07:44 27.04.2020
4162 Clear 24 1018 15 10000 7 220 07:20 27.04.2020
4163 Clear 22 1020 17 10000 6 220 06:47 27.04.2020
4164 Clear 22 1020 17 10000 6 220 06:25 27.04.2020
4165 Clear 20 1021 19 10000 3 200 05:49 27.04.2020
4166 Clear 17 1022 21 10000 1 0 04:41 27.04.2020
4167 Clear 14 1022 26 10000 3.08 209 03:49 27.04.2020
4168 Clear 8 1023 39 10000 1.56 138 02:48 27.04.2020
4169 Clear 4 1023 51 10000 1.39 132 01:34 27.04.2020
4170 Clear 1 1023 59 10000 1 0 00:56 27.04.2020
4171 Clear 2 1023 59 10000 1 0 00:19 27.04.2020
4172 Clear 2 1023 59 10000 1 0 23:56 26.04.2020
4173 Clouds 3 1023 55 10000 1 0 23:37 26.04.2020
4174 Clear 1 1023 59 10000 1 0 23:19 26.04.2020
4175 Clear 1 1023 59 10000 1 0 22:58 26.04.2020
4176 Clear 3 1023 55 10000 1 0 22:39 26.04.2020
4177 Clear 3 1023 55 10000 1 0 22:39 26.04.2020
4178 Clear 4 1023 51 10000 1 0 22:19 26.04.2020
4179 Clear 4 1023 51 10000 1 0 21:57 26.04.2020
4180 Clear 6 1022 45 10000 2 0 21:37 26.04.2020
4181 Clear 7 1022 45 10000 1.31 124 21:18 26.04.2020
4182 Clear 7 1022 45 10000 1.31 124 21:18 26.04.2020
4183 Clear 6 1022 45 10000 1 0 20:40 26.04.2020
4184 Clear 6 1022 45 10000 1 0 20:21 26.04.2020
4185 Clear 7 1022 45 10000 1 0 19:59 26.04.2020
4186 Clear 8 1022 39 10000 1 0 19:38 26.04.2020
4187 Clear 8 1022 39 10000 1 0 19:20 26.04.2020
4188 Clear 7 1022 42 10000 2 0 18:54 26.04.2020
4189 Clear 9 1022 39 10000 4 260 18:36 26.04.2020
4190 Clear 7 1022 39 10000 2 160 18:18 26.04.2020
4191 Clear 8 1022 39 10000 2 0 17:41 26.04.2020
4192 Clear 8 1022 39 10000 2 0 17:22 26.04.2020
4193 Clear 8 1022 39 10000 3 170 16:55 26.04.2020
4194 Clear 9 1022 36 10000 3 160 16:36 26.04.2020
4195 Clear 12 1021 30 10000 2 0 16:18 26.04.2020
4196 Clear 11 1021 32 10000 2 0 15:41 26.04.2020
4197 Clear 11 1021 32 10000 2 0 15:22 26.04.2020
4198 Clear 16 1020 25 10000 4 350 14:58 26.04.2020
4199 Clear 18 1020 22 10000 4 330 14:39 26.04.2020
4200 Clouds 20 1020 19 10000 6 340 14:19 26.04.2020
4201 Clouds 20 1020 19 10000 6 340 14:19 26.04.2020
4202 Clouds 20 1020 19 10000 6 340 13:57 26.04.2020
4203 Clouds 21 1019 19 10000 7 340 13:38 26.04.2020
4204 Clouds 22 1019 17 10000 7 340 13:19 26.04.2020
4205 Clouds 22 1019 17 10000 7 340 12:54 26.04.2020
4206 Clouds 22 1019 18 10000 7 340 12:36 26.04.2020
4207 Clouds 22 1019 18 10000 7 340 12:36 26.04.2020
4208 Clouds 22 1019 18 10000 8 340 12:18 26.04.2020
4209 Clouds 22 1019 18 10000 7 340 11:41 26.04.2020
4210 Clouds 22 1019 18 10000 7 340 11:23 26.04.2020
4211 Clouds 22 1019 17 10000 9 340 10:58 26.04.2020
4212 Clouds 22 1019 17 10000 7 350 10:40 26.04.2020
4213 Clouds 22 1019 17 10000 7 350 10:40 26.04.2020
4214 Clouds 22 1019 17 10000 7 350 10:22 26.04.2020
4215 Clouds 22 1019 17 10000 9 350 09:57 26.04.2020
4216 Clouds 22 1019 17 10000 6 360 09:37 26.04.2020
4217 Clouds 21 1019 19 10000 7 350 09:18 26.04.2020
4218 Clouds 20 1019 20 10000 8 360 08:41 26.04.2020
4219 Clouds 20 1019 20 10000 8 360 08:20 26.04.2020
4220 Clouds 19 1020 22 10000 9 350 07:48 26.04.2020
4221 Clouds 19 1020 22 10000 9 350 07:22 26.04.2020
4222 Clouds 18 1020 25 10000 9 340 06:45 26.04.2020
4223 Clouds 18 1021 25 10000 7 350 06:18 26.04.2020
4224 Clouds 18 1021 27 10000 7 330 05:45 26.04.2020
4225 Clouds 18 1021 27 10000 7 330 05:25 26.04.2020
4226 Clouds 14 1021 24 10000 1 0 04:24 26.04.2020
4227 Clouds 11 1021 25 10000 1 0 03:32 26.04.2020
4228 Clouds 7 1022 30 10000 2.27 315 02:32 26.04.2020
4229 Clouds 5 1022 38 10000 2.32 313 01:52 26.04.2020
4230 Clouds 5 1021 38 10000 2.32 313 01:27 26.04.2020
4231 Clouds 1 1021 47 10000 1 0 00:40 26.04.2020
4232 Clouds 2 1021 43 10000 1 0 00:19 26.04.2020
4233 Clouds 3 1021 40 10000 2 170 23:39 25.04.2020
4234 Clouds 3 1021 40 10000 2 170 23:21 25.04.2020
4235 Clouds 3 1020 40 10000 2 140 22:58 25.04.2020
4236 Clouds 3 1020 40 10000 2 140 22:40 25.04.2020
4237 Clouds 3 1020 40 10000 2 150 22:19 25.04.2020
4238 Clouds 3 1020 40 10000 2 150 21:56 25.04.2020
4239 Clouds 3 1020 40 10000 2 150 21:36 25.04.2020
4240 Clouds 1 1020 43 10000 2 150 21:18 25.04.2020
4241 Clouds 1 1020 43 10000 2 150 20:42 25.04.2020
4242 Clouds 1 1020 43 10000 2 150 20:22 25.04.2020
4243 Clouds 1 1020 43 10000 2 170 19:56 25.04.2020
4244 Clouds 1 1020 43 10000 2 170 19:38 25.04.2020
4245 Clouds 2 1020 40 10000 2 170 19:19 25.04.2020
4246 Clouds 2 1020 40 10000 2 170 18:42 25.04.2020
4247 Rain 2 1020 40 10000 2 170 18:21 25.04.2020
4248 Clouds 3 1020 37 10000 1.52 309 17:58 25.04.2020
4249 Clouds 3 1020 37 10000 1.52 309 17:39 25.04.2020
4250 Clouds 3 1020 37 10000 1.52 309 17:20 25.04.2020
4251 Clouds 8 1020 28 10000 1 0 16:59 25.04.2020
4252 Clouds 9 1020 26 10000 2 330 16:41 25.04.2020
4253 Clouds 9 1020 26 10000 2 330 16:21 25.04.2020
4254 Clouds 10 1020 25 10000 3 280 15:54 25.04.2020
4255 Clouds 11 1020 23 10000 2 340 15:36 25.04.2020
4256 Clouds 13 1019 20 10000 4 350 15:18 25.04.2020
4257 Clouds 14 1019 17 10000 5 350 14:39 25.04.2020
4258 Clouds 14 1019 17 10000 5 350 14:20 25.04.2020
4259 Clouds 15 1019 18 10000 6 350 13:55 25.04.2020
4260 Clouds 15 1019 18 10000 6 350 13:55 25.04.2020
4261 Clouds 16 1018 15 10000 6 360 13:37 25.04.2020
4262 Clouds 17 1018 16 10000 7 360 13:18 25.04.2020
4263 Clouds 17 1018 16 10000 7 360 12:54 25.04.2020
4264 Clouds 17 1018 16 10000 8 340 12:36 25.04.2020
4265 Clouds 17 1018 16 10000 8 330 12:18 25.04.2020
4266 Dust 18 1018 13 10000 9 330 11:41 25.04.2020
4267 Dust 18 1018 15 10000 10 330 11:23 25.04.2020
4268 Dust 18 1018 15 10000 10 330 10:54 25.04.2020
4269 Dust 18 1018 15 10000 9 320 10:36 25.04.2020
4270 Dust 18 1018 13 10000 9 340 10:18 25.04.2020
4271 Dust 17 1018 14 0 9 340 09:41 25.04.2020
4272 Dust 17 1018 14 0 9 340 09:21 25.04.2020
4273 Dust 17 1019 13 10000 8 340 08:42 25.04.2020
4274 Dust 17 1019 13 10000 8 340 08:22 25.04.2020
4275 Clouds 18 1019 13 10000 8 320 07:59 25.04.2020
4276 Clouds 17 1019 13 10000 8 340 07:41 25.04.2020
4277 Clouds 16 1019 14 10000 8 360 06:57 25.04.2020
4278 Clouds 16 1020 13 10000 9 350 06:38 25.04.2020
4279 Clouds 15 1020 16 10000 8 340 05:42 25.04.2020
4280 Clouds 15 1020 16 10000 8 340 05:24 25.04.2020
4281 Clouds 9 1021 23 10000 1 0 03:56 25.04.2020
4282 Clear 3 1021 34 10000 1 0 02:36 25.04.2020
4283 Clear 4 1021 29 10000 1 0 01:56 25.04.2020
4284 Clear 0 1021 33 10000 2 150 01:38 25.04.2020
4285 Clear -4 1021 53 10000 3 170 01:19 25.04.2020
4286 Clear -5 1020 53 10000 2.26 299 00:39 25.04.2020
4287 Clear -4 1020 53 10000 1 0 00:18 25.04.2020
4288 Clear -5 1020 53 10000 2 130 23:40 24.04.2020
4289 Clear -5 1020 53 10000 2 130 23:20 24.04.2020
4290 Clear 0 1020 40 10000 1 0 22:41 24.04.2020
4291 Clear 0 1020 40 10000 1 0 22:20 24.04.2020
4292 Clear -3 1020 45 10000 2 150 21:59 24.04.2020
4293 Clear -1 1020 42 10000 1 0 21:40 24.04.2020
4294 Clear -1 1020 42 10000 1 0 21:22 24.04.2020
4295 Clear -2 1020 46 10000 2 0 20:57 24.04.2020
4296 Clear -2 1020 46 10000 2 0 20:57 24.04.2020
4297 Clear -2 1020 46 10000 2 0 20:57 24.04.2020
4298 Clear 0 1020 37 10000 2 110 20:38 24.04.2020
4299 Clear 3 1019 29 10000 1 0 20:18 24.04.2020
4300 Clear 3 1019 29 10000 1 0 19:44 24.04.2020
4301 Clear 3 1019 29 10000 1 0 19:25 24.04.2020
4302 Clear 4 1018 27 10000 1 0 18:58 24.04.2020
4303 Clear 4 1018 27 10000 1 0 18:38 24.04.2020
4304 Clear 4 1018 27 10000 1 0 18:20 24.04.2020
4305 Clear 4 1018 27 10000 1 0 18:20 24.04.2020
4306 Clear 6 1018 26 10000 1 0 17:42 24.04.2020
4307 Clear 6 1018 26 10000 1 0 17:24 24.04.2020
4308 Clear 7 1017 22 10000 1.54 318 16:59 24.04.2020
4309 Clear 6 1017 24 10000 2 0 16:40 24.04.2020
4310 Clear 6 1017 24 10000 2 0 16:40 24.04.2020
4311 Clear 6 1017 24 10000 2 0 16:40 24.04.2020
4312 Clear 6 1017 24 10000 2 0 16:22 24.04.2020
4313 Clear 9 1017 21 10000 1 0 15:59 24.04.2020
4314 Clear 12 1016 16 10000 3 350 15:37 24.04.2020
4315 Clear 13 1016 15 10000 4 350 15:18 24.04.2020
4316 Clear 13 1016 15 10000 4 350 15:18 24.04.2020
4317 Clear 14 1015 14 10000 7 340 14:40 24.04.2020
4318 Clear 14 1015 14 10000 7 340 14:20 24.04.2020
4319 Clear 15 1015 13 10000 8 340 13:56 24.04.2020
4320 Clear 16 1015 11 10000 11 340 13:38 24.04.2020
4321 Clear 16 1015 12 10000 11 360 13:18 24.04.2020
4322 Dust 17 1015 11 10000 13 340 12:41 24.04.2020
4323 Dust 17 1015 11 10000 13 340 12:22 24.04.2020
4324 Dust 17 1015 11 10000 13 340 11:58 24.04.2020
4325 Dust 17 1014 10 8000 14 340 11:37 24.04.2020
4326 Dust 17 1014 11 8000 14 340 11:19 24.04.2020
4327 Dust 17 1014 11 8000 14 340 10:54 24.04.2020
4328 Dust 18 1014 10 8000 13 340 10:36 24.04.2020
4329 Dust 18 1014 10 8000 13 340 10:18 24.04.2020
4330 Clear 18 1014 10 8000 15 340 09:44 24.04.2020
4331 Clear 18 1014 10 8000 15 340 09:24 24.04.2020
4332 Clear 18 1013 10 8000 15 340 08:55 24.04.2020
4333 Dust 17 1014 13 10000 14 330 08:37 24.04.2020
4334 Dust 17 1014 12 10000 12 330 08:18 24.04.2020
4335 Dust 17 1014 12 10000 13 340 07:44 24.04.2020
4336 Dust 17 1014 12 10000 13 340 07:26 24.04.2020
4337 Dust 16 1014 14 10000 13 340 06:50 24.04.2020
4338 Dust 16 1014 15 10000 12 340 06:31 24.04.2020
4339 Clear 15 1015 16 10000 11 340 05:42 24.04.2020
4340 Clear 15 1015 16 10000 11 340 05:42 24.04.2020
4341 Clear 15 1015 18 10000 10 340 04:25 24.04.2020
4342 Clear 10 1015 15 10000 1 0 02:58 24.04.2020
4343 Clear 9 1016 15 10000 1 0 02:37 24.04.2020
4344 Clear 6 1016 22 10000 1 0 01:57 24.04.2020
4345 Clear -3 1015 38 10000 3 170 00:58 24.04.2020
4346 Clear -3 1015 38 10000 4 170 00:21 24.04.2020
4347 Clear -3 1015 38 10000 4 170 00:21 24.04.2020
4348 Clear -3 1015 38 10000 3 170 23:54 23.04.2020
4349 Clear -3 1015 38 10000 3 170 23:36 23.04.2020
4350 Clear -2 1015 36 10000 4 170 23:18 23.04.2020
4351 Clear -2 1015 36 10000 4 170 22:54 23.04.2020
4352 Clear -2 1015 36 10000 4 170 22:36 23.04.2020
4353 Clear -2 1015 33 0 1 0 22:18 23.04.2020
4354 Clear -2 1015 33 0 1 0 21:54 23.04.2020
4355 Clear -2 1015 33 0 1 0 21:36 23.04.2020
4356 Clear -1 1016 33 10000 3 170 21:18 23.04.2020
4357 Clear -1 1016 33 10000 3 170 20:41 23.04.2020
4358 Clear -1 1016 33 10000 3 170 20:21 23.04.2020
4359 Clear -1 1016 33 10000 4 170 19:56 23.04.2020
4360 Clear -1 1016 33 10000 4 170 19:38 23.04.2020
4361 Clear -1 1016 33 10000 4 170 19:20 23.04.2020
4362 Clear 0 1016 34 10000 2 0 18:55 23.04.2020
4363 Clear 0 1016 34 10000 2 0 18:36 23.04.2020
4364 Clear -1 1017 36 10000 3 180 18:18 23.04.2020
4365 Clear -1 1017 36 10000 3 180 17:40 23.04.2020
4366 Clear -1 1017 36 10000 3 180 17:22 23.04.2020
4367 Clouds 2 1017 27 10000 2 0 16:57 23.04.2020
4368 Clouds 1 1017 26 10000 3 150 16:39 23.04.2020
4369 Clouds 1 1017 26 10000 3 170 16:19 23.04.2020
4370 Clouds 3 1018 23 10000 1 0 15:42 23.04.2020
4371 Clouds 3 1018 23 10000 1 0 15:23 23.04.2020
4372 Clouds 9 1018 16 10000 2.42 305 14:57 23.04.2020
4373 Clouds 10 1018 18 10000 2 0 14:38 23.04.2020
4374 Clouds 12 1018 16 10000 3 330 14:19 23.04.2020
4375 Clouds 12 1018 16 10000 3 330 13:55 23.04.2020
4376 Clouds 13 1018 13 10000 5 340 13:36 23.04.2020
4377 Clouds 14 1018 11 10000 7 330 13:18 23.04.2020
4378 Clouds 14 1018 11 10000 8 320 12:42 23.04.2020
4379 Clouds 14 1018 11 10000 8 320 12:24 23.04.2020
4380 Clouds 15 1019 10 10000 8 340 11:56 23.04.2020
4381 Clouds 15 1019 11 10000 8 340 11:38 23.04.2020
4382 Clouds 15 1019 9 10000 8 330 11:18 23.04.2020
4383 Clouds 15 1019 6 10000 7 320 10:41 23.04.2020
4384 Clouds 15 1019 6 10000 7 320 10:21 23.04.2020
4385 Clouds 15 1020 6 10000 7 320 09:41 23.04.2020
4386 Clouds 15 1020 6 10000 7 320 09:20 23.04.2020
4387 Clouds 15 1020 6 10000 7 320 08:59 23.04.2020
4388 Clouds 15 1020 6 10000 7 320 08:59 23.04.2020
4389 Clouds 15 1020 8 10000 7 310 08:40 23.04.2020
4390 Clouds 15 1020 8 10000 7 310 08:21 23.04.2020
4391 Clouds 12 1022 9 10000 5 210 07:42 23.04.2020
4392 Clouds 12 1022 9 10000 5 210 07:23 23.04.2020
4393 Clouds 8 1024 10 10000 3 230 06:48 23.04.2020
4394 Clouds 8 1024 10 10000 3 230 06:22 23.04.2020
4395 Clouds 5 1025 12 10000 1 0 05:23 23.04.2020
4396 Clouds 5 1025 12 10000 1 0 04:51 23.04.2020
4397 Clear -4 1027 29 10000 1.02 264 02:24 23.04.2020
4398 Clear -9 1027 36 10000 1.02 264 01:49 23.04.2020
4399 Clear -9 1027 36 10000 1.02 264 01:25 23.04.2020
4400 Clear -11 1027 39 10000 1 0 00:45 23.04.2020
4401 Clear -11 1027 39 10000 1 0 00:18 23.04.2020
4402 Clear -11 1027 36 10000 0.98 322 23:48 22.04.2020
4403 Clear -11 1027 36 10000 0.98 322 23:23 22.04.2020
4404 Clear -13 1027 39 10000 1 0 22:55 22.04.2020
4405 Clear -13 1027 39 10000 1 0 22:36 22.04.2020
4406 Clear -11 1027 36 10000 1 0 22:18 22.04.2020
4407 Clear -11 1027 36 10000 1 0 21:55 22.04.2020
4408 Clear -11 1027 36 10000 1 0 21:37 22.04.2020
4409 Clear -13 1028 35 10000 2 150 21:18 22.04.2020
4410 Clear -13 1028 35 10000 2 150 20:43 22.04.2020
4411 Clear -10 1028 30 10000 2 180 20:19 22.04.2020
4412 Clear -10 1028 30 10000 2 180 19:58 22.04.2020
4413 Clear -10 1028 30 10000 2 180 19:38 22.04.2020
4414 Clear -11 1028 33 10000 3 170 19:19 22.04.2020
4415 Clear -11 1028 33 10000 3 170 18:58 22.04.2020
4416 Clear -11 1028 33 10000 3 170 18:40 22.04.2020
4417 Clear -11 1028 33 10000 3 170 18:22 22.04.2020
4418 Clear -11 1028 33 10000 3 170 17:56 22.04.2020
4419 Clear -9 1028 28 10000 3 170 17:37 22.04.2020
4420 Clear -9 1028 28 10000 3 170 17:19 22.04.2020
4421 Clear -4 1028 23 10000 1.26 337 16:42 22.04.2020
4422 Clear -4 1028 23 10000 1.26 337 16:42 22.04.2020
4423 Clear -4 1028 23 10000 1.26 337 16:23 22.04.2020
4424 Clear -2 1028 21 10000 4 290 15:43 22.04.2020
4425 Clear -2 1028 21 10000 4 290 15:25 22.04.2020
4426 Clear 1 1027 13 10000 3 310 14:59 22.04.2020
4427 Clear 2 1027 12 10000 4 330 14:40 22.04.2020
4428 Clear 2 1027 12 10000 4 330 14:20 22.04.2020
4429 Clear 4 1027 11 10000 7 330 13:56 22.04.2020
4430 Clear 4 1027 11 10000 7 330 13:38 22.04.2020
4431 Clear 5 1027 11 10000 6 350 13:19 22.04.2020
4432 Clear 5 1026 11 10000 7 350 12:41 22.04.2020
4433 Clear 5 1026 11 10000 7 350 12:23 22.04.2020
4434 Clear 5 1026 12 10000 7 350 11:57 22.04.2020
4435 Clear 5 1026 11 10000 6 340 11:36 22.04.2020
4436 Clear 5 1026 11 10000 6 350 11:18 22.04.2020
4437 Clear 6 1026 10 10000 6 350 10:41 22.04.2020
4438 Clear 6 1026 10 10000 6 350 10:21 22.04.2020
4439 Clear 5 1027 12 10000 6 10 09:41 22.04.2020
4440 Clear 5 1027 12 10000 6 10 09:23 22.04.2020
4441 Clear 4 1027 12 10000 8 330 08:59 22.04.2020
4442 Clear 4 1028 12 10000 5 350 08:40 22.04.2020
4443 Clear 4 1028 12 10000 5 350 08:22 22.04.2020
4444 Clear 2 1028 17 10000 6 320 07:53 22.04.2020
4445 Clear 2 1028 16 10000 6 340 07:33 22.04.2020
4446 Clear 1 1029 17 10000 6 10 06:53 22.04.2020
4447 Clear 1 1029 15 10000 7 340 06:23 22.04.2020
4448 Clear 0 1030 40 10000 7 340 05:37 22.04.2020
4449 Clear -1 1030 23 10000 7 340 04:32 22.04.2020
4450 Clear -6 1030 31 10000 1 0 02:51 22.04.2020
4451 Clear -8 1030 37 10000 3.13 325 01:55 22.04.2020
4452 Clear -12 1030 46 10000 1 0 01:28 22.04.2020
4453 Clear -15 1030 54 10000 2 170 00:59 22.04.2020
4454 Clear -16 1029 54 10000 2 180 00:41 22.04.2020
4455 Clear -15 1029 54 10000 2 170 00:19 22.04.2020
4456 Clear -14 1029 50 10000 2 190 23:41 21.04.2020
4457 Clear -15 1029 50 10000 2 160 23:19 21.04.2020
4458 Clear -15 1029 50 10000 2 160 22:41 21.04.2020
4459 Clear -15 1029 50 10000 2 160 22:22 21.04.2020
4460 Clear -13 1029 46 10000 2 150 21:59 21.04.2020
4461 Clear -13 1029 46 10000 2 150 21:41 21.04.2020
4462 Clear -13 1029 46 10000 2 150 21:23 21.04.2020
4463 Clear -14 1029 46 10000 2 180 20:57 21.04.2020
4464 Clear -14 1029 46 10000 2 180 20:39 21.04.2020
4465 Clear -14 1029 46 10000 2 180 20:21 21.04.2020
4466 Clear -14 1029 46 10000 1 0 19:41 21.04.2020
4467 Clear -14 1029 46 10000 1 0 19:20 21.04.2020
4468 Clear -12 1028 39 10000 1 0 18:59 21.04.2020
4469 Clear -12 1028 39 10000 1 0 18:59 21.04.2020
4470 Clear -12 1028 39 10000 1 0 18:39 21.04.2020
4471 Clear -10 1028 30 10000 1 0 18:19 21.04.2020
4472 Clear -10 1028 30 10000 1 0 17:59 21.04.2020
4473 Clear -10 1028 30 10000 1 0 17:38 21.04.2020
4474 Clear -8 1027 31 10000 1 0 17:19 21.04.2020
4475 Clear -6 1027 31 10000 1 0 16:39 21.04.2020
4476 Clear -6 1027 31 10000 2 310 16:19 21.04.2020
4477 Clear -6 1027 31 10000 2 310 15:59 21.04.2020
4478 Clear -4 1027 23 10000 3 340 15:41 21.04.2020
4479 Clear -4 1027 23 10000 3 340 15:22 21.04.2020
4480 Clear -2 1026 19 10000 5 350 14:58 21.04.2020
4481 Clear -2 1026 19 10000 5 360 14:40 21.04.2020
4482 Clear -2 1026 19 10000 5 360 14:22 21.04.2020
4483 Clear 0 1026 50 10000 9 350 13:42 21.04.2020
4484 Clear 0 1026 50 10000 9 350 13:23 21.04.2020
4485 Clouds 0 1025 50 10000 10 340 12:58 21.04.2020
4486 Dust 0 1025 50 10000 10 320 12:37 21.04.2020
4487 Clouds 1 1025 12 10000 12 320 12:19 21.04.2020
4488 Clouds 1 1025 12 10000 12 320 11:55 21.04.2020
4489 Clouds 1 1025 12 10000 12 320 11:55 21.04.2020
4490 Clouds 1 1025 12 10000 10 330 11:37 21.04.2020
4491 Clouds 1 1025 11 10000 11 330 11:18 21.04.2020
4492 Clouds 1 1025 11 10000 11 330 10:56 21.04.2020
4493 Clouds 1 1025 12 10000 9 330 10:38 21.04.2020
4494 Clouds 1 1025 13 0 10 340 10:20 21.04.2020
4495 Clouds 1 1025 13 10000 10 320 09:37 21.04.2020
4496 Clouds 1 1025 13 10000 9 340 09:19 21.04.2020
4497 Clouds 1 1025 13 10000 9 340 08:57 21.04.2020
4498 Clouds 0 1026 36 10000 11 330 08:39 21.04.2020
4499 Clouds 0 1026 36 10000 9 340 08:19 21.04.2020
4500 Clouds 0 1026 36 10000 10 340 07:44 21.04.2020
4501 Clouds 0 1026 36 10000 10 340 07:22 21.04.2020
4502 Clouds -1 1027 20 10000 10 330 06:49 21.04.2020
4503 Clouds -1 1027 20 10000 10 330 06:20 21.04.2020
4504 Clouds -2 1028 21 10000 10 340 05:48 21.04.2020
4505 Clear -3 1028 27 10000 6 360 04:19 21.04.2020
4506 Clear -4 1028 27 10000 7 350 03:42 21.04.2020
4507 Clear -11 1028 47 10000 1 0 01:46 21.04.2020
4508 Clear -14 1028 55 10000 1 0 00:58 21.04.2020
4509 Clear -17 1028 59 10000 1 0 00:33 21.04.2020
4510 Clear -15 1028 54 10000 3 170 23:44 20.04.2020
4511 Clear -15 1028 54 10000 3 170 23:25 20.04.2020
4512 Clear -15 1028 54 10000 3 170 22:58 20.04.2020
4513 Clear -15 1028 54 10000 3 180 22:38 20.04.2020
4514 Clear -15 1028 54 10000 2 180 22:19 20.04.2020
4515 Clear -15 1028 54 10000 2 180 21:57 20.04.2020
4516 Clear -15 1028 54 10000 2 180 21:38 20.04.2020
4517 Clear -11 1028 43 10000 1 0 21:19 20.04.2020
4518 Clear -11 1028 43 10000 1 0 20:57 20.04.2020
4519 Clear -11 1028 43 10000 1 0 20:38 20.04.2020
4520 Clear -8 1028 34 10000 3 340 20:18 20.04.2020
4521 Clear -8 1028 34 10000 3 340 20:18 20.04.2020
4522 Clear -8 1028 34 10000 3 340 19:57 20.04.2020
4523 Clear -8 1028 34 10000 3 340 19:38 20.04.2020
4524 Clear -9 1028 36 10000 2 330 19:19 20.04.2020
4525 Clear -9 1028 36 10000 2 330 18:42 20.04.2020
4526 Clear -9 1028 36 10000 2 330 18:22 20.04.2020
4527 Clear -9 1028 36 10000 3 330 17:55 20.04.2020
4528 Clear -10 1028 47 10000 2 300 17:37 20.04.2020
4529 Clear -9 1027 36 10000 3 330 17:19 20.04.2020
4530 Clear -9 1027 36 10000 3 330 16:57 20.04.2020
4531 Clear -8 1027 34 10000 3 340 16:38 20.04.2020
4532 Clear -7 1027 31 10000 3 330 16:18 20.04.2020
4533 Clear -5 1027 27 10000 4 350 15:42 20.04.2020
4534 Clear -5 1027 27 10000 4 350 15:23 20.04.2020
4535 Clear -5 1027 27 10000 6 330 14:55 20.04.2020
4536 Clear -4 1026 27 10000 6 330 14:36 20.04.2020
4537 Clouds -4 1026 27 10000 10 340 14:18 20.04.2020
4538 Clouds -3 1026 27 10000 11 330 13:41 20.04.2020
4539 Clouds -3 1026 27 10000 10 330 13:22 20.04.2020
4540 Clouds -3 1026 27 10000 10 330 12:54 20.04.2020
4541 Clouds -2 1026 25 10000 11 320 12:36 20.04.2020
4542 Clouds -2 1025 23 10000 9 330 12:18 20.04.2020
4543 Clouds -2 1025 21 10000 11 330 11:40 20.04.2020
4544 Clouds -2 1025 21 10000 11 330 11:21 20.04.2020
4545 Clouds -2 1025 21 10000 10 340 10:57 20.04.2020
4546 Clouds -2 1025 21 10000 10 340 10:57 20.04.2020
4547 Clouds -2 1025 21 10000 10 340 10:38 20.04.2020
4548 Clouds -2 1025 23 10000 10 340 10:19 20.04.2020
4549 Clouds -2 1025 23 10000 10 340 09:55 20.04.2020
4550 Clouds -2 1025 25 10000 10 350 09:36 20.04.2020
4551 Clouds -2 1026 30 10000 11 320 09:18 20.04.2020
4552 Clouds -3 1026 27 10000 10 340 08:41 20.04.2020
4553 Clouds -3 1026 35 10000 10 320 08:19 20.04.2020
4554 Clouds -3 1026 35 10000 10 320 07:52 20.04.2020
4555 Clouds -4 1026 41 0 10 340 07:29 20.04.2020
4556 Clouds -4 1026 41 0 10 340 07:29 20.04.2020
4557 Clouds -3 1026 45 10000 9 330 06:55 20.04.2020
4558 Snow -4 1026 41 8000 8 10 06:36 20.04.2020
4559 Clouds -5 1026 35 10000 8 340 05:38 20.04.2020
4560 Clouds -5 1026 49 10000 8 340 03:45 20.04.2020
4561 Clouds -6 1026 57 10000 9 330 02:44 20.04.2020
4562 Clouds -10 1026 61 10000 1 0 01:32 20.04.2020
4563 Clouds -12 1025 66 10000 1 0 00:59 20.04.2020
4564 Clouds -14 1025 71 10000 2 160 00:35 20.04.2020
4565 Clouds -15 1025 71 10000 2 0 23:56 19.04.2020
4566 Clouds -14 1025 65 10000 1 0 23:38 19.04.2020
4567 Clouds -13 1025 65 0 2 130 23:19 19.04.2020
4568 Clouds -13 1025 65 0 2 130 22:40 19.04.2020
4569 Clouds -13 1025 65 0 2 130 22:22 19.04.2020
4570 Clouds -13 1025 65 10000 1 0 21:58 19.04.2020
4571 Clouds -13 1025 65 10000 1 0 21:39 19.04.2020
4572 Clouds -13 1025 65 10000 1 0 21:39 19.04.2020
4573 Clear -13 1025 65 10000 1 0 21:20 19.04.2020
4574 Clear -10 1025 56 10000 4.54 336 20:55 19.04.2020
4575 Clear -10 1025 56 10000 4.54 336 20:36 19.04.2020
4576 Clear -8 1025 52 10000 2 280 20:18 19.04.2020
4577 Clear -8 1025 52 10000 2 280 19:41 19.04.2020
4578 Clear -8 1025 52 10000 2 280 19:22 19.04.2020
4579 Clear -8 1025 52 10000 2 330 18:58 19.04.2020
4580 Clear -8 1025 52 10000 2 330 18:40 19.04.2020
4581 Clear -8 1025 52 10000 2 330 18:20 19.04.2020
4582 Clear -6 1025 44 10000 4 350 17:58 19.04.2020
4583 Clear -6 1025 44 10000 4 350 17:39 19.04.2020
4584 Clear -6 1025 44 10000 4 350 17:21 19.04.2020
4585 Clear -5 1025 41 10000 5 350 16:58 19.04.2020
4586 Clear -5 1025 38 10000 5 350 16:38 19.04.2020
4587 Clear -5 1025 38 10000 5 350 16:38 19.04.2020
4588 Clear -4 1025 32 10000 5 10 16:20 19.04.2020
4589 Clear -4 1025 32 10000 5 10 16:20 19.04.2020
4590 Clear -4 1024 32 10000 4 360 15:43 19.04.2020
4591 Clouds -4 1024 32 10000 4 360 15:22 19.04.2020
4592 Clouds -4 1024 29 10000 8 350 14:56 19.04.2020
4593 Clouds -3 1023 27 10000 8 340 14:37 19.04.2020
4594 Clouds -2 1023 23 10000 9 340 14:19 19.04.2020
4595 Clouds -2 1022 25 10000 12 340 13:40 19.04.2020
4596 Clouds -1 1022 23 10000 13 340 13:21 19.04.2020
4597 Clouds -1 1022 23 10000 13 340 12:58 19.04.2020
4598 Clouds 0 1022 52 10000 14 330 12:40 19.04.2020
4599 Clouds 0 1022 39 10000 14 330 12:20 19.04.2020
4600 Clouds -1 1021 39 10000 13 340 11:37 19.04.2020
4601 Clouds -1 1021 39 10000 13 340 11:37 19.04.2020
4602 Clouds 0 1021 39 10000 12 340 11:19 19.04.2020
4603 Clouds 0 1021 39 10000 12 340 10:58 19.04.2020
4604 Clouds -1 1020 50 10000 15 340 10:39 19.04.2020
4605 Clouds 0 1020 39 10000 12 340 10:19 19.04.2020
4606 Clouds -1 1020 50 10000 9 350 09:46 19.04.2020
4607 Clouds -1 1020 50 10000 9 350 09:28 19.04.2020
4608 Clouds 0 1020 42 10000 13 330 08:42 19.04.2020
4609 Clouds 0 1020 42 10000 13 330 08:24 19.04.2020
4610 Rain 0 1019 42 10000 14 340 07:59 19.04.2020
4611 Clouds -1 1020 80 10000 8 320 07:41 19.04.2020
4612 Snow -3 1020 86 2000 12 330 07:23 19.04.2020
4613 Clouds 2 1019 40 10000 9 330 06:30 19.04.2020
4614 Clouds 3 1019 37 10000 9 320 05:56 19.04.2020
4615 Clouds 2 1019 43 10000 9 340 04:48 19.04.2020
4616 Clouds -1 1019 63 10000 9 340 02:59 19.04.2020
4617 Clouds -1 1019 63 10000 7 340 02:21 19.04.2020
4618 Clouds -2 1019 74 10000 6 340 01:39 19.04.2020
4619 Clouds -3 1019 73 10000 5 340 00:49 19.04.2020
4620 Clouds -3 1019 73 10000 5 340 00:25 19.04.2020
4621 Clouds -3 1019 68 10000 6 340 23:56 18.04.2020
4622 Clouds -2 1018 63 10000 5 350 23:36 18.04.2020
4623 Clouds -2 1018 68 10000 8 340 23:18 18.04.2020
4624 Clouds -2 1018 68 10000 8 340 22:41 18.04.2020
4625 Clouds -2 1018 68 10000 8 340 22:21 18.04.2020
4626 Clouds -1 1018 68 10000 6 340 21:57 18.04.2020
4627 Clouds -1 1018 68 10000 6 340 21:38 18.04.2020
4628 Clouds -1 1018 74 10000 5 350 21:19 18.04.2020
4629 Clouds -1 1018 74 10000 5 350 20:42 18.04.2020
4630 Clouds -1 1018 74 10000 5 350 20:22 18.04.2020
4631 Clouds 0 1017 56 10000 7 350 19:59 18.04.2020
4632 Clouds 0 1017 56 10000 7 350 19:38 18.04.2020
4633 Clouds 0 1017 56 10000 8 340 19:19 18.04.2020
4634 Clouds 0 1017 56 10000 8 340 18:38 18.04.2020
4635 Clouds 0 1017 52 10000 5 350 18:19 18.04.2020
4636 Clouds 0 1017 52 10000 5 350 17:45 18.04.2020
4637 Clouds 0 1017 52 10000 5 350 17:22 18.04.2020
4638 Clouds 0 1016 52 10000 5 340 16:58 18.04.2020
4639 Clouds 1 1016 69 10000 5 20 16:39 18.04.2020
4640 Clouds 1 1016 69 10000 5 20 16:21 18.04.2020
4641 Clouds 1 1015 74 10000 7 350 15:40 18.04.2020
4642 Clouds 1 1015 74 10000 7 350 15:22 18.04.2020
4643 Snow 1 1015 86 5000 8 340 14:48 18.04.2020
4644 Snow 1 1015 86 5000 8 340 14:29 18.04.2020
4645 Snow 3 1014 69 6000 13 320 13:59 18.04.2020
4646 Dust 5 1012 52 10000 10 340 13:41 18.04.2020
4647 Dust 8 1011 36 8000 10 330 13:20 18.04.2020
4648 Clouds 9 1011 31 10000 7 350 12:42 18.04.2020
4649 Clouds 9 1011 31 10000 7 350 12:24 18.04.2020
4650 Clouds 9 1011 31 10000 6 320 11:57 18.04.2020
4651 Clouds 9 1011 29 10000 9 330 11:38 18.04.2020
4652 Clouds 10 1010 25 10000 7 330 11:19 18.04.2020
4653 Clouds 10 1011 25 10000 7 320 10:42 18.04.2020
4654 Clouds 10 1011 25 10000 7 320 10:21 18.04.2020
4655 Clouds 10 1011 23 10000 7 320 09:58 18.04.2020
4656 Clouds 12 1011 18 10000 7 330 09:39 18.04.2020
4657 Clouds 12 1011 18 10000 7 330 09:20 18.04.2020
4658 Clouds 11 1012 21 10000 9 340 08:42 18.04.2020
4659 Clouds 10 1012 25 10000 7 350 08:21 18.04.2020
4660 Clouds 11 1012 27 10000 8 350 07:45 18.04.2020
4661 Clouds 11 1012 27 10000 8 350 07:23 18.04.2020
4662 Clouds 9 1012 42 10000 9 330 06:39 18.04.2020
4663 Clouds 7 1013 52 10000 7 350 05:48 18.04.2020
4664 Clouds 7 1013 52 10000 8 340 04:54 18.04.2020
4665 Clouds 7 1013 56 10000 6 340 04:30 18.04.2020
4666 Clouds 5 1013 75 10000 2 260 02:59 18.04.2020
4667 Clouds 5 1012 75 10000 1 0 02:40 18.04.2020
4668 Clouds 5 1012 75 10000 1 0 02:20 18.04.2020
4669 Rain 4 1012 80 10000 2 330 01:37 18.04.2020
4670 Rain 5 1012 49 10000 6 340 00:54 18.04.2020
4671 Rain 7 1011 70 10000 4 330 00:24 18.04.2020
4672 Clouds 8 1010 61 10000 4 340 23:57 17.04.2020
4673 Clouds 8 1010 61 10000 4 340 23:57 17.04.2020
4674 Clouds 7 1010 39 10000 2 0 23:39 17.04.2020
4675 Clouds 7 1010 22 10000 1 0 23:19 17.04.2020
4676 Clouds 7 1010 22 10000 1 0 22:56 17.04.2020
4677 Clouds 7 1010 22 10000 1 0 22:38 17.04.2020
4678 Clouds 8 1011 19 10000 3 170 22:19 17.04.2020
4679 Clouds 8 1011 19 10000 3 170 21:44 17.04.2020
4680 Clouds 8 1011 19 10000 3 170 21:22 17.04.2020
4681 Clouds 10 1012 15 10000 4 190 20:59 17.04.2020
4682 Clouds 10 1012 15 10000 4 190 20:38 17.04.2020
4683 Clouds 11 1012 17 10000 5 200 20:19 17.04.2020
4684 Clouds 11 1012 17 10000 5 200 19:59 17.04.2020
4685 Clouds 11 1012 17 10000 5 200 19:41 17.04.2020
4686 Clouds 11 1012 17 10000 5 200 19:22 17.04.2020
4687 Clouds 11 1012 17 10000 7 180 18:44 17.04.2020
4688 Clouds 11 1012 17 10000 7 180 18:24 17.04.2020
4689 Clouds 11 1012 17 10000 7 180 18:24 17.04.2020
4690 Clouds 11 1012 17 10000 7 180 17:56 17.04.2020
4691 Clouds 11 1012 14 10000 8 170 17:37 17.04.2020
4692 Clouds 13 1013 12 10000 10 160 17:18 17.04.2020
4693 Clouds 13 1013 12 10000 10 160 16:43 17.04.2020
4694 Clouds 13 1013 12 10000 10 160 16:23 17.04.2020
4695 Clouds 14 1013 14 10000 6 190 15:44 17.04.2020
4696 Clouds 14 1013 14 10000 6 190 15:24 17.04.2020
4697 Clouds 14 1013 14 10000 5 200 14:57 17.04.2020
4698 Clouds 14 1013 14 10000 5 200 14:39 17.04.2020
4699 Clouds 14 1013 14 10000 4 170 14:20 17.04.2020
4700 Clouds 14 1013 14 10000 4 170 13:55 17.04.2020
4701 Clouds 14 1013 14 10000 4 150 13:36 17.04.2020
4702 Clouds 15 1014 14 0 4 180 13:18 17.04.2020
4703 Clouds 15 1014 13 10000 7 200 12:43 17.04.2020
4704 Clouds 15 1014 13 10000 7 200 12:22 17.04.2020
4705 Clouds 16 1015 10 10000 5 210 11:41 17.04.2020
4706 Clouds 16 1015 11 10000 8 180 11:19 17.04.2020
4707 Clouds 16 1015 11 10000 8 180 10:56 17.04.2020
4708 Clouds 16 1016 11 10000 7 210 10:37 17.04.2020
4709 Clouds 16 1016 11 10000 5 200 10:18 17.04.2020
4710 Clouds 17 1016 10 10000 6 180 09:40 17.04.2020
4711 Clouds 16 1017 9 10000 3 160 09:20 17.04.2020
4712 Clouds 16 1017 9 10000 3 160 08:56 17.04.2020
4713 Clouds 16 1017 9 10000 3 160 08:38 17.04.2020
4714 Clouds 16 1017 9 10000 3 160 08:19 17.04.2020
4715 Clouds 15 1018 13 10000 4 230 07:43 17.04.2020
4716 Clouds 14 1018 12 10000 4 220 07:21 17.04.2020
4717 Clouds 14 1019 12 10000 4 230 06:45 17.04.2020
4718 Clouds 13 1020 17 10000 3 170 06:22 17.04.2020
4719 Clouds 6 1021 30 10000 1 0 04:27 17.04.2020
4720 Clear 2 1022 40 10000 1 0 03:19 17.04.2020
4721 Clear -3 1021 63 10000 1.02 126 01:58 17.04.2020
4722 Clear -6 1022 67 10000 1.02 126 01:24 17.04.2020
4723 Clear -7 1022 67 10000 1.02 126 00:30 17.04.2020
4724 Clear -9 1022 72 10000 1 0 23:56 16.04.2020
4725 Clear -9 1022 72 10000 1 0 23:38 16.04.2020
4726 Clear -8 1022 67 10000 1 0 23:19 16.04.2020
4727 -273 0 0 0 0 0 22:56 16.04.2020
4728 Clear -8 1022 67 10000 1 0 22:37 16.04.2020
4729 Clear -8 1022 67 10000 1 0 22:37 16.04.2020
4730 Clear -4 1022 53 10000 0.84 109 22:19 16.04.2020
4731 Clear -4 1022 53 10000 0.84 109 21:41 16.04.2020
4732 Clear -4 1022 53 10000 0.96 70 21:20 16.04.2020
4733 Clear -7 1022 62 10000 0.96 70 20:57 16.04.2020
4734 Clear -7 1022 62 10000 0.96 70 20:38 16.04.2020
4735 Clear -7 1022 62 10000 0.96 70 20:19 16.04.2020
4736 Clear -5 1022 53 10000 2 180 19:40 16.04.2020
4737 Clear -5 1022 53 10000 2 180 19:20 16.04.2020
4738 Clear -5 1022 53 10000 2 180 18:58 16.04.2020
4739 Clear -4 1021 49 10000 2 200 18:39 16.04.2020
4740 Clear -4 1021 49 10000 2 200 18:21 16.04.2020
4741 Clear -4 1021 49 10000 2 200 17:55 16.04.2020
4742 Clear -4 1021 45 10000 1 0 17:37 16.04.2020
4743 Clear 0 1021 39 10000 2 160 17:18 16.04.2020
4744 Clear -1 1021 39 10000 2 160 16:41 16.04.2020
4745 Clear -1 1021 39 10000 2 160 16:20 16.04.2020
4746 Clear -1 1021 39 10000 2 170 15:45 16.04.2020
4747 Clouds -1 1021 39 10000 2 170 15:19 16.04.2020
4748 Clouds 3 1021 29 10000 2.11 338 14:58 16.04.2020
4749 Clouds 3 1021 29 10000 2.11 338 14:39 16.04.2020
4750 Clouds 9 1020 19 10000 4 300 14:20 16.04.2020
4751 Clouds 9 1020 19 10000 4 300 13:57 16.04.2020
4752 Clouds 9 1020 19 10000 4 300 13:37 16.04.2020
4753 Clouds 10 1020 23 10000 4 290 13:19 16.04.2020
4754 Clouds 10 1020 23 10000 4 290 12:56 16.04.2020
4755 Clouds 10 1020 23 10000 4 290 12:56 16.04.2020
4756 Clouds 11 1019 23 10000 5 310 12:38 16.04.2020
4757 Clouds 12 1019 23 10000 6 300 12:19 16.04.2020
4758 Clouds 12 1019 23 10000 6 300 12:19 16.04.2020
4759 Clouds 12 1019 23 10000 6 300 11:55 16.04.2020
4760 Clouds 12 1019 23 10000 6 280 11:36 16.04.2020
4761 Clouds 12 1019 25 10000 4 330 11:18 16.04.2020
4762 Clouds 12 1019 25 10000 4 330 11:18 16.04.2020
4763 Clouds 11 1020 29 10000 4 280 10:40 16.04.2020
4764 Clouds 11 1020 29 10000 3 290 10:19 16.04.2020
4765 Clouds 11 1020 29 10000 3 290 09:58 16.04.2020
4766 Clouds 11 1020 29 10000 3 290 09:38 16.04.2020
4767 Clouds 10 1020 31 10000 2 0 09:19 16.04.2020
4768 Clouds 10 1020 31 10000 2 0 09:19 16.04.2020
4769 Clouds 10 1021 34 10000 4 290 08:42 16.04.2020
4770 Clouds 10 1021 34 10000 4 290 08:23 16.04.2020
4771 Clouds 10 1021 31 10000 4 270 07:46 16.04.2020
4772 Clouds 10 1021 31 10000 4 270 07:28 16.04.2020
4773 Clouds 10 1021 31 10000 4 270 07:28 16.04.2020
4774 Clouds 10 1021 34 10000 4 290 06:46 16.04.2020
4775 Clouds 10 1021 34 10000 4 290 06:26 16.04.2020
4776 Clouds 9 1022 39 10000 2 0 05:59 16.04.2020
4777 Clouds 5 1022 52 10000 2 0 04:44 16.04.2020
4778 Clouds 3 1022 59 10000 1 0 03:24 16.04.2020
4779 Clouds 2 1022 69 10000 1 0 02:52 16.04.2020
4780 Clouds 0 1021 49 10000 2 200 02:32 16.04.2020
4781 Clouds -5 1020 92 10000 1 0 01:20 16.04.2020
4782 Clouds -5 1020 92 10000 1 0 00:38 16.04.2020
4783 Clouds -3 1020 86 10000 2.5 346 00:00 16.04.2020
4784 Clouds 1 1023 54 0 2.5 346 23:41 15.04.2020
4785 Clouds 1 1023 54 0 2.5 346 23:22 15.04.2020
4786 Clouds -6 1020 92 10000 2 0 22:41 15.04.2020
4787 Clouds -6 1020 92 10000 2 0 22:22 15.04.2020
4788 Clouds -6 1020 92 10000 2 0 22:22 15.04.2020
4789 Clouds -6 1020 92 10000 2 0 22:22 15.04.2020
4790 Clouds -5 1019 92 10000 1 0 22:00 15.04.2020
4791 Clouds -5 1019 92 10000 1 0 21:41 15.04.2020
4792 Clouds -5 1019 92 10000 1 0 21:23 15.04.2020
4793 Clouds -3 1019 86 10000 1 0 20:58 15.04.2020
4794 Clouds -3 1019 86 10000 1 0 20:40 15.04.2020
4795 Clouds -3 1019 86 10000 1 0 20:22 15.04.2020
4796 Clouds -3 1019 86 10000 1 0 20:22 15.04.2020
4797 Clouds -3 1019 86 10000 2.71 337 19:46 15.04.2020
4798 Clouds -3 1019 86 10000 2.71 337 19:21 15.04.2020
4799 Clouds -2 1019 79 10000 1 0 18:57 15.04.2020
4800 Clouds -2 1019 79 10000 1 0 18:39 15.04.2020
4801 Clouds 1 1019 69 10000 3 40 18:21 15.04.2020
4802 Clouds 1 1019 69 10000 3 10 17:55 15.04.2020
4803 Clouds 1 1019 69 10000 3 10 17:36 15.04.2020
4804 Clouds 1 1019 69 10000 3 10 17:36 15.04.2020
4805 Clouds 1 1019 69 10000 2 0 17:18 15.04.2020
4806 Clouds 1 1019 69 10000 2 0 17:18 15.04.2020
4807 Clouds 1 1019 69 10000 2 0 16:54 15.04.2020
4808 Clouds 1 1019 69 10000 2 0 16:36 15.04.2020
4809 Clouds 1 1018 69 10000 1 0 16:18 15.04.2020
4810 Clouds 1 1018 69 10000 1 0 15:55 15.04.2020
4811 Clouds 2 1018 64 10000 4 10 15:36 15.04.2020
4812 Clouds 2 1018 69 10000 5 20 15:18 15.04.2020
4813 Clouds 2 1018 69 10000 4 20 14:41 15.04.2020
4814 Clouds 2 1018 69 10000 4 20 14:23 15.04.2020
4815 Clouds 2 1017 69 10000 4 10 13:59 15.04.2020
4816 Clouds 2 1017 69 10000 4 10 13:40 15.04.2020
4817 Clouds 2 1017 69 10000 5 360 13:21 15.04.2020
4818 Clouds 2 1017 69 10000 5 360 12:58 15.04.2020
4819 Clouds 2 1016 69 10000 5 10 12:39 15.04.2020
4820 Clouds 1 1015 69 10000 6 10 12:21 15.04.2020
4821 Clouds 1 1015 69 10000 6 10 11:57 15.04.2020
4822 Clouds 1 1015 69 10000 7 10 11:38 15.04.2020
4823 Snow 1 1015 74 10000 9 360 11:20 15.04.2020
4824 Snow 1 1015 74 10000 9 360 10:38 15.04.2020
4825 Clouds 1 1014 69 10000 7 360 10:19 15.04.2020
4826 Clouds 1 1014 69 10000 7 360 09:56 15.04.2020
4827 Clouds 1 1014 69 10000 6 360 09:38 15.04.2020
4828 Clouds 1 1014 69 10000 6 360 09:19 15.04.2020
4829 Clouds 1 1013 69 10000 8 350 08:42 15.04.2020
4830 Clouds 1 1013 69 10000 8 350 08:23 15.04.2020
4831 Snow 1 1013 69 10000 8 340 07:59 15.04.2020
4832 Snow 1 1013 69 10000 8 340 07:40 15.04.2020
4833 Snow 1 1013 69 10000 9 340 07:00 15.04.2020
4834 Snow 0 1013 46 3200 9 330 06:24 15.04.2020
4835 Snow 0 1013 46 10000 8 340 05:34 15.04.2020
4836 Snow -1 1013 74 10000 10 320 04:47 15.04.2020
4837 Snow -1 1013 74 8000 9 320 04:18 15.04.2020
4838 Snow -1 1014 74 6000 9 330 03:22 15.04.2020
4839 Snow -3 1014 86 8000 5 330 02:45 15.04.2020
4840 Clouds -3 1014 73 10000 6 330 01:51 15.04.2020
4841 Clouds -3 1014 73 10000 6 330 01:25 15.04.2020
4842 Clouds -4 1014 73 10000 5 330 00:47 15.04.2020
4843 Snow -4 1014 79 10000 4 320 00:24 15.04.2020
4844 Snow -4 1014 79 10000 4 320 23:55 14.04.2020
4845 Snow -5 1014 85 10000 4 320 23:37 14.04.2020
4846 Snow -5 1014 85 10000 4 320 23:19 14.04.2020
4847 Clouds -5 1014 73 10000 6 300 22:56 14.04.2020
4848 Clouds -5 1014 73 10000 6 300 22:38 14.04.2020
4849 Clouds -6 1014 79 10000 4 300 22:20 14.04.2020
4850 Clouds -6 1014 79 10000 4 300 21:56 14.04.2020
4851 Clouds -6 1014 79 10000 4 300 21:56 14.04.2020
4852 Clouds -5 1014 79 10000 4 290 21:37 14.04.2020
4853 Clouds -5 1014 79 10000 4 290 21:19 14.04.2020
4854 Clear -6 1014 62 10000 3.46 317 20:41 14.04.2020
4855 Clear -6 1014 62 10000 3.65 317 20:23 14.04.2020
4856 Clear -5 1014 62 10000 3.46 317 19:59 14.04.2020
4857 Clear -5 1014 62 10000 3.46 317 19:40 14.04.2020
4858 Clear -5 1014 62 10000 3.65 317 19:40 14.04.2020
4859 Clear -5 1014 62 10000 3.65 317 19:21 14.04.2020
4860 Clear -5 1014 62 10000 3.65 317 18:57 14.04.2020
4861 Clear -4 1015 53 10000 2 0 18:39 14.04.2020
4862 Clear -4 1015 53 10000 2 0 18:39 14.04.2020
4863 Clear -4 1015 58 10000 3 280 18:20 14.04.2020
4864 Clear -4 1015 58 10000 3 280 17:56 14.04.2020
4865 Clear -3 1015 49 10000 3 320 17:37 14.04.2020
4866 Clear -3 1015 49 10000 3 320 17:19 14.04.2020
4867 Clear -1 1015 42 10000 4 320 16:43 14.04.2020
4868 Clear -1 1015 42 10000 4 320 16:24 14.04.2020
4869 Clouds -2 1015 42 10000 3 320 15:58 14.04.2020
4870 Clouds -2 1015 42 10000 3 320 15:58 14.04.2020
4871 Clouds -2 1015 42 10000 3 320 15:58 14.04.2020
4872 Clear 0 1015 52 10000 5 340 15:40 14.04.2020
4873 Clear 0 1015 45 10000 5 340 15:21 14.04.2020
4874 Clouds 1 1015 31 10000 7 330 14:59 14.04.2020
4875 Clouds 2 1014 27 10000 7 330 14:40 14.04.2020
4876 Clouds 2 1014 27 10000 7 330 14:40 14.04.2020
4877 Clouds 2 1014 27 10000 7 330 14:22 14.04.2020
4878 Clouds 2 1014 27 10000 7 330 13:56 14.04.2020
4879 Clouds 3 1014 27 10000 8 330 13:38 14.04.2020
4880 Clouds 4 1013 25 10000 10 320 13:20 14.04.2020
4881 Clouds 4 1013 25 10000 10 320 12:42 14.04.2020
4882 Clouds 6 1013 24 10000 10 330 12:21 14.04.2020
4883 Clouds 6 1013 24 10000 10 330 11:55 14.04.2020
4884 Clouds 6 1012 24 10000 9 340 11:37 14.04.2020
4885 Clouds 6 1012 24 10000 9 340 11:18 14.04.2020
4886 Clouds 6 1012 24 10000 11 330 10:44 14.04.2020
4887 Clouds 6 1012 24 10000 11 330 10:24 14.04.2020
4888 Clouds 6 1012 26 10000 9 330 09:55 14.04.2020
4889 Clear 4 1014 35 0 7.99 341 09:37 14.04.2020
4890 Clouds 5 1012 30 10000 8 360 09:18 14.04.2020
4891 Clouds 5 1012 30 10000 8 350 08:41 14.04.2020
4892 Clouds 5 1012 30 10000 8 350 08:22 14.04.2020
4893 Clouds 4 1012 35 10000 8 340 07:53 14.04.2020
4894 Clouds 5 1014 36 0 7.81 340 07:30 14.04.2020
4895 Clouds 3 1012 44 10000 10 330 06:49 14.04.2020
4896 Clouds 2 1013 51 10000 8 340 06:18 14.04.2020
4897 Clouds 0 1013 46 10000 4 350 03:52 14.04.2020
4898 Clouds -1 1013 74 10000 4 340 02:54 14.04.2020
4899 Snow -2 1013 79 10000 6 310 01:46 14.04.2020
4900 Snow -2 1013 79 10000 6 310 01:24 14.04.2020
4901 Clouds -1 1012 74 10000 6 320 00:38 14.04.2020
4902 Clouds 1 1011 50 10000 3 20 00:18 14.04.2020
4903 Clouds 1 1011 50 10000 3 20 23:44 13.04.2020
4904 Clouds 1 1011 50 10000 3 20 23:25 13.04.2020
4905 Clouds 0 1011 49 10000 2 320 22:57 13.04.2020
4906 Clouds 0 1011 49 10000 2 320 22:39 13.04.2020
4907 Clouds 0 1011 49 10000 2 320 22:20 13.04.2020
4908 Clouds 2 1011 43 10000 4 10 21:55 13.04.2020
4909 Clouds 2 1011 43 10000 4 10 21:37 13.04.2020
4910 Clouds 2 1010 43 10000 5 30 21:18 13.04.2020
4911 Clouds 2 1010 43 10000 5 30 20:41 13.04.2020
4912 Clouds 2 1010 43 10000 5 30 20:20 13.04.2020
4913 Clouds 3 1012 44 10000 3 330 20:00 13.04.2020
4914 Clouds 3 1012 44 10000 3 330 20:00 13.04.2020
4915 Clouds 3 1012 44 10000 3 330 19:38 13.04.2020
4916 Clouds 3 1011 44 10000 4 20 19:19 13.04.2020
4917 Clouds 3 1011 44 10000 4 20 19:19 13.04.2020
4918 Clouds 3 1011 44 10000 4 20 18:59 13.04.2020
4919 Clouds 3 1011 44 10000 4 20 18:39 13.04.2020
4920 Clouds 1 1012 50 10000 1 0 18:20 13.04.2020
4921 Clouds 1 1012 50 10000 1 0 17:58 13.04.2020
4922 Clouds 1 1012 50 10000 1 0 17:58 13.04.2020
4923 Clouds 1 1012 50 10000 1 0 17:38 13.04.2020
4924 Clouds 1 1012 50 10000 1 0 17:19 13.04.2020
4925 Clouds 3 1012 44 10000 2 360 16:58 13.04.2020
4926 Clouds 3 1012 44 10000 1 0 16:40 13.04.2020
4927 Clouds 3 1012 44 10000 1 0 16:20 13.04.2020
4928 Clouds 4 1012 41 10000 2 0 15:57 13.04.2020
4929 Clouds 4 1012 41 10000 4 330 15:38 13.04.2020
4930 Clouds 4 1012 41 10000 4 330 15:20 13.04.2020
4931 Clouds 6 1012 35 10000 3 340 14:54 13.04.2020
4932 Clouds 7 1012 33 10000 4 340 14:36 13.04.2020
4933 Clouds 8 1012 31 10000 5 340 14:18 13.04.2020
4934 Clouds 8 1012 31 10000 5 340 13:54 13.04.2020
4935 Clouds 9 1012 31 10000 8 340 13:36 13.04.2020
4936 Clouds 9 1012 31 10000 8 340 13:18 13.04.2020
4937 Clouds 11 1011 27 10000 6 330 12:40 13.04.2020
4938 Clouds 13 1011 22 10000 6 310 12:21 13.04.2020
4939 Clouds 13 1011 22 10000 6 310 12:21 13.04.2020
4940 Clouds 13 1011 22 10000 6 310 11:59 13.04.2020
4941 Clouds 13 1011 20 10000 5 300 11:41 13.04.2020
4942 Clouds 13 1011 19 10000 4 300 11:18 13.04.2020
4943 Clouds 13 1011 19 10000 4 300 10:55 13.04.2020
4944 Clouds 14 1011 17 10000 3 320 10:37 13.04.2020
4945 Clouds 13 1012 17 10000 2 0 10:18 13.04.2020
4946 Clouds 13 1012 17 10000 4 290 09:44 13.04.2020
4947 Clouds 13 1012 17 10000 4 290 09:26 13.04.2020
4948 Clouds 13 1013 17 10000 4 290 08:48 13.04.2020
4949 Clouds 13 1013 17 10000 4 290 08:29 13.04.2020
4950 Clouds 13 1013 17 10000 4 290 07:58 13.04.2020
4951 Clouds 12 1013 18 10000 3 270 07:38 13.04.2020
4952 Clouds 11 1013 21 10000 4 290 07:19 13.04.2020
4953 Clouds 11 1014 20 10000 3 300 06:46 13.04.2020
4954 Clouds 10 1014 15 10000 3 280 05:53 13.04.2020
4955 Clouds 10 1014 15 10000 3 280 05:27 13.04.2020
4956 Clouds 9 1014 16 10000 1 0 04:50 13.04.2020
4957 Clouds 7 1015 22 10000 2 0 04:20 13.04.2020
4958 Clouds 5 1015 21 10000 3 10 03:44 13.04.2020
4959 Clouds 2 1015 34 10000 1.22 52 02:48 13.04.2020
4960 Clouds -1 1016 42 10000 1.48 34 01:49 13.04.2020
4961 Clouds -1 1016 42 10000 1.48 34 01:30 13.04.2020
4962 Clouds -4 1015 41 10000 1 0 00:53 13.04.2020
4963 Clouds -4 1015 41 10000 1 0 00:31 13.04.2020
4964 Clouds -5 1016 45 10000 1 0 23:58 12.04.2020
4965 Clouds -4 1016 41 10000 2 0 23:40 12.04.2020
4966 Clouds -4 1016 41 10000 2 0 23:21 12.04.2020
4967 Clouds -2 1016 36 10000 0.89 70 22:55 12.04.2020
4968 Clouds -2 1016 36 10000 0.89 70 22:36 12.04.2020
4969 Clouds 2 1016 24 10000 0.89 70 22:18 12.04.2020
4970 Clouds 2 1016 24 10000 0.89 70 21:38 12.04.2020
4971 Clouds 2 1016 24 10000 1.18 127 21:20 12.04.2020
4972 Clouds 1 1017 26 10000 2 260 20:54 12.04.2020
4973 Clouds 1 1017 26 10000 2 260 20:36 12.04.2020
4974 Clouds 1 1017 26 10000 2 260 20:18 12.04.2020
4975 Clouds 4 1017 18 10000 5 150 19:41 12.04.2020
4976 Clouds 4 1017 18 10000 5 150 19:20 12.04.2020
4977 Clouds 6 1018 14 10000 2 0 18:58 12.04.2020
4978 Clouds 6 1018 14 10000 2 0 18:39 12.04.2020
4979 Clouds 6 1018 14 10000 2 0 18:19 12.04.2020
4980 Clouds 9 1017 11 10000 6 220 17:55 12.04.2020
4981 Clouds 9 1017 11 10000 6 220 17:37 12.04.2020
4982 Clouds 9 1017 11 10000 6 220 17:37 12.04.2020
4983 Clouds 10 1017 11 10000 6 200 17:18 12.04.2020
4984 Clouds 10 1017 11 10000 6 220 16:41 12.04.2020
4985 Clouds 10 1017 11 10000 6 220 16:22 12.04.2020
4986 Clouds 11 1017 11 10000 7 190 15:53 12.04.2020
4987 Clouds 12 1017 9 10000 8 190 15:35 12.04.2020
4988 Clouds 13 1017 9 10000 7 200 14:58 12.04.2020
4989 Clouds 13 1017 9 10000 6 190 14:39 12.04.2020
4990 Clouds 13 1017 9 10000 6 190 14:20 12.04.2020
4991 Clouds 14 1017 8 10000 5 170 13:56 12.04.2020
4992 Clouds 14 1017 8 10000 5 170 13:36 12.04.2020
4993 Clouds 15 1017 8 10000 6 190 13:18 12.04.2020
4994 Dust 16 1017 8 10000 8 200 12:45 12.04.2020
4995 Clouds 16 1018 6 10000 6 210 12:21 12.04.2020
4996 Clouds 16 1018 6 10000 6 210 11:58 12.04.2020
4997 Clouds 17 1018 7 10000 6 220 11:37 12.04.2020
4998 Dust 17 1018 7 10000 8 210 11:18 12.04.2020
4999 Dust 17 1018 7 10000 8 210 10:55 12.04.2020
5000 Dust 17 1019 7 10000 8 220 10:37 12.04.2020
5001 Dust 18 1019 6 8000 9 200 10:19 12.04.2020
5002 Dust 18 1019 6 8000 9 200 09:55 12.04.2020
5003 Dust 17 1020 7 8000 8 210 09:37 12.04.2020
5004 Dust 16 1021 8 10000 10 210 09:19 12.04.2020
5005 Dust 17 1021 7 10000 10 210 08:47 12.04.2020
5006 Dust 17 1021 7 10000 10 210 08:28 12.04.2020
5007 Dust 17 1022 7 10000 10 200 07:46 12.04.2020
5008 Dust 16 1022 8 10000 11 210 07:19 12.04.2020
5009 Dust 14 1023 10 10000 9 180 06:37 12.04.2020
5010 Dust 14 1024 9 10000 10 170 06:00 12.04.2020
5011 Dust 13 1024 9 10000 10 170 05:41 12.04.2020
5012 Dust 11 1025 12 10000 9 170 04:25 12.04.2020
5013 Clouds 9 1026 12 10000 8 160 03:25 12.04.2020
5014 Clouds 7 1027 14 10000 5 140 02:35 12.04.2020
5015 Clouds 6 1027 15 10000 3 130 01:53 12.04.2020
5016 Clouds 4 1027 19 10000 4 130 01:21 12.04.2020
5017 Clouds 2 1027 21 10000 3 140 00:42 12.04.2020
5018 Clear 4 1027 18 10000 6 150 00:20 12.04.2020
5019 Clear 4 1027 18 10000 6 140 23:47 11.04.2020
5020 Clear 4 1027 18 10000 6 140 23:26 11.04.2020
5021 Clear 2 1028 17 10000 2 0 22:57 11.04.2020
5022 Clear 2 1028 17 10000 2 0 22:36 11.04.2020
5023 Clear 5 1028 13 10000 2 0 22:18 11.04.2020
5024 Clear 5 1028 13 10000 2 0 21:54 11.04.2020
5025 Clear 5 1028 13 10000 2 0 21:36 11.04.2020
5026 Clear 5 1028 14 10000 2 0 21:18 11.04.2020
5027 Clear 5 1028 14 10000 2 0 20:54 11.04.2020
5028 Clear 5 1028 14 10000 2 0 20:36 11.04.2020
5029 Clear 6 1028 12 10000 8 140 20:18 11.04.2020
5030 Clear 6 1028 12 10000 8 140 19:54 11.04.2020
5031 Clear 6 1028 12 10000 8 140 19:54 11.04.2020
5032 Clear 6 1028 12 10000 8 140 19:36 11.04.2020
5033 Clear 6 1028 12 10000 8 140 19:18 11.04.2020
5034 Clear 6 1028 12 10000 8 140 18:55 11.04.2020
5035 Clear 6 1028 12 10000 8 140 18:36 11.04.2020
5036 Clear 6 1028 13 10000 8 140 18:18 11.04.2020
5037 Clear 6 1028 13 10000 8 140 17:56 11.04.2020
5038 Clear 6 1028 13 10000 8 140 17:36 11.04.2020
5039 Clear 6 1028 14 10000 7 140 17:18 11.04.2020
5040 Clear 6 1028 14 10000 7 140 16:42 11.04.2020
5041 Clear 6 1028 14 10000 7 140 16:21 11.04.2020
5042 Clear 7 1028 14 10000 6 140 15:41 11.04.2020
5043 Clear 5 1028 17 10000 5 140 15:20 11.04.2020
5044 Clear 5 1028 17 10000 5 140 14:57 11.04.2020
5045 Clear 8 1028 12 10000 5 150 14:39 11.04.2020
5046 Clear 8 1028 12 10000 5 150 14:20 11.04.2020
5047 Clear 10 1028 12 10000 5 160 13:42 11.04.2020
5048 Clear 10 1028 12 10000 5 160 13:24 11.04.2020
5049 Clear 13 1028 9 10000 7 150 12:59 11.04.2020
5050 Clear 13 1028 9 10000 7 150 12:37 11.04.2020
5051 Clear 14 1028 10 10000 5 170 12:18 11.04.2020
5052 Clear 14 1028 9 10000 5 150 11:42 11.04.2020
5053 Clear 14 1028 9 10000 5 150 11:20 11.04.2020
5054 Clouds 14 1028 10 10000 5 170 10:56 11.04.2020
5055 Clouds 14 1028 10 10000 5 150 10:37 11.04.2020
5056 Clouds 14 1029 11 10000 4 150 10:19 11.04.2020
5057 Clouds 14 1029 11 10000 4 150 09:57 11.04.2020
5058 Clouds 14 1029 11 10000 5 170 09:37 11.04.2020
5059 Clouds 14 1029 11 10000 5 170 09:37 11.04.2020
5060 Clouds 14 1029 11 10000 6 130 09:18 11.04.2020
5061 Clouds 14 1029 11 10000 8 200 08:42 11.04.2020
5062 Clouds 14 1029 11 10000 8 200 08:23 11.04.2020
5063 Clouds 14 1030 11 10000 6 160 07:48 11.04.2020
5064 Clouds 14 1030 11 10000 6 160 07:27 11.04.2020
5065 Clear 13 1030 10 10000 8 150 06:42 11.04.2020
5066 Clear 12 1031 11 10000 9 150 05:58 11.04.2020
5067 Clouds 7 1031 17 10000 2 0 04:31 11.04.2020
5068 Clouds 4 1031 23 10000 1 0 03:30 11.04.2020
5069 Clear -4 1030 45 10000 1.91 115 01:48 11.04.2020
5070 Clear -4 1030 45 10000 1.91 115 01:19 11.04.2020
5071 Clear -4 1029 41 10000 1 0 00:42 11.04.2020
5072 Clear -3 1029 38 10000 1.52 107 00:18 11.04.2020
5073 Clear -3 1029 38 10000 1.52 107 23:54 10.04.2020
5074 Clouds -1 1029 33 10000 1 0 23:36 10.04.2020
5075 Clouds -1 1029 33 10000 1 0 23:36 10.04.2020
5076 Clear -1 1029 36 10000 1 0 23:18 10.04.2020
5077 Clear -1 1029 36 10000 1 0 22:42 10.04.2020
5078 Clear -1 1029 36 10000 1 0 22:20 10.04.2020
5079 Clear -2 1029 42 10000 1 0 21:42 10.04.2020
5080 Clear -2 1029 42 10000 1 0 21:22 10.04.2020
5081 Clear -1 1029 39 10000 1 0 20:59 10.04.2020
5082 Clear -1 1029 39 10000 1 0 20:41 10.04.2020
5083 Clear -1 1029 39 10000 1 0 20:23 10.04.2020
5084 Clear 0 1029 37 10000 1.31 108 19:57 10.04.2020
5085 Clear 0 1029 37 10000 1.31 108 19:39 10.04.2020
5086 Clear 0 1029 37 10000 1.31 108 19:19 10.04.2020
5087 Clear 0 1029 37 10000 1.31 108 18:56 10.04.2020
5088 Clear 1 1029 31 10000 1 0 18:38 10.04.2020
5089 Clear 1 1029 31 10000 1 0 18:38 10.04.2020
5090 Clear 5 1029 21 10000 2 280 18:20 10.04.2020
5091 Clear 5 1029 21 10000 2 280 17:57 10.04.2020
5092 Clear 5 1029 21 10000 2 280 17:39 10.04.2020
5093 Clear 5 1029 21 10000 2 280 17:19 10.04.2020
5094 Clear 0 1028 34 10000 3 140 16:46 10.04.2020
5095 Clear 0 1028 34 10000 3 140 16:24 10.04.2020
5096 Clear 1 1028 29 10000 2 160 15:59 10.04.2020
5097 Clear -1 1028 36 10000 2 170 15:40 10.04.2020
5098 Clear -1 1028 36 10000 2 170 15:22 10.04.2020
5099 Clear 7 1028 19 10000 1.45 359 15:00 10.04.2020
5100 Clear 9 1027 15 10000 2 330 14:41 10.04.2020
5101 Clouds 9 1027 15 10000 2 330 14:23 10.04.2020
5102 Clouds 10 1027 14 10000 4 330 13:57 10.04.2020
5103 Clouds 10 1027 14 10000 4 330 13:39 10.04.2020
5104 Clouds 12 1027 11 10000 4 330 13:20 10.04.2020
5105 Clouds 13 1027 10 10000 5 320 12:42 10.04.2020
5106 Clouds 14 1026 11 10000 6 330 12:22 10.04.2020
5107 Clouds 14 1026 11 10000 6 330 11:55 10.04.2020
5108 Clouds 14 1026 11 10000 5 300 11:36 10.04.2020
5109 Clouds 14 1026 10 10000 4 330 11:18 10.04.2020
5110 Clouds 14 1026 10 10000 5 300 10:42 10.04.2020
5111 Clouds 14 1026 10 10000 5 300 10:22 10.04.2020
5112 Clouds 14 1027 8 10000 3 340 09:45 10.04.2020
5113 Clouds 14 1027 8 10000 3 340 09:25 10.04.2020
5114 Clouds 13 1027 9 10000 2 0 08:56 10.04.2020
5115 Clouds 13 1028 9 10000 5 350 08:38 10.04.2020
5116 Clouds 13 1028 9 10000 5 350 08:38 10.04.2020
5117 Clouds 13 1028 10 10000 5 320 08:18 10.04.2020
5118 Clouds 13 1028 10 10000 5 320 07:44 10.04.2020
5119 Clear 12 1028 13 10000 3 200 07:22 10.04.2020
5120 Clear 12 1028 13 10000 3 200 06:45 10.04.2020
5121 Clear 12 1028 13 10000 3 200 06:25 10.04.2020
5122 Clear 8 1030 24 10000 1 0 05:38 10.04.2020
5123 Clear 6 1030 26 10000 1 0 04:57 10.04.2020
5124 Clear 2 1030 37 10000 1 0 03:41 10.04.2020
5125 Clear 0 1030 39 10000 0.68 65 02:59 10.04.2020
5126 Clear -2 1030 54 10000 0.68 65 02:38 10.04.2020
5127 Clear -6 1029 67 10000 0.7 62 02:19 10.04.2020
5128 Clear -6 1029 67 10000 0.7 62 01:29 10.04.2020
5129 Clear -9 1029 72 10000 1 0 00:49 10.04.2020
5130 Clear -8 1028 67 10000 0.97 44 00:22 10.04.2020
5131 Clear -8 1028 67 10000 0.97 44 23:44 09.04.2020
5132 Clear -8 1028 67 10000 0.97 44 23:26 09.04.2020
5133 Clear -7 1028 62 10000 0.97 44 22:59 09.04.2020
5134 Clear -7 1028 62 10000 0.97 44 22:40 09.04.2020
5135 Clear -7 1028 62 10000 0.97 44 22:40 09.04.2020
5136 Clear -7 1028 62 10000 0.97 44 22:22 09.04.2020
5137 Clear -5 1028 57 10000 1 0 21:43 09.04.2020
5138 Clear -5 1028 57 10000 1 0 21:25 09.04.2020
5139 Clear -6 1027 62 10000 2 160 20:56 09.04.2020
5140 Clear -6 1027 62 10000 2 160 20:38 09.04.2020
5141 Clear -6 1027 62 10000 2 160 20:19 09.04.2020
5142 Clear -4 1027 53 10000 3 160 19:40 09.04.2020
5143 Clear -4 1027 53 10000 3 160 19:22 09.04.2020
5144 Clear -4 1027 53 10000 3 160 18:58 09.04.2020
5145 Clear -3 1027 49 10000 2 180 18:40 09.04.2020
5146 Clear -2 1027 46 10000 3 170 18:18 09.04.2020
5147 Clear -2 1027 46 10000 3 170 17:39 09.04.2020
5148 Clear -2 1027 46 10000 3 170 17:21 09.04.2020
5149 Clear -1 1027 42 10000 2 0 16:41 09.04.2020
5150 Clear -1 1027 42 10000 2 0 16:20 09.04.2020
5151 Clear -2 1026 46 10000 2 170 15:57 09.04.2020
5152 Clear 2 1026 29 10000 1 0 15:39 09.04.2020
5153 Clouds 2 1026 29 10000 1 0 15:20 09.04.2020
5154 Clouds 4 1026 27 10000 1 0 14:59 09.04.2020
5155 Clouds 6 1025 24 10000 3 330 14:38 09.04.2020
5156 Clouds 6 1025 24 10000 3 330 14:20 09.04.2020
5157 Clouds 8 1025 20 10000 5 330 13:42 09.04.2020
5158 Clouds 10 1024 16 10000 6 340 13:24 09.04.2020
5159 Clouds 10 1024 16 10000 6 340 12:59 09.04.2020
5160 Clouds 10 1024 16 10000 5 340 12:38 09.04.2020
5161 Clouds 11 1024 15 10000 7 360 12:20 09.04.2020
5162 Clouds 10 1024 16 10000 6 320 11:44 09.04.2020
5163 Clouds 11 1024 14 10000 2 0 11:20 09.04.2020
5164 Clouds 11 1024 14 10000 2 0 10:59 09.04.2020
5165 Clouds 11 1024 14 10000 3 290 10:41 09.04.2020
5166 Clouds 11 1024 14 10000 3 290 10:22 09.04.2020
5167 Clouds 11 1024 14 10000 3 290 10:22 09.04.2020
5168 Clouds 11 1025 14 10000 5 300 09:58 09.04.2020
5169 Clouds 10 1025 16 10000 3 260 09:39 09.04.2020
5170 Clouds 10 1025 16 10000 3 260 09:21 09.04.2020
5171 Clouds 10 1026 15 10000 4 240 08:44 09.04.2020
5172 Clouds 10 1026 15 10000 4 240 08:24 09.04.2020
5173 Clouds 9 1026 16 10000 2 0 07:59 09.04.2020
5174 Clear 8 1027 17 10000 4 190 07:37 09.04.2020
5175 Clear 8 1027 17 10000 4 190 07:18 09.04.2020
5176 Clear 8 1027 17 10000 2 0 06:28 09.04.2020
5177 Clear 6 1028 18 10000 3 130 05:49 09.04.2020
5178 Clear 5 1028 20 10000 4 130 05:20 09.04.2020
5179 Clouds 1 1028 26 10000 2 0 02:35 09.04.2020
5180 Clear 1 1028 29 10000 2 0 01:46 09.04.2020
5181 Clear 1 1028 29 10000 2 0 01:27 09.04.2020
5182 Clear 0 1027 43 10000 3 80 00:45 09.04.2020
5183 Clouds 0 1027 47 10000 4 100 00:21 09.04.2020
5184 Clouds 0 1027 47 10000 4 100 00:21 09.04.2020
5185 Clouds 0 1027 47 10000 4 100 23:59 08.04.2020
5186 Clouds 0 1027 47 10000 4 100 23:41 08.04.2020
5187 Clouds 0 1027 47 10000 4 100 23:41 08.04.2020
5188 Clouds 0 1027 47 10000 3 110 23:22 08.04.2020
5189 Clouds 1 1026 26 10000 5 140 22:44 08.04.2020
5190 Clouds 0 1026 47 10000 2 230 22:24 08.04.2020
5191 Clouds -1 1025 46 10000 3 260 21:57 08.04.2020
5192 Clouds -1 1025 46 10000 3 260 21:39 08.04.2020
5193 Clouds -2 1025 50 10000 1 0 21:21 08.04.2020
5194 Clouds -2 1025 50 10000 1 0 20:59 08.04.2020
5195 Clouds -4 1024 58 10000 4 150 20:40 08.04.2020
5196 Clouds -4 1024 58 10000 4 150 20:21 08.04.2020
5197 Clouds -2 1024 50 10000 2 0 19:59 08.04.2020
5198 Clouds -2 1024 50 10000 2 0 19:38 08.04.2020
5199 Clouds -5 1024 62 10000 1 0 19:20 08.04.2020
5200 Clouds -4 1023 58 10000 1 0 18:44 08.04.2020
5201 Clouds 0 1023 39 10000 1 0 18:25 08.04.2020
5202 Clouds 2 1023 31 10000 1 0 17:56 08.04.2020
5203 Clouds 2 1023 31 10000 1 0 17:38 08.04.2020
5204 Clouds 4 1023 29 10000 1 0 17:19 08.04.2020
5205 Clouds 5 1023 27 10000 3 60 16:43 08.04.2020
5206 Clouds 2 1023 34 10000 1 0 16:23 08.04.2020
5207 Clouds 5 1023 25 10000 0.73 34 15:58 08.04.2020
5208 Clouds 5 1023 25 10000 0.73 34 15:38 08.04.2020
5209 Clouds 5 1023 25 10000 0.89 262 15:20 08.04.2020
5210 Clouds 6 1022 24 10000 1 0 14:45 08.04.2020
5211 Clouds 6 1022 24 10000 1 0 14:25 08.04.2020
5212 Clouds 7 1022 20 10000 2 280 13:56 08.04.2020
5213 Clouds 7 1022 20 10000 2 280 13:37 08.04.2020
5214 Clouds 8 1022 17 10000 4 260 13:19 08.04.2020
5215 Clouds 9 1021 18 10000 4 220 12:42 08.04.2020
5216 Clouds 9 1021 19 10000 4 260 12:18 08.04.2020
5217 Clouds 9 1021 19 10000 4 260 11:58 08.04.2020
5218 Clouds 8 1021 19 10000 2 290 11:39 08.04.2020
5219 Clouds 8 1021 19 10000 2 290 11:21 08.04.2020
5220 Clouds 8 1021 20 10000 4 310 10:56 08.04.2020
5221 Clouds 8 1021 20 10000 4 310 10:56 08.04.2020
5222 Clouds 8 1021 20 10000 4 310 10:56 08.04.2020
5223 Clouds 8 1021 20 10000 4 310 10:37 08.04.2020
5224 Clouds 9 1021 16 10000 7 250 10:18 08.04.2020
5225 Clouds 9 1021 16 10000 7 250 09:55 08.04.2020
5226 Clouds 10 1021 13 10000 8 250 09:36 08.04.2020
5227 Clouds 11 1021 11 10000 4 270 09:18 08.04.2020
5228 Clouds 11 1021 10 10000 2 0 08:42 08.04.2020
5229 Clouds 11 1021 10 10000 2 0 08:22 08.04.2020
5230 Clouds 10 1021 12 10000 2 0 07:44 08.04.2020
5231 Clouds 10 1021 12 10000 4 170 07:25 08.04.2020
5232 Clouds 10 1021 12 10000 4 170 06:55 08.04.2020
5233 Clear 8 1022 12 10000 4 150 05:56 08.04.2020
5234 Clear 4 1023 19 10000 1 0 03:49 08.04.2020
5235 Clear 0 1022 39 10000 2 0 02:49 08.04.2020
5236 Clear -2 1022 39 10000 2.13 123 02:19 08.04.2020
5237 Clear -4 1022 45 10000 2.13 123 01:43 08.04.2020
5238 Clear -6 1021 44 10000 2.13 123 01:22 08.04.2020
5239 Clear -6 1021 48 10000 2.13 123 00:41 08.04.2020
5240 Clear -3 1021 35 10000 1 0 00:21 08.04.2020
5241 Clear -3 1021 35 10000 1 0 23:39 07.04.2020
5242 Clear -3 1021 35 10000 1 0 23:20 07.04.2020
5243 Clear -3 1021 35 10000 2 0 22:57 07.04.2020
5244 Clear -3 1021 35 10000 2 0 22:57 07.04.2020
5245 Clear -3 1021 35 10000 2 0 22:39 07.04.2020
5246 Clear -1 1021 33 10000 2 0 22:19 07.04.2020
5247 Clear -1 1021 33 10000 2 0 21:56 07.04.2020
5248 Clear -1 1021 33 10000 2 0 21:56 07.04.2020
5249 Clear -1 1021 33 10000 2 0 21:38 07.04.2020
5250 Clear -1 1021 33 10000 2 0 21:19 07.04.2020
5251 Clear -1 1021 30 10000 2 0 20:55 07.04.2020
5252 Clear -1 1021 30 10000 2 0 20:55 07.04.2020
5253 Clear -1 1021 30 10000 2 0 20:36 07.04.2020
5254 Clear -1 1021 30 10000 2 0 20:18 07.04.2020
5255 Clear -1 1021 30 10000 2 0 20:18 07.04.2020
5256 Clear 0 1021 43 10000 1 0 19:55 07.04.2020
5257 Clear 0 1021 43 10000 1 0 19:36 07.04.2020
5258 Clear 0 1021 43 10000 1 0 19:18 07.04.2020
5259 Clear 0 1021 43 10000 1 0 19:18 07.04.2020
5260 Clear 2 1020 22 10000 2 0 18:41 07.04.2020
5261 Clear 2 1020 22 10000 2 0 18:21 07.04.2020
5262 Clear 2 1020 22 10000 2 0 17:59 07.04.2020
5263 Clear 5 1020 15 10000 2 0 17:40 07.04.2020
5264 Clear 5 1020 15 10000 2 0 17:20 07.04.2020
5265 Clear 5 1020 15 10000 2 0 16:45 07.04.2020
5266 Clear 5 1020 15 10000 2 0 16:26 07.04.2020
5267 Clear 5 1020 15 10000 4 120 15:47 07.04.2020
5268 Clouds 5 1020 14 10000 5 130 15:27 07.04.2020
5269 Clouds 5 1020 14 10000 5 130 14:58 07.04.2020
5270 Clear 3 1019 21 10000 4 130 14:39 07.04.2020
5271 Clear 3 1019 21 10000 4 130 14:20 07.04.2020
5272 Clear 8 1019 13 10000 5 150 13:43 07.04.2020
5273 Clear 9 1019 12 10000 5 160 13:21 07.04.2020
5274 Clear 9 1019 12 10000 5 160 12:59 07.04.2020
5275 Clear 9 1019 12 10000 5 160 12:40 07.04.2020
5276 Clouds 10 1019 13 10000 6 190 12:21 07.04.2020
5277 Clouds 10 1019 13 10000 6 190 11:59 07.04.2020
5278 Clouds 10 1019 12 10000 5 180 11:41 07.04.2020
5279 Clouds 10 1019 12 10000 5 180 11:21 07.04.2020
5280 Clouds 10 1019 12 10000 5 150 10:55 07.04.2020
5281 Clouds 10 1019 12 10000 6 150 10:36 07.04.2020
5282 Clouds 9 1020 12 10000 6 160 10:18 07.04.2020
5283 Clouds 10 1020 12 10000 8 150 09:43 07.04.2020
5284 Clouds 8 1020 12 10000 8 160 09:18 07.04.2020
5285 Clouds 8 1020 11 10000 10 140 08:41 07.04.2020
5286 Clouds 8 1020 11 10000 10 140 08:23 07.04.2020
5287 Clouds 7 1020 13 10000 12 130 07:57 07.04.2020
5288 Clouds 7 1020 13 10000 12 130 07:38 07.04.2020
5289 Clouds 7 1020 12 10000 12 140 07:20 07.04.2020
5290 Clouds 6 1021 13 10000 8 120 06:42 07.04.2020
5291 Clouds 5 1021 14 10000 9 110 06:18 07.04.2020
5292 Clouds 5 1021 14 10000 9 110 05:29 07.04.2020
5293 Clouds 5 1021 15 10000 10 90 04:35 07.04.2020
5294 Clouds 4 1021 15 10000 3 350 03:24 07.04.2020
5295 Clouds 3 1021 16 10000 3 50 02:48 07.04.2020
5296 Clouds 1 1021 17 10000 1 0 01:47 07.04.2020
5297 Clouds 1 1021 17 10000 2 330 01:23 07.04.2020
5298 Clouds -1 1020 26 10000 2 0 00:27 07.04.2020
5299 Clouds 1 1021 19 10000 2 0 23:44 06.04.2020
5300 Clouds 1 1021 19 10000 2 0 23:23 06.04.2020
5301 Clouds 1 1021 17 10000 3 40 22:57 06.04.2020
5302 Clouds 1 1021 17 10000 3 40 22:37 06.04.2020
5303 Clouds 1 1021 20 10000 3 350 22:19 06.04.2020
5304 Clouds 1 1021 20 10000 3 350 21:56 06.04.2020
5305 Clouds 1 1021 20 10000 3 350 21:38 06.04.2020
5306 Clear 2 1021 21 10000 4 30 21:18 06.04.2020
5307 Clear 2 1021 21 10000 4 30 20:42 06.04.2020
5308 Clear 2 1021 21 10000 4 30 20:23 06.04.2020
5309 Clear 2 1021 21 10000 4 30 20:23 06.04.2020
5310 Clear 2 1021 21 10000 4 30 19:59 06.04.2020
5311 Clear 2 1021 22 10000 2 0 19:40 06.04.2020
5312 Clear 2 1021 22 10000 2 0 19:22 06.04.2020
5313 Clear 2 1021 22 10000 2 0 18:55 06.04.2020
5314 Dust 4 1021 19 10000 8 120 18:36 06.04.2020
5315 Dust 5 1021 18 10000 11 130 18:18 06.04.2020
5316 Dust 5 1021 18 10000 11 130 17:41 06.04.2020
5317 Dust 5 1021 20 10000 10 130 17:19 06.04.2020
5318 Dust 5 1021 20 10000 9 130 16:50 06.04.2020
5319 Dust 5 1021 20 10000 9 130 16:31 06.04.2020
5320 Clear 5 1021 21 10000 8 120 15:40 06.04.2020
5321 Clear 5 1021 21 10000 8 120 15:40 06.04.2020
5322 Clouds 6 1020 24 10000 9 130 13:45 06.04.2020
5323 Clouds 6 1020 24 10000 9 130 13:23 06.04.2020
5324 Clouds 7 1020 22 10000 9 130 12:54 06.04.2020
5325 Clouds 7 1020 22 10000 9 130 12:54 06.04.2020
5326 Clouds 7 1020 22 10000 9 130 12:54 06.04.2020
5327 Clouds 7 1020 22 10000 9 130 12:54 06.04.2020
5328 Clouds 7 1020 22 10000 9 130 12:54 06.04.2020
5329 Clouds 8 1021 22 10000 9 130 12:21 06.04.2020
5330 Clouds 8 1021 22 10000 9 130 12:21 06.04.2020
5331 Dust 9 1021 21 10000 11 140 11:54 06.04.2020
5332 Dust 9 1021 21 10000 11 140 11:54 06.04.2020
5333 Dust 9 1021 21 10000 11 140 11:54 06.04.2020
5334 Dust 9 1021 21 10000 11 140 11:54 06.04.2020
5335 Dust 9 1021 21 10000 11 140 11:54 06.04.2020
5336 Dust 9 1020 23 8000 11 130 11:29 06.04.2020
5337 Dust 9 1020 23 8000 11 130 11:29 06.04.2020
5338 Dust 9 1020 23 8000 11 130 11:29 06.04.2020
5339 Dust 9 1020 23 8000 11 130 11:29 06.04.2020
5340 Dust 9 1020 23 8000 11 130 11:29 06.04.2020
5341 Dust 9 1021 21 8000 12 140 10:50 06.04.2020
5342 Dust 9 1021 21 8000 12 140 10:50 06.04.2020
5343 Dust 9 1021 21 8000 12 140 10:50 06.04.2020
5344 Dust 9 1021 21 8000 12 140 10:50 06.04.2020
5345 Dust 9 1021 21 8000 12 140 10:50 06.04.2020
5346 Dust 9 1021 23 8000 11 130 10:21 06.04.2020
5347 Dust 10 1021 19 8000 11 140 09:45 06.04.2020
5348 Dust 10 1021 19 8000 11 140 09:45 06.04.2020
5349 Dust 10 1021 19 8000 11 140 09:44 06.04.2020
5350 Dust 10 1021 19 8000 11 140 09:44 06.04.2020
5351 Dust 10 1021 19 8000 11 140 09:20 06.04.2020
5352 Dust 10 1021 18 8000 13 130 08:53 06.04.2020
5353 Dust 10 1021 18 8000 13 130 08:30 06.04.2020
5354 Dust 10 1022 19 8000 13 140 07:26 06.04.2020
5355 Dust 9 1022 23 8000 10 120 06:40 06.04.2020
5356 Dust 9 1022 23 8000 10 120 06:40 06.04.2020
5357 Dust 9 1022 23 8000 10 120 06:18 06.04.2020
5358 Clouds 5 1023 35 10000 6 30 04:18 06.04.2020
5359 Clouds 4 1022 41 10000 4 30 02:56 06.04.2020
5360 Clouds 3 1022 40 10000 4 30 02:18 06.04.2020
5361 Clouds 3 1021 37 10000 3 40 01:23 06.04.2020
5362 Clouds 3 1021 34 10000 3 60 00:41 06.04.2020
5363 Clouds 3 1021 34 10000 3 60 00:21 06.04.2020
5364 Clouds 3 1021 34 10000 3 60 00:21 06.04.2020
5365 Clouds 3 1021 34 10000 3 60 00:21 06.04.2020
5366 Clouds 0 1022 48 10000 1 0 23:41 05.04.2020
5367 Clouds 0 1022 48 10000 1 0 23:21 05.04.2020
5368 Clouds 0 1022 48 10000 1 0 22:54 05.04.2020
5369 Clouds 0 1022 48 10000 1 0 22:54 05.04.2020
5370 Clouds 0 1022 48 10000 1 0 22:36 05.04.2020
5371 Clouds 0 1022 48 10000 1 0 22:18 05.04.2020
5372 Clouds 2 1022 47 10000 3 60 21:43 05.04.2020
5373 Clouds 2 1022 47 10000 3 60 21:43 05.04.2020
5374 Clouds 2 1022 47 10000 3 60 21:43 05.04.2020
5375 Clouds 2 1022 47 10000 3 60 21:23 05.04.2020
5376 Clouds 3 1022 47 10000 1 0 20:25 05.04.2020
5377 Clouds 3 1022 47 10000 1 0 20:25 05.04.2020
5378 Clouds 3 1022 47 10000 1 0 19:44 05.04.2020
5379 Clouds 3 1022 47 10000 1 0 19:25 05.04.2020
5380 Clouds 3 1022 47 10000 1 0 18:50 05.04.2020
5381 Clouds 3 1022 47 10000 1 0 18:50 05.04.2020
5382 Clouds 3 1022 47 10000 1 0 18:50 05.04.2020
5383 Clouds 3 1022 47 10000 1 0 18:50 05.04.2020
5384 Clouds 3 1022 47 10000 1 0 18:50 05.04.2020
5385 Clouds 4 1022 44 10000 3.51 95 18:24 05.04.2020
5386 Clouds 4 1022 44 10000 3.51 95 18:24 05.04.2020
5387 Clouds 4 1022 44 10000 3.51 95 18:24 05.04.2020
5388 Clouds 4 1022 44 10000 3.51 95 18:24 05.04.2020
5389 Clouds 4 1022 44 10000 3.51 95 18:24 05.04.2020
5390 Clouds 5 1021 41 10000 2 0 17:49 05.04.2020
5391 Clouds 5 1021 41 10000 2 0 17:49 05.04.2020
5392 Clouds 5 1021 41 10000 2 0 17:49 05.04.2020
5393 Clouds 5 1021 41 10000 2 0 17:49 05.04.2020
5394 Clouds 5 1021 41 10000 2 0 17:22 05.04.2020
5395 Clouds 5 1021 41 10000 3 350 16:47 05.04.2020
5396 Clouds 5 1021 41 10000 3 350 16:47 05.04.2020
5397 Clouds 6 1021 38 10000 5 10 16:19 05.04.2020
5398 Clear 6 1021 35 10000 3 350 15:46 05.04.2020
5399 Clear 8 1020 31 10000 3 350 15:28 05.04.2020
5400 Clear 8 1020 31 10000 3 350 15:28 05.04.2020
5401 Clear 8 1020 31 10000 3 350 15:28 05.04.2020
5402 Clouds 9 1020 26 10000 4 350 14:48 05.04.2020
5403 Clouds 9 1020 26 10000 4 350 14:48 05.04.2020
5404 Clouds 9 1020 26 10000 4 350 14:48 05.04.2020
5405 Clouds 9 1020 26 10000 4 350 14:48 05.04.2020
5406 Clouds 11 1019 21 10000 7 340 13:59 05.04.2020
5407 Clouds 11 1019 21 10000 7 340 13:40 05.04.2020
5408 Clouds 11 1019 21 10000 7 340 13:40 05.04.2020
5409 Clouds 11 1019 21 10000 7 340 13:40 05.04.2020
5410 Clouds 11 1019 21 10000 7 340 13:40 05.04.2020
5411 Clouds 11 1019 21 10000 7 340 13:40 05.04.2020
5412 Clouds 14 1018 11 10000 5 360 12:21 05.04.2020
5413 Clouds 16 1018 8 10000 1 0 11:40 05.04.2020
5414 Clouds 16 1018 8 10000 1 0 11:20 05.04.2020
5415 Clouds 16 1018 8 10000 3 20 10:47 05.04.2020
5416 Clouds 15 1018 8 10000 4 330 10:23 05.04.2020
5417 Clouds 16 1018 7 10000 3 340 09:55 05.04.2020
5418 Clouds 15 1019 8 10000 3 320 09:27 05.04.2020
5419 Clouds 15 1020 9 10000 2 0 08:34 05.04.2020
5420 Clouds 15 1020 9 10000 2 0 08:34 05.04.2020
5421 Clouds 15 1020 11 10000 2 0 07:20 05.04.2020
5422 Clouds 15 1020 11 10000 2 0 07:20 05.04.2020
5423 Clouds 7 1022 22 10000 1 0 04:31 05.04.2020
5424 Clouds 3 1022 29 10000 2.52 103 03:28 05.04.2020
5425 Clouds -2 1022 50 10000 1.51 55 02:27 05.04.2020
5426 Clouds -4 1022 62 10000 1.53 49 01:44 05.04.2020
5427 Clouds -4 1022 62 10000 1.53 49 01:23 05.04.2020
5428 Clouds -9 1022 72 10000 1 0 00:37 05.04.2020
5429 Clouds -9 1022 72 10000 1 0 00:19 05.04.2020
5430 Clouds -8 1022 67 10000 1 0 23:42 04.04.2020
5431 Clouds -7 1021 62 10000 1 0 23:22 04.04.2020
5432 Clouds -6 1021 57 10000 1 0 22:57 04.04.2020
5433 Clouds -6 1021 57 10000 1 0 22:57 04.04.2020
5434 Clouds -6 1021 57 10000 1 0 22:39 04.04.2020
5435 Clouds -5 1022 57 10000 1 0 22:20 04.04.2020
5436 Clouds -4 1022 49 10000 1 0 21:57 04.04.2020
5437 Clouds -4 1022 49 10000 1 0 21:57 04.04.2020
5438 Clouds -4 1022 49 10000 1 0 21:39 04.04.2020
5439 Clear -4 1022 49 10000 1 0 21:19 04.04.2020
5440 Clear -3 1022 49 10000 1 0 20:55 04.04.2020
5441 Clear -3 1022 49 10000 1 0 20:37 04.04.2020
5442 Clear -3 1022 49 10000 1 0 20:19 04.04.2020
5443 Clear -2 1022 42 10000 1 0 19:42 04.04.2020
5444 Clear -2 1022 42 10000 1 0 19:21 04.04.2020
5445 Clear -2 1022 42 10000 1 0 18:59 04.04.2020
5446 Clear -3 1022 45 10000 2 0 18:40 04.04.2020
5447 Clear -3 1022 45 10000 2 0 18:21 04.04.2020
5448 Clear 0 1022 33 10000 3 160 17:59 04.04.2020
5449 Clear 0 1022 33 10000 3 160 17:39 04.04.2020
5450 Clear 0 1022 33 10000 3 160 17:39 04.04.2020
5451 Clear 0 1022 33 10000 3 160 17:19 04.04.2020
5452 Clear 1 1022 29 10000 2 0 16:46 04.04.2020
5453 Clear -2 1022 39 10000 3 160 16:27 04.04.2020
5454 Clear 0 1022 33 10000 3 180 15:59 04.04.2020
5455 Clear -1 1022 36 10000 2 170 15:39 04.04.2020
5456 Clear -1 1022 36 10000 2 170 15:20 04.04.2020
5457 Clear -1 1022 36 10000 2 170 15:20 04.04.2020
5458 Clear 1 1022 26 10000 2 150 14:56 04.04.2020
5459 Clear 6 1021 17 10000 1 0 14:37 04.04.2020
5460 Clear 6 1021 17 10000 1 0 14:18 04.04.2020
5461 Clear 11 1021 12 10000 2 280 13:54 04.04.2020
5462 Clear 11 1021 12 10000 2 280 13:36 04.04.2020
5463 Clear 11 1021 12 10000 2 280 13:18 04.04.2020
5464 Clear 15 1021 8 10000 4 290 12:42 04.04.2020
5465 Clear 15 1021 8 10000 4 290 12:23 04.04.2020
5466 Clear 16 1020 6 10000 5 280 11:54 04.04.2020
5467 Clear 17 1021 7 10000 6 270 11:36 04.04.2020
5468 Clear 17 1021 7 10000 6 270 11:18 04.04.2020
5469 Clear 17 1021 7 10000 6 280 10:55 04.04.2020
5470 Clear 17 1021 7 10000 7 280 10:37 04.04.2020
5471 Clear 17 1021 7 10000 7 280 10:18 04.04.2020
5472 Clear 16 1022 8 10000 5 250 09:42 04.04.2020
5473 Clear 16 1022 8 10000 5 250 09:24 04.04.2020
5474 Clear 16 1022 8 10000 4 220 08:56 04.04.2020
5475 Clear 16 1023 7 10000 4 220 08:37 04.04.2020
5476 Clear 16 1023 7 10000 4 220 08:19 04.04.2020
5477 Clear 15 1023 8 10000 4 250 07:40 04.04.2020
5478 Clear 15 1023 8 10000 4 250 07:22 04.04.2020
5479 Clear 13 1024 9 10000 5 0 06:40 04.04.2020
5480 Clear 11 1025 15 10000 2 0 05:54 04.04.2020
5481 Clear 9 1025 21 10000 1 0 05:33 04.04.2020
5482 Clear 7 1025 24 10000 1 0 04:40 04.04.2020
5483 Clear 5 1026 27 10000 1 0 04:20 04.04.2020
5484 Clear 3 1026 32 10000 1 0 03:45 04.04.2020
5485 Clear -1 1026 50 10000 1.43 125 02:49 04.04.2020
5486 Clear -3 1026 58 10000 1.43 125 02:30 04.04.2020
5487 Clear -6 1026 73 10000 1.46 119 01:48 04.04.2020
5488 Clear -8 1026 72 10000 1.46 119 01:21 04.04.2020
5489 Clear -10 1026 78 10000 1.46 119 00:45 04.04.2020
5490 Clear -10 1026 78 10000 1.46 119 00:26 04.04.2020
5491 Clear -9 1026 78 10000 1.47 124 23:38 03.04.2020
5492 Clear -9 1026 78 10000 1.47 124 23:19 03.04.2020
5493 Clear -9 1026 72 10000 1.47 124 22:55 03.04.2020
5494 Clear -9 1026 72 10000 1.47 124 22:36 03.04.2020
5495 Clear -9 1026 72 10000 1.47 124 22:18 03.04.2020
5496 Clear -7 1026 67 10000 1 0 21:42 03.04.2020
5497 Clear -7 1026 67 10000 1 0 21:22 03.04.2020
5498 Clear -7 1026 67 10000 1.52 117 20:56 03.04.2020
5499 Clear -7 1026 67 10000 1.52 117 20:36 03.04.2020
5500 Clear -7 1026 67 10000 1.52 117 20:18 03.04.2020
5501 Clear -5 1026 57 10000 1 0 19:56 03.04.2020
5502 Clear -5 1026 57 10000 1 0 19:37 03.04.2020
5503 Clear -5 1026 57 10000 1 0 19:19 03.04.2020
5504 Clear -5 1026 57 10000 1 0 18:58 03.04.2020
5505 Clear -2 1026 42 10000 1 0 18:40 03.04.2020
5506 Clear -2 1026 42 10000 1 0 18:21 03.04.2020
5507 Clear 0 1026 34 10000 1 0 17:42 03.04.2020
5508 Clear 0 1026 34 10000 1 0 17:20 03.04.2020
5509 Clear 1 1026 31 10000 2 0 16:57 03.04.2020
5510 Clear 1 1026 31 10000 2 0 16:38 03.04.2020
5511 Clear 1 1026 31 10000 2 0 16:20 03.04.2020
5512 Clear 1 1026 31 10000 2 0 15:56 03.04.2020
5513 Clear 4 1026 21 10000 2 100 15:37 03.04.2020
5514 Clear 4 1026 21 10000 2 100 15:19 03.04.2020
5515 Clear 8 1025 17 10000 3 240 14:41 03.04.2020
5516 Clear 8 1025 17 10000 3 240 14:22 03.04.2020
5517 Clear 8 1025 17 10000 3 240 13:57 03.04.2020
5518 Clear 8 1025 17 10000 3 240 13:37 03.04.2020
5519 Clear 8 1025 17 10000 3 240 13:18 03.04.2020
5520 Clear 15 1024 9 10000 1 0 12:43 03.04.2020
5521 Clear 15 1024 9 10000 1 0 12:20 03.04.2020
5522 Clear 15 1024 10 10000 2 0 11:56 03.04.2020
5523 Clear 15 1024 10 10000 5 290 11:37 03.04.2020
5524 Clear 15 1024 10 10000 5 290 11:18 03.04.2020
5525 Clear 15 1024 10 10000 2 0 10:57 03.04.2020
5526 Clear 15 1025 9 10000 2 0 10:38 03.04.2020
5527 Clear 15 1025 9 10000 2 0 10:20 03.04.2020
5528 Clear 15 1025 9 10000 3 250 09:57 03.04.2020
5529 Clear 15 1025 9 10000 3 250 09:57 03.04.2020
5530 Clear 14 1025 11 10000 4 320 09:38 03.04.2020
5531 Clear 14 1025 11 10000 4 320 09:20 03.04.2020
5532 Clear 14 1025 11 10000 3 310 08:45 03.04.2020
5533 Clear 14 1026 11 10000 4 270 08:25 03.04.2020
5534 Clear 14 1026 11 10000 4 270 07:59 03.04.2020
5535 Clear 13 1026 12 10000 3 270 07:40 03.04.2020
5536 Clear 13 1026 12 10000 3 270 07:22 03.04.2020
5537 Clear 12 1027 12 10000 2 0 06:29 03.04.2020
5538 Clear 10 1027 16 10000 2 0 05:43 03.04.2020
5539 Clear 4 1027 29 10000 1 0 04:30 03.04.2020
5540 Clear 0 1027 26 10000 1 0 03:35 03.04.2020
5541 Clear -3 1027 58 10000 0.9 8 02:40 03.04.2020
5542 Clear -7 1026 73 10000 1 0 01:27 03.04.2020
5543 Clear -9 1026 78 10000 0.9 22 00:52 03.04.2020
5544 Clear -10 1025 78 10000 1 0 00:33 03.04.2020
5545 Clear -10 1025 78 10000 1.01 348 23:55 02.04.2020
5546 Clear -8 1025 72 10000 1 0 23:37 02.04.2020
5547 Clear -8 1025 72 10000 1 0 23:18 02.04.2020
5548 Clear -8 1025 72 10000 1 0 23:18 02.04.2020
5549 Clear -9 1024 72 10000 1.01 348 22:41 02.04.2020
5550 Clear -9 1024 72 10000 1.01 348 22:22 02.04.2020
5551 Clear -9 1024 66 10000 1 0 21:59 02.04.2020
5552 Clear -9 1024 66 10000 1 0 21:37 02.04.2020
5553 Clear -9 1024 66 10000 1 0 21:18 02.04.2020
5554 Clear -6 1024 57 10000 0.98 1 20:45 02.04.2020
5555 Clear -6 1024 57 10000 0.98 1 20:25 02.04.2020
5556 Clear -6 1024 57 10000 0.98 1 19:57 02.04.2020
5557 Clear -7 1024 62 10000 1 0 19:39 02.04.2020
5558 Clear -7 1024 62 10000 1 0 19:20 02.04.2020
5559 Clear -7 1024 62 10000 1 0 18:55 02.04.2020
5560 Clear -6 1024 57 10000 1 0 18:36 02.04.2020
5561 Clear -4 1024 49 10000 1 0 18:18 02.04.2020
5562 Clear -4 1024 49 10000 1 0 18:18 02.04.2020
5563 Clear -4 1024 49 10000 1 0 17:42 02.04.2020
5564 Clear -4 1024 49 10000 1 0 17:24 02.04.2020
5565 Clear -3 1024 45 10000 3 160 16:58 02.04.2020
5566 Clear -3 1024 45 10000 3 170 16:39 02.04.2020
5567 Clear -3 1024 45 10000 3 170 16:21 02.04.2020
5568 Clear -2 1023 46 10000 1 0 15:56 02.04.2020
5569 Clear -2 1023 42 10000 1 0 15:38 02.04.2020
5570 Clear -2 1023 42 10000 1 0 15:18 02.04.2020
5571 Clear 2 1023 24 10000 1 0 14:56 02.04.2020
5572 Clear 2 1023 24 10000 1 0 14:37 02.04.2020
5573 Clear 5 1023 18 10000 1.94 324 14:18 02.04.2020
5574 Clear 8 1022 13 10000 3 260 13:40 02.04.2020
5575 Clear 8 1022 13 10000 3 260 13:21 02.04.2020
5576 Clear 10 1022 13 10000 5 280 12:59 02.04.2020
5577 Clear 11 1022 12 10000 5 270 12:41 02.04.2020
5578 Clear 11 1022 12 10000 5 270 12:19 02.04.2020
5579 Clear 12 1022 11 10000 6 280 11:57 02.04.2020
5580 Clear 12 1023 11 10000 7 280 11:38 02.04.2020
5581 Clear 12 1023 11 10000 7 280 11:19 02.04.2020
5582 Clear 12 1023 11 10000 7 280 10:55 02.04.2020
5583 Clear 12 1023 12 10000 6 280 10:37 02.04.2020
5584 Clear 12 1023 12 10000 6 280 10:19 02.04.2020
5585 Clear 13 1023 11 10000 7 270 09:58 02.04.2020
5586 Clear 12 1024 11 10000 5 280 09:39 02.04.2020
5587 Clear 12 1024 11 10000 5 280 09:19 02.04.2020
5588 Clear 12 1024 13 10000 4 250 08:47 02.04.2020
5589 Clear 11 1024 14 10000 3 260 08:27 02.04.2020
5590 Clear 11 1025 14 10000 2 0 07:45 02.04.2020
5591 Clear 11 1025 14 10000 2 0 07:21 02.04.2020
5592 Clear 10 1025 16 10000 3 300 06:59 02.04.2020
5593 Clear 9 1025 16 10000 2 0 06:22 02.04.2020
5594 Clear 8 1026 19 10000 1 0 05:45 02.04.2020
5595 Clear 4 1026 27 10000 1 0 04:46 02.04.2020
5596 Clear -8 1026 78 10000 0.27 70 01:54 02.04.2020
5597 Clear -9 1025 72 10000 1 0 00:54 02.04.2020
5598 Clear -11 1025 78 10000 1 0 00:31 02.04.2020
5599 Clear -9 1024 72 10000 1 0 23:59 01.04.2020
5600 Clear -11 1024 78 10000 0.33 118 23:37 01.04.2020
5601 Clear -11 1024 78 10000 0.33 118 23:18 01.04.2020
5602 Clear -8 1024 72 10000 1 0 22:41 01.04.2020
5603 Clear -8 1024 72 10000 1 0 22:22 01.04.2020
5604 Clear -8 1024 67 10000 1 0 21:58 01.04.2020
5605 Clear -8 1024 67 10000 1 0 21:58 01.04.2020
5606 Clear -8 1024 67 10000 1 0 21:39 01.04.2020
5607 Clear -8 1024 67 10000 1 0 21:19 01.04.2020
5608 Clear -8 1024 67 10000 1 0 21:19 01.04.2020
5609 Clear -6 1023 62 10000 1 0 20:55 01.04.2020
5610 Clear -6 1023 62 10000 1 0 20:37 01.04.2020
5611 Clear -6 1023 62 10000 1 0 20:18 01.04.2020
5612 Clear -7 1023 67 10000 1 0 19:43 01.04.2020
5613 Clear -7 1023 67 10000 1 0 19:22 01.04.2020
5614 Clear -7 1023 67 10000 1 0 18:59 01.04.2020
5615 Clear -5 1023 57 10000 1 0 18:41 01.04.2020
5616 Clear -5 1023 57 10000 1 0 18:21 01.04.2020
5617 Clear -5 1023 57 10000 1 0 17:56 01.04.2020
5618 Clear -5 1023 57 10000 1 0 17:56 01.04.2020
5619 Clear -5 1022 57 10000 1 0 17:37 01.04.2020
5620 Clear -5 1022 57 10000 1 0 17:18 01.04.2020
5621 Clear -3 1022 49 10000 3 160 16:54 01.04.2020
5622 Clear -5 1022 57 10000 3 170 16:36 01.04.2020
5623 Clear -5 1022 57 10000 3 170 16:18 01.04.2020
5624 Clear -4 1022 49 10000 3 170 15:42 01.04.2020
5625 Clear -4 1022 49 10000 2 160 15:22 01.04.2020
5626 Clear -2 1021 39 10000 1.74 289 14:58 01.04.2020
5627 Clear 0 1021 40 10000 2 0 14:39 01.04.2020
5628 -273 0 0 0 0 0 14:20 01.04.2020
5629 Clear 0 1021 40 10000 2 0 13:58 01.04.2020
5630 Clear 6 1020 18 10000 2 350 13:38 01.04.2020
5631 Clear 6 1020 18 10000 2 350 13:19 01.04.2020
5632 Clear 8 1020 15 10000 5 310 12:56 01.04.2020
5633 Clear 9 1020 14 10000 5 320 12:37 01.04.2020
5634 Clear 9 1020 14 10000 5 320 12:18 01.04.2020
5635 Clear 9 1020 14 10000 6 300 11:54 01.04.2020
5636 Clear 9 1020 14 10000 5 300 11:36 01.04.2020
5637 Clear 9 1020 14 10000 5 300 11:18 01.04.2020
5638 Clear 9 1020 14 10000 6 330 10:38 01.04.2020
5639 Clear 9 1020 14 10000 6 330 10:20 01.04.2020
5640 Clear 9 1021 15 10000 6 280 09:57 01.04.2020
5641 Clear 8 1021 16 10000 4 280 09:39 01.04.2020
5642 Clear 8 1021 16 10000 4 280 09:19 01.04.2020
5643 Clear 7 1022 16 10000 3 240 08:43 01.04.2020
5644 Clear 7 1022 16 10000 3 240 08:18 01.04.2020
5645 Clear 7 1022 16 10000 3 240 07:48 01.04.2020
5646 Clear 6 1023 15 10000 3 230 07:22 01.04.2020
5647 Clear 5 1023 18 10000 3 220 06:58 01.04.2020
5648 Clear 4 1023 18 10000 2 0 06:27 01.04.2020
5649 Clear 2 1024 19 10000 2 0 05:59 01.04.2020
5650 Clear -1 1025 30 10000 1 0 04:36 01.04.2020
5651 Clear -5 1025 45 10000 2.03 266 03:33 01.04.2020
5652 Clear -7 1025 52 10000 1 0 02:57 01.04.2020
5653 Clear -8 1025 57 10000 0.29 305 02:21 01.04.2020
5654 Clear -10 1024 66 10000 0.24 312 01:40 01.04.2020
5655 Clear -10 1024 66 10000 0.24 312 01:40 01.04.2020
5656 Clear -10 1024 66 10000 0.24 312 01:22 01.04.2020
5657 Clear -11 1024 61 10000 0.24 312 00:46 01.04.2020
5658 Clear -11 1024 61 10000 0.24 312 00:21 01.04.2020
5659 Clear -11 1024 61 10000 0.24 312 00:21 01.04.2020
5660 Clear -12 1024 60 10000 1 0 23:48 31.03.2020
5661 Clear -12 1024 60 10000 1 0 23:28 31.03.2020
5662 Clear -10 1024 61 10000 0.51 240 22:59 31.03.2020
5663 Clear -10 1024 61 10000 0.51 240 22:37 31.03.2020
5664 Clear -10 1024 61 10000 0.51 240 22:19 31.03.2020
5665 Clear -10 1024 61 10000 0.51 240 21:57 31.03.2020
5666 Clear -10 1025 56 10000 1 0 21:39 31.03.2020
5667 Clear -10 1025 56 10000 1 0 21:20 31.03.2020
5668 Clear -10 1025 56 10000 1 0 21:20 31.03.2020
5669 Clear -9 1025 52 10000 0.96 244 20:56 31.03.2020
5670 Clear -9 1025 52 10000 0.96 244 20:37 31.03.2020
5671 Clear -9 1025 52 10000 0.96 244 20:18 31.03.2020
5672 Clear -8 1025 48 10000 1 0 19:42 31.03.2020
5673 Clear -8 1025 48 10000 1 0 19:24 31.03.2020
5674 Clear -8 1025 48 10000 1 0 18:59 31.03.2020
5675 Clear -8 1025 52 10000 1 0 18:41 31.03.2020
5676 Clear -8 1025 52 10000 1 0 18:19 31.03.2020
5677 Clear -6 1025 44 10000 1 0 17:55 31.03.2020
5678 Clear -6 1025 44 10000 1 0 17:37 31.03.2020
5679 Clear -6 1025 44 10000 1 0 17:37 31.03.2020
5680 Clear -6 1025 44 10000 1 0 17:19 31.03.2020
5681 Clear -8 1026 48 10000 2 190 16:41 31.03.2020
5682 Clear -8 1026 48 10000 2 190 16:20 31.03.2020
5683 Clear -7 1026 44 10000 3 210 15:58 31.03.2020
5684 Clear -7 1026 44 10000 3 210 15:40 31.03.2020
5685 Clear -6 1026 41 10000 3 220 15:22 31.03.2020
5686 Clear -4 1026 32 10000 3 230 14:58 31.03.2020
5687 Clear -4 1026 32 10000 3 230 14:58 31.03.2020
5688 Clear -4 1026 32 10000 3 230 14:40 31.03.2020
5689 Clear -3 1025 30 10000 3 240 14:21 31.03.2020
5690 Clear -1 1025 28 10000 3 260 13:43 31.03.2020
5691 Clear -1 1025 28 10000 3 260 13:20 31.03.2020
5692 Clear 1 1025 20 10000 4 280 12:59 31.03.2020
5693 Clear 2 1025 17 10000 6 280 12:40 31.03.2020
5694 Clear 2 1025 17 10000 6 280 12:19 31.03.2020
5695 Clear 2 1025 17 10000 6 280 12:19 31.03.2020
5696 Clear 2 1025 19 10000 6 280 11:41 31.03.2020
5697 Clear 2 1025 19 10000 6 280 11:20 31.03.2020
5698 Clear 2 1025 19 10000 6 280 10:59 31.03.2020
5699 Clear 2 1026 22 10000 5 290 10:41 31.03.2020
5700 Clear 2 1026 22 10000 5 290 10:22 31.03.2020
5701 Clear 2 1026 17 10000 5 290 09:59 31.03.2020
5702 Clear 2 1026 17 10000 5 290 09:41 31.03.2020
5703 Clear 2 1027 19 10000 6 290 09:22 31.03.2020
5704 Clouds 1 1027 19 10000 4 250 08:57 31.03.2020
5705 Clouds 1 1027 20 10000 6 290 08:38 31.03.2020
5706 Clouds 1 1027 20 10000 6 290 08:19 31.03.2020
5707 Clouds 1 1027 20 10000 6 290 08:19 31.03.2020
5708 Clouds 1 1028 22 10000 6 260 07:56 31.03.2020
5709 Clouds 1 1028 22 10000 6 260 07:37 31.03.2020
5710 Clouds 1 1028 22 10000 6 260 07:18 31.03.2020
5711 Clouds 0 1028 40 10000 3 260 06:45 31.03.2020
5712 Clouds -1 1029 33 10000 3 250 06:18 31.03.2020
5713 Clouds -2 1029 39 10000 2 0 05:39 31.03.2020
5714 Clear -6 1029 53 10000 3.57 285 03:34 31.03.2020
5715 Clear -13 1028 78 10000 0.62 338 01:59 31.03.2020
5716 Clear -14 1028 77 10000 2 170 01:40 31.03.2020
5717 Clear -14 1028 77 10000 2 170 00:47 31.03.2020
5718 Clear -14 1028 71 10000 2 160 00:25 31.03.2020
5719 Clear -14 1027 77 10000 2 160 23:42 30.03.2020
5720 Clear -14 1027 77 10000 3 170 23:20 30.03.2020
5721 Clear -14 1026 71 10000 3 160 22:58 30.03.2020
5722 Clear -14 1026 77 10000 1 0 22:39 30.03.2020
5723 Clear -14 1026 77 10000 1 0 22:21 30.03.2020
5724 Clear -13 1026 71 10000 1 0 21:58 30.03.2020
5725 Clear -13 1026 71 10000 1 0 21:39 30.03.2020
5726 Clear -13 1026 71 10000 1 0 21:21 30.03.2020
5727 Clouds -12 1026 72 10000 1 0 20:59 30.03.2020
5728 Clouds -12 1026 72 10000 1 0 20:39 30.03.2020
5729 Clouds -12 1026 72 10000 1 0 20:20 30.03.2020
5730 Clouds -12 1025 72 10000 2 0 19:57 30.03.2020
5731 Clouds -12 1025 72 10000 2 0 19:39 30.03.2020
5732 Clouds -12 1025 72 10000 2 0 19:20 30.03.2020
5733 Clouds -8 1025 52 10000 1 0 18:44 30.03.2020
5734 Clouds -8 1025 52 10000 1 0 18:26 30.03.2020
5735 Clouds -8 1025 52 10000 1 0 17:58 30.03.2020
5736 Clouds -8 1025 52 10000 1 0 17:58 30.03.2020
5737 Clouds -8 1024 52 10000 3 310 17:40 30.03.2020
5738 Clouds -8 1024 52 10000 3 310 17:22 30.03.2020
5739 Clouds -5 1024 41 10000 4 340 16:59 30.03.2020
5740 Clouds -4 1023 35 10000 4 350 16:40 30.03.2020
5741 Clouds -4 1023 35 10000 4 350 16:21 30.03.2020
5742 Clouds -3 1023 35 10000 6 350 15:56 30.03.2020
5743 Clouds -3 1023 35 10000 6 350 15:56 30.03.2020
5744 Clouds -3 1022 32 10000 6 350 15:38 30.03.2020
5745 Clouds -3 1022 32 10000 6 350 15:20 30.03.2020
5746 Clouds -3 1022 32 10000 6 350 14:56 30.03.2020
5747 Clouds -2 1021 30 10000 8 350 14:37 30.03.2020
5748 Clouds -2 1021 30 10000 8 350 14:18 30.03.2020
5749 Clouds -2 1021 30 10000 8 350 14:18 30.03.2020
5750 Clouds -2 1020 30 10000 8 350 13:56 30.03.2020
5751 Clouds -2 1020 30 10000 8 350 13:37 30.03.2020
5752 Clouds -2 1020 30 10000 8 350 13:19 30.03.2020
5753 Clouds -1 1020 28 10000 8 350 12:44 30.03.2020
5754 Clouds 0 1019 57 10000 8 340 12:21 30.03.2020
5755 Clouds 1 1018 20 10000 8 350 11:58 30.03.2020
5756 Clouds 1 1017 20 10000 7 340 11:40 30.03.2020
5757 Clouds 1 1017 20 10000 7 340 11:21 30.03.2020
5758 Clouds 2 1017 21 10000 9 350 10:55 30.03.2020
5759 Clouds 1 1017 24 10000 8 350 10:36 30.03.2020
5760 Clouds 1 1017 24 10000 8 350 10:18 30.03.2020
5761 Clouds 2 1016 22 10000 9 340 09:40 30.03.2020
5762 Clouds 2 1016 22 10000 9 340 09:19 30.03.2020
5763 Clouds 2 1016 24 10000 9 340 08:54 30.03.2020
5764 Clouds 2 1016 24 10000 9 340 08:36 30.03.2020
5765 Clouds 2 1016 24 10000 9 340 08:18 30.03.2020
5766 Clouds 3 1015 25 10000 7 350 07:41 30.03.2020
5767 Clouds 3 1015 25 10000 7 350 07:20 30.03.2020
5768 Clouds 2 1015 31 10000 6 350 06:42 30.03.2020
5769 Clouds 2 1015 31 10000 6 350 06:23 30.03.2020
5770 Clouds 0 1015 58 10000 6 350 05:39 30.03.2020
5771 Clouds 0 1015 58 10000 3 30 04:29 30.03.2020
5772 Clouds -1 1014 54 10000 3 30 03:54 30.03.2020
5773 Clouds -3 1013 63 10000 5 340 02:44 30.03.2020
5774 Clouds -3 1012 68 10000 2 0 01:55 30.03.2020
5775 Clouds -3 1012 68 10000 4 350 00:57 30.03.2020
5776 Clouds -3 1011 63 10000 2 0 00:27 30.03.2020
5777 Clouds -2 1010 54 10000 2 0 23:55 29.03.2020
5778 Clouds -2 1009 54 10000 4 360 23:36 29.03.2020
5779 Clouds -2 1009 54 10000 4 360 23:18 29.03.2020
5780 Clouds -2 1009 54 10000 5 10 22:40 29.03.2020
5781 Clouds -2 1009 54 10000 5 10 22:20 29.03.2020
5782 Clouds -1 1009 46 10000 6 30 21:59 29.03.2020
5783 Clouds -1 1009 46 10000 6 30 21:38 29.03.2020
5784 Clouds -1 1009 46 10000 6 30 21:20 29.03.2020
5785 Clouds -1 1009 46 10000 6 30 20:55 29.03.2020
5786 Clouds -1 1009 46 10000 6 30 20:55 29.03.2020
5787 Clouds -1 1008 42 10000 4 360 20:37 29.03.2020
5788 Clouds -1 1008 42 10000 4 360 20:18 29.03.2020
5789 Clouds -1 1008 42 10000 4 360 19:56 29.03.2020
5790 Clouds -7 1008 62 10000 1 0 19:38 29.03.2020
5791 Clouds -7 1008 62 10000 1 0 19:19 29.03.2020
5792 Clouds -7 1008 62 10000 1 0 18:55 29.03.2020
5793 Clouds -7 1008 62 10000 1 0 18:55 29.03.2020
5794 Clouds -5 1007 57 0 2 0 18:37 29.03.2020
5795 Clouds -5 1007 57 0 2 0 18:18 29.03.2020
5796 Clouds -5 1007 57 0 2 0 17:55 29.03.2020
5797 Clouds -3 1006 49 10000 1 0 17:36 29.03.2020
5798 Clouds -3 1006 49 10000 1 0 17:18 29.03.2020
5799 Clouds -3 1006 45 10000 2 0 16:55 29.03.2020
5800 Clouds -6 1005 53 10000 2.06 18 16:36 29.03.2020
5801 Clouds -6 1005 53 10000 2.06 18 16:18 29.03.2020
5802 Clouds -1 1005 33 10000 2 0 15:41 29.03.2020
5803 Clear -1 1005 33 10000 2 0 15:22 29.03.2020
5804 Clouds -1 1005 33 10000 2 0 15:22 29.03.2020
5805 Clear -3 1005 45 10000 3 180 14:57 29.03.2020
5806 Clear -3 1005 45 10000 3 180 14:39 29.03.2020
5807 Clear -1 1004 36 10000 2 0 14:19 29.03.2020
5808 Clear -1 1004 36 10000 2 0 13:56 29.03.2020
5809 Clear 0 1004 51 10000 1 0 13:38 29.03.2020
5810 Clear 5 1004 14 10000 2 280 13:19 29.03.2020
5811 Clear 7 1004 12 10000 5 290 12:55 29.03.2020
5812 Clear 7 1004 12 10000 5 290 12:37 29.03.2020
5813 Clear 8 1004 11 10000 4 290 12:18 29.03.2020
5814 Clear 9 1004 10 10000 6 270 11:40 29.03.2020
5815 Clear 9 1004 10 10000 6 270 11:21 29.03.2020
5816 Clear 8 1004 10 10000 5 280 10:59 29.03.2020
5817 Clear 8 1004 10 10000 5 280 10:37 29.03.2020
5818 Clear 8 1004 10 10000 5 280 10:18 29.03.2020
5819 Clear 8 1004 10 10000 5 280 10:18 29.03.2020
5820 Clear 8 1005 10 10000 6 280 09:40 29.03.2020
5821 Clear 8 1005 10 10000 6 280 09:19 29.03.2020
5822 Clear 8 1005 10 10000 6 280 08:53 29.03.2020
5823 Clear 8 1005 10 10000 6 270 08:28 29.03.2020
5824 Clear 8 1005 10 10000 6 270 08:28 29.03.2020
5825 Clear 8 1006 11 10000 6 300 07:58 29.03.2020
5826 Clear 8 1006 11 10000 6 300 07:58 29.03.2020
5827 Clear 7 1006 13 10000 3 250 07:40 29.03.2020
5828 Clear 7 1006 13 10000 3 250 07:20 29.03.2020
5829 Clear 2 1008 27 10000 1.45 213 04:59 29.03.2020
5830 Clear -2 1008 42 10000 1.45 213 03:55 29.03.2020
5831 Clear -5 1008 53 10000 2 0 03:26 29.03.2020
5832 Clouds -5 1008 49 10000 0.77 80 01:51 29.03.2020
5833 Clouds -7 1008 67 10000 0.77 80 01:23 29.03.2020
5834 Clouds -11 1007 78 10000 0.75 85 00:55 29.03.2020
5835 Clouds -11 1007 78 10000 0.75 85 00:31 29.03.2020
5836 Clouds -13 1007 78 10000 0.75 85 23:43 28.03.2020
5837 Clouds -13 1007 78 10000 0.75 85 23:23 28.03.2020
5838 Clouds -11 1007 72 10000 0.48 62 22:58 28.03.2020
5839 Clouds -10 1007 61 10000 0.48 62 22:38 28.03.2020
5840 Clouds -10 1007 61 10000 0.48 62 22:20 28.03.2020
5841 Clouds -10 1007 66 10000 1 0 21:43 28.03.2020
5842 Clouds -10 1007 66 10000 1 0 21:24 28.03.2020
5843 Clouds -9 1007 61 10000 1 0 20:59 28.03.2020
5844 Clouds -9 1007 61 10000 1 0 20:41 28.03.2020
5845 Clouds -9 1007 61 10000 1 0 20:23 28.03.2020
5846 Clouds -7 1007 48 10000 0.6 279 19:57 28.03.2020
5847 Clouds -7 1007 48 10000 0.6 279 19:38 28.03.2020
5848 Clouds -7 1007 48 10000 0.6 279 19:38 28.03.2020
5849 Clouds -7 1007 48 10000 0.6 279 19:20 28.03.2020
5850 Clouds -7 1007 48 10000 0.6 279 18:56 28.03.2020
5851 Clouds -5 1008 49 10000 1 0 18:38 28.03.2020
5852 Clouds -5 1008 49 10000 1 0 18:38 28.03.2020
5853 Clouds -5 1008 49 10000 1 0 18:19 28.03.2020
5854 Clouds -5 1008 49 10000 0.6 279 17:38 28.03.2020
5855 Clear -3 1008 35 10000 1.36 266 17:20 28.03.2020
5856 Clear -3 1008 35 10000 1.36 266 16:42 28.03.2020
5857 Clear -3 1008 35 10000 1.36 266 16:20 28.03.2020
5858 Clear -3 1007 32 10000 3 180 15:57 28.03.2020
5859 Clear -4 1007 41 10000 3 160 15:39 28.03.2020
5860 Clear -4 1007 41 10000 3 160 15:19 28.03.2020
5861 Clear -5 1007 45 10000 1 0 14:43 28.03.2020
5862 Clear -5 1007 45 10000 1 0 14:23 28.03.2020
5863 Clear -3 1007 35 10000 2 180 13:59 28.03.2020
5864 Clear -3 1007 35 10000 3 200 13:38 28.03.2020
5865 Clear -3 1007 35 10000 3 200 13:19 28.03.2020
5866 Clear 3 1006 12 10000 4 250 12:39 28.03.2020
5867 Clear 3 1006 12 10000 4 250 12:21 28.03.2020
5868 Clear 6 1006 9 10000 6 270 11:42 28.03.2020
5869 Clear 7 1006 10 10000 6 260 11:21 28.03.2020
5870 Clear 7 1006 10 10000 6 260 10:56 28.03.2020
5871 Clear 7 1007 9 10000 6 260 10:37 28.03.2020
5872 Clear 7 1007 9 10000 6 260 10:18 28.03.2020
5873 Clear 7 1007 12 10000 7 220 09:41 28.03.2020
5874 Clear 7 1007 12 10000 7 220 09:22 28.03.2020
5875 Clear 6 1008 13 10000 7 220 08:45 28.03.2020
5876 Clear 6 1008 13 10000 5 220 08:27 28.03.2020
5877 Clear 6 1008 13 10000 5 220 07:59 28.03.2020
5878 Clear 6 1009 13 10000 3 210 07:41 28.03.2020
5879 Clear 5 1010 14 10000 4 240 06:55 28.03.2020
5880 Clear 5 1010 14 10000 5 230 06:32 28.03.2020
5881 Clear 4 1011 16 10000 3 200 05:39 28.03.2020
5882 Clear 2 1012 24 10000 2.64 179 05:19 28.03.2020
5883 Clear 0 1013 41 10000 1 0 04:39 28.03.2020
5884 Clear -5 1014 53 10000 1 0 02:55 28.03.2020
5885 Clear -9 1015 66 10000 1.38 137 01:48 28.03.2020
5886 Clear -9 1015 66 10000 1.38 137 01:24 28.03.2020
5887 Clear -13 1015 71 10000 1 0 00:52 28.03.2020
5888 Clear -13 1015 71 10000 1 0 00:33 28.03.2020
5889 Clear -15 1015 71 10000 1.38 137 23:45 27.03.2020
5890 Clear -15 1015 71 10000 1.38 137 23:26 27.03.2020
5891 Clear -15 1015 71 10000 1.38 137 23:26 27.03.2020
5892 Clear -13 1015 71 10000 1.24 127 22:58 27.03.2020
5893 Clear -14 1016 71 10000 1 0 22:39 27.03.2020
5894 Clear -14 1016 71 10000 1 0 22:21 27.03.2020
5895 Clear -11 1017 66 10000 1.24 127 21:59 27.03.2020
5896 Clear -11 1017 66 10000 1.24 127 21:40 27.03.2020
5897 Clear -11 1017 66 10000 1.24 127 21:22 27.03.2020
5898 Clear -14 1017 77 10000 1.24 127 20:57 27.03.2020
5899 Clear -14 1017 77 10000 1.24 127 20:39 27.03.2020
5900 Clear -14 1017 77 10000 0.73 161 20:19 27.03.2020
5901 Clear -14 1017 77 10000 0.73 161 20:19 27.03.2020
5902 Clear -12 1018 72 10000 1 0 19:55 27.03.2020
5903 Clear -12 1018 72 10000 1 0 19:55 27.03.2020
5904 Clear -12 1018 72 10000 1 0 19:36 27.03.2020
5905 Clear -12 1018 72 10000 1 0 19:18 27.03.2020
5906 Clear -12 1018 72 10000 1 0 18:42 27.03.2020
5907 Clear -12 1018 72 10000 1 0 18:22 27.03.2020
5908 Clear -12 1018 72 10000 1 0 17:54 27.03.2020
5909 Clear -8 1019 57 10000 0.52 160 17:36 27.03.2020
5910 Clear -8 1019 57 10000 0.47 263 17:18 27.03.2020
5911 Clear -7 1019 52 10000 0.47 263 16:41 27.03.2020
5912 Clear -7 1019 52 10000 0.47 263 16:23 27.03.2020
5913 Clear -7 1020 57 10000 1 0 15:43 27.03.2020
5914 Clear -7 1020 57 10000 1 0 15:25 27.03.2020
5915 Clear -7 1020 57 10000 1 0 14:56 27.03.2020
5916 Clear -6 1020 53 10000 2 180 14:36 27.03.2020
5917 Clear -6 1020 53 10000 2 180 14:18 27.03.2020
5918 Clear -6 1020 48 10000 2 0 13:42 27.03.2020
5919 Clear -6 1020 48 10000 2 0 13:21 27.03.2020
5920 Clear -4 1020 38 10000 2 0 12:58 27.03.2020
5921 Clear -2 1020 30 10000 4 270 12:39 27.03.2020
5922 Clear -1 1020 28 10000 4 270 12:19 27.03.2020
5923 Clear 0 1021 56 10000 5 280 11:42 27.03.2020
5924 Clear 0 1021 56 10000 7 280 11:24 27.03.2020
5925 Clear 0 1021 43 10000 7 280 10:55 27.03.2020
5926 Clear 1 1021 20 10000 6 280 10:37 27.03.2020
5927 Clear 1 1021 20 10000 6 280 10:19 27.03.2020
5928 Clear 0 1022 43 10000 6 270 09:57 27.03.2020
5929 Clear 0 1022 43 10000 6 270 09:38 27.03.2020
5930 Clear 0 1022 43 10000 6 270 09:19 27.03.2020
5931 Clear 0 1023 43 10000 6 290 08:56 27.03.2020
5932 Clear 0 1023 43 10000 6 280 08:38 27.03.2020
5933 Clear 0 1023 44 10000 6 280 08:20 27.03.2020
5934 Clear 0 1024 44 10000 6 270 07:52 27.03.2020
5935 Clear 0 1024 44 10000 6 270 07:25 27.03.2020
5936 Clear -1 1024 26 10000 6 280 06:53 27.03.2020
5937 Clear -1 1025 23 10000 6 290 06:35 27.03.2020
5938 Clear -3 1026 27 10000 5 270 04:59 27.03.2020
5939 Clear -10 1027 61 10000 4.63 278 02:36 27.03.2020
5940 Clear -11 1027 66 10000 1 0 01:23 27.03.2020
5941 Clear -16 1027 71 10000 2 160 00:50 27.03.2020
5942 Clear -16 1027 71 10000 2 160 00:24 27.03.2020
5943 Clear -16 1027 71 10000 2 190 23:44 26.03.2020
5944 Clear -16 1026 71 10000 3 170 23:22 26.03.2020
5945 Clear -16 1026 71 10000 3 170 22:59 26.03.2020
5946 Clear -16 1026 71 10000 3 170 22:38 26.03.2020
5947 Clear -16 1026 71 10000 3 170 22:19 26.03.2020
5948 Clear -15 1026 71 10000 2 180 21:56 26.03.2020
5949 Clear -15 1026 71 10000 2 180 21:37 26.03.2020
5950 Clear -15 1026 71 10000 2 180 21:18 26.03.2020
5951 Clear -16 1026 77 10000 1 0 20:56 26.03.2020
5952 Clear -16 1026 77 10000 1 0 20:37 26.03.2020
5953 Clear -16 1026 77 10000 1 0 20:19 26.03.2020
5954 Clear -14 1026 71 10000 1 0 19:54 26.03.2020
5955 Clear -14 1026 71 10000 1 0 19:36 26.03.2020
5956 Clear -14 1026 71 10000 1 0 19:18 26.03.2020
5957 Clear -13 1025 71 10000 1 0 18:41 26.03.2020
5958 Clear -13 1025 71 10000 1 0 18:23 26.03.2020
5959 Clear -10 1025 61 10000 2 330 17:55 26.03.2020
5960 Clear -10 1025 61 10000 2 330 17:37 26.03.2020
5961 Clear -10 1025 61 10000 2 330 17:18 26.03.2020
5962 Clear -9 1025 52 10000 1 0 16:40 26.03.2020
5963 Clear -9 1025 52 10000 1 0 16:21 26.03.2020
5964 Clear -9 1025 52 10000 1 0 15:57 26.03.2020
5965 Clear -9 1024 52 10000 1 0 15:39 26.03.2020
5966 Clear -9 1024 52 10000 1 0 15:20 26.03.2020
5967 Clear -8 1024 48 10000 2 0 14:55 26.03.2020
5968 Clear -7 1023 37 10000 4 340 14:36 26.03.2020
5969 Clouds -7 1023 37 10000 4 340 14:18 26.03.2020
5970 Clouds -7 1023 44 10000 5 320 13:40 26.03.2020
5971 Clouds -7 1023 44 10000 5 320 13:21 26.03.2020
5972 Clouds -6 1022 37 10000 6 330 12:54 26.03.2020
5973 Clouds -5 1022 29 10000 8 300 12:36 26.03.2020
5974 Clouds -4 1022 27 10000 8 300 12:18 26.03.2020
5975 Clouds -4 1022 27 10000 7 290 11:43 26.03.2020
5976 Clouds -3 1022 25 10000 7 290 11:19 26.03.2020
5977 Clouds -3 1022 21 10000 9 280 10:42 26.03.2020
5978 Clouds -3 1022 21 10000 9 280 10:42 26.03.2020
5979 Clouds -3 1022 21 10000 9 280 10:20 26.03.2020
5980 Clear -4 1022 23 10000 8 270 09:55 26.03.2020
5981 Clear -4 1022 23 10000 8 270 09:55 26.03.2020
5982 Clear -4 1022 23 10000 8 270 09:37 26.03.2020
5983 Clear -4 1022 23 10000 8 270 09:19 26.03.2020
5984 Clear -4 1023 25 10000 7 290 08:42 26.03.2020
5985 Clouds -4 1023 25 10000 8 300 08:24 26.03.2020
5986 Clouds -4 1023 25 10000 8 300 07:57 26.03.2020
5987 Clouds -5 1023 27 10000 8 280 07:38 26.03.2020
5988 Clouds -5 1023 27 10000 8 280 07:19 26.03.2020
5989 Clouds -6 1024 29 10000 7 290 06:33 26.03.2020
5990 Clouds -6 1025 26 10000 7 290 05:48 26.03.2020
5991 Clouds -9 1026 43 10000 7 290 03:46 26.03.2020
5992 Clouds -10 1026 61 10000 5 280 02:58 26.03.2020
5993 Clear -12 1026 60 10000 1 0 01:51 26.03.2020
5994 Clear -13 1025 60 10000 2.55 281 01:18 26.03.2020
5995 Clear -15 1025 65 10000 2.55 281 00:32 26.03.2020
5996 Clear -17 1024 64 10000 1 0 23:44 25.03.2020
5997 Clear -17 1024 64 10000 1 0 23:24 25.03.2020
5998 Clouds -17 1024 70 10000 2.42 287 22:54 25.03.2020
5999 Clouds -16 1024 65 10000 2.42 287 22:36 25.03.2020
6000 Clouds -16 1024 65 10000 2.42 287 22:18 25.03.2020
6001 Clouds -15 1023 60 10000 1 0 21:42 25.03.2020
6002 Clouds -15 1023 60 10000 1 0 21:24 25.03.2020
6003 Clouds -16 1023 65 10000 3 310 20:58 25.03.2020
6004 Clouds -16 1023 65 10000 3 310 20:38 25.03.2020
6005 Clouds -16 1023 65 10000 3 310 20:19 25.03.2020
6006 Clouds -15 1023 65 10000 2 330 19:55 25.03.2020
6007 Clouds -15 1023 65 10000 2 330 19:36 25.03.2020
6008 Clouds -15 1023 65 10000 2 330 19:18 25.03.2020
6009 Clouds -14 1023 65 10000 2 300 18:42 25.03.2020
6010 Clouds -14 1022 65 10000 2 0 18:24 25.03.2020
6011 Clouds -14 1022 65 10000 2 0 17:58 25.03.2020
6012 Clouds -14 1022 65 10000 2 0 17:58 25.03.2020
6013 Clouds -15 1022 71 10000 4 320 17:40 25.03.2020
6014 Clouds -14 1022 60 10000 3 340 17:21 25.03.2020
6015 Clouds -14 1022 60 10000 3 340 16:56 25.03.2020
6016 Clouds -14 1021 65 10000 2 330 16:38 25.03.2020
6017 Clouds -14 1021 65 10000 2 330 16:20 25.03.2020
6018 Clouds -14 1021 65 10000 2 310 15:42 25.03.2020
6019 Clouds -14 1021 65 10000 2 310 15:20 25.03.2020
6020 Clouds -13 1021 60 10000 3 340 14:56 25.03.2020
6021 Clouds -12 1020 51 10000 2 330 14:37 25.03.2020
6022 Clear -12 1020 51 10000 2 330 14:19 25.03.2020
6023 Clear -12 1020 51 10000 3 320 13:44 25.03.2020
6024 Clear -12 1020 51 10000 3 320 13:22 25.03.2020
6025 Clear -11 1019 47 10000 4 330 12:39 25.03.2020
6026 Clear -10 1018 40 10000 5 340 12:20 25.03.2020
6027 Clear -10 1018 40 10000 5 340 11:57 25.03.2020
6028 Clear -10 1018 40 10000 5 340 11:39 25.03.2020
6029 Clear -9 1018 33 10000 6 340 11:20 25.03.2020
6030 Clear -9 1018 33 10000 6 340 10:57 25.03.2020
6031 Clouds -9 1017 43 10000 7 340 10:39 25.03.2020
6032 Clouds -9 1017 43 10000 7 340 10:18 25.03.2020
6033 Clouds -8 1017 40 10000 8 360 09:43 25.03.2020
6034 Clouds -8 1017 37 10000 8 330 09:25 25.03.2020
6035 Clouds -9 1017 43 10000 8 350 08:58 25.03.2020
6036 Clouds -9 1017 47 10000 8 320 08:39 25.03.2020
6037 Clouds -9 1017 47 10000 8 320 08:20 25.03.2020
6038 Clouds -9 1017 43 10000 9 330 07:44 25.03.2020
6039 Clouds -9 1017 43 10000 9 330 07:24 25.03.2020
6040 Clouds -9 1017 43 10000 8 320 06:57 25.03.2020
6041 Clouds -9 1016 43 10000 9 320 06:37 25.03.2020
6042 Clouds -9 1016 40 10000 9 340 06:19 25.03.2020
6043 Clouds -9 1017 43 10000 8 330 05:42 25.03.2020
6044 Clouds -10 1016 47 10000 9 330 04:41 25.03.2020
6045 Clouds -10 1016 51 10000 9 340 03:53 25.03.2020
6046 Clouds -11 1015 56 10000 9 340 03:29 25.03.2020
6047 Clouds -12 1013 72 10000 10 330 01:39 25.03.2020
6048 Clouds -12 1012 72 10000 9 320 00:50 25.03.2020
6049 Clouds -12 1012 72 10000 9 320 00:26 25.03.2020
6050 Clouds -12 1012 78 10000 7 320 23:54 24.03.2020
6051 Clouds -11 1011 72 10000 5 340 23:28 24.03.2020
6052 Clouds -11 1011 72 10000 7 340 22:58 24.03.2020
6053 Snow -10 1009 72 10000 10 320 22:38 24.03.2020
6054 Snow -10 1009 72 10000 10 320 22:20 24.03.2020
6055 Clouds -9 1008 72 10000 7 320 21:58 24.03.2020
6056 Clouds -9 1008 72 10000 7 320 21:39 24.03.2020
6057 Clouds -9 1008 72 10000 7 320 21:18 24.03.2020
6058 Clouds -8 1007 72 10000 7 330 20:57 24.03.2020
6059 Clouds -8 1007 72 10000 7 330 20:39 24.03.2020
6060 Clouds -8 1007 72 10000 7 330 20:21 24.03.2020
6061 Clouds -8 1007 72 10000 7 330 19:46 24.03.2020
6062 Clouds -7 1007 67 10000 8 330 19:20 24.03.2020
6063 Clouds -7 1007 67 10000 8 330 18:56 24.03.2020
6064 Clouds -6 1007 79 10000 7 310 18:37 24.03.2020
6065 Clouds -6 1007 79 10000 7 310 18:19 24.03.2020
6066 Clouds -6 1007 79 10000 7 310 17:56 24.03.2020
6067 Clouds -5 1006 79 10000 5 300 17:37 24.03.2020
6068 Clouds -5 1006 79 10000 5 300 17:19 24.03.2020
6069 Clouds -5 1006 79 10000 5 300 16:54 24.03.2020
6070 Clouds -5 1006 79 10000 4 300 16:36 24.03.2020
6071 Clouds -5 1006 79 10000 4 300 16:36 24.03.2020
6072 Clouds -5 1006 79 10000 4 300 16:18 24.03.2020
6073 Clouds -3 1005 73 10000 7 340 15:42 24.03.2020
6074 Clouds -3 1005 73 10000 7 340 15:23 24.03.2020
6075 Clouds 0 1004 69 10000 5 340 14:44 24.03.2020
6076 Clouds 0 1004 64 10000 5 340 14:22 24.03.2020
6077 Clouds 1 1003 59 10000 5 340 13:58 24.03.2020
6078 Clouds 3 1002 51 10000 6 350 13:40 24.03.2020
6079 Clouds 3 1002 51 10000 6 350 13:21 24.03.2020
6080 Clouds 5 1000 48 8000 4 360 12:42 24.03.2020
6081 Clouds 5 1000 48 8000 4 360 12:24 24.03.2020
6082 Clouds 8 997 36 1500 13 290 11:41 24.03.2020
6083 Clouds 8 997 36 1500 13 290 11:21 24.03.2020
6084 Clouds 12 996 18 10000 6 200 10:59 24.03.2020
6085 Clouds 12 996 18 10000 3 240 10:40 24.03.2020
6086 Clouds 12 996 18 10000 3 240 10:18 24.03.2020
6087 Clouds 13 997 17 10000 7 260 09:46 24.03.2020
6088 Clouds 13 997 17 10000 7 260 09:27 24.03.2020
6089 Clouds 13 998 20 10000 6 240 08:57 24.03.2020
6090 Clouds 12 998 22 10000 6 230 08:38 24.03.2020
6091 Clouds 12 998 22 10000 6 230 08:19 24.03.2020
6092 Clouds 12 999 25 10000 6 240 07:44 24.03.2020
6093 Clouds 12 999 25 10000 6 240 07:22 24.03.2020
6094 Clouds 12 999 25 10000 6 240 07:22 24.03.2020
6095 Clouds 11 999 29 10000 5 220 06:42 24.03.2020
6096 Clouds 11 1000 25 10000 4 210 06:21 24.03.2020
6097 Clouds 10 1001 23 10000 3 180 04:52 24.03.2020
6098 Clouds 3 1002 51 10000 1 0 03:32 24.03.2020
6099 Clouds 2 1002 55 10000 2.23 142 02:44 24.03.2020
6100 Clouds -1 1003 68 10000 1 0 00:57 24.03.2020
6101 Clouds -1 1003 68 10000 1 0 00:28 24.03.2020
6102 Clouds -2 1004 74 10000 1.44 106 23:59 23.03.2020
6103 Clouds -2 1004 74 10000 1 0 23:38 23.03.2020
6104 Clouds -1 1004 68 10000 1 0 23:19 23.03.2020
6105 Clouds -1 1004 68 10000 1 0 22:45 23.03.2020
6106 Clouds -3 1005 79 10000 3 160 22:23 23.03.2020
6107 Clouds -3 1005 79 10000 3 160 21:55 23.03.2020
6108 Clouds -1 1005 68 10000 1 0 21:37 23.03.2020
6109 Clouds -1 1005 68 10000 1 0 21:19 23.03.2020
6110 Clouds -1 1006 74 10000 2 0 20:55 23.03.2020
6111 Clouds -1 1006 74 10000 2 0 20:36 23.03.2020
6112 Clouds -1 1006 74 10000 2 0 20:18 23.03.2020
6113 Clouds -1 1006 74 10000 2 0 20:18 23.03.2020
6114 Clouds -1 1007 74 10000 2 120 19:41 23.03.2020
6115 Clouds -1 1007 74 10000 2 120 19:22 23.03.2020
6116 Clouds -1 1007 74 10000 2 120 18:56 23.03.2020
6117 Clouds -1 1007 74 10000 1.39 85 18:38 23.03.2020
6118 Clouds -1 1007 74 10000 1.39 85 18:18 23.03.2020
6119 Clouds -1 1008 68 10000 1 0 17:41 23.03.2020
6120 Clear -1 1008 68 10000 1 0 17:20 23.03.2020
6121 Clear -1 1008 68 10000 1 0 16:55 23.03.2020
6122 Clear -2 1008 74 10000 1 0 16:36 23.03.2020
6123 Clear -2 1008 74 10000 1 0 16:18 23.03.2020
6124 Clear 0 1008 56 10000 1.41 76 15:40 23.03.2020
6125 Clear 0 1008 56 10000 1.41 76 15:19 23.03.2020
6126 Clear 2 1008 51 10000 1 0 14:38 23.03.2020
6127 Clouds 2 1008 51 10000 1 0 14:19 23.03.2020
6128 Clouds 2 1008 51 10000 2 0 13:57 23.03.2020
6129 Clouds 4 1008 41 10000 2 130 13:38 23.03.2020
6130 Clouds 4 1008 41 10000 2 130 13:38 23.03.2020
6131 Clouds 4 1008 41 10000 2 130 13:38 23.03.2020
6132 Clouds 4 1008 41 10000 2 130 13:20 23.03.2020
6133 Clouds 4 1008 51 10000 3 170 12:43 23.03.2020
6134 Clouds 4 1008 51 10000 3 170 12:43 23.03.2020
6135 Clouds 4 1008 51 10000 3 170 12:23 23.03.2020
6136 Clouds 8 1008 33 10000 3 200 11:56 23.03.2020
6137 Clouds 12 1008 20 10000 3 220 11:37 23.03.2020
6138 Clouds 14 1008 14 10000 4 220 11:19 23.03.2020
6139 Clouds 14 1008 14 10000 4 220 10:56 23.03.2020
6140 Clouds 15 1008 12 10000 4 230 10:36 23.03.2020
6141 Clouds 15 1008 12 10000 4 230 10:18 23.03.2020
6142 Clouds 15 1008 10 10000 3 250 09:42 23.03.2020
6143 Clouds 15 1008 10 10000 3 250 09:20 23.03.2020
6144 Clouds 15 1009 12 10000 2 0 08:40 23.03.2020
6145 Clouds 15 1009 12 10000 2 0 08:20 23.03.2020
6146 Clouds 15 1010 12 10000 3 270 07:58 23.03.2020
6147 Clouds 15 1010 12 10000 2 0 07:37 23.03.2020
6148 Clouds 14 1011 15 10000 1 0 07:18 23.03.2020
6149 Clouds 13 1011 16 10000 1 0 06:48 23.03.2020
6150 Clouds 10 1012 19 10000 1 0 05:45 23.03.2020
6151 Clear 7 1013 30 10000 1 0 04:41 23.03.2020
6152 Clear 4 1014 41 10000 1 0 03:23 23.03.2020
6153 Clear -3 1014 73 10000 1.85 101 01:50 23.03.2020
6154 Clear -9 1014 85 10000 1.82 98 00:50 23.03.2020
6155 Clear -9 1014 85 10000 1.82 98 00:31 23.03.2020
6156 Clear -8 1014 85 10000 1.82 98 23:45 22.03.2020
6157 Clear -8 1014 85 10000 1.82 98 23:25 22.03.2020
6158 Clear -8 1015 85 10000 1.83 99 22:44 22.03.2020
6159 Clear -8 1015 85 10000 1.83 99 22:22 22.03.2020
6160 Clear -8 1015 85 10000 1 0 21:55 22.03.2020
6161 Clear -8 1015 85 10000 1 0 21:36 22.03.2020
6162 Clear -8 1015 85 10000 1 0 21:18 22.03.2020
6163 Clear -7 1015 79 10000 1.83 99 20:45 22.03.2020
6164 Clear -7 1015 79 10000 1.78 100 20:25 22.03.2020
6165 Clear -5 1016 73 10000 1.63 97 19:58 22.03.2020
6166 Clear -5 1016 73 10000 1.63 97 19:39 22.03.2020
6167 Clear -5 1016 73 10000 1.63 97 19:20 22.03.2020
6168 Clear -5 1016 73 10000 1.63 97 18:58 22.03.2020
6169 Clear -6 1016 85 10000 1.63 97 18:40 22.03.2020
6170 Clear -6 1016 85 10000 1.63 97 18:21 22.03.2020
6171 Clear -6 1016 85 10000 1 0 17:57 22.03.2020
6172 Clear -4 1016 73 10000 1.63 97 17:38 22.03.2020
6173 Clear -4 1016 73 10000 1.45 86 17:20 22.03.2020
6174 Clear -2 1016 68 10000 1.45 86 16:57 22.03.2020
6175 Clear -2 1016 68 10000 1 0 16:39 22.03.2020
6176 Clear -2 1016 68 10000 1 0 16:20 22.03.2020
6177 Clear -2 1016 68 10000 1 0 16:20 22.03.2020
6178 Clear -3 1016 73 10000 1 0 15:40 22.03.2020
6179 Clear -3 1016 73 10000 1 0 15:21 22.03.2020
6180 Clear 0 1016 54 10000 2 180 14:46 22.03.2020
6181 Clear 1 1015 50 10000 2 0 14:19 22.03.2020
6182 Clear 0 1015 58 10000 4 170 13:44 22.03.2020
6183 Clear 0 1015 58 10000 4 170 13:20 22.03.2020
6184 Clear 1 1015 50 10000 4 170 12:59 22.03.2020
6185 Clear 2 1015 47 10000 4 160 12:41 22.03.2020
6186 Clear 6 1015 35 10000 2 170 12:19 22.03.2020
6187 Clear 9 1015 24 10000 2 190 11:43 22.03.2020
6188 Clear 9 1015 24 10000 2 190 11:43 22.03.2020
6189 Clear 9 1015 24 10000 2 190 11:25 22.03.2020
6190 Clear 10 1015 19 10000 3 210 10:58 22.03.2020
6191 Clear 11 1015 18 10000 4 220 10:40 22.03.2020
6192 Clear 11 1015 18 10000 4 220 10:22 22.03.2020
6193 Clear 11 1015 18 10000 4 220 10:22 22.03.2020
6194 Clear 11 1015 17 10000 4 210 09:46 22.03.2020
6195 Clear 11 1015 17 10000 4 210 09:46 22.03.2020
6196 Clear 11 1015 17 10000 4 210 09:27 22.03.2020
6197 Clear 10 1015 18 10000 3 190 08:48 22.03.2020
6198 Clear 10 1015 18 10000 3 190 08:48 22.03.2020
6199 Clear 9 1016 21 10000 3 220 08:30 22.03.2020
6200 Clear 9 1016 19 10000 4 220 07:55 22.03.2020
6201 Clear 9 1016 19 10000 4 220 07:37 22.03.2020
6202 Clear 8 1017 24 10000 2 0 06:48 22.03.2020
6203 Clear 7 1017 24 10000 2 0 05:52 22.03.2020
6204 Clear 2 1018 47 10000 1 0 04:39 22.03.2020
6205 Clear -4 1018 73 10000 0.56 87 01:47 22.03.2020
6206 Clear -9 1017 85 10000 0.55 81 00:50 22.03.2020
6207 Clear -9 1017 85 10000 0.55 81 00:31 22.03.2020
6208 Clear -10 1017 78 10000 0.55 81 23:46 21.03.2020
6209 Clear -10 1017 78 10000 0.55 81 23:22 21.03.2020
6210 Clear -10 1016 85 10000 1 0 22:58 21.03.2020
6211 Clear -9 1016 78 10000 0.57 88 22:38 21.03.2020
6212 Clear -9 1016 78 10000 0.57 88 22:19 21.03.2020
6213 Clear -8 1016 85 10000 0.57 88 21:58 21.03.2020
6214 Clear -8 1016 85 10000 0.57 88 21:38 21.03.2020
6215 Clear -8 1016 85 10000 0.57 88 21:19 21.03.2020
6216 Clear -7 1016 85 10000 0.57 88 20:42 21.03.2020
6217 Clear -7 1016 85 10000 0.35 72 20:22 21.03.2020
6218 Clear -5 1016 73 10000 0.4 109 19:55 21.03.2020
6219 Clear -5 1016 73 10000 0.4 109 19:36 21.03.2020
6220 Clear -5 1016 73 10000 0.4 109 19:18 21.03.2020
6221 Clear -6 1016 79 10000 0.4 109 18:41 21.03.2020
6222 Clear -6 1016 79 10000 0.4 109 18:21 21.03.2020
6223 Clear -6 1015 79 10000 2 150 17:58 21.03.2020
6224 Clear -6 1015 79 10000 2 150 17:40 21.03.2020
6225 Clear -6 1015 79 10000 2 150 17:22 21.03.2020
6226 Clear -6 1015 79 10000 2 150 17:22 21.03.2020
6227 Clear -5 1015 79 10000 1 0 16:42 21.03.2020
6228 Clear -5 1015 79 10000 1 0 16:23 21.03.2020
6229 Clear -4 1015 73 10000 3 170 15:59 21.03.2020
6230 Clear -4 1015 73 10000 3 170 15:40 21.03.2020
6231 Clear -4 1015 73 10000 3 170 15:21 21.03.2020
6232 Clear -4 1015 73 10000 2 180 14:56 21.03.2020
6233 Clear -1 1015 54 10000 1 0 14:37 21.03.2020
6234 Clear -1 1015 54 10000 1 0 14:19 21.03.2020
6235 Clear -1 1015 54 10000 1 0 13:57 21.03.2020
6236 Clear -1 1015 54 10000 1 0 13:57 21.03.2020
6237 Clear -4 1014 73 10000 1 0 13:38 21.03.2020
6238 Clear -4 1014 73 10000 1 0 13:38 21.03.2020
6239 Clear 0 1014 80 10000 1 0 13:20 21.03.2020
6240 Clear 0 1014 80 10000 2 320 12:41 21.03.2020
6241 Clear 3 1013 32 10000 4 300 12:21 21.03.2020
6242 Clear 3 1013 32 10000 4 300 11:59 21.03.2020
6243 Clear 5 1013 27 10000 6 310 11:39 21.03.2020
6244 Clear 5 1013 27 10000 7 310 11:20 21.03.2020
6245 Clear 5 1013 27 10000 7 310 11:20 21.03.2020
6246 Clear 5 1013 27 10000 7 310 10:58 21.03.2020
6247 Clear 5 1013 27 10000 7 310 10:58 21.03.2020
6248 Clear 5 1013 25 10000 8 300 10:40 21.03.2020
6249 Clear 5 1013 25 10000 8 300 10:22 21.03.2020
6250 Clouds 6 1013 24 10000 7 300 09:59 21.03.2020
6251 Clouds 6 1013 24 10000 7 300 09:39 21.03.2020
6252 Clouds 6 1013 24 10000 7 300 09:21 21.03.2020
6253 Clouds 6 1013 26 10000 7 300 08:56 21.03.2020
6254 Clouds 5 1013 25 10000 7 280 08:38 21.03.2020
6255 Clouds 5 1013 25 10000 7 280 08:19 21.03.2020
6256 Clouds 5 1013 25 10000 6 260 07:39 21.03.2020
6257 Clouds 5 1013 25 10000 6 260 07:20 21.03.2020
6258 Clouds 4 1014 27 10000 7 260 06:44 21.03.2020
6259 Clouds 4 1014 27 10000 7 260 06:25 21.03.2020
6260 Clear 3 1014 37 10000 5 250 05:40 21.03.2020
6261 Clear -1 1015 58 10000 1 0 04:26 21.03.2020
6262 Clear -7 1014 79 10000 1.78 256 02:37 21.03.2020
6263 Clear -8 1014 85 10000 0.52 111 01:45 21.03.2020
6264 Clouds -8 1014 85 10000 0.46 116 01:25 21.03.2020
6265 Clouds -10 1013 85 10000 0.46 116 00:39 21.03.2020
6266 Clouds -10 1013 85 10000 0.46 116 00:21 21.03.2020
6267 Clouds -11 1012 92 10000 1 0 23:43 20.03.2020
6268 Clouds -11 1012 92 10000 1 0 23:22 20.03.2020
6269 Clouds -9 1012 85 10000 1 0 22:44 20.03.2020
6270 Clouds -9 1012 85 10000 1 0 22:25 20.03.2020
6271 Clouds -11 1012 85 10000 1 0 21:58 20.03.2020
6272 Clouds -11 1012 85 10000 1 0 21:40 20.03.2020
6273 Clouds -11 1012 85 10000 1 0 21:20 20.03.2020
6274 Clouds -11 1012 85 10000 1 0 20:58 20.03.2020
6275 Clouds -8 1012 85 10000 1 0 20:40 20.03.2020
6276 Clouds -8 1012 85 10000 1 0 20:20 20.03.2020
6277 Clouds -8 1012 85 10000 1 0 19:48 20.03.2020
6278 Clouds -7 1012 79 10000 0.63 339 19:21 20.03.2020
6279 Clouds -7 1012 79 10000 0.63 339 18:58 20.03.2020
6280 Clouds -8 1011 85 10000 1 0 18:38 20.03.2020
6281 Clouds -8 1011 85 10000 1 0 18:20 20.03.2020
6282 Clouds -8 1011 85 10000 1 0 17:56 20.03.2020
6283 Clouds -7 1011 85 10000 0.63 339 17:37 20.03.2020
6284 Clouds -7 1011 85 10000 1.17 341 17:19 20.03.2020
6285 Clouds -7 1011 85 10000 2 180 16:42 20.03.2020
6286 Clouds -7 1011 85 10000 2 180 16:21 20.03.2020
6287 Clouds -6 1010 85 10000 1 0 15:55 20.03.2020
6288 Clouds -6 1010 85 10000 1 0 15:37 20.03.2020
6289 Clouds -6 1010 85 10000 1 0 15:18 20.03.2020
6290 Clouds -4 1010 73 10000 1 0 14:42 20.03.2020
6291 Clouds -4 1010 73 10000 1 0 14:21 20.03.2020
6292 Snow -4 1010 73 10000 1 0 13:49 20.03.2020
6293 Clouds -3 1009 73 10000 1 0 13:25 20.03.2020
6294 Clouds -2 1009 68 10000 2 340 12:58 20.03.2020
6295 Clouds -2 1008 68 10000 3 340 12:38 20.03.2020
6296 Clouds 0 1008 95 10000 5 320 12:20 20.03.2020
6297 Clouds 1 1007 40 10000 6 290 11:39 20.03.2020
6298 Clouds 1 1007 43 10000 6 270 11:21 20.03.2020
6299 Clouds 1 1007 43 10000 6 270 10:56 20.03.2020
6300 Clouds 1 1007 43 10000 3 250 10:38 20.03.2020
6301 Clouds 1 1007 43 10000 3 250 10:18 20.03.2020
6302 Clouds 1 1007 43 10000 3 250 10:18 20.03.2020
6303 Clouds 1 1007 43 10000 3 250 10:18 20.03.2020
6304 Clouds 1 1007 50 10000 2 0 09:45 20.03.2020
6305 Clouds 1 1007 55 10000 2 0 09:21 20.03.2020
6306 Clouds 1 1008 55 10000 2 0 08:57 20.03.2020
6307 Clouds 0 1008 87 10000 4 220 08:38 20.03.2020
6308 Clouds 0 1008 84 10000 4 220 08:18 20.03.2020
6309 Clouds 1 1008 47 10000 1 0 07:41 20.03.2020
6310 Clouds 1 1008 47 10000 1 0 07:23 20.03.2020
6311 Clouds 2 1009 43 10000 3 0 06:42 20.03.2020
6312 Clouds 0 1009 81 10000 1 0 06:18 20.03.2020
6313 Clouds -1 1010 58 10000 2 0 04:39 20.03.2020
6314 Clouds -4 1010 79 10000 0.99 203 02:51 20.03.2020
6315 Clouds -5 1010 85 10000 0.9 80 01:50 20.03.2020
6316 Clouds -9 1009 85 10000 0.89 74 00:45 20.03.2020
6317 Clouds -10 1009 85 10000 0.89 74 00:23 20.03.2020
6318 Clouds -10 1009 78 10000 0.89 74 23:42 19.03.2020
6319 Clouds -10 1009 85 10000 1 0 23:23 19.03.2020
6320 Clouds -7 1009 85 10000 1.24 20 22:41 19.03.2020
6321 Clouds -7 1009 85 10000 1.24 20 22:23 19.03.2020
6322 Clouds -7 1009 85 10000 1 0 21:58 19.03.2020
6323 Clouds -7 1009 85 10000 1 0 21:38 19.03.2020
6324 Clouds -7 1009 85 10000 1 0 21:20 19.03.2020
6325 Clouds -5 1009 85 10000 2 270 20:44 19.03.2020
6326 Clouds -5 1009 85 10000 2 270 20:25 19.03.2020
6327 Clear -6 1008 85 10000 1 0 19:59 19.03.2020
6328 Clear -6 1008 85 10000 1 0 19:39 19.03.2020
6329 Clear -6 1008 85 10000 1 0 19:21 19.03.2020
6330 Clear -6 1008 85 10000 1 0 18:58 19.03.2020
6331 Clear -5 1008 85 10000 1 0 18:40 19.03.2020
6332 Clear -5 1008 85 10000 1 0 18:22 19.03.2020
6333 Clear -5 1008 85 10000 3 310 17:54 19.03.2020
6334 Clear -5 1008 85 10000 3 310 17:36 19.03.2020
6335 Clear -5 1008 85 10000 3 310 17:18 19.03.2020
6336 Clear -3 1007 79 10000 4 340 16:41 19.03.2020
6337 Clear -3 1007 79 10000 4 340 16:21 19.03.2020
6338 Clear -3 1007 79 10000 4 320 15:42 19.03.2020
6339 Clear -3 1007 79 10000 4 320 15:23 19.03.2020
6340 Clear -2 1006 74 10000 2 320 14:43 19.03.2020
6341 Clear -2 1006 74 10000 3 330 14:23 19.03.2020
6342 Clouds -3 1006 68 10000 2 270 13:59 19.03.2020
6343 Clouds 0 1005 91 10000 2 340 13:37 19.03.2020
6344 Clouds -1 1005 54 10000 1 0 13:18 19.03.2020
6345 Clouds 0 1005 93 10000 2 0 12:41 19.03.2020
6346 Clouds 2 1004 34 10000 5 340 12:23 19.03.2020
6347 Clouds 3 1004 34 10000 7 350 11:58 19.03.2020
6348 Clouds 3 1004 34 10000 7 350 11:40 19.03.2020
6349 Clouds 3 1004 47 10000 5 340 11:22 19.03.2020
6350 Clouds 4 1004 48 10000 6 320 10:42 19.03.2020
6351 Clouds 4 1004 48 10000 6 320 10:21 19.03.2020
6352 Clouds 4 1004 55 10000 4 350 09:58 19.03.2020
6353 Clouds 4 1004 55 10000 4 350 09:38 19.03.2020
6354 Clouds 4 1004 55 10000 4 350 09:19 19.03.2020
6355 Clouds 3 1004 55 10000 4 350 08:46 19.03.2020
6356 Clouds 2 1004 59 10000 5 330 08:21 19.03.2020
6357 Clouds 2 1004 59 10000 5 330 07:47 19.03.2020
6358 Clouds 2 1004 55 10000 6 340 07:28 19.03.2020
6359 Clouds 3 1005 32 10000 1 0 06:51 19.03.2020
6360 Clouds 2 1005 34 10000 1 0 05:52 19.03.2020
6361 Clouds 1 1005 34 10000 1 0 05:19 19.03.2020
6362 Clouds 0 1006 58 10000 1 0 04:40 19.03.2020
6363 Clouds -3 1006 53 10000 1 0 03:20 19.03.2020
6364 Clouds -8 1007 67 10000 2.09 104 01:27 19.03.2020
6365 Clouds -10 1007 78 10000 2.01 105 00:37 19.03.2020
6366 Clouds -11 1007 78 10000 1 0 23:58 18.03.2020
6367 Clouds -11 1007 85 10000 2.01 105 23:36 18.03.2020
6368 Clear -10 1008 78 10000 1 90 23:18 18.03.2020
6369 Clear -10 1008 78 10000 1 0 22:42 18.03.2020
6370 Clear -10 1008 78 10000 1 0 22:22 18.03.2020
6371 Clear -10 1009 78 10000 2.22 99 21:54 18.03.2020
6372 Clear -10 1009 78 10000 2.22 99 21:36 18.03.2020
6373 Clear -10 1009 78 10000 2.22 99 21:18 18.03.2020
6374 Clear -10 1010 78 10000 1 0 20:41 18.03.2020
6375 Clear -10 1010 78 10000 1 0 20:21 18.03.2020
6376 Clear -9 1011 72 10000 2.19 104 19:58 18.03.2020
6377 Clear -9 1011 72 10000 2.19 104 19:40 18.03.2020
6378 Clear -9 1011 72 10000 2.19 104 19:21 18.03.2020
6379 Clear -9 1011 72 10000 2.19 104 19:21 18.03.2020
6380 Clear -9 1011 72 10000 2.19 104 19:21 18.03.2020
6381 Clear -9 1011 72 10000 2.19 104 18:54 18.03.2020
6382 Clear -9 1011 72 10000 2.19 104 18:36 18.03.2020
6383 Clear -9 1011 78 10000 1 0 18:18 18.03.2020
6384 Clear -8 1011 72 10000 2 250 17:41 18.03.2020
6385 Clear -8 1012 78 10000 1 0 17:22 18.03.2020
6386 Clear -8 1012 78 10000 1 0 16:59 18.03.2020
6387 Clouds -6 1013 67 10000 1 0 16:40 18.03.2020
6388 Clouds -6 1013 67 10000 1 0 16:20 18.03.2020
6389 Clouds -7 1013 73 10000 1 0 15:46 18.03.2020
6390 Clear -6 1013 67 10000 1 0 15:27 18.03.2020
6391 Clear -6 1013 67 10000 1 0 14:58 18.03.2020
6392 Clear -6 1014 67 10000 1 0 14:40 18.03.2020
6393 Clouds -6 1014 67 10000 1 0 14:20 18.03.2020
6394 Clouds -6 1014 73 10000 2 170 13:40 18.03.2020
6395 Clouds -4 1014 53 10000 1 0 13:19 18.03.2020
6396 Clouds -4 1014 53 10000 1 0 13:19 18.03.2020
6397 Clouds -3 1014 42 10000 1.16 3 12:42 18.03.2020
6398 Clouds -2 1014 39 10000 3 310 12:21 18.03.2020
6399 Clouds -2 1014 39 10000 3 310 12:21 18.03.2020
6400 Clouds -2 1014 39 10000 3 310 11:58 18.03.2020
6401 Clouds -1 1014 33 10000 4 310 11:37 18.03.2020
6402 Clouds 0 1014 77 10000 4 300 11:18 18.03.2020
6403 Clouds 0 1014 77 10000 4 300 10:55 18.03.2020
6404 Clouds 0 1015 77 10000 7 290 10:36 18.03.2020
6405 Clouds 0 1015 77 10000 7 290 10:18 18.03.2020
6406 Clouds 0 1015 77 10000 7 300 09:41 18.03.2020
6407 Clouds 0 1015 77 10000 7 300 09:22 18.03.2020
6408 Clouds 0 1015 77 10000 7 280 08:40 18.03.2020
6409 Clouds 0 1015 76 10000 7 280 08:22 18.03.2020
6410 Clouds 0 1015 79 10000 7 280 07:59 18.03.2020
6411 Clouds -1 1015 42 10000 7 270 07:37 18.03.2020
6412 Clouds -2 1016 42 10000 6 310 07:19 18.03.2020
6413 Clouds -1 1017 42 10000 7 290 06:39 18.03.2020
6414 Clouds -2 1017 46 10000 8 300 05:37 18.03.2020
6415 Clouds -3 1017 53 10000 9 330 04:38 18.03.2020
6416 Clouds -3 1017 49 10000 10 330 03:21 18.03.2020
6417 Clouds -6 1017 67 10000 5 320 02:37 18.03.2020
6418 Clouds -6 1017 67 10000 1 0 01:43 18.03.2020
6419 Clouds -6 1017 62 10000 1 0 00:45 18.03.2020
6420 Clouds -6 1016 62 10000 2 0 00:21 18.03.2020
6421 Clouds -6 1016 57 10000 2 0 23:42 17.03.2020
6422 Clouds -6 1015 57 10000 2 0 23:21 17.03.2020
6423 Clouds -5 1014 57 10000 3 350 22:45 17.03.2020
6424 Clouds -5 1014 57 10000 3 350 22:26 17.03.2020
6425 Clouds -4 1013 68 10000 4 20 21:44 17.03.2020
6426 Clouds -4 1013 68 10000 4 20 21:25 17.03.2020
6427 Snow -4 1012 73 10000 9 360 20:58 17.03.2020
6428 Snow -4 1012 73 10000 9 360 20:38 17.03.2020
6429 Snow -4 1012 73 10000 9 360 20:19 17.03.2020
6430 Clouds -2 1010 68 10000 7 350 19:42 17.03.2020
6431 Clouds -2 1010 68 10000 7 350 19:19 17.03.2020
6432 Clouds -2 1010 68 10000 7 350 18:57 17.03.2020
6433 Snow -2 1009 74 10000 8 360 18:39 17.03.2020
6434 Snow -2 1009 74 10000 8 360 18:21 17.03.2020
6435 Snow -2 1009 74 10000 8 360 17:56 17.03.2020
6436 Clouds -1 1007 80 10000 7 340 17:37 17.03.2020
6437 Clouds -1 1007 80 10000 7 340 17:18 17.03.2020
6438 Clouds 0 1007 94 10000 7 320 16:41 17.03.2020
6439 Clouds 0 1007 94 10000 7 320 16:19 17.03.2020
6440 Clouds 2 1005 59 10000 5 350 15:45 17.03.2020
6441 Clouds 2 1005 59 10000 5 350 15:22 17.03.2020
6442 Clouds 5 1004 38 10000 6 300 14:44 17.03.2020
6443 Clouds 5 1004 35 10000 6 240 14:26 17.03.2020
6444 Clouds 3 1004 47 10000 5 230 13:58 17.03.2020
6445 Clouds 3 1004 47 10000 5 230 13:39 17.03.2020
6446 Clouds 3 1004 47 10000 5 230 13:21 17.03.2020
6447 Clouds 4 1004 41 10000 5 240 12:44 17.03.2020
6448 Clouds 4 1004 41 10000 5 240 12:24 17.03.2020
6449 Clouds 7 1005 30 10000 6 280 11:48 17.03.2020
6450 Clouds 7 1005 30 10000 6 280 11:30 17.03.2020
6451 Clouds 7 1005 30 10000 4 290 10:59 17.03.2020
6452 Clouds 7 1005 30 10000 4 290 10:59 17.03.2020
6453 Clouds 8 1005 28 10000 3 300 10:40 17.03.2020
6454 Clouds 8 1005 28 10000 3 300 10:22 17.03.2020
6455 Clouds 8 1005 28 10000 3 300 10:22 17.03.2020
6456 Clouds 9 1006 24 10000 2 0 09:59 17.03.2020
6457 Clouds 9 1006 24 10000 2 0 09:41 17.03.2020
6458 Clouds 9 1006 24 10000 2 0 09:20 17.03.2020
6459 Clouds 9 1006 24 10000 2 0 09:20 17.03.2020
6460 Clouds 9 1006 24 10000 3 280 08:50 17.03.2020
6461 Clouds 9 1006 24 10000 6 270 08:23 17.03.2020
6462 Clouds 7 1007 33 10000 5 210 07:57 17.03.2020
6463 Clouds 7 1007 33 10000 5 210 07:38 17.03.2020
6464 Clouds 7 1008 30 10000 3 230 07:19 17.03.2020
6465 Clouds 5 1009 38 10000 2 0 06:39 17.03.2020
6466 Clouds 5 1009 41 10000 2 0 05:58 17.03.2020
6467 Clouds -2 1011 68 8000 1.72 257 03:58 17.03.2020
6468 Clouds -4 1011 73 8000 1.72 257 02:56 17.03.2020
6469 Clouds -6 1012 85 10000 0.62 149 01:49 17.03.2020
6470 Clouds -6 1012 85 10000 0.62 149 01:25 17.03.2020
6471 Clear -8 1012 85 10000 0.65 156 00:47 17.03.2020
6472 Clear -9 1012 85 10000 0.65 156 23:51 16.03.2020
6473 Clear -9 1012 85 10000 0.65 156 23:32 16.03.2020
6474 Clear -8 1012 85 10000 1 0 22:43 16.03.2020
6475 Clear -8 1012 85 10000 1 0 22:25 16.03.2020
6476 Clear -7 1013 85 10000 1 0 21:59 16.03.2020
6477 Clear -7 1013 85 10000 1 0 21:40 16.03.2020
6478 Clear -7 1013 85 10000 1 0 21:22 16.03.2020
6479 Clear -7 1013 85 10000 1 0 20:56 16.03.2020
6480 Clear -7 1014 85 10000 0.98 113 20:38 16.03.2020
6481 Clear -7 1014 85 10000 0.85 160 20:19 16.03.2020
6482 Clear -6 1014 85 10000 0.95 154 19:41 16.03.2020
6483 Clear -6 1014 85 10000 0.95 154 19:21 16.03.2020
6484 Clear -6 1014 85 10000 0.95 154 18:56 16.03.2020
6485 Clear -5 1014 85 10000 1 0 18:37 16.03.2020
6486 Clear -5 1014 85 10000 1 0 18:18 16.03.2020
6487 Clear -4 1015 85 10000 0.95 154 17:42 16.03.2020
6488 Clear -4 1015 85 10000 0.95 154 17:22 16.03.2020
6489 Clear -4 1015 85 10000 0.14 173 16:45 16.03.2020
6490 Clear -3 1015 79 10000 1 0 16:27 16.03.2020
6491 Clear -3 1016 79 10000 0.14 173 15:56 16.03.2020
6492 Clear -3 1016 79 10000 0.14 173 15:37 16.03.2020
6493 Clear -3 1016 79 10000 0.14 173 15:18 16.03.2020
6494 Clear -3 1017 79 10000 1 0 14:39 16.03.2020
6495 Clouds -3 1017 79 10000 1 0 14:19 16.03.2020
6496 Clouds -2 1017 74 10000 2 180 13:41 16.03.2020
6497 Clouds -2 1017 74 10000 2 180 13:22 16.03.2020
6498 Clouds -2 1017 74 10000 0.95 291 12:45 16.03.2020
6499 Clouds -2 1017 74 10000 0.95 291 12:26 16.03.2020
6500 Clouds 4 1017 38 10000 0.95 291 11:56 16.03.2020
6501 Clouds 5 1017 35 10000 4 320 11:37 16.03.2020
6502 Clouds 5 1017 32 10000 6 300 11:18 16.03.2020
6503 Clouds 6 1017 33 10000 7 320 10:40 16.03.2020
6504 Clouds 6 1017 33 10000 7 320 10:19 16.03.2020
6505 Clouds 6 1017 33 10000 7 300 09:42 16.03.2020
6506 Clouds 6 1017 33 10000 7 300 09:24 16.03.2020
6507 Clouds 6 1017 30 10000 6 300 08:53 16.03.2020
6508 Clouds 6 1017 30 10000 7 310 08:25 16.03.2020
6509 Clouds 6 1017 30 10000 7 310 07:49 16.03.2020
6510 Clouds 5 1017 32 10000 7 290 07:25 16.03.2020
6511 Clouds 5 1018 32 10000 7 300 06:54 16.03.2020
6512 Clouds 5 1018 32 10000 7 310 06:25 16.03.2020
6513 Clouds 5 1018 32 10000 7 290 05:42 16.03.2020
6514 Clouds 2 1018 43 10000 5 290 02:44 16.03.2020
6515 Clouds -2 1017 54 10000 2 0 01:20 16.03.2020
6516 Clouds -4 1017 62 10000 1 0 00:39 16.03.2020
6517 Clouds -4 1017 62 10000 1 0 00:39 16.03.2020
6518 Clouds -2 1016 54 10000 2 0 23:47 15.03.2020
6519 Clouds -5 1016 67 10000 3 130 23:20 15.03.2020
6520 Clouds -3 1015 58 10000 1.6 266 22:43 15.03.2020
6521 Clouds -3 1015 58 10000 1.6 266 22:23 15.03.2020
6522 Clouds -1 1015 54 10000 1.6 266 21:58 15.03.2020
6523 Clouds -1 1015 54 10000 1.6 266 21:38 15.03.2020
6524 Clouds -1 1015 54 10000 1.6 266 21:18 15.03.2020
6525 Clouds -2 1015 58 10000 2 230 20:42 15.03.2020
6526 Clouds -2 1015 58 10000 2 230 20:21 15.03.2020
6527 Clouds -3 1015 68 10000 2 160 19:58 15.03.2020
6528 Clouds -3 1015 68 10000 2 160 19:39 15.03.2020
6529 Clouds -3 1015 68 10000 2 160 19:20 15.03.2020
6530 Clouds -3 1015 68 10000 2 160 19:20 15.03.2020
6531 Clouds -5 1015 73 10000 2 0 18:55 15.03.2020
6532 Clouds -5 1015 73 10000 2 0 18:37 15.03.2020
6533 Clouds -5 1015 73 10000 2 0 18:19 15.03.2020
6534 Clouds -4 1015 68 10000 1 0 17:41 15.03.2020
6535 Clouds -4 1015 68 10000 1 0 17:21 15.03.2020
6536 Clear -4 1015 68 10000 1 0 16:58 15.03.2020
6537 Clear -3 1015 63 10000 3 170 16:39 15.03.2020
6538 Clear -3 1015 63 10000 3 170 16:21 15.03.2020
6539 Clear -3 1015 68 10000 3 200 15:46 15.03.2020
6540 Clear -3 1015 68 10000 3 200 15:28 15.03.2020
6541 Clear 0 1014 86 10000 3 190 14:58 15.03.2020
6542 Clear 0 1014 86 10000 3 190 14:38 15.03.2020
6543 Clear 0 1014 89 10000 3 190 14:19 15.03.2020
6544 Clear 0 1014 89 10000 4 330 13:54 15.03.2020
6545 Clear 0 1014 89 10000 4 330 13:36 15.03.2020
6546 Clear 0 1014 91 10000 4 330 13:18 15.03.2020
6547 Clear 0 1014 89 10000 4 330 13:18 15.03.2020
6548 Clear 1 1013 50 10000 7 290 12:39 15.03.2020
6549 Clear 1 1013 50 10000 7 290 12:21 15.03.2020
6550 Clear 1 1013 50 10000 7 290 12:21 15.03.2020
6551 Clear 3 1013 40 10000 7 290 11:43 15.03.2020
6552 Clear 3 1013 40 10000 7 290 11:24 15.03.2020
6553 Clear 4 1013 35 10000 9 290 10:57 15.03.2020
6554 Clouds 5 1012 32 10000 8 290 10:39 15.03.2020
6555 Clouds 5 1012 32 10000 8 290 10:21 15.03.2020
6556 Clouds 5 1012 32 10000 9 290 09:42 15.03.2020
6557 Clouds 5 1012 32 10000 9 290 09:23 15.03.2020
6558 Clear 4 1013 38 10000 7 280 08:58 15.03.2020
6559 Clear 4 1013 38 10000 3 180 08:40 15.03.2020
6560 Clear 4 1013 38 10000 3 180 08:40 15.03.2020
6561 Clouds 4 1013 38 10000 3 180 08:18 15.03.2020
6562 Clouds 3 1013 47 10000 5 220 07:44 15.03.2020
6563 Clouds 2 1013 47 10000 4 220 06:59 15.03.2020
6564 Clouds 1 1014 47 10000 4 220 06:35 15.03.2020
6565 Clouds 2 1014 47 10000 1 0 05:46 15.03.2020
6566 Clouds -1 1014 63 10000 2 0 04:49 15.03.2020
6567 Clouds -3 1015 63 10000 1 0 04:29 15.03.2020
6568 Clouds -5 1015 73 10000 1 0 03:55 15.03.2020
6569 Clouds -7 1015 73 10000 1.31 210 02:48 15.03.2020
6570 Clouds -10 1016 78 10000 1 0 01:56 15.03.2020
6571 Clouds -15 1016 84 10000 2.11 103 00:51 15.03.2020
6572 Clouds -15 1016 84 10000 2.11 103 00:28 15.03.2020
6573 Clouds -13 1016 78 10000 1 0 23:58 14.03.2020
6574 Clouds -13 1016 84 10000 1 0 23:37 14.03.2020
6575 Clouds -15 1016 84 10000 2 170 23:19 14.03.2020
6576 Clouds -15 1016 84 10000 2 170 22:46 14.03.2020
6577 Clouds -14 1016 84 10000 1.91 103 22:27 14.03.2020
6578 Clouds -14 1016 84 10000 2 190 21:57 14.03.2020
6579 Clouds -14 1016 84 10000 2 190 21:37 14.03.2020
6580 Clouds -14 1016 84 10000 2 190 21:19 14.03.2020
6581 Clouds -14 1016 84 10000 2 190 21:19 14.03.2020
6582 Clouds -12 1017 78 10000 2 150 20:59 14.03.2020
6583 Clouds -12 1017 78 10000 2 150 20:41 14.03.2020
6584 Clear -12 1017 78 10000 2 150 20:20 14.03.2020
6585 Clear -10 1017 85 10000 1.14 102 19:59 14.03.2020
6586 Clear -10 1017 85 10000 1.14 102 19:40 14.03.2020
6587 Clear -10 1017 85 10000 1.14 102 19:20 14.03.2020
6588 Clear -8 1018 72 10000 1.14 102 18:39 14.03.2020
6589 Clear -8 1018 72 10000 1.14 102 18:19 14.03.2020
6590 Clear -7 1018 73 10000 1 0 17:40 14.03.2020
6591 Clear -7 1018 73 10000 1 0 17:21 14.03.2020
6592 Clear -4 1018 62 10000 1 0 16:42 14.03.2020
6593 Clear -4 1018 62 10000 1 0 16:24 14.03.2020
6594 Clear -4 1018 62 10000 1 0 15:59 14.03.2020
6595 Clear -4 1019 68 10000 2 0 15:27 14.03.2020
6596 Clear -4 1019 68 10000 2 0 14:59 14.03.2020
6597 Clear -5 1019 73 10000 2 0 14:37 14.03.2020
6598 Clear -5 1019 73 10000 2 0 14:19 14.03.2020
6599 Clear -5 1019 73 10000 2 0 13:54 14.03.2020
6600 Clear -4 1019 73 10000 3 160 13:36 14.03.2020
6601 Clear -3 1019 73 10000 1 0 13:18 14.03.2020
6602 Clear -2 1019 68 10000 3 160 12:42 14.03.2020
6603 Clear 2 1019 47 10000 2 260 12:23 14.03.2020
6604 Clear 2 1018 51 10000 4 260 11:43 14.03.2020
6605 Clear 2 1018 51 10000 4 260 11:43 14.03.2020
6606 Clear 3 1018 47 10000 4 250 11:25 14.03.2020
6607 Clear 3 1018 44 10000 3 270 10:47 14.03.2020
6608 Clear 3 1018 44 10000 3 270 10:47 14.03.2020
6609 Clear 3 1018 44 10000 3 270 10:28 14.03.2020
6610 Clear 3 1019 47 10000 4 310 09:59 14.03.2020
6611 Clear 3 1019 47 10000 4 300 09:40 14.03.2020
6612 -273 0 0 0 0 0 09:21 14.03.2020
6613 Clear 2 1019 47 10000 5 300 08:46 14.03.2020
6614 Clear 2 1020 40 10000 4 280 08:26 14.03.2020
6615 Clear 1 1020 47 10000 5 270 07:40 14.03.2020
6616 Clear 1 1020 47 10000 5 270 07:21 14.03.2020
6617 Clear 1 1020 47 10000 5 280 06:55 14.03.2020
6618 Clear 1 1021 43 10000 2 0 06:34 14.03.2020
6619 Clear -1 1022 54 10000 1 0 04:55 14.03.2020
6620 Clear -7 1022 73 10000 5 180 03:34 14.03.2020
6621 Clear -9 1022 66 10000 2.93 282 02:48 14.03.2020
6622 Clear -14 1022 77 10000 1.77 281 01:46 14.03.2020
6623 Clear -16 1021 77 10000 2 130 00:34 14.03.2020
6624 Clear -16 1021 77 10000 1 0 23:42 13.03.2020
6625 Clear -16 1021 77 10000 1 0 23:23 13.03.2020
6626 Clear -15 1021 84 10000 0.77 264 22:44 13.03.2020
6627 Clear -15 1021 84 10000 0.77 264 22:22 13.03.2020
6628 Clear -17 1020 77 10000 1 0 21:41 13.03.2020
6629 Clear -17 1020 77 10000 1 0 21:19 13.03.2020
6630 Clear -16 1021 71 10000 1 0 20:43 13.03.2020
6631 Clear -16 1021 71 10000 1 0 20:23 13.03.2020
6632 Clear -16 1021 71 10000 1 0 19:58 13.03.2020
6633 Clear -15 1021 65 10000 1 0 19:39 13.03.2020
6634 Clear -15 1021 65 10000 1 0 19:19 13.03.2020
6635 Clear -12 1021 66 10000 2 0 18:43 13.03.2020
6636 Clear -12 1021 66 10000 2 0 18:23 13.03.2020
6637 Clear -15 1022 77 10000 2 0 17:43 13.03.2020
6638 -273 0 0 0 0 0 17:21 13.03.2020
6639 Clear -15 1022 77 10000 2 0 16:57 13.03.2020
6640 Clear -14 1022 71 10000 2 170 16:38 13.03.2020
6641 Clear -14 1022 71 10000 2 170 16:20 13.03.2020
6642 Clear -13 1022 71 10000 3 150 15:45 13.03.2020
6643 Clear -13 1022 71 10000 3 150 15:22 13.03.2020
6644 Clear -13 1022 71 10000 4 170 14:58 13.03.2020
6645 Clear -13 1022 71 10000 4 170 14:40 13.03.2020
6646 Clear -13 1022 71 10000 4 170 14:21 13.03.2020
6647 Clear -11 1021 66 10000 1 0 13:42 13.03.2020
6648 Clear -11 1021 66 10000 1 0 13:24 13.03.2020
6649 Clear -9 1021 66 10000 0.99 306 12:59 13.03.2020
6650 Clear -6 1021 62 10000 1 0 12:38 13.03.2020
6651 Clear -6 1021 62 10000 1 0 12:38 13.03.2020
6652 Clear -5 1021 57 10000 1 0 12:20 13.03.2020
6653 Clear -4 1021 58 10000 4 290 11:56 13.03.2020
6654 Clear -4 1021 58 10000 4 290 11:36 13.03.2020
6655 Clear -3 1021 53 10000 5 300 11:18 13.03.2020
6656 Clear -3 1021 53 10000 1 0 10:46 13.03.2020
6657 Clear -3 1021 53 10000 1 0 10:26 13.03.2020
6658 Clear -3 1021 53 10000 1 0 09:49 13.03.2020
6659 Clear -4 1021 58 10000 2 200 09:30 13.03.2020
6660 Clear -4 1022 53 10000 3 190 08:59 13.03.2020
6661 Clear -4 1022 53 10000 3 190 08:41 13.03.2020
6662 Clear -4 1022 53 10000 3 190 08:22 13.03.2020
6663 Clouds -5 1022 49 10000 2 0 07:44 13.03.2020
6664 Clouds -5 1022 49 10000 2 0 07:25 13.03.2020
6665 Clear -7 1023 57 10000 4 210 06:46 13.03.2020
6666 Clear -7 1024 52 10000 3 220 06:23 13.03.2020
6667 Clear -8 1024 57 10000 4 220 05:46 13.03.2020
6668 Clear -8 1024 57 10000 3 230 04:57 13.03.2020
6669 Clear -10 1024 56 10000 1.84 257 04:26 13.03.2020
6670 Clear -13 1024 60 10000 1.84 257 02:43 13.03.2020
6671 Clear -23 1023 76 10000 1 0 01:37 13.03.2020
6672 Clear -23 1023 76 10000 1 0 01:18 13.03.2020
6673 Clear -22 1023 76 10000 1 0 00:41 13.03.2020
6674 Clear -23 1023 76 10000 2 160 00:19 13.03.2020
6675 Clear -21 1023 70 10000 0.59 317 23:39 12.03.2020
6676 Clear -24 1022 76 10000 1 0 23:19 12.03.2020
6677 Clear -24 1022 76 10000 1 0 22:46 12.03.2020
6678 Clear -21 1022 70 10000 1 0 22:28 12.03.2020
6679 Clear -20 1022 76 10000 1 0 21:57 12.03.2020
6680 Clear -20 1022 76 10000 1 0 21:39 12.03.2020
6681 Clear -20 1022 76 10000 1 0 21:20 12.03.2020
6682 Clear -20 1022 70 10000 1 0 20:42 12.03.2020
6683 Clouds -20 1022 70 10000 1 0 20:20 12.03.2020
6684 Clouds -20 1022 70 10000 1 0 19:56 12.03.2020
6685 Clouds -17 1023 70 10000 1 0 19:37 12.03.2020
6686 Clouds -17 1023 70 10000 1 0 19:18 12.03.2020
6687 Clouds -19 1034 92 0 0.14 314 18:41 12.03.2020
6688 Clouds -16 1023 71 10000 2 150 18:22 12.03.2020
6689 Clouds -16 1023 71 10000 2 150 17:56 12.03.2020
6690 Clouds -16 1023 71 10000 2 150 17:37 12.03.2020
6691 Clouds -16 1023 71 10000 2 150 17:18 12.03.2020
6692 Clouds -16 1023 71 10000 2 170 16:41 12.03.2020
6693 Clouds -16 1023 71 10000 2 170 16:22 12.03.2020
6694 Clouds -15 1024 71 10000 1 0 15:49 12.03.2020
6695 Clouds -15 1024 71 10000 1 0 15:28 12.03.2020
6696 Clouds -14 1024 71 10000 1 0 14:56 12.03.2020
6697 Clouds -14 1024 71 10000 1 0 14:56 12.03.2020
6698 Clouds -15 1024 71 10000 4 180 14:37 12.03.2020
6699 Clouds -15 1024 71 10000 4 180 14:18 12.03.2020
6700 Clouds -15 1024 71 10000 3 180 13:40 12.03.2020
6701 Clouds -15 1024 71 10000 3 180 13:21 12.03.2020
6702 Clouds -14 1024 65 10000 3 190 12:55 12.03.2020
6703 Clouds -14 1024 65 10000 3 190 12:55 12.03.2020
6704 Clouds -13 1024 65 10000 3 200 12:37 12.03.2020
6705 Clouds -13 1024 65 10000 3 200 12:37 12.03.2020
6706 Clouds -13 1024 65 10000 3 200 12:37 12.03.2020
6707 Clouds -11 1024 61 10000 3 220 12:18 12.03.2020
6708 Clouds -11 1024 61 10000 3 220 12:18 12.03.2020
6709 Clouds -11 1024 61 10000 3 220 11:55 12.03.2020
6710 Clouds -8 1024 57 10000 4 260 11:36 12.03.2020
6711 Clouds -8 1023 57 10000 4 270 11:18 12.03.2020
6712 Clouds -7 1024 57 10000 5 290 10:43 12.03.2020
6713 Clouds -7 1024 57 10000 5 290 10:23 12.03.2020
6714 Clouds -7 1024 52 10000 5 290 09:55 12.03.2020
6715 Clouds -7 1024 52 10000 5 290 09:37 12.03.2020
6716 Clouds -7 1024 52 10000 5 290 09:19 12.03.2020
6717 Clouds -8 1024 67 10000 4 210 08:38 12.03.2020
6718 Clouds -8 1024 67 10000 4 210 08:18 12.03.2020
6719 Clouds -9 1025 66 10000 2 0 07:47 12.03.2020
6720 Clouds -10 1025 66 10000 3 210 07:22 12.03.2020
6721 Clouds -10 1026 61 10000 2 240 06:26 12.03.2020
6722 Clouds -12 1026 66 10000 4 240 05:35 12.03.2020
6723 Clouds -16 1027 77 10000 1 0 03:44 12.03.2020
6724 Clear -23 1027 83 10000 1 0 01:58 12.03.2020
6725 Clear -23 1027 83 10000 1 0 01:23 12.03.2020
6726 Clear -24 1026 83 10000 1 0 00:42 12.03.2020
6727 Clear -25 1026 75 10000 1 0 23:58 11.03.2020
6728 Clear -27 1026 75 10000 3 160 23:29 11.03.2020
6729 Clear -25 1025 75 10000 3 160 22:59 11.03.2020
6730 Clear -26 1025 75 10000 2 200 22:40 11.03.2020
6731 Clear -26 1025 75 10000 2 200 22:21 11.03.2020
6732 Clear -22 1025 76 10000 1 0 21:58 11.03.2020
6733 Clear -22 1025 76 10000 1 0 21:39 11.03.2020
6734 Clear -22 1025 76 10000 1 0 21:21 11.03.2020
6735 Clear -24 1024 76 10000 2 170 20:56 11.03.2020
6736 Clear -24 1024 76 10000 2 170 20:37 11.03.2020
6737 Clear -24 1024 76 10000 2 170 20:19 11.03.2020
6738 Clear -21 1024 76 10000 2 0 19:42 11.03.2020
6739 Clear -21 1024 76 10000 2 0 19:24 11.03.2020
6740 Clear -21 1024 76 10000 2 0 18:57 11.03.2020
6741 Clear -21 1023 76 10000 3 170 18:37 11.03.2020
6742 Clear -21 1023 76 10000 3 170 18:18 11.03.2020
6743 Clear -21 1023 76 10000 3 170 17:55 11.03.2020
6744 Clear -16 1023 84 10000 1.73 350 17:37 11.03.2020
6745 Clear -16 1023 84 10000 2.03 336 17:18 11.03.2020
6746 Clear -16 1023 77 10000 2.03 336 16:43 11.03.2020
6747 Clear -16 1023 77 10000 2.03 336 16:19 11.03.2020
6748 Clear -13 1022 78 10000 3 340 15:43 11.03.2020
6749 Clear -13 1022 78 10000 3 340 15:23 11.03.2020
6750 Clear -13 1022 78 10000 3 340 15:23 11.03.2020
6751 Clear -12 1021 72 10000 2 0 14:46 11.03.2020
6752 Clear -11 1021 72 10000 4 350 14:25 11.03.2020
6753 Clouds -11 1020 66 10000 5 350 13:59 11.03.2020
6754 Clouds -11 1020 66 10000 5 350 13:40 11.03.2020
6755 Clouds -11 1020 66 10000 5 350 13:22 11.03.2020
6756 Clouds -11 1020 66 10000 4 340 12:56 11.03.2020
6757 Clouds -11 1019 66 10000 5 340 12:37 11.03.